<?xml version='1.0' encoding='UTF-8'?><gpx version="1.1" creator="JPX - https://github.com/jenetics/jpx" xmlns="http://www.topografix.com/GPX/1/1"><trk><trkseg><trkpt lat="36.92402322225728" lon="15.156900597737794"><ele>21.0</ele><time>2026-04-17T07:02:00Z</time></trkpt><trkpt lat="36.92409349569935" lon="15.15686991256188"><ele>21.0</ele><time>2026-04-17T07:02:16Z</time></trkpt><trkpt lat="36.92407317434459" lon="15.156788559954315"><ele>21.0</ele><time>2026-04-17T07:02:17Z</time></trkpt><trkpt lat="36.924017068560346" lon="15.156702109277614"><ele>21.0</ele><time>2026-04-17T07:02:18Z</time></trkpt><trkpt lat="36.92395905606123" lon="15.156619455034317"><ele>21.0</ele><time>2026-04-17T07:02:19Z</time></trkpt><trkpt lat="36.923905384819165" lon="15.156524437264556"><ele>21.0</ele><time>2026-04-17T07:02:20Z</time></trkpt><trkpt lat="36.92384251172451" lon="15.156420718776962"><ele>21.200000000000003</ele><time>2026-04-17T07:02:21Z</time></trkpt><trkpt lat="36.92377613356863" lon="15.156303505269571"><ele>21.400000000000002</ele><time>2026-04-17T07:02:22Z</time></trkpt><trkpt lat="36.92370605331789" lon="15.156191048567898"><ele>21.6</ele><time>2026-04-17T07:02:23Z</time></trkpt><trkpt lat="36.92365793340215" lon="15.156077753081577"><ele>21.8</ele><time>2026-04-17T07:02:24Z</time></trkpt><trkpt lat="36.923609278834356" lon="15.155989911479102"><ele>22.0</ele><time>2026-04-17T07:02:25Z</time></trkpt><trkpt lat="36.92356575409076" lon="15.155911331324575"><ele>22.0</ele><time>2026-04-17T07:02:26Z</time></trkpt><trkpt lat="36.923523463016224" lon="15.155834979606105"><ele>22.0</ele><time>2026-04-17T07:02:27Z</time></trkpt><trkpt lat="36.923462612803355" lon="15.155777698557793"><ele>22.0</ele><time>2026-04-17T07:02:28Z</time></trkpt><trkpt lat="36.923413675060175" lon="15.155716673710781"><ele>22.0</ele><time>2026-04-17T07:02:29Z</time></trkpt><trkpt lat="36.92335053852587" lon="15.155644701070644"><ele>22.0</ele><time>2026-04-17T07:02:30Z</time></trkpt><trkpt lat="36.92328759288896" lon="15.155529918378711"><ele>22.0</ele><time>2026-04-17T07:02:31Z</time></trkpt><trkpt lat="36.92322798264745" lon="15.155414689820233"><ele>21.25</ele><time>2026-04-17T07:02:32Z</time></trkpt><trkpt lat="36.92315549183723" lon="15.155288843844701"><ele>20.5</ele><time>2026-04-17T07:02:33Z</time></trkpt><trkpt lat="36.9230991683156" lon="15.15513532468532"><ele>19.75</ele><time>2026-04-17T07:02:34Z</time></trkpt><trkpt lat="36.92302323365744" lon="15.155001140459616"><ele>19.0</ele><time>2026-04-17T07:02:35Z</time></trkpt><trkpt lat="36.922951173061634" lon="15.154873844604017"><ele>19.25</ele><time>2026-04-17T07:02:36Z</time></trkpt><trkpt lat="36.92288651163748" lon="15.15475961946754"><ele>19.5</ele><time>2026-04-17T07:02:37Z</time></trkpt><trkpt lat="36.92281900356958" lon="15.154639248723"><ele>19.75</ele><time>2026-04-17T07:02:38Z</time></trkpt><trkpt lat="36.922752398530854" lon="15.15451678686556"><ele>20.0</ele><time>2026-04-17T07:02:39Z</time></trkpt><trkpt lat="36.92268531397903" lon="15.154390169934873"><ele>20.0</ele><time>2026-04-17T07:02:40Z</time></trkpt><trkpt lat="36.922621465538555" lon="15.154266711036906"><ele>20.0</ele><time>2026-04-17T07:02:41Z</time></trkpt><trkpt lat="36.922558066549314" lon="15.154142040958964"><ele>20.0</ele><time>2026-04-17T07:02:42Z</time></trkpt><trkpt lat="36.922496655467825" lon="15.15402127997873"><ele>20.0</ele><time>2026-04-17T07:02:43Z</time></trkpt><trkpt lat="36.92243439379672" lon="15.15389884632402"><ele>19.75</ele><time>2026-04-17T07:02:44Z</time></trkpt><trkpt lat="36.92236970160456" lon="15.153775190773588"><ele>19.5</ele><time>2026-04-17T07:02:45Z</time></trkpt><trkpt lat="36.922308902931945" lon="15.153658133408408"><ele>19.25</ele><time>2026-04-17T07:02:46Z</time></trkpt><trkpt lat="36.9222470900047" lon="15.153539123270036"><ele>19.0</ele><time>2026-04-17T07:02:47Z</time></trkpt><trkpt lat="36.92218320033062" lon="15.153416114715169"><ele>19.0</ele><time>2026-04-17T07:02:48Z</time></trkpt><trkpt lat="36.92210599055782" lon="15.153302340369596"><ele>19.0</ele><time>2026-04-17T07:02:49Z</time></trkpt><trkpt lat="36.92204321801892" lon="15.15317698163513"><ele>19.0</ele><time>2026-04-17T07:02:50Z</time></trkpt><trkpt lat="36.92197600963855" lon="15.153040689046351"><ele>19.0</ele><time>2026-04-17T07:02:51Z</time></trkpt><trkpt lat="36.921926198544185" lon="15.152890570811158"><ele>19.25</ele><time>2026-04-17T07:02:52Z</time></trkpt><trkpt lat="36.92186255713393" lon="15.152749194780542"><ele>19.5</ele><time>2026-04-17T07:02:53Z</time></trkpt><trkpt lat="36.92180136748568" lon="15.152609083216563"><ele>19.75</ele><time>2026-04-17T07:02:54Z</time></trkpt><trkpt lat="36.92174049287773" lon="15.15246483021192"><ele>20.0</ele><time>2026-04-17T07:02:55Z</time></trkpt><trkpt lat="36.92168366523877" lon="15.152322036401728"><ele>20.75</ele><time>2026-04-17T07:02:56Z</time></trkpt><trkpt lat="36.921625287883714" lon="15.152176526717327"><ele>21.5</ele><time>2026-04-17T07:02:57Z</time></trkpt><trkpt lat="36.92156688645171" lon="15.152035286846663"><ele>22.25</ele><time>2026-04-17T07:02:58Z</time></trkpt><trkpt lat="36.921508652539174" lon="15.151894452113137"><ele>23.0</ele><time>2026-04-17T07:02:59Z</time></trkpt><trkpt lat="36.92145051850552" lon="15.151753858913409"><ele>23.0</ele><time>2026-04-17T07:03:00Z</time></trkpt><trkpt lat="36.921392430570165" lon="15.151612563949197"><ele>23.0</ele><time>2026-04-17T07:03:01Z</time></trkpt><trkpt lat="36.9213360864585" lon="15.151475650475938"><ele>23.0</ele><time>2026-04-17T07:03:02Z</time></trkpt><trkpt lat="36.92126840026371" lon="15.151345220045094"><ele>23.0</ele><time>2026-04-17T07:03:03Z</time></trkpt><trkpt lat="36.921212038809344" lon="15.1512054228739"><ele>23.5</ele><time>2026-04-17T07:03:04Z</time></trkpt><trkpt lat="36.921155800805614" lon="15.151066660872223"><ele>24.0</ele><time>2026-04-17T07:03:05Z</time></trkpt><trkpt lat="36.92109939503507" lon="15.15093693076251"><ele>24.5</ele><time>2026-04-17T07:03:06Z</time></trkpt><trkpt lat="36.92104857343842" lon="15.150807372535072"><ele>25.0</ele><time>2026-04-17T07:03:07Z</time></trkpt><trkpt lat="36.920995988074" lon="15.150678357201892"><ele>25.25</ele><time>2026-04-17T07:03:08Z</time></trkpt><trkpt lat="36.92094165670037" lon="15.1505459892123"><ele>25.5</ele><time>2026-04-17T07:03:09Z</time></trkpt><trkpt lat="36.920901746865084" lon="15.150401766986203"><ele>25.75</ele><time>2026-04-17T07:03:10Z</time></trkpt><trkpt lat="36.92084481017562" lon="15.150263550712916"><ele>26.0</ele><time>2026-04-17T07:03:11Z</time></trkpt><trkpt lat="36.920787832155064" lon="15.150124789979548"><ele>26.0</ele><time>2026-04-17T07:03:12Z</time></trkpt><trkpt lat="36.92073030745074" lon="15.149984059304835"><ele>26.0</ele><time>2026-04-17T07:03:13Z</time></trkpt><trkpt lat="36.92067094226389" lon="15.149838826000922"><ele>26.0</ele><time>2026-04-17T07:03:14Z</time></trkpt><trkpt lat="36.92059852879431" lon="15.149700529965155"><ele>26.0</ele><time>2026-04-17T07:03:15Z</time></trkpt><trkpt lat="36.92053987614967" lon="15.149549996627535"><ele>26.0</ele><time>2026-04-17T07:03:16Z</time></trkpt><trkpt lat="36.92047979501348" lon="15.149400528927503"><ele>26.0</ele><time>2026-04-17T07:03:17Z</time></trkpt><trkpt lat="36.92041571686258" lon="15.14925185285705"><ele>26.0</ele><time>2026-04-17T07:03:18Z</time></trkpt><trkpt lat="36.92035501454251" lon="15.149104461585962"><ele>26.0</ele><time>2026-04-17T07:03:19Z</time></trkpt><trkpt lat="36.92029941935835" lon="15.148964017252826"><ele>26.0</ele><time>2026-04-17T07:03:20Z</time></trkpt><trkpt lat="36.920254891958145" lon="15.148818774272565"><ele>26.0</ele><time>2026-04-17T07:03:21Z</time></trkpt><trkpt lat="36.920198856536445" lon="15.148681321531662"><ele>26.0</ele><time>2026-04-17T07:03:22Z</time></trkpt><trkpt lat="36.92012672710285" lon="15.148550797668147"><ele>26.0</ele><time>2026-04-17T07:03:23Z</time></trkpt><trkpt lat="36.92006988377538" lon="15.14840785172702"><ele>25.8</ele><time>2026-04-17T07:03:24Z</time></trkpt><trkpt lat="36.92002900560853" lon="15.14826553965846"><ele>25.6</ele><time>2026-04-17T07:03:25Z</time></trkpt><trkpt lat="36.919963328392896" lon="15.148145977768479"><ele>25.4</ele><time>2026-04-17T07:03:26Z</time></trkpt><trkpt lat="36.91992762885859" lon="15.14801760516222"><ele>25.2</ele><time>2026-04-17T07:03:27Z</time></trkpt><trkpt lat="36.91991829845105" lon="15.14789954473203"><ele>25.0</ele><time>2026-04-17T07:03:28Z</time></trkpt><trkpt lat="36.91993133939327" lon="15.14778412750857"><ele>25.0</ele><time>2026-04-17T07:03:29Z</time></trkpt><trkpt lat="36.919966242881884" lon="15.147664178487476"><ele>25.0</ele><time>2026-04-17T07:03:30Z</time></trkpt><trkpt lat="36.92001786598282" lon="15.14755099956275"><ele>25.0</ele><time>2026-04-17T07:03:31Z</time></trkpt><trkpt lat="36.92007958796335" lon="15.14742371324733"><ele>25.0</ele><time>2026-04-17T07:03:32Z</time></trkpt><trkpt lat="36.92012357390884" lon="15.147283763288796"><ele>25.0</ele><time>2026-04-17T07:03:33Z</time></trkpt><trkpt lat="36.92014155280279" lon="15.147125346844362"><ele>25.75</ele><time>2026-04-17T07:03:34Z</time></trkpt><trkpt lat="36.92013904448963" lon="15.146961067247373"><ele>26.5</ele><time>2026-04-17T07:03:35Z</time></trkpt><trkpt lat="36.92013278444249" lon="15.146804347639586"><ele>27.25</ele><time>2026-04-17T07:03:36Z</time></trkpt><trkpt lat="36.92014541856097" lon="15.14667094608116"><ele>28.0</ele><time>2026-04-17T07:03:37Z</time></trkpt><trkpt lat="36.920141901619594" lon="15.146560770632414"><ele>28.4</ele><time>2026-04-17T07:03:38Z</time></trkpt><trkpt lat="36.92021123357561" lon="15.146442984640665"><ele>28.799999999999997</ele><time>2026-04-17T07:03:39Z</time></trkpt><trkpt lat="36.920240377969385" lon="15.146322722350718"><ele>29.2</ele><time>2026-04-17T07:03:40Z</time></trkpt><trkpt lat="36.920272369068364" lon="15.146192174214551"><ele>29.6</ele><time>2026-04-17T07:03:41Z</time></trkpt><trkpt lat="36.92030671088362" lon="15.1460557740494"><ele>30.0</ele><time>2026-04-17T07:03:42Z</time></trkpt><trkpt lat="36.92033852333808" lon="15.145913126479744"><ele>30.0</ele><time>2026-04-17T07:03:43Z</time></trkpt><trkpt lat="36.920363454993286" lon="15.145779160704606"><ele>30.0</ele><time>2026-04-17T07:03:44Z</time></trkpt><trkpt lat="36.92039305301574" lon="15.14565721355632"><ele>30.0</ele><time>2026-04-17T07:03:45Z</time></trkpt><trkpt lat="36.92042381359054" lon="15.145548287696512"><ele>30.0</ele><time>2026-04-17T07:03:46Z</time></trkpt><trkpt lat="36.92045046189779" lon="15.145438873079607"><ele>30.0</ele><time>2026-04-17T07:03:47Z</time></trkpt><trkpt lat="36.92047589533555" lon="15.14532471719517"><ele>30.142857142857146</ele><time>2026-04-17T07:03:48Z</time></trkpt><trkpt lat="36.92049851173906" lon="15.145215765108885"><ele>30.285714285714285</ele><time>2026-04-17T07:03:49Z</time></trkpt><trkpt lat="36.920518528156684" lon="15.145120895709695"><ele>30.42857142857143</ele><time>2026-04-17T07:03:50Z</time></trkpt><trkpt lat="36.920537574046385" lon="15.145032713760106"><ele>30.571428571428573</ele><time>2026-04-17T07:03:51Z</time></trkpt><trkpt lat="36.92059161043556" lon="15.144983879854493"><ele>30.714285714285715</ele><time>2026-04-17T07:03:57Z</time></trkpt><trkpt lat="36.92062880036781" lon="15.144914392069996"><ele>30.857142857142858</ele><time>2026-04-17T07:04:00Z</time></trkpt><trkpt lat="36.92065715053919" lon="15.144837207041439"><ele>31.0</ele><time>2026-04-17T07:04:02Z</time></trkpt><trkpt lat="36.920690618964926" lon="15.14474240002911"><ele>31.000000000000004</ele><time>2026-04-17T07:04:25Z</time></trkpt><trkpt lat="36.9207012411664" lon="15.144646433645217"><ele>31.0</ele><time>2026-04-17T07:04:27Z</time></trkpt><trkpt lat="36.92071226327721" lon="15.144551892368776"><ele>31.0</ele><time>2026-04-17T07:04:34Z</time></trkpt><trkpt lat="36.92072933032814" lon="15.144464420811795"><ele>31.0</ele><time>2026-04-17T07:04:37Z</time></trkpt><trkpt lat="36.920747942549696" lon="15.144369030037696"><ele>31.000000000000004</ele><time>2026-04-17T07:04:40Z</time></trkpt><trkpt lat="36.920766031935514" lon="15.144276318900863"><ele>31.0</ele><time>2026-04-17T07:04:42Z</time></trkpt><trkpt lat="36.92078570742822" lon="15.14417312045197"><ele>31.000000000000004</ele><time>2026-04-17T07:04:45Z</time></trkpt><trkpt lat="36.92080473991747" lon="15.144068503150592"><ele>31.0</ele><time>2026-04-17T07:04:48Z</time></trkpt><trkpt lat="36.92081942639696" lon="15.143982693477584"><ele>31.0</ele><time>2026-04-17T07:04:50Z</time></trkpt><trkpt lat="36.92083471371166" lon="15.143889730044787"><ele>31.0</ele><time>2026-04-17T07:04:53Z</time></trkpt><trkpt lat="36.92084932403424" lon="15.143798739838358"><ele>31.000000000000004</ele><time>2026-04-17T07:05:16Z</time></trkpt><trkpt lat="36.920863615856604" lon="15.143705682170719"><ele>31.0</ele><time>2026-04-17T07:05:18Z</time></trkpt><trkpt lat="36.92087717945448" lon="15.143615787768741"><ele>31.166666666666668</ele><time>2026-04-17T07:05:20Z</time></trkpt><trkpt lat="36.920891261204346" lon="15.143508095239877"><ele>31.333333333333336</ele><time>2026-04-17T07:05:22Z</time></trkpt><trkpt lat="36.92090484925433" lon="15.143404682267168"><ele>31.5</ele><time>2026-04-17T07:05:24Z</time></trkpt><trkpt lat="36.92092128030713" lon="15.143281385256584"><ele>31.666666666666664</ele><time>2026-04-17T07:05:26Z</time></trkpt><trkpt lat="36.92093258517643" lon="15.143187080309616"><ele>31.833333333333332</ele><time>2026-04-17T07:05:28Z</time></trkpt><trkpt lat="36.920944028287956" lon="15.143091849559944"><ele>32.0</ele><time>2026-04-17T07:05:30Z</time></trkpt><trkpt lat="36.92095440072086" lon="15.14300704624604"><ele>32.6</ele><time>2026-04-17T07:05:32Z</time></trkpt><trkpt lat="36.920963963484006" lon="15.142924974367123"><ele>33.2</ele><time>2026-04-17T07:05:35Z</time></trkpt><trkpt lat="36.92097302442042" lon="15.142839076623435"><ele>33.8</ele><time>2026-04-17T07:05:37Z</time></trkpt><trkpt lat="36.92098243612933" lon="15.142737495320782"><ele>34.4</ele><time>2026-04-17T07:05:40Z</time></trkpt><trkpt lat="36.920991073881815" lon="15.142644230985878"><ele>35.0</ele><time>2026-04-17T07:05:43Z</time></trkpt><trkpt lat="36.921294125832915" lon="15.142516352870551"><ele>35.0</ele><time>2026-04-17T07:06:25Z</time></trkpt><trkpt lat="36.92125944280771" lon="15.142634604997406"><ele>35.0</ele><time>2026-04-17T07:06:39Z</time></trkpt><trkpt lat="36.92128390382838" lon="15.14273824438626"><ele>35.0</ele><time>2026-04-17T07:06:41Z</time></trkpt><trkpt lat="36.921280252496054" lon="15.143035702148385"><ele>35.0</ele><time>2026-04-17T07:06:43Z</time></trkpt><trkpt lat="36.92134208255786" lon="15.143070428683336"><ele>35.0</ele><time>2026-04-17T07:06:44Z</time></trkpt><trkpt lat="36.921399950194896" lon="15.14310267186433"><ele>35.0</ele><time>2026-04-17T07:06:45Z</time></trkpt><trkpt lat="36.921515023463144" lon="15.143166491519837"><ele>35.0</ele><time>2026-04-17T07:06:47Z</time></trkpt><trkpt lat="36.921621771172674" lon="15.143225943712947"><ele>35.0</ele><time>2026-04-17T07:06:49Z</time></trkpt><trkpt lat="36.92172434466914" lon="15.143284510833494"><ele>35.0</ele><time>2026-04-17T07:06:51Z</time></trkpt><trkpt lat="36.921808613885965" lon="15.143336373532572"><ele>35.25</ele><time>2026-04-17T07:06:53Z</time></trkpt><trkpt lat="36.92187216089479" lon="15.143375482960085"><ele>35.5</ele><time>2026-04-17T07:06:55Z</time></trkpt><trkpt lat="36.92194760421526" lon="15.143415399552481"><ele>35.75</ele><time>2026-04-17T07:06:58Z</time></trkpt><trkpt lat="36.922178651931624" lon="15.143222972469811"><ele>36.0</ele><time>2026-04-17T07:07:10Z</time></trkpt><trkpt lat="36.9222130090331" lon="15.143143491421133"><ele>36.28571428571429</ele><time>2026-04-17T07:07:30Z</time></trkpt><trkpt lat="36.92225851099095" lon="15.143046554126231"><ele>36.57142857142857</ele><time>2026-04-17T07:07:33Z</time></trkpt><trkpt lat="36.92229240418802" lon="15.142975833878088"><ele>36.85714285714286</ele><time>2026-04-17T07:07:36Z</time></trkpt><trkpt lat="36.92233392783583" lon="15.142889192219236"><ele>37.142857142857146</ele><time>2026-04-17T07:07:39Z</time></trkpt><trkpt lat="36.92236870017491" lon="15.142816637590299"><ele>37.42857142857143</ele><time>2026-04-17T07:07:43Z</time></trkpt><trkpt lat="36.922403278466014" lon="15.142745308159398"><ele>37.714285714285715</ele><time>2026-04-17T07:07:45Z</time></trkpt><trkpt lat="36.92244010208847" lon="15.142670302997287"><ele>38.0</ele><time>2026-04-17T07:07:47Z</time></trkpt><trkpt lat="36.922481895340916" lon="15.14258517529602"><ele>38.0</ele><time>2026-04-17T07:07:50Z</time></trkpt><trkpt lat="36.92251322274368" lon="15.142516625851451"><ele>38.0</ele><time>2026-04-17T07:07:57Z</time></trkpt><trkpt lat="36.92256343228214" lon="15.142413350113223"><ele>38.0</ele><time>2026-04-17T07:08:00Z</time></trkpt><trkpt lat="36.92260387886197" lon="15.142318825834767"><ele>38.0</ele><time>2026-04-17T07:08:02Z</time></trkpt><trkpt lat="36.922636418921115" lon="15.142243811183294"><ele>38.0</ele><time>2026-04-17T07:08:03Z</time></trkpt><trkpt lat="36.9226970081669" lon="15.142130969249832"><ele>38.0</ele><time>2026-04-17T07:08:05Z</time></trkpt><trkpt lat="36.9227664329332" lon="15.142111086530539"><ele>38.599999999999994</ele><time>2026-04-17T07:08:07Z</time></trkpt><trkpt lat="36.92282200077437" lon="15.142216243757002"><ele>39.199999999999996</ele><time>2026-04-17T07:08:08Z</time></trkpt><trkpt lat="36.92285264203328" lon="15.142346070584379"><ele>39.8</ele><time>2026-04-17T07:08:09Z</time></trkpt><trkpt lat="36.92288330044463" lon="15.142465968529297"><ele>40.4</ele><time>2026-04-17T07:08:10Z</time></trkpt><trkpt lat="36.922923562317834" lon="15.142619711169104"><ele>41.0</ele><time>2026-04-17T07:08:11Z</time></trkpt><trkpt lat="36.922967732052086" lon="15.142779141186116"><ele>41.0</ele><time>2026-04-17T07:08:12Z</time></trkpt><trkpt lat="36.9230128934919" lon="15.142945774347973"><ele>41.0</ele><time>2026-04-17T07:08:13Z</time></trkpt><trkpt lat="36.92306011698036" lon="15.143115473569702"><ele>41.0</ele><time>2026-04-17T07:08:14Z</time></trkpt><trkpt lat="36.923117112826056" lon="15.143287807972152"><ele>41.0</ele><time>2026-04-17T07:08:15Z</time></trkpt><trkpt lat="36.92318723234453" lon="15.143455888949182"><ele>41.33333333333333</ele><time>2026-04-17T07:08:16Z</time></trkpt><trkpt lat="36.92326262657082" lon="15.143625020719519"><ele>41.666666666666664</ele><time>2026-04-17T07:08:17Z</time></trkpt><trkpt lat="36.92334355607537" lon="15.143799014412641"><ele>42.0</ele><time>2026-04-17T07:08:18Z</time></trkpt><trkpt lat="36.92343411577328" lon="15.14397744353482"><ele>41.666666666666664</ele><time>2026-04-17T07:08:19Z</time></trkpt><trkpt lat="36.92353154662203" lon="15.144155300164515"><ele>41.33333333333333</ele><time>2026-04-17T07:08:20Z</time></trkpt><trkpt lat="36.923625126859676" lon="15.144338030801865"><ele>41.0</ele><time>2026-04-17T07:08:21Z</time></trkpt><trkpt lat="36.923714146813936" lon="15.144517094271858"><ele>41.0</ele><time>2026-04-17T07:08:22Z</time></trkpt><trkpt lat="36.92379459686007" lon="15.144684566328994"><ele>41.0</ele><time>2026-04-17T07:08:23Z</time></trkpt><trkpt lat="36.92387751741949" lon="15.144853068889876"><ele>41.0</ele><time>2026-04-17T07:08:24Z</time></trkpt><trkpt lat="36.92395189371222" lon="15.145007743526062"><ele>40.25</ele><time>2026-04-17T07:08:25Z</time></trkpt><trkpt lat="36.92401955874191" lon="15.145155589959382"><ele>39.5</ele><time>2026-04-17T07:08:26Z</time></trkpt><trkpt lat="36.9240868659252" lon="15.145301860192768"><ele>38.75</ele><time>2026-04-17T07:08:27Z</time></trkpt><trkpt lat="36.9241537533907" lon="15.145462722282115"><ele>38.0</ele><time>2026-04-17T07:08:28Z</time></trkpt><trkpt lat="36.924228722709046" lon="15.14563087252514"><ele>38.33333333333333</ele><time>2026-04-17T07:08:29Z</time></trkpt><trkpt lat="36.924310916880025" lon="15.145803204395484"><ele>38.666666666666664</ele><time>2026-04-17T07:08:30Z</time></trkpt><trkpt lat="36.92439973610005" lon="15.145978560516758"><ele>39.0</ele><time>2026-04-17T07:08:31Z</time></trkpt><trkpt lat="36.92449377892361" lon="15.146151463430378"><ele>39.0</ele><time>2026-04-17T07:08:32Z</time></trkpt><trkpt lat="36.924592746147106" lon="15.14631977150813"><ele>39.0</ele><time>2026-04-17T07:08:33Z</time></trkpt><trkpt lat="36.924694749605344" lon="15.146485406801114"><ele>39.0</ele><time>2026-04-17T07:08:34Z</time></trkpt><trkpt lat="36.9247981682748" lon="15.146646666921358"><ele>38.666666666666664</ele><time>2026-04-17T07:08:35Z</time></trkpt><trkpt lat="36.92490256109917" lon="15.146802270963558"><ele>38.33333333333333</ele><time>2026-04-17T07:08:36Z</time></trkpt><trkpt lat="36.92500541233316" lon="15.146943374965236"><ele>38.0</ele><time>2026-04-17T07:08:37Z</time></trkpt><trkpt lat="36.925104423168555" lon="15.147073884750858"><ele>38.0</ele><time>2026-04-17T07:08:38Z</time></trkpt><trkpt lat="36.92520526269067" lon="15.147195771100762"><ele>38.0</ele><time>2026-04-17T07:08:39Z</time></trkpt><trkpt lat="36.92531490375337" lon="15.147315823807858"><ele>38.0</ele><time>2026-04-17T07:08:40Z</time></trkpt><trkpt lat="36.9254305309544" lon="15.14743691804974"><ele>38.0</ele><time>2026-04-17T07:08:41Z</time></trkpt><trkpt lat="36.92554822864422" lon="15.14756424129051"><ele>38.0</ele><time>2026-04-17T07:08:42Z</time></trkpt><trkpt lat="36.92566504361275" lon="15.147696060450768"><ele>38.0</ele><time>2026-04-17T07:08:43Z</time></trkpt><trkpt lat="36.92578353701721" lon="15.147832913717814"><ele>38.0</ele><time>2026-04-17T07:08:44Z</time></trkpt><trkpt lat="36.925901427430844" lon="15.147967800720172"><ele>38.0</ele><time>2026-04-17T07:08:45Z</time></trkpt><trkpt lat="36.92601861321579" lon="15.148101159456354"><ele>38.0</ele><time>2026-04-17T07:08:46Z</time></trkpt><trkpt lat="36.92612740914989" lon="15.148235266272083"><ele>38.0</ele><time>2026-04-17T07:08:47Z</time></trkpt><trkpt lat="36.92621727367655" lon="15.148369524915834"><ele>38.0</ele><time>2026-04-17T07:08:48Z</time></trkpt><trkpt lat="36.92627793246837" lon="15.148532408299122"><ele>38.0</ele><time>2026-04-17T07:08:49Z</time></trkpt><trkpt lat="36.92635975117599" lon="15.148693319384385"><ele>38.0</ele><time>2026-04-17T07:08:50Z</time></trkpt><trkpt lat="36.926426364961955" lon="15.14887244552739"><ele>38.0</ele><time>2026-04-17T07:08:51Z</time></trkpt><trkpt lat="36.92648740524579" lon="15.14903112210837"><ele>38.0</ele><time>2026-04-17T07:08:52Z</time></trkpt><trkpt lat="36.92654703278242" lon="15.149183366532023"><ele>38.0</ele><time>2026-04-17T07:08:53Z</time></trkpt><trkpt lat="36.926606912619725" lon="15.149339701963331"><ele>38.0</ele><time>2026-04-17T07:08:54Z</time></trkpt><trkpt lat="36.92667714908741" lon="15.149491569009394"><ele>38.0</ele><time>2026-04-17T07:08:55Z</time></trkpt><trkpt lat="36.92675941750271" lon="15.149635693661107"><ele>38.0</ele><time>2026-04-17T07:08:56Z</time></trkpt><trkpt lat="36.926852865492435" lon="15.149759634445214"><ele>38.0</ele><time>2026-04-17T07:08:57Z</time></trkpt><trkpt lat="36.9269581406011" lon="15.149874603526376"><ele>38.0</ele><time>2026-04-17T07:08:58Z</time></trkpt><trkpt lat="36.927075381666334" lon="15.149988366454732"><ele>38.0</ele><time>2026-04-17T07:08:59Z</time></trkpt><trkpt lat="36.92719109671761" lon="15.150102743638602"><ele>38.0</ele><time>2026-04-17T07:09:00Z</time></trkpt><trkpt lat="36.927305183417445" lon="15.150213293697997"><ele>38.0</ele><time>2026-04-17T07:09:01Z</time></trkpt><trkpt lat="36.927415127739756" lon="15.150332798526437"><ele>38.0</ele><time>2026-04-17T07:09:02Z</time></trkpt><trkpt lat="36.92751977104765" lon="15.15046640611658"><ele>38.666666666666664</ele><time>2026-04-17T07:09:03Z</time></trkpt><trkpt lat="36.927619579386665" lon="15.15061538123747"><ele>39.333333333333336</ele><time>2026-04-17T07:09:04Z</time></trkpt><trkpt lat="36.927712372359544" lon="15.150774008856834"><ele>40.0</ele><time>2026-04-17T07:09:05Z</time></trkpt><trkpt lat="36.92779610271024" lon="15.150938579641355"><ele>40.0</ele><time>2026-04-17T07:09:06Z</time></trkpt><trkpt lat="36.92787287935625" lon="15.15111033941694"><ele>40.0</ele><time>2026-04-17T07:09:07Z</time></trkpt><trkpt lat="36.927943028167526" lon="15.151285081195258"><ele>40.0</ele><time>2026-04-17T07:09:08Z</time></trkpt><trkpt lat="36.92801320304762" lon="15.151456691786752"><ele>39.75</ele><time>2026-04-17T07:09:09Z</time></trkpt><trkpt lat="36.92807601797362" lon="15.151614453125246"><ele>39.5</ele><time>2026-04-17T07:09:10Z</time></trkpt><trkpt lat="36.92813408800805" lon="15.15176834688767"><ele>39.25</ele><time>2026-04-17T07:09:11Z</time></trkpt><trkpt lat="36.92819420659444" lon="15.151921098948666"><ele>39.0</ele><time>2026-04-17T07:09:12Z</time></trkpt><trkpt lat="36.92826443192011" lon="15.152070702865032"><ele>39.0</ele><time>2026-04-17T07:09:13Z</time></trkpt><trkpt lat="36.928344402218954" lon="15.152215888540088"><ele>39.0</ele><time>2026-04-17T07:09:14Z</time></trkpt><trkpt lat="36.92843561684772" lon="15.152353042094346"><ele>39.0</ele><time>2026-04-17T07:09:15Z</time></trkpt><trkpt lat="36.92851437815121" lon="15.152506115076916"><ele>39.0</ele><time>2026-04-17T07:09:16Z</time></trkpt><trkpt lat="36.92860586713417" lon="15.152652823625402"><ele>39.0</ele><time>2026-04-17T07:09:17Z</time></trkpt><trkpt lat="36.92869632040093" lon="15.152798672409089"><ele>39.0</ele><time>2026-04-17T07:09:18Z</time></trkpt><trkpt lat="36.92877738450526" lon="15.152929381124677"><ele>39.0</ele><time>2026-04-17T07:09:19Z</time></trkpt><trkpt lat="36.9288479150487" lon="15.153044669495884"><ele>39.0</ele><time>2026-04-17T07:09:20Z</time></trkpt><trkpt lat="36.92890913485717" lon="15.153145428886141"><ele>39.0</ele><time>2026-04-17T07:09:21Z</time></trkpt><trkpt lat="36.9289567932642" lon="15.153223868080437"><ele>39.0</ele><time>2026-04-17T07:09:22Z</time></trkpt><trkpt lat="36.929025872229936" lon="15.153325259555126"><ele>39.0</ele><time>2026-04-17T07:09:24Z</time></trkpt><trkpt lat="36.92907045480241" lon="15.153410939333995"><ele>39.0</ele><time>2026-04-17T07:09:26Z</time></trkpt><trkpt lat="36.9292374894665" lon="15.153310859724272"><ele>39.0</ele><time>2026-04-17T07:09:29Z</time></trkpt><trkpt lat="36.92930031120468" lon="15.15322329393422"><ele>39.0</ele><time>2026-04-17T07:09:30Z</time></trkpt><trkpt lat="36.92936438038606" lon="15.153151447320584"><ele>39.0</ele><time>2026-04-17T07:09:31Z</time></trkpt><trkpt lat="36.929430895184545" lon="15.153073265423354"><ele>39.0</ele><time>2026-04-17T07:09:32Z</time></trkpt><trkpt lat="36.92947475033674" lon="15.152970129209503"><ele>39.0</ele><time>2026-04-17T07:09:33Z</time></trkpt><trkpt lat="36.92952322961493" lon="15.152887193058922"><ele>39.0</ele><time>2026-04-17T07:09:34Z</time></trkpt><trkpt lat="36.92959316675342" lon="15.15277893920429"><ele>39.4</ele><time>2026-04-17T07:09:36Z</time></trkpt><trkpt lat="36.929707810298595" lon="15.152784225169384"><ele>39.8</ele><time>2026-04-17T07:09:38Z</time></trkpt><trkpt lat="36.92975212097115" lon="15.15287885146721"><ele>40.199999999999996</ele><time>2026-04-17T07:09:39Z</time></trkpt><trkpt lat="36.92983305898103" lon="15.152939165228084"><ele>40.599999999999994</ele><time>2026-04-17T07:09:40Z</time></trkpt><trkpt lat="36.92989790377918" lon="15.15301527029942"><ele>41.0</ele><time>2026-04-17T07:09:41Z</time></trkpt><trkpt lat="36.92996796652491" lon="15.153094109578763"><ele>41.0</ele><time>2026-04-17T07:09:42Z</time></trkpt><trkpt lat="36.930040360632496" lon="15.153174630362617"><ele>41.0</ele><time>2026-04-17T07:09:43Z</time></trkpt><trkpt lat="36.93010913965773" lon="15.153240068792531"><ele>41.0</ele><time>2026-04-17T07:09:44Z</time></trkpt><trkpt lat="36.93017323173824" lon="15.153301515342932"><ele>41.0</ele><time>2026-04-17T07:09:45Z</time></trkpt><trkpt lat="36.93022948914108" lon="15.15333891618027"><ele>41.0</ele><time>2026-04-17T07:09:46Z</time></trkpt><trkpt lat="36.93032577653403" lon="15.153326085131132"><ele>41.0</ele><time>2026-04-17T07:09:48Z</time></trkpt><trkpt lat="36.9303893938029" lon="15.153292992196883"><ele>41.0</ele><time>2026-04-17T07:09:49Z</time></trkpt><trkpt lat="36.93046232934659" lon="15.15324314162877"><ele>41.0</ele><time>2026-04-17T07:09:50Z</time></trkpt><trkpt lat="36.930539445890496" lon="15.153173038390475"><ele>41.0</ele><time>2026-04-17T07:09:51Z</time></trkpt><trkpt lat="36.93061868192062" lon="15.153099113100627"><ele>41.0</ele><time>2026-04-17T07:09:52Z</time></trkpt><trkpt lat="36.93070789208802" lon="15.153024337508844"><ele>41.0</ele><time>2026-04-17T07:09:53Z</time></trkpt><trkpt lat="36.93076351676575" lon="15.152899281827063"><ele>41.599999999999994</ele><time>2026-04-17T07:09:54Z</time></trkpt><trkpt lat="36.93083306525159" lon="15.152791921721198"><ele>42.2</ele><time>2026-04-17T07:09:55Z</time></trkpt><trkpt lat="36.93088908770248" lon="15.152682896709464"><ele>42.8</ele><time>2026-04-17T07:09:56Z</time></trkpt><trkpt lat="36.9309456592965" lon="15.152576050396108"><ele>43.400000000000006</ele><time>2026-04-17T07:09:57Z</time></trkpt><trkpt lat="36.93104555065007" lon="15.152512627775259"><ele>44.0</ele><time>2026-04-17T07:09:58Z</time></trkpt><trkpt lat="36.9311374065438" lon="15.152429805565522"><ele>45.0</ele><time>2026-04-17T07:09:59Z</time></trkpt><trkpt lat="36.93122268499997" lon="15.152336491662739"><ele>46.0</ele><time>2026-04-17T07:10:00Z</time></trkpt><trkpt lat="36.93131619184017" lon="15.152245850189889"><ele>47.0</ele><time>2026-04-17T07:10:01Z</time></trkpt><trkpt lat="36.93141486721722" lon="15.152153455667815"><ele>48.0</ele><time>2026-04-17T07:10:02Z</time></trkpt><trkpt lat="36.93151276941161" lon="15.152058036661504"><ele>48.0</ele><time>2026-04-17T07:10:03Z</time></trkpt><trkpt lat="36.93161259418461" lon="15.151966829924353"><ele>48.0</ele><time>2026-04-17T07:10:04Z</time></trkpt><trkpt lat="36.93170687172292" lon="15.1518655743838"><ele>48.0</ele><time>2026-04-17T07:10:05Z</time></trkpt><trkpt lat="36.93181463045062" lon="15.1517857567149"><ele>48.0</ele><time>2026-04-17T07:10:06Z</time></trkpt><trkpt lat="36.93192753061963" lon="15.151735521806293"><ele>48.5</ele><time>2026-04-17T07:10:07Z</time></trkpt><trkpt lat="36.93203190724022" lon="15.15166382223533"><ele>49.0</ele><time>2026-04-17T07:10:08Z</time></trkpt><trkpt lat="36.93213588604174" lon="15.151591356912993"><ele>49.5</ele><time>2026-04-17T07:10:09Z</time></trkpt><trkpt lat="36.93224494005689" lon="15.15151866637428"><ele>50.0</ele><time>2026-04-17T07:10:10Z</time></trkpt><trkpt lat="36.932355911405615" lon="15.151451416102532"><ele>50.0</ele><time>2026-04-17T07:10:11Z</time></trkpt><trkpt lat="36.93247156512733" lon="15.15135649666133"><ele>50.0</ele><time>2026-04-17T07:10:12Z</time></trkpt><trkpt lat="36.93258184866348" lon="15.151252311337648"><ele>50.0</ele><time>2026-04-17T07:10:13Z</time></trkpt><trkpt lat="36.932674122166915" lon="15.151166985979351"><ele>50.0</ele><time>2026-04-17T07:10:14Z</time></trkpt><trkpt lat="36.93275027380156" lon="15.151100998650017"><ele>50.50000000000001</ele><time>2026-04-17T07:10:15Z</time></trkpt><trkpt lat="36.93281784875511" lon="15.151049635644128"><ele>51.0</ele><time>2026-04-17T07:10:16Z</time></trkpt><trkpt lat="36.93288147354781" lon="15.151005531224403"><ele>51.5</ele><time>2026-04-17T07:10:17Z</time></trkpt><trkpt lat="36.93295095576951" lon="15.150953722982571"><ele>52.0</ele><time>2026-04-17T07:10:18Z</time></trkpt><trkpt lat="36.9330100446526" lon="15.1509091629782"><ele>52.50000000000001</ele><time>2026-04-17T07:10:19Z</time></trkpt><trkpt lat="36.93310564866651" lon="15.150864332527146"><ele>53.0</ele><time>2026-04-17T07:10:21Z</time></trkpt><trkpt lat="36.93317010002147" lon="15.150848610639727"><ele>53.0</ele><time>2026-04-17T07:11:21Z</time></trkpt><trkpt lat="36.93324889267875" lon="15.150792912839952"><ele>53.0</ele><time>2026-04-17T07:11:23Z</time></trkpt><trkpt lat="36.933314071045274" lon="15.150737460624894"><ele>53.0</ele><time>2026-04-17T07:11:26Z</time></trkpt><trkpt lat="36.933431685043864" lon="15.150638621521532"><ele>53.0</ele><time>2026-04-17T07:11:56Z</time></trkpt><trkpt lat="36.93352861714279" lon="15.150574076650848"><ele>53.0</ele><time>2026-04-17T07:12:00Z</time></trkpt><trkpt lat="36.933592926775425" lon="15.150574378550887"><ele>54.0</ele><time>2026-04-17T07:12:03Z</time></trkpt><trkpt lat="36.9336856566014" lon="15.150602675666644"><ele>55.0</ele><time>2026-04-17T07:12:05Z</time></trkpt><trkpt lat="36.93374733829413" lon="15.15074499402513"><ele>56.0</ele><time>2026-04-17T07:12:06Z</time></trkpt><trkpt lat="36.93380091967853" lon="15.150848002793515"><ele>57.0</ele><time>2026-04-17T07:12:07Z</time></trkpt><trkpt lat="36.933868810139984" lon="15.150907011057088"><ele>58.0</ele><time>2026-04-17T07:12:08Z</time></trkpt><trkpt lat="36.93390242692106" lon="15.150976071426722"><ele>58.0</ele><time>2026-04-17T07:12:09Z</time></trkpt><trkpt lat="36.93397446023902" lon="15.151065084151508"><ele>58.0</ele><time>2026-04-17T07:12:11Z</time></trkpt><trkpt lat="36.93403704591488" lon="15.151141253327182"><ele>58.0</ele><time>2026-04-17T07:12:13Z</time></trkpt><trkpt lat="36.934092766246415" lon="15.151209067113925"><ele>58.0</ele><time>2026-04-17T07:12:15Z</time></trkpt><trkpt lat="36.93417162951685" lon="15.151302578240204"><ele>58.0</ele><time>2026-04-17T07:12:17Z</time></trkpt><trkpt lat="36.93422818293057" lon="15.151367122077348"><ele>58.2</ele><time>2026-04-17T07:12:18Z</time></trkpt><trkpt lat="36.934310440063484" lon="15.151461001085147"><ele>58.4</ele><time>2026-04-17T07:12:19Z</time></trkpt><trkpt lat="36.93438814412586" lon="15.151560861624972"><ele>58.60000000000001</ele><time>2026-04-17T07:12:20Z</time></trkpt><trkpt lat="36.934455313897864" lon="15.151637902119681"><ele>58.800000000000004</ele><time>2026-04-17T07:12:21Z</time></trkpt><trkpt lat="36.93452526817434" lon="15.151718136298982"><ele>59.0</ele><time>2026-04-17T07:12:22Z</time></trkpt><trkpt lat="36.93459917970992" lon="15.15180055567758"><ele>58.50000000000001</ele><time>2026-04-17T07:12:23Z</time></trkpt><trkpt lat="36.934684317675625" lon="15.151869773442604"><ele>58.0</ele><time>2026-04-17T07:12:24Z</time></trkpt><trkpt lat="36.93475429996772" lon="15.151944689577004"><ele>57.5</ele><time>2026-04-17T07:12:25Z</time></trkpt><trkpt lat="36.93481441879464" lon="15.152000063331116"><ele>57.0</ele><time>2026-04-17T07:12:26Z</time></trkpt><trkpt lat="36.93487023710014" lon="15.152047543651829"><ele>56.50000000000001</ele><time>2026-04-17T07:12:27Z</time></trkpt><trkpt lat="36.934960324775794" lon="15.15212525097768"><ele>56.0</ele><time>2026-04-17T07:12:29Z</time></trkpt><trkpt lat="36.93504265770593" lon="15.152206265678602"><ele>55.833333333333336</ele><time>2026-04-17T07:12:31Z</time></trkpt><trkpt lat="36.935088490520634" lon="15.15227996076884"><ele>55.66666666666667</ele><time>2026-04-17T07:12:32Z</time></trkpt><trkpt lat="36.935152797094695" lon="15.152322396224083"><ele>55.5</ele><time>2026-04-17T07:12:33Z</time></trkpt><trkpt lat="36.935199198400724" lon="15.152381039492656"><ele>55.33333333333333</ele><time>2026-04-17T07:12:34Z</time></trkpt><trkpt lat="36.93526212265546" lon="15.152436687371504"><ele>55.166666666666664</ele><time>2026-04-17T07:12:36Z</time></trkpt><trkpt lat="36.93533358876866" lon="15.152538969722169"><ele>55.0</ele><time>2026-04-17T07:12:40Z</time></trkpt><trkpt lat="36.93539847487407" lon="15.152614888825443"><ele>54.8</ele><time>2026-04-17T07:12:42Z</time></trkpt><trkpt lat="36.935452317277495" lon="15.152694519611444"><ele>54.6</ele><time>2026-04-17T07:12:44Z</time></trkpt><trkpt lat="36.93551603151342" lon="15.152775909321946"><ele>54.400000000000006</ele><time>2026-04-17T07:12:46Z</time></trkpt><trkpt lat="36.935585310576094" lon="15.152869624697832"><ele>54.2</ele><time>2026-04-17T07:12:48Z</time></trkpt><trkpt lat="36.935652222938096" lon="15.152960632458742"><ele>54.0</ele><time>2026-04-17T07:12:50Z</time></trkpt><trkpt lat="36.93572772357269" lon="15.153057778869156"><ele>54.0</ele><time>2026-04-17T07:12:52Z</time></trkpt><trkpt lat="36.93581977088678" lon="15.153179893068275"><ele>54.0</ele><time>2026-04-17T07:12:54Z</time></trkpt><trkpt lat="36.93588740701735" lon="15.153268479882785"><ele>54.0</ele><time>2026-04-17T07:12:55Z</time></trkpt><trkpt lat="36.93596471748844" lon="15.15336376263419"><ele>54.0</ele><time>2026-04-17T07:12:56Z</time></trkpt><trkpt lat="36.9360392823089" lon="15.153470715173942"><ele>54.2</ele><time>2026-04-17T07:12:57Z</time></trkpt><trkpt lat="36.93610914406708" lon="15.153556768091715"><ele>54.400000000000006</ele><time>2026-04-17T07:12:58Z</time></trkpt><trkpt lat="36.93616901019027" lon="15.153623322019588"><ele>54.6</ele><time>2026-04-17T07:12:59Z</time></trkpt><trkpt lat="36.936270624239654" lon="15.153696358487307"><ele>54.8</ele><time>2026-04-17T07:13:01Z</time></trkpt><trkpt lat="36.93639860337265" lon="15.153695492569973"><ele>55.0</ele><time>2026-04-17T07:13:03Z</time></trkpt><trkpt lat="36.93647900315309" lon="15.153643954203444"><ele>55.0</ele><time>2026-04-17T07:13:04Z</time></trkpt><trkpt lat="36.93656302128655" lon="15.153575171909537"><ele>55.0</ele><time>2026-04-17T07:13:05Z</time></trkpt><trkpt lat="36.93666066501492" lon="15.153499323825875"><ele>55.0</ele><time>2026-04-17T07:13:06Z</time></trkpt><trkpt lat="36.936756912217554" lon="15.153460688687348"><ele>55.0</ele><time>2026-04-17T07:13:07Z</time></trkpt><trkpt lat="36.93684434821313" lon="15.15342417652251"><ele>55.0</ele><time>2026-04-17T07:13:08Z</time></trkpt><trkpt lat="36.9369374542858" lon="15.153397166615628"><ele>55.4</ele><time>2026-04-17T07:13:09Z</time></trkpt><trkpt lat="36.93703324443005" lon="15.15338372597039"><ele>55.8</ele><time>2026-04-17T07:13:10Z</time></trkpt><trkpt lat="36.93711226361496" lon="15.153377824183076"><ele>56.2</ele><time>2026-04-17T07:13:11Z</time></trkpt><trkpt lat="36.93719991591397" lon="15.153386454031674"><ele>56.6</ele><time>2026-04-17T07:13:12Z</time></trkpt><trkpt lat="36.93728294729853" lon="15.153437725297653"><ele>57.0</ele><time>2026-04-17T07:13:13Z</time></trkpt><trkpt lat="36.93736808438497" lon="15.153490122912997"><ele>57.0</ele><time>2026-04-17T07:13:14Z</time></trkpt><trkpt lat="36.937457831650434" lon="15.15353881885465"><ele>57.0</ele><time>2026-04-17T07:13:15Z</time></trkpt><trkpt lat="36.93753683093532" lon="15.15361511157418"><ele>57.0</ele><time>2026-04-17T07:13:16Z</time></trkpt><trkpt lat="36.93761121256404" lon="15.153705349613121"><ele>57.0</ele><time>2026-04-17T07:13:17Z</time></trkpt><trkpt lat="36.937672996353584" lon="15.153812419453041"><ele>57.0</ele><time>2026-04-17T07:13:18Z</time></trkpt><trkpt lat="36.937722230523505" lon="15.153934536734825"><ele>57.2</ele><time>2026-04-17T07:13:19Z</time></trkpt><trkpt lat="36.93772934738959" lon="15.15407440301782"><ele>57.400000000000006</ele><time>2026-04-17T07:13:20Z</time></trkpt><trkpt lat="36.937745977945944" lon="15.154216918201277"><ele>57.599999999999994</ele><time>2026-04-17T07:13:21Z</time></trkpt><trkpt lat="36.9377378468331" lon="15.154358316380835"><ele>57.8</ele><time>2026-04-17T07:13:22Z</time></trkpt><trkpt lat="36.93772825048658" lon="15.154480533887012"><ele>58.0</ele><time>2026-04-17T07:13:23Z</time></trkpt><trkpt lat="36.937691137665084" lon="15.154606216260085"><ele>58.0</ele><time>2026-04-17T07:13:24Z</time></trkpt><trkpt lat="36.937645997467506" lon="15.154742060555444"><ele>58.0</ele><time>2026-04-17T07:13:25Z</time></trkpt><trkpt lat="36.937593052936926" lon="15.154885460319287"><ele>58.0</ele><time>2026-04-17T07:13:26Z</time></trkpt><trkpt lat="36.937555561289635" lon="15.15502328286128"><ele>58.0</ele><time>2026-04-17T07:13:27Z</time></trkpt><trkpt lat="36.93751227616835" lon="15.155135291268666"><ele>57.4</ele><time>2026-04-17T07:13:28Z</time></trkpt><trkpt lat="36.93746512332617" lon="15.155250087113473"><ele>56.8</ele><time>2026-04-17T07:13:29Z</time></trkpt><trkpt lat="36.93745904094812" lon="15.155395310106844"><ele>56.2</ele><time>2026-04-17T07:13:30Z</time></trkpt><trkpt lat="36.937442801775184" lon="15.155533602315657"><ele>55.6</ele><time>2026-04-17T07:13:31Z</time></trkpt><trkpt lat="36.937459907166755" lon="15.155670436197479"><ele>55.0</ele><time>2026-04-17T07:13:32Z</time></trkpt><trkpt lat="36.937513649800174" lon="15.155780299114292"><ele>55.5</ele><time>2026-04-17T07:13:33Z</time></trkpt><trkpt lat="36.93756715218334" lon="15.155888556760583"><ele>56.0</ele><time>2026-04-17T07:13:34Z</time></trkpt><trkpt lat="36.937635152892646" lon="15.156027574078164"><ele>56.5</ele><time>2026-04-17T07:13:35Z</time></trkpt><trkpt lat="36.937720884037326" lon="15.156180997637716"><ele>57.0</ele><time>2026-04-17T07:13:36Z</time></trkpt><trkpt lat="36.93780524588367" lon="15.156331157383796"><ele>57.0</ele><time>2026-04-17T07:13:37Z</time></trkpt><trkpt lat="36.93788788999129" lon="15.156478259516545"><ele>57.0</ele><time>2026-04-17T07:13:38Z</time></trkpt><trkpt lat="36.93797361824418" lon="15.156632566056636"><ele>57.0</ele><time>2026-04-17T07:13:39Z</time></trkpt><trkpt lat="36.93806032681003" lon="15.156789582959664"><ele>57.0</ele><time>2026-04-17T07:13:40Z</time></trkpt><trkpt lat="36.938154411405954" lon="15.156955144824176"><ele>57.0</ele><time>2026-04-17T07:13:41Z</time></trkpt><trkpt lat="36.93824766742061" lon="15.15712016087632"><ele>57.0</ele><time>2026-04-17T07:13:42Z</time></trkpt><trkpt lat="36.9383363562042" lon="15.157277095231965"><ele>57.0</ele><time>2026-04-17T07:13:43Z</time></trkpt><trkpt lat="36.938425457836715" lon="15.1574330979278"><ele>57.5</ele><time>2026-04-17T07:13:44Z</time></trkpt><trkpt lat="36.93851163822521" lon="15.157583444673218"><ele>58.0</ele><time>2026-04-17T07:13:45Z</time></trkpt><trkpt lat="36.938601546470004" lon="15.157734932378242"><ele>58.5</ele><time>2026-04-17T07:13:46Z</time></trkpt><trkpt lat="36.938691795241844" lon="15.15788221654982"><ele>59.0</ele><time>2026-04-17T07:13:47Z</time></trkpt><trkpt lat="36.93878203247107" lon="15.158029240516807"><ele>59.0</ele><time>2026-04-17T07:13:48Z</time></trkpt><trkpt lat="36.938864569142105" lon="15.158158675140983"><ele>59.0</ele><time>2026-04-17T07:13:49Z</time></trkpt><trkpt lat="36.93894490781093" lon="15.15827648362156"><ele>59.0</ele><time>2026-04-17T07:13:50Z</time></trkpt><trkpt lat="36.93903565358337" lon="15.158395780608679"><ele>59.0</ele><time>2026-04-17T07:13:51Z</time></trkpt><trkpt lat="36.93914833098108" lon="15.158519752002885"><ele>59.0</ele><time>2026-04-17T07:13:52Z</time></trkpt><trkpt lat="36.93924663871945" lon="15.158662462029186"><ele>59.0</ele><time>2026-04-17T07:13:53Z</time></trkpt><trkpt lat="36.93934332343412" lon="15.158836588865206"><ele>59.0</ele><time>2026-04-17T07:13:54Z</time></trkpt><trkpt lat="36.93945856581445" lon="15.158995696202748"><ele>58.25</ele><time>2026-04-17T07:13:55Z</time></trkpt><trkpt lat="36.93957432469748" lon="15.15914199363604"><ele>57.5</ele><time>2026-04-17T07:13:56Z</time></trkpt><trkpt lat="36.93968034499911" lon="15.159271915560032"><ele>56.75</ele><time>2026-04-17T07:13:57Z</time></trkpt><trkpt lat="36.93977819724915" lon="15.159389979378327"><ele>56.0</ele><time>2026-04-17T07:13:58Z</time></trkpt><trkpt lat="36.9398666102756" lon="15.159494735017677"><ele>56.0</ele><time>2026-04-17T07:13:59Z</time></trkpt><trkpt lat="36.93994979696373" lon="15.159588741015382"><ele>55.99999999999999</ele><time>2026-04-17T07:14:00Z</time></trkpt><trkpt lat="36.94002946348443" lon="15.159672042287996"><ele>55.99999999999999</ele><time>2026-04-17T07:14:01Z</time></trkpt><trkpt lat="36.94010568942569" lon="15.159748511760501"><ele>56.0</ele><time>2026-04-17T07:14:02Z</time></trkpt><trkpt lat="36.94016962444059" lon="15.159816122924395"><ele>56.0</ele><time>2026-04-17T07:14:03Z</time></trkpt><trkpt lat="36.94022361724088" lon="15.159876409679441"><ele>56.0</ele><time>2026-04-17T07:14:04Z</time></trkpt><trkpt lat="36.940277086194385" lon="15.159936111158213"><ele>55.99999999999999</ele><time>2026-04-17T07:14:05Z</time></trkpt><trkpt lat="36.94039897529924" lon="15.159885397996046"><ele>55.99999999999999</ele><time>2026-04-17T07:14:06Z</time></trkpt><trkpt lat="36.9404890071876" lon="15.159865913384317"><ele>56.0</ele><time>2026-04-17T07:14:07Z</time></trkpt><trkpt lat="36.94058332582491" lon="15.159817556994426"><ele>56.0</ele><time>2026-04-17T07:14:08Z</time></trkpt><trkpt lat="36.94067736674175" lon="15.159747832291217"><ele>56.599999999999994</ele><time>2026-04-17T07:14:09Z</time></trkpt><trkpt lat="36.94074993822577" lon="15.159678629242494"><ele>57.199999999999996</ele><time>2026-04-17T07:14:10Z</time></trkpt><trkpt lat="36.94081651174275" lon="15.159605545265492"><ele>57.800000000000004</ele><time>2026-04-17T07:14:11Z</time></trkpt><trkpt lat="36.94087989901157" lon="15.15952171497415"><ele>58.400000000000006</ele><time>2026-04-17T07:14:12Z</time></trkpt><trkpt lat="36.9409396953954" lon="15.159421034205614"><ele>59.0</ele><time>2026-04-17T07:14:13Z</time></trkpt><trkpt lat="36.94099922477567" lon="15.159305803072597"><ele>60.0</ele><time>2026-04-17T07:14:14Z</time></trkpt><trkpt lat="36.94105795877351" lon="15.159199799833651"><ele>61.00000000000001</ele><time>2026-04-17T07:14:15Z</time></trkpt><trkpt lat="36.94110732498617" lon="15.159105212563356"><ele>62.00000000000001</ele><time>2026-04-17T07:14:16Z</time></trkpt><trkpt lat="36.94115448358146" lon="15.159012685252332"><ele>63.0</ele><time>2026-04-17T07:14:17Z</time></trkpt><trkpt lat="36.941219260455895" lon="15.158936127718853"><ele>64.0</ele><time>2026-04-17T07:14:18Z</time></trkpt><trkpt lat="36.94127376276057" lon="15.158846390685902"><ele>64.33333333333333</ele><time>2026-04-17T07:14:19Z</time></trkpt><trkpt lat="36.94132145346665" lon="15.158767132760568"><ele>64.66666666666666</ele><time>2026-04-17T07:14:20Z</time></trkpt><trkpt lat="36.9413695164004" lon="15.158685353974578"><ele>65.0</ele><time>2026-04-17T07:14:21Z</time></trkpt><trkpt lat="36.94141214386938" lon="15.158609364944313"><ele>65.33333333333333</ele><time>2026-04-17T07:14:22Z</time></trkpt><trkpt lat="36.94145120926764" lon="15.158537121456092"><ele>65.66666666666667</ele><time>2026-04-17T07:14:23Z</time></trkpt><trkpt lat="36.941497176743106" lon="15.15845081454359"><ele>66.0</ele><time>2026-04-17T07:14:24Z</time></trkpt><trkpt lat="36.94154663362265" lon="15.158344965936694"><ele>66.0</ele><time>2026-04-17T07:14:25Z</time></trkpt><trkpt lat="36.94159918924939" lon="15.158228898426522"><ele>66.0</ele><time>2026-04-17T07:14:26Z</time></trkpt><trkpt lat="36.94165404657948" lon="15.158101845621601"><ele>66.0</ele><time>2026-04-17T07:14:27Z</time></trkpt><trkpt lat="36.94170958613193" lon="15.157967081075132"><ele>66.0</ele><time>2026-04-17T07:14:28Z</time></trkpt><trkpt lat="36.94176377994883" lon="15.157834556922207"><ele>67.75</ele><time>2026-04-17T07:14:29Z</time></trkpt><trkpt lat="36.941817841833156" lon="15.157701395100457"><ele>69.5</ele><time>2026-04-17T07:14:30Z</time></trkpt><trkpt lat="36.94187054900189" lon="15.157568085062458"><ele>71.25</ele><time>2026-04-17T07:14:31Z</time></trkpt><trkpt lat="36.941921523005476" lon="15.157438544705345"><ele>73.0</ele><time>2026-04-17T07:14:32Z</time></trkpt><trkpt lat="36.94197292789571" lon="15.157309284464551"><ele>73.75</ele><time>2026-04-17T07:14:33Z</time></trkpt><trkpt lat="36.94202616910078" lon="15.157182207083908"><ele>74.5</ele><time>2026-04-17T07:14:34Z</time></trkpt><trkpt lat="36.942082038125875" lon="15.157053302709345"><ele>75.25</ele><time>2026-04-17T07:14:35Z</time></trkpt><trkpt lat="36.94213987679931" lon="15.156925518217154"><ele>76.0</ele><time>2026-04-17T07:14:36Z</time></trkpt><trkpt lat="36.942199390025436" lon="15.156794035395757"><ele>76.0</ele><time>2026-04-17T07:14:37Z</time></trkpt><trkpt lat="36.942258070544796" lon="15.156664214854395"><ele>76.0</ele><time>2026-04-17T07:14:38Z</time></trkpt><trkpt lat="36.942315208386916" lon="15.156533212927819"><ele>76.0</ele><time>2026-04-17T07:14:39Z</time></trkpt><trkpt lat="36.942370549811606" lon="15.156402584799425"><ele>76.0</ele><time>2026-04-17T07:14:40Z</time></trkpt><trkpt lat="36.94243424776717" lon="15.156275464952568"><ele>77.25</ele><time>2026-04-17T07:14:41Z</time></trkpt><trkpt lat="36.942512740081526" lon="15.156157726020224"><ele>78.5</ele><time>2026-04-17T07:14:42Z</time></trkpt><trkpt lat="36.94259935226284" lon="15.156041173262702"><ele>79.75</ele><time>2026-04-17T07:14:43Z</time></trkpt><trkpt lat="36.942687547238826" lon="15.155927096439584"><ele>81.0</ele><time>2026-04-17T07:14:44Z</time></trkpt><trkpt lat="36.94277512838708" lon="15.155813813624887"><ele>82.6</ele><time>2026-04-17T07:14:45Z</time></trkpt><trkpt lat="36.94286357239438" lon="15.155699414747385"><ele>84.19999999999999</ele><time>2026-04-17T07:14:46Z</time></trkpt><trkpt lat="36.94293738290315" lon="15.155603943710638"><ele>85.80000000000001</ele><time>2026-04-17T07:14:47Z</time></trkpt><trkpt lat="36.94300817297945" lon="15.155512380359975"><ele>87.4</ele><time>2026-04-17T07:14:48Z</time></trkpt><trkpt lat="36.943073839679954" lon="15.15542744323441"><ele>89.0</ele><time>2026-04-17T07:14:49Z</time></trkpt><trkpt lat="36.94313543657943" lon="15.155347770161832"><ele>89.0</ele><time>2026-04-17T07:14:50Z</time></trkpt><trkpt lat="36.94319094313508" lon="15.155275974414568"><ele>89.0</ele><time>2026-04-17T07:14:51Z</time></trkpt><trkpt lat="36.94324114593869" lon="15.155211038950274"><ele>89.0</ele><time>2026-04-17T07:14:52Z</time></trkpt><trkpt lat="36.94328856596693" lon="15.155149703205094"><ele>89.0</ele><time>2026-04-17T07:14:53Z</time></trkpt><trkpt lat="36.943332588774325" lon="15.15509062941738"><ele>89.0</ele><time>2026-04-17T07:14:54Z</time></trkpt><trkpt lat="36.94341302773137" lon="15.15498210231337"><ele>89.0</ele><time>2026-04-17T07:14:56Z</time></trkpt><trkpt lat="36.9434827629288" lon="15.154845926837428"><ele>91.0</ele><time>2026-04-17T07:14:58Z</time></trkpt><trkpt lat="36.94350821604159" lon="15.154773610196747"><ele>93.0</ele><time>2026-04-17T07:14:59Z</time></trkpt><trkpt lat="36.943528663544384" lon="15.154698420790323"><ele>95.0</ele><time>2026-04-17T07:15:00Z</time></trkpt><trkpt lat="36.943545346812186" lon="15.154621956418588"><ele>97.0</ele><time>2026-04-17T07:15:01Z</time></trkpt><trkpt lat="36.943558543346654" lon="15.154537476916122"><ele>98.99999999999999</ele><time>2026-04-17T07:15:02Z</time></trkpt><trkpt lat="36.943586201745745" lon="15.154392905038174"><ele>101.0</ele><time>2026-04-17T07:15:04Z</time></trkpt><trkpt lat="36.94361742318081" lon="15.154269626493374"><ele>101.0</ele><time>2026-04-17T07:15:06Z</time></trkpt><trkpt lat="36.94365657198515" lon="15.154129953177149"><ele>101.0</ele><time>2026-04-17T07:15:08Z</time></trkpt><trkpt lat="36.943700635739845" lon="15.15399339944256"><ele>101.0</ele><time>2026-04-17T07:15:10Z</time></trkpt><trkpt lat="36.94375230649785" lon="15.153873398750989"><ele>101.0</ele><time>2026-04-17T07:15:12Z</time></trkpt><trkpt lat="36.943832634683986" lon="15.153752681509976"><ele>101.49999999999999</ele><time>2026-04-17T07:15:14Z</time></trkpt><trkpt lat="36.94388924057979" lon="15.153690525359448"><ele>102.0</ele><time>2026-04-17T07:15:15Z</time></trkpt><trkpt lat="36.943956528301214" lon="15.153630659322895"><ele>102.5</ele><time>2026-04-17T07:15:16Z</time></trkpt><trkpt lat="36.9440277192591" lon="15.153579848646938"><ele>103.0</ele><time>2026-04-17T07:15:17Z</time></trkpt><trkpt lat="36.944102759908965" lon="15.153530019070162"><ele>103.49999999999999</ele><time>2026-04-17T07:15:18Z</time></trkpt><trkpt lat="36.9441677781673" lon="15.153484383580638"><ele>104.0</ele><time>2026-04-17T07:15:19Z</time></trkpt><trkpt lat="36.94422207392482" lon="15.153443616031575"><ele>104.99999999999999</ele><time>2026-04-17T07:15:20Z</time></trkpt><trkpt lat="36.94427445577186" lon="15.15339364593702"><ele>106.0</ele><time>2026-04-17T07:15:21Z</time></trkpt><trkpt lat="36.94434729038195" lon="15.153325114524975"><ele>107.0</ele><time>2026-04-17T07:15:23Z</time></trkpt><trkpt lat="36.94441127537626" lon="15.153263674150782"><ele>108.0</ele><time>2026-04-17T07:15:25Z</time></trkpt><trkpt lat="36.94449037687257" lon="15.153186475819188"><ele>108.99999999999999</ele><time>2026-04-17T07:15:27Z</time></trkpt><trkpt lat="36.94456175436526" lon="15.153115939926032"><ele>110.0</ele><time>2026-04-17T07:15:29Z</time></trkpt><trkpt lat="36.94462768561702" lon="15.15305111007827"><ele>110.49999999999999</ele><time>2026-04-17T07:15:31Z</time></trkpt><trkpt lat="36.9447170026047" lon="15.15296320889037"><ele>111.0</ele><time>2026-04-17T07:15:34Z</time></trkpt><trkpt lat="36.944766972449784" lon="15.152913957816311"><ele>111.5</ele><time>2026-04-17T07:15:35Z</time></trkpt><trkpt lat="36.94482652137656" lon="15.152858261669381"><ele>112.0</ele><time>2026-04-17T07:15:36Z</time></trkpt><trkpt lat="36.94489177770771" lon="15.152797227319384"><ele>112.49999999999999</ele><time>2026-04-17T07:15:37Z</time></trkpt><trkpt lat="36.94496366001847" lon="15.152729995688267"><ele>113.0</ele><time>2026-04-17T07:15:38Z</time></trkpt><trkpt lat="36.945037656836014" lon="15.152660786354872"><ele>114.60000000000001</ele><time>2026-04-17T07:15:39Z</time></trkpt><trkpt lat="36.94512049361221" lon="15.152582106129872"><ele>116.20000000000002</ele><time>2026-04-17T07:15:40Z</time></trkpt><trkpt lat="36.945211670455485" lon="15.152493570579693"><ele>117.8</ele><time>2026-04-17T07:15:41Z</time></trkpt><trkpt lat="36.94530055418613" lon="15.152405751629598"><ele>119.4</ele><time>2026-04-17T07:15:42Z</time></trkpt><trkpt lat="36.945388870249346" lon="15.15231549080167"><ele>121.0</ele><time>2026-04-17T07:15:43Z</time></trkpt><trkpt lat="36.94546253558471" lon="15.152238334409432"><ele>121.50000000000001</ele><time>2026-04-17T07:15:44Z</time></trkpt><trkpt lat="36.94551879669929" lon="15.15217804086073"><ele>122.0</ele><time>2026-04-17T07:15:45Z</time></trkpt><trkpt lat="36.945593310858975" lon="15.152098186007848"><ele>122.5</ele><time>2026-04-17T07:15:47Z</time></trkpt><trkpt lat="36.94569147295766" lon="15.151992988283599"><ele>123.0</ele><time>2026-04-17T07:15:49Z</time></trkpt><trkpt lat="36.945745889651995" lon="15.151934866151406"><ele>123.50000000000001</ele><time>2026-04-17T07:15:50Z</time></trkpt><trkpt lat="36.94579605130956" lon="15.151881970613"><ele>124.0</ele><time>2026-04-17T07:15:51Z</time></trkpt><trkpt lat="36.945897644339574" lon="15.151775206217527"><ele>125.83333333333334</ele><time>2026-04-17T07:15:53Z</time></trkpt><trkpt lat="36.945947493552396" lon="15.151724591756034"><ele>127.66666666666667</ele><time>2026-04-17T07:15:54Z</time></trkpt><trkpt lat="36.9460305691262" lon="15.151643318465364"><ele>129.5</ele><time>2026-04-17T07:15:56Z</time></trkpt><trkpt lat="36.94611809172823" lon="15.151570389928796"><ele>131.33333333333334</ele><time>2026-04-17T07:15:58Z</time></trkpt><trkpt lat="36.94617959616349" lon="15.151541772465318"><ele>133.16666666666666</ele><time>2026-04-17T07:16:00Z</time></trkpt><trkpt lat="36.94625346605414" lon="15.15156225735433"><ele>135.0</ele><time>2026-04-17T07:16:02Z</time></trkpt><trkpt lat="36.946350046362184" lon="15.151589166838013"><ele>135.0</ele><time>2026-04-17T07:16:04Z</time></trkpt><trkpt lat="36.94642834330826" lon="15.151624949139727"><ele>135.0</ele><time>2026-04-17T07:16:05Z</time></trkpt><trkpt lat="36.94653150712669" lon="15.151667673581423"><ele>135.0</ele><time>2026-04-17T07:16:06Z</time></trkpt><trkpt lat="36.94663601625877" lon="15.151742727062164"><ele>135.0</ele><time>2026-04-17T07:16:07Z</time></trkpt><trkpt lat="36.9467665741468" lon="15.151809282448161"><ele>137.5</ele><time>2026-04-17T07:16:08Z</time></trkpt><trkpt lat="36.94689173228368" lon="15.151843121334357"><ele>140.0</ele><time>2026-04-17T07:16:09Z</time></trkpt><trkpt lat="36.946995125743456" lon="15.151895569904928"><ele>142.5</ele><time>2026-04-17T07:16:10Z</time></trkpt><trkpt lat="36.94710067992997" lon="15.151939317014664"><ele>145.0</ele><time>2026-04-17T07:16:11Z</time></trkpt><trkpt lat="36.947214316798764" lon="15.151962784252728"><ele>145.0</ele><time>2026-04-17T07:16:12Z</time></trkpt><trkpt lat="36.94734413875172" lon="15.1519442528209"><ele>145.0</ele><time>2026-04-17T07:16:13Z</time></trkpt><trkpt lat="36.947483378108586" lon="15.151892597305695"><ele>145.0</ele><time>2026-04-17T07:16:14Z</time></trkpt><trkpt lat="36.94762487462733" lon="15.15186604930885"><ele>145.0</ele><time>2026-04-17T07:16:15Z</time></trkpt><trkpt lat="36.94774080667591" lon="15.15184190542359"><ele>148.0</ele><time>2026-04-17T07:16:16Z</time></trkpt><trkpt lat="36.94781479828515" lon="15.15179917808939"><ele>151.0</ele><time>2026-04-17T07:16:17Z</time></trkpt><trkpt lat="36.9479003417171" lon="15.151766500457562"><ele>154.0</ele><time>2026-04-17T07:16:19Z</time></trkpt><trkpt lat="36.94784684418064" lon="15.151605060453798"><ele>157.0</ele><time>2026-04-17T07:16:21Z</time></trkpt><trkpt lat="36.94770561377438" lon="15.151599856571428"><ele>157.0</ele><time>2026-04-17T07:16:22Z</time></trkpt><trkpt lat="36.947599894349814" lon="15.151562201263824"><ele>157.0</ele><time>2026-04-17T07:16:23Z</time></trkpt><trkpt lat="36.947485052943456" lon="15.15152250960132"><ele>157.0</ele><time>2026-04-17T07:16:24Z</time></trkpt><trkpt lat="36.94739164027246" lon="15.151487588650314"><ele>157.0</ele><time>2026-04-17T07:16:25Z</time></trkpt><trkpt lat="36.947325827538165" lon="15.151449615458477"><ele>157.0</ele><time>2026-04-17T07:16:26Z</time></trkpt><trkpt lat="36.94734580067654" lon="15.151360142091026"><ele>155.2</ele><time>2026-04-17T07:16:29Z</time></trkpt><trkpt lat="36.94741065077693" lon="15.151357689311435"><ele>153.39999999999998</ele><time>2026-04-17T07:16:30Z</time></trkpt><trkpt lat="36.94751258645809" lon="15.151357466541691"><ele>151.60000000000002</ele><time>2026-04-17T07:16:31Z</time></trkpt><trkpt lat="36.94761260740689" lon="15.151354642371782"><ele>149.8</ele><time>2026-04-17T07:16:32Z</time></trkpt><trkpt lat="36.94771824340056" lon="15.151338582120502"><ele>148.0</ele><time>2026-04-17T07:16:33Z</time></trkpt><trkpt lat="36.94783275146864" lon="15.151330687650171"><ele>153.75</ele><time>2026-04-17T07:16:34Z</time></trkpt><trkpt lat="36.947945910612525" lon="15.151322950254626"><ele>159.5</ele><time>2026-04-17T07:16:35Z</time></trkpt><trkpt lat="36.948066485767484" lon="15.151335028239359"><ele>165.25</ele><time>2026-04-17T07:16:36Z</time></trkpt><trkpt lat="36.94818193058651" lon="15.151329766194598"><ele>171.0</ele><time>2026-04-17T07:16:37Z</time></trkpt><trkpt lat="36.94829896003338" lon="15.151323403639624"><ele>176.75</ele><time>2026-04-17T07:16:38Z</time></trkpt><trkpt lat="36.94841626363879" lon="15.15131678419302"><ele>182.5</ele><time>2026-04-17T07:16:39Z</time></trkpt><trkpt lat="36.948541142351935" lon="15.151308928272453"><ele>188.25</ele><time>2026-04-17T07:16:40Z</time></trkpt><trkpt lat="36.948674969269454" lon="15.151280797289425"><ele>194.0</ele><time>2026-04-17T07:16:41Z</time></trkpt><trkpt lat="36.94881512362734" lon="15.151273630433609"><ele>194.0</ele><time>2026-04-17T07:16:42Z</time></trkpt><trkpt lat="36.948950799827934" lon="15.151267483933147"><ele>194.0</ele><time>2026-04-17T07:16:43Z</time></trkpt><trkpt lat="36.94908517328203" lon="15.151258330635423"><ele>194.0</ele><time>2026-04-17T07:16:44Z</time></trkpt><trkpt lat="36.949219349255365" lon="15.151242886234408"><ele>194.0</ele><time>2026-04-17T07:16:45Z</time></trkpt><trkpt lat="36.94935513912647" lon="15.151242539964985"><ele>198.25</ele><time>2026-04-17T07:16:46Z</time></trkpt><trkpt lat="36.949503684144496" lon="15.151261543347331"><ele>202.5</ele><time>2026-04-17T07:16:47Z</time></trkpt><trkpt lat="36.94965120282703" lon="15.151300385438645"><ele>206.75</ele><time>2026-04-17T07:16:48Z</time></trkpt><trkpt lat="36.949793987040735" lon="15.15134946284411"><ele>211.0</ele><time>2026-04-17T07:16:49Z</time></trkpt><trkpt lat="36.94993576175592" lon="15.151398840220688"><ele>210.0</ele><time>2026-04-17T07:16:50Z</time></trkpt><trkpt lat="36.95007771132697" lon="15.151442342955844"><ele>209.0</ele><time>2026-04-17T07:16:51Z</time></trkpt><trkpt lat="36.950210009520006" lon="15.15150342421648"><ele>208.0</ele><time>2026-04-17T07:16:52Z</time></trkpt><trkpt lat="36.950344507242455" lon="15.151518238751478"><ele>207.0</ele><time>2026-04-17T07:16:53Z</time></trkpt><trkpt lat="36.95048023838075" lon="15.151549795614727"><ele>207.0</ele><time>2026-04-17T07:16:54Z</time></trkpt><trkpt lat="36.95061970173029" lon="15.15157853548441"><ele>207.0</ele><time>2026-04-17T07:16:55Z</time></trkpt><trkpt lat="36.95075944514989" lon="15.151599519396148"><ele>207.0</ele><time>2026-04-17T07:16:56Z</time></trkpt><trkpt lat="36.9508909114793" lon="15.15163850042131"><ele>207.0</ele><time>2026-04-17T07:16:57Z</time></trkpt><trkpt lat="36.95101196731539" lon="15.151685903788698"><ele>214.75</ele><time>2026-04-17T07:16:58Z</time></trkpt><trkpt lat="36.95113888050534" lon="15.15173016073729"><ele>222.5</ele><time>2026-04-17T07:16:59Z</time></trkpt><trkpt lat="36.95126095121399" lon="15.151804640034186"><ele>230.25</ele><time>2026-04-17T07:17:00Z</time></trkpt><trkpt lat="36.95138053162371" lon="15.151895937431501"><ele>238.0</ele><time>2026-04-17T07:17:01Z</time></trkpt><trkpt lat="36.95146925660262" lon="15.152007291876666"><ele>238.0</ele><time>2026-04-17T07:17:02Z</time></trkpt><trkpt lat="36.951537323052136" lon="15.152137762605488"><ele>238.0</ele><time>2026-04-17T07:17:03Z</time></trkpt><trkpt lat="36.95159698485556" lon="15.152289358557397"><ele>238.0</ele><time>2026-04-17T07:17:04Z</time></trkpt><trkpt lat="36.95164339994956" lon="15.152434303404249"><ele>238.0</ele><time>2026-04-17T07:17:05Z</time></trkpt><trkpt lat="36.951686960596916" lon="15.152537338690626"><ele>240.25</ele><time>2026-04-17T07:17:06Z</time></trkpt><trkpt lat="36.95174907403974" lon="15.152628830824467"><ele>242.5</ele><time>2026-04-17T07:17:07Z</time></trkpt><trkpt lat="36.9518394278265" lon="15.152692490512367"><ele>244.75</ele><time>2026-04-17T07:17:08Z</time></trkpt><trkpt lat="36.95196708888864" lon="15.152736314159588"><ele>247.0</ele><time>2026-04-17T07:17:09Z</time></trkpt><trkpt lat="36.95209213835391" lon="15.152808932823243"><ele>247.0</ele><time>2026-04-17T07:17:10Z</time></trkpt><trkpt lat="36.95219588571026" lon="15.152915136999173"><ele>247.0</ele><time>2026-04-17T07:17:11Z</time></trkpt><trkpt lat="36.95230381963249" lon="15.153032447644236"><ele>247.0</ele><time>2026-04-17T07:17:12Z</time></trkpt><trkpt lat="36.95240724410234" lon="15.15314228980162"><ele>247.0</ele><time>2026-04-17T07:17:13Z</time></trkpt><trkpt lat="36.952517188186135" lon="15.153235100411216"><ele>246.75</ele><time>2026-04-17T07:17:14Z</time></trkpt><trkpt lat="36.95264194718988" lon="15.15330262395663"><ele>246.5</ele><time>2026-04-17T07:17:15Z</time></trkpt><trkpt lat="36.952759620692895" lon="15.153373177528241"><ele>246.25</ele><time>2026-04-17T07:17:16Z</time></trkpt><trkpt lat="36.9528490282167" lon="15.153447455133405"><ele>246.0</ele><time>2026-04-17T07:17:17Z</time></trkpt><trkpt lat="36.95291402955817" lon="15.15349659418621"><ele>246.0</ele><time>2026-04-17T07:17:18Z</time></trkpt><trkpt lat="36.95299608619799" lon="15.153508176977212"><ele>246.00000000000003</ele><time>2026-04-17T07:17:20Z</time></trkpt><trkpt lat="36.95302134452242" lon="15.153328927281617"><ele>246.00000000000003</ele><time>2026-04-17T07:17:22Z</time></trkpt><trkpt lat="36.95296232556434" lon="15.153232051345206"><ele>246.0</ele><time>2026-04-17T07:17:23Z</time></trkpt><trkpt lat="36.95288061412205" lon="15.153127413971545"><ele>246.0</ele><time>2026-04-17T07:17:24Z</time></trkpt><trkpt lat="36.952799516768856" lon="15.153022481404955"><ele>246.25</ele><time>2026-04-17T07:17:25Z</time></trkpt><trkpt lat="36.952722977462436" lon="15.152910078701964"><ele>246.5</ele><time>2026-04-17T07:17:26Z</time></trkpt><trkpt lat="36.95264699247132" lon="15.152809532280395"><ele>246.75</ele><time>2026-04-17T07:17:27Z</time></trkpt><trkpt lat="36.95257185385133" lon="15.152703832432955"><ele>247.0</ele><time>2026-04-17T07:17:28Z</time></trkpt><trkpt lat="36.95250807462296" lon="15.152582451236567"><ele>246.99999999999997</ele><time>2026-04-17T07:17:29Z</time></trkpt><trkpt lat="36.952473601707936" lon="15.15246761569938"><ele>247.0</ele><time>2026-04-17T07:17:30Z</time></trkpt><trkpt lat="36.95247799698655" lon="15.152372135065022"><ele>247.0</ele><time>2026-04-17T07:17:31Z</time></trkpt><trkpt lat="36.952476981590664" lon="15.152274173677744"><ele>247.0</ele><time>2026-04-17T07:17:32Z</time></trkpt><trkpt lat="36.95247047061067" lon="15.152165299428384"><ele>246.99999999999997</ele><time>2026-04-17T07:17:33Z</time></trkpt><trkpt lat="36.95241674086503" lon="15.152058227920717"><ele>247.0</ele><time>2026-04-17T07:17:34Z</time></trkpt><trkpt lat="36.95233190236222" lon="15.151931514609743"><ele>249.75</ele><time>2026-04-17T07:17:35Z</time></trkpt><trkpt lat="36.95227114709166" lon="15.151774894893137"><ele>252.5</ele><time>2026-04-17T07:17:36Z</time></trkpt><trkpt lat="36.95222594035009" lon="15.15159322848244"><ele>255.25</ele><time>2026-04-17T07:17:37Z</time></trkpt><trkpt lat="36.95218728498307" lon="15.151430955044306"><ele>258.0</ele><time>2026-04-17T07:17:38Z</time></trkpt><trkpt lat="36.95214584180732" lon="15.15128990107608"><ele>262.2</ele><time>2026-04-17T07:17:39Z</time></trkpt><trkpt lat="36.952066912291734" lon="15.15115891783347"><ele>266.4</ele><time>2026-04-17T07:17:40Z</time></trkpt><trkpt lat="36.951969908499436" lon="15.151051672625341"><ele>270.59999999999997</ele><time>2026-04-17T07:17:41Z</time></trkpt><trkpt lat="36.9518604754132" lon="15.1510155092426"><ele>274.8</ele><time>2026-04-17T07:17:42Z</time></trkpt><trkpt lat="36.95179334440002" lon="15.15097963307161"><ele>279.0</ele><time>2026-04-17T07:17:43Z</time></trkpt><trkpt lat="36.95174501399353" lon="15.150923576455575"><ele>279.0</ele><time>2026-04-17T07:17:45Z</time></trkpt><trkpt lat="36.95186331220777" lon="15.150871644791449"><ele>279.0</ele><time>2026-04-17T07:17:47Z</time></trkpt><trkpt lat="36.95197145282147" lon="15.150845706335678"><ele>279.0</ele><time>2026-04-17T07:17:48Z</time></trkpt><trkpt lat="36.95206337541504" lon="15.150831257949672"><ele>279.0</ele><time>2026-04-17T07:17:49Z</time></trkpt><trkpt lat="36.95214406365456" lon="15.150816985873332"><ele>279.0</ele><time>2026-04-17T07:17:50Z</time></trkpt><trkpt lat="36.952253667991016" lon="15.15078797992426"><ele>283.2</ele><time>2026-04-17T07:17:52Z</time></trkpt><trkpt lat="36.952283858309606" lon="15.15070434698499"><ele>287.4</ele><time>2026-04-17T07:17:53Z</time></trkpt><trkpt lat="36.952241837549344" lon="15.150593815438613"><ele>291.6</ele><time>2026-04-17T07:17:54Z</time></trkpt><trkpt lat="36.952121256535385" lon="15.15051156445354"><ele>295.8</ele><time>2026-04-17T07:17:55Z</time></trkpt><trkpt lat="36.95203036011657" lon="15.150430014613285"><ele>300.0</ele><time>2026-04-17T07:17:56Z</time></trkpt><trkpt lat="36.951925776668304" lon="15.150326810498656"><ele>300.0</ele><time>2026-04-17T07:17:57Z</time></trkpt><trkpt lat="36.951816876964735" lon="15.150217451533587"><ele>300.0</ele><time>2026-04-17T07:17:58Z</time></trkpt><trkpt lat="36.951707407412776" lon="15.150110215244759"><ele>300.0</ele><time>2026-04-17T07:17:59Z</time></trkpt><trkpt lat="36.95160502519031" lon="15.15001339066593"><ele>300.0</ele><time>2026-04-17T07:18:00Z</time></trkpt><trkpt lat="36.951520491109974" lon="15.149920179209824"><ele>298.6</ele><time>2026-04-17T07:18:01Z</time></trkpt><trkpt lat="36.95146039090052" lon="15.149821577733638"><ele>297.2</ele><time>2026-04-17T07:18:02Z</time></trkpt><trkpt lat="36.95144376654629" lon="15.149712711739667"><ele>295.8</ele><time>2026-04-17T07:18:03Z</time></trkpt><trkpt lat="36.95143737115508" lon="15.149584147338057"><ele>294.4</ele><time>2026-04-17T07:18:04Z</time></trkpt><trkpt lat="36.95145607370684" lon="15.149443682070183"><ele>293.0</ele><time>2026-04-17T07:18:05Z</time></trkpt><trkpt lat="36.95150392405253" lon="15.149318471848096"><ele>293.0</ele><time>2026-04-17T07:18:06Z</time></trkpt><trkpt lat="36.95158005716292" lon="15.149236354622508"><ele>293.0</ele><time>2026-04-17T07:18:07Z</time></trkpt><trkpt lat="36.95165904693593" lon="15.149174614490239"><ele>293.0</ele><time>2026-04-17T07:18:08Z</time></trkpt><trkpt lat="36.951760662621815" lon="15.14915624778972"><ele>293.0</ele><time>2026-04-17T07:18:09Z</time></trkpt><trkpt lat="36.95186782272351" lon="15.149176879011911"><ele>293.0</ele><time>2026-04-17T07:18:10Z</time></trkpt><trkpt lat="36.95198668428461" lon="15.149208055804637"><ele>298.4</ele><time>2026-04-17T07:18:11Z</time></trkpt><trkpt lat="36.952098357331266" lon="15.149222889155556"><ele>303.8</ele><time>2026-04-17T07:18:12Z</time></trkpt><trkpt lat="36.95219213347769" lon="15.149247971731853"><ele>309.2</ele><time>2026-04-17T07:18:13Z</time></trkpt><trkpt lat="36.952277903334405" lon="15.149260199280082"><ele>314.6</ele><time>2026-04-17T07:18:14Z</time></trkpt><trkpt lat="36.952372063960375" lon="15.149273828113026"><ele>320.0</ele><time>2026-04-17T07:18:15Z</time></trkpt><trkpt lat="36.95246357001883" lon="15.14928499027192"><ele>323.2</ele><time>2026-04-17T07:18:16Z</time></trkpt><trkpt lat="36.95254538636685" lon="15.149277069328408"><ele>326.4</ele><time>2026-04-17T07:18:17Z</time></trkpt><trkpt lat="36.95262970374669" lon="15.149295558102732"><ele>329.6</ele><time>2026-04-17T07:18:18Z</time></trkpt><trkpt lat="36.95275041836805" lon="15.149314228281927"><ele>332.8</ele><time>2026-04-17T07:18:19Z</time></trkpt><trkpt lat="36.952876825920555" lon="15.14933664486962"><ele>336.0</ele><time>2026-04-17T07:18:20Z</time></trkpt><trkpt lat="36.952985524997175" lon="15.149363337872304"><ele>336.0</ele><time>2026-04-17T07:18:21Z</time></trkpt><trkpt lat="36.95306432741249" lon="15.149375354656428"><ele>336.0</ele><time>2026-04-17T07:18:22Z</time></trkpt><trkpt lat="36.95312985255474" lon="15.149364423458413"><ele>336.0</ele><time>2026-04-17T07:18:23Z</time></trkpt><trkpt lat="36.95321695143766" lon="15.149243309291519"><ele>336.0</ele><time>2026-04-17T07:18:25Z</time></trkpt><trkpt lat="36.95318506309579" lon="15.149108067135831"><ele>336.0</ele><time>2026-04-17T07:18:26Z</time></trkpt><trkpt lat="36.95307417242446" lon="15.149014230675588"><ele>337.4</ele><time>2026-04-17T07:18:27Z</time></trkpt><trkpt lat="36.95299029735796" lon="15.148920721051308"><ele>338.8</ele><time>2026-04-17T07:18:28Z</time></trkpt><trkpt lat="36.9529062587638" lon="15.14883346312127"><ele>340.2</ele><time>2026-04-17T07:18:29Z</time></trkpt><trkpt lat="36.952817234636576" lon="15.148775515237663"><ele>341.59999999999997</ele><time>2026-04-17T07:18:30Z</time></trkpt><trkpt lat="36.95273999191797" lon="15.148763807037428"><ele>343.0</ele><time>2026-04-17T07:18:31Z</time></trkpt><trkpt lat="36.95268833412312" lon="15.148707348938581"><ele>343.0</ele><time>2026-04-17T07:18:32Z</time></trkpt><trkpt lat="36.95265418697669" lon="15.148636836089462"><ele>343.0</ele><time>2026-04-17T07:18:34Z</time></trkpt><trkpt lat="36.95267544814871" lon="15.148559221694557"><ele>343.0</ele><time>2026-04-17T07:18:36Z</time></trkpt><trkpt lat="36.952740510855236" lon="15.148553834247183"><ele>343.0</ele><time>2026-04-17T07:18:37Z</time></trkpt><trkpt lat="36.95280727767742" lon="15.14857651803399"><ele>343.0</ele><time>2026-04-17T07:18:38Z</time></trkpt><trkpt lat="36.952879146425424" lon="15.148613802321572"><ele>343.0</ele><time>2026-04-17T07:18:39Z</time></trkpt><trkpt lat="36.952948539162584" lon="15.148638637464334"><ele>343.0</ele><time>2026-04-17T07:18:40Z</time></trkpt><trkpt lat="36.95301878411011" lon="15.148654659880798"><ele>343.0</ele><time>2026-04-17T07:18:41Z</time></trkpt><trkpt lat="36.95309417635254" lon="15.148690202972345"><ele>343.0</ele><time>2026-04-17T07:18:43Z</time></trkpt><trkpt lat="36.95315178368124" lon="15.148722337355794"><ele>343.0</ele><time>2026-04-17T07:18:54Z</time></trkpt><trkpt lat="36.95323373270817" lon="15.148549576614965"><ele>343.0</ele><time>2026-04-17T07:18:58Z</time></trkpt><trkpt lat="36.95329023317776" lon="15.148487372041878"><ele>343.0</ele><time>2026-04-17T07:19:03Z</time></trkpt><trkpt lat="36.953359157339044" lon="15.148430677351783"><ele>345.66666666666663</ele><time>2026-04-17T07:19:05Z</time></trkpt><trkpt lat="36.95339606559726" lon="15.148360161537461"><ele>348.3333333333333</ele><time>2026-04-17T07:19:07Z</time></trkpt><trkpt lat="36.9534521506755" lon="15.148281183864972"><ele>351.0</ele><time>2026-04-17T07:19:20Z</time></trkpt><trkpt lat="36.95350371816844" lon="15.148224590177065"><ele>353.6666666666667</ele><time>2026-04-17T07:19:22Z</time></trkpt><trkpt lat="36.953547663474474" lon="15.148151735696421"><ele>356.33333333333337</ele><time>2026-04-17T07:19:24Z</time></trkpt><trkpt lat="36.95362796942763" lon="15.148052569551961"><ele>359.0</ele><time>2026-04-17T07:19:26Z</time></trkpt><trkpt lat="36.95370569960399" lon="15.14797024067288"><ele>359.0</ele><time>2026-04-17T07:19:28Z</time></trkpt><trkpt lat="36.953761794332486" lon="15.147824256200467"><ele>359.0</ele><time>2026-04-17T07:19:30Z</time></trkpt><trkpt lat="36.95376634479737" lon="15.147724214028262"><ele>359.0</ele><time>2026-04-17T07:19:31Z</time></trkpt><trkpt lat="36.95375592129145" lon="15.147605113858164"><ele>359.0</ele><time>2026-04-17T07:19:32Z</time></trkpt><trkpt lat="36.95372839611561" lon="15.147476028076081"><ele>359.0</ele><time>2026-04-17T07:19:33Z</time></trkpt><trkpt lat="36.95368323608148" lon="15.147360523553846"><ele>359.1666666666667</ele><time>2026-04-17T07:19:34Z</time></trkpt><trkpt lat="36.95367372645892" lon="15.147252264136426"><ele>359.33333333333337</ele><time>2026-04-17T07:19:35Z</time></trkpt><trkpt lat="36.95365357947696" lon="15.147150555982552"><ele>359.5</ele><time>2026-04-17T07:19:36Z</time></trkpt><trkpt lat="36.953639085783664" lon="15.147046792418486"><ele>359.6666666666667</ele><time>2026-04-17T07:19:37Z</time></trkpt><trkpt lat="36.95364865769237" lon="15.14694682500461"><ele>359.8333333333333</ele><time>2026-04-17T07:19:38Z</time></trkpt><trkpt lat="36.953685267670664" lon="15.146827496669061"><ele>360.0</ele><time>2026-04-17T07:19:39Z</time></trkpt><trkpt lat="36.95375106888354" lon="15.146705390116104"><ele>360.0</ele><time>2026-04-17T07:19:40Z</time></trkpt><trkpt lat="36.95379519436486" lon="15.146580101349912"><ele>360.0</ele><time>2026-04-17T07:19:41Z</time></trkpt><trkpt lat="36.953865976609414" lon="15.146450861067926"><ele>360.0</ele><time>2026-04-17T07:19:42Z</time></trkpt><trkpt lat="36.95392342449803" lon="15.146292954148981"><ele>360.0</ele><time>2026-04-17T07:19:43Z</time></trkpt><trkpt lat="36.95397021560732" lon="15.14612162566057"><ele>360.4</ele><time>2026-04-17T07:19:44Z</time></trkpt><trkpt lat="36.95401177661357" lon="15.145957092779526"><ele>360.8</ele><time>2026-04-17T07:19:45Z</time></trkpt><trkpt lat="36.95404575967411" lon="15.145820810524167"><ele>361.20000000000005</ele><time>2026-04-17T07:19:46Z</time></trkpt><trkpt lat="36.95407977115128" lon="15.145708890632267"><ele>361.6</ele><time>2026-04-17T07:19:47Z</time></trkpt><trkpt lat="36.95412439052884" lon="15.14561292213418"><ele>362.0</ele><time>2026-04-17T07:19:48Z</time></trkpt><trkpt lat="36.95418321480481" lon="15.145515789767261"><ele>365.75</ele><time>2026-04-17T07:19:49Z</time></trkpt><trkpt lat="36.9543082176529" lon="15.145483805618612"><ele>369.5</ele><time>2026-04-17T07:19:50Z</time></trkpt><trkpt lat="36.95443163224592" lon="15.14539709537659"><ele>373.25</ele><time>2026-04-17T07:19:51Z</time></trkpt><trkpt lat="36.95455592765046" lon="15.145335586254232"><ele>377.0</ele><time>2026-04-17T07:19:52Z</time></trkpt><trkpt lat="36.95467264145904" lon="15.145267584894581"><ele>377.0</ele><time>2026-04-17T07:19:53Z</time></trkpt><trkpt lat="36.954778532150634" lon="15.14521053700031"><ele>377.0</ele><time>2026-04-17T07:19:54Z</time></trkpt><trkpt lat="36.95486737616694" lon="15.145165448603139"><ele>377.0</ele><time>2026-04-17T07:19:55Z</time></trkpt><trkpt lat="36.95494890183426" lon="15.14512259431832"><ele>377.0</ele><time>2026-04-17T07:19:56Z</time></trkpt><trkpt lat="36.95503676416681" lon="15.145077969194295"><ele>377.0</ele><time>2026-04-17T07:19:57Z</time></trkpt><trkpt lat="36.95512997835105" lon="15.145021167762156"><ele>377.8</ele><time>2026-04-17T07:19:58Z</time></trkpt><trkpt lat="36.9552059338675" lon="15.144938545054194"><ele>378.6</ele><time>2026-04-17T07:19:59Z</time></trkpt><trkpt lat="36.9552792330444" lon="15.144836087037314"><ele>379.40000000000003</ele><time>2026-04-17T07:20:00Z</time></trkpt><trkpt lat="36.95534363821358" lon="15.14473715018171"><ele>380.20000000000005</ele><time>2026-04-17T07:20:01Z</time></trkpt><trkpt lat="36.95539975286049" lon="15.144637247768175"><ele>381.0</ele><time>2026-04-17T07:20:02Z</time></trkpt><trkpt lat="36.95545166634199" lon="15.144529375713853"><ele>381.0</ele><time>2026-04-17T07:20:03Z</time></trkpt><trkpt lat="36.95549816449278" lon="15.144427027620601"><ele>381.0</ele><time>2026-04-17T07:20:04Z</time></trkpt><trkpt lat="36.95553977532764" lon="15.144332486011498"><ele>381.0</ele><time>2026-04-17T07:20:05Z</time></trkpt><trkpt lat="36.95557636697247" lon="15.144246560092737"><ele>381.0</ele><time>2026-04-17T07:20:06Z</time></trkpt><trkpt lat="36.955614842155256" lon="15.144102316451592"><ele>381.0</ele><time>2026-04-17T07:20:08Z</time></trkpt><trkpt lat="36.955615897859516" lon="15.143996956620992"><ele>382.0</ele><time>2026-04-17T07:20:09Z</time></trkpt><trkpt lat="36.95559648896548" lon="15.14388668312898"><ele>383.0</ele><time>2026-04-17T07:20:10Z</time></trkpt><trkpt lat="36.9555450252051" lon="15.143779021568315"><ele>384.0</ele><time>2026-04-17T07:20:11Z</time></trkpt><trkpt lat="36.95551331757955" lon="15.143683107152269"><ele>385.0</ele><time>2026-04-17T07:20:12Z</time></trkpt><trkpt lat="36.95549648357139" lon="15.143589895892813"><ele>386.0</ele><time>2026-04-17T07:20:13Z</time></trkpt><trkpt lat="36.955508032290865" lon="15.14349609427349"><ele>387.0</ele><time>2026-04-17T07:20:14Z</time></trkpt><trkpt lat="36.955508502694634" lon="15.143399406532712"><ele>387.0</ele><time>2026-04-17T07:20:15Z</time></trkpt><trkpt lat="36.95556572384661" lon="15.143323662043368"><ele>387.0</ele><time>2026-04-17T07:20:16Z</time></trkpt><trkpt lat="36.955587410218115" lon="15.143223958052943"><ele>387.0</ele><time>2026-04-17T07:20:17Z</time></trkpt><trkpt lat="36.95562282761483" lon="15.143131583782361"><ele>387.0</ele><time>2026-04-17T07:20:18Z</time></trkpt><trkpt lat="36.955674937654265" lon="15.143029608325923"><ele>387.0</ele><time>2026-04-17T07:20:19Z</time></trkpt><trkpt lat="36.95570041369526" lon="15.142927615550294"><ele>387.0</ele><time>2026-04-17T07:20:20Z</time></trkpt><trkpt lat="36.955755205459674" lon="15.142846070866824"><ele>387.5</ele><time>2026-04-17T07:20:21Z</time></trkpt><trkpt lat="36.955805837010054" lon="15.142766937391064"><ele>388.0</ele><time>2026-04-17T07:20:22Z</time></trkpt><trkpt lat="36.955861895915646" lon="15.14268593549145"><ele>388.5</ele><time>2026-04-17T07:20:23Z</time></trkpt><trkpt lat="36.95590366511927" lon="15.142605436325063"><ele>389.0</ele><time>2026-04-17T07:20:24Z</time></trkpt><trkpt lat="36.95596411254416" lon="15.142543049349475"><ele>389.5</ele><time>2026-04-17T07:20:25Z</time></trkpt><trkpt lat="36.956028017992985" lon="15.142478262808606"><ele>390.0</ele><time>2026-04-17T07:20:26Z</time></trkpt><trkpt lat="36.95611705318848" lon="15.142436152043757"><ele>391.6</ele><time>2026-04-17T07:20:27Z</time></trkpt><trkpt lat="36.95618705556874" lon="15.142387120080905"><ele>393.2</ele><time>2026-04-17T07:20:28Z</time></trkpt><trkpt lat="36.956302477642396" lon="15.142337811112585"><ele>394.79999999999995</ele><time>2026-04-17T07:20:30Z</time></trkpt><trkpt lat="36.95642308375746" lon="15.142273369059533"><ele>396.4</ele><time>2026-04-17T07:20:32Z</time></trkpt><trkpt lat="36.956475807555606" lon="15.142208873750882"><ele>398.0</ele><time>2026-04-17T07:20:33Z</time></trkpt><trkpt lat="36.956519679964195" lon="15.142128114131191"><ele>398.4</ele><time>2026-04-17T07:20:34Z</time></trkpt><trkpt lat="36.9565587742025" lon="15.142037631881863"><ele>398.79999999999995</ele><time>2026-04-17T07:20:35Z</time></trkpt><trkpt lat="36.95658922763993" lon="15.14194153100064"><ele>399.2</ele><time>2026-04-17T07:20:36Z</time></trkpt><trkpt lat="36.95663380129675" lon="15.141872170074254"><ele>399.6</ele><time>2026-04-17T07:20:37Z</time></trkpt><trkpt lat="36.95669422003202" lon="15.141723543039543"><ele>400.0</ele><time>2026-04-17T07:20:39Z</time></trkpt><trkpt lat="36.956732210855115" lon="15.14163049759275"><ele>399.00000000000006</ele><time>2026-04-17T07:20:40Z</time></trkpt><trkpt lat="36.95676274490311" lon="15.141520485243522"><ele>398.0</ele><time>2026-04-17T07:20:41Z</time></trkpt><trkpt lat="36.95680395125273" lon="15.141424996376431"><ele>397.0</ele><time>2026-04-17T07:20:42Z</time></trkpt><trkpt lat="36.956835201870376" lon="15.141346309704986"><ele>396.0</ele><time>2026-04-17T07:20:43Z</time></trkpt><trkpt lat="36.95686626969168" lon="15.141262956857945"><ele>395.00000000000006</ele><time>2026-04-17T07:20:44Z</time></trkpt><trkpt lat="36.95690062174834" lon="15.141177985395286"><ele>394.0</ele><time>2026-04-17T07:20:45Z</time></trkpt><trkpt lat="36.956931311497" lon="15.14110064807238"><ele>394.0</ele><time>2026-04-17T07:20:46Z</time></trkpt><trkpt lat="36.95696206396111" lon="15.141028252767242"><ele>394.0</ele><time>2026-04-17T07:20:47Z</time></trkpt><trkpt lat="36.95699150988283" lon="15.140953309668038"><ele>394.0</ele><time>2026-04-17T07:20:48Z</time></trkpt><trkpt lat="36.957026979320204" lon="15.140875140535986"><ele>394.0</ele><time>2026-04-17T07:20:49Z</time></trkpt><trkpt lat="36.9570593961621" lon="15.140790954812257"><ele>394.0</ele><time>2026-04-17T07:20:50Z</time></trkpt><trkpt lat="36.95709277388459" lon="15.140703422484544"><ele>394.0</ele><time>2026-04-17T07:20:51Z</time></trkpt><trkpt lat="36.95713217584304" lon="15.140606262978526"><ele>394.0</ele><time>2026-04-17T07:20:52Z</time></trkpt><trkpt lat="36.957171536422265" lon="15.14050373908309"><ele>393.0</ele><time>2026-04-17T07:20:53Z</time></trkpt><trkpt lat="36.957233109092044" lon="15.140401574107909"><ele>392.0</ele><time>2026-04-17T07:20:54Z</time></trkpt><trkpt lat="36.95728889057026" lon="15.14028589263051"><ele>391.0</ele><time>2026-04-17T07:20:55Z</time></trkpt><trkpt lat="36.95734299478029" lon="15.14018282109856"><ele>390.0</ele><time>2026-04-17T07:20:56Z</time></trkpt><trkpt lat="36.957397118172096" lon="15.140085399048505"><ele>389.0</ele><time>2026-04-17T07:20:57Z</time></trkpt><trkpt lat="36.957452402996346" lon="15.139983926958847"><ele>388.4</ele><time>2026-04-17T07:20:58Z</time></trkpt><trkpt lat="36.9575014250465" lon="15.139880740786252"><ele>387.79999999999995</ele><time>2026-04-17T07:20:59Z</time></trkpt><trkpt lat="36.957540154422546" lon="15.139787514486754"><ele>387.20000000000005</ele><time>2026-04-17T07:21:00Z</time></trkpt><trkpt lat="36.9575763161578" lon="15.139693132397237"><ele>386.6</ele><time>2026-04-17T07:21:01Z</time></trkpt><trkpt lat="36.95761644707452" lon="15.13958614002818"><ele>386.0</ele><time>2026-04-17T07:21:02Z</time></trkpt><trkpt lat="36.957652125990236" lon="15.13946577575135"><ele>387.20000000000005</ele><time>2026-04-17T07:21:03Z</time></trkpt><trkpt lat="36.95768883194367" lon="15.139350213935622"><ele>388.40000000000003</ele><time>2026-04-17T07:21:04Z</time></trkpt><trkpt lat="36.957738541243316" lon="15.139260962215394"><ele>389.6</ele><time>2026-04-17T07:21:05Z</time></trkpt><trkpt lat="36.957769654585455" lon="15.13915086108054"><ele>390.8</ele><time>2026-04-17T07:21:06Z</time></trkpt><trkpt lat="36.957821046720746" lon="15.139043159034358"><ele>392.0</ele><time>2026-04-17T07:21:07Z</time></trkpt><trkpt lat="36.95786118358576" lon="15.138937816656687"><ele>392.8</ele><time>2026-04-17T07:21:08Z</time></trkpt><trkpt lat="36.95790246230765" lon="15.138835315579733"><ele>393.6</ele><time>2026-04-17T07:21:09Z</time></trkpt><trkpt lat="36.95794187152809" lon="15.138737279913613"><ele>394.40000000000003</ele><time>2026-04-17T07:21:10Z</time></trkpt><trkpt lat="36.95798133349885" lon="15.138638948321432"><ele>395.20000000000005</ele><time>2026-04-17T07:21:11Z</time></trkpt><trkpt lat="36.95801883433846" lon="15.138545503259618"><ele>396.0</ele><time>2026-04-17T07:21:12Z</time></trkpt><trkpt lat="36.95806915480951" lon="15.13842011441412"><ele>396.0</ele><time>2026-04-17T07:21:13Z</time></trkpt><trkpt lat="36.958122193282584" lon="15.138287952645591"><ele>396.0</ele><time>2026-04-17T07:21:14Z</time></trkpt><trkpt lat="36.958170483781856" lon="15.138167622255132"><ele>396.0</ele><time>2026-04-17T07:21:15Z</time></trkpt><trkpt lat="36.958214437057585" lon="15.138058098828504"><ele>396.0</ele><time>2026-04-17T07:21:16Z</time></trkpt><trkpt lat="36.95825701304784" lon="15.137952007726152"><ele>396.0</ele><time>2026-04-17T07:21:17Z</time></trkpt><trkpt lat="36.95831217116108" lon="15.137814348689638"><ele>397.4</ele><time>2026-04-17T07:21:18Z</time></trkpt><trkpt lat="36.95836878046213" lon="15.137672854182517"><ele>398.8</ele><time>2026-04-17T07:21:19Z</time></trkpt><trkpt lat="36.95842250867507" lon="15.13753856084285"><ele>400.2</ele><time>2026-04-17T07:21:20Z</time></trkpt><trkpt lat="36.958473260365736" lon="15.137411707256371"><ele>401.59999999999997</ele><time>2026-04-17T07:21:21Z</time></trkpt><trkpt lat="36.95850605870471" lon="15.137329728045072"><ele>403.0</ele><time>2026-04-17T07:21:22Z</time></trkpt><trkpt lat="36.958369326680604" lon="15.137244843276829"><ele>404.2</ele><time>2026-04-17T07:21:42Z</time></trkpt><trkpt lat="36.95830590584017" lon="15.13716559835445"><ele>405.4</ele><time>2026-04-17T07:21:43Z</time></trkpt><trkpt lat="36.95823758767012" lon="15.13708754402752"><ele>406.59999999999997</ele><time>2026-04-17T07:21:44Z</time></trkpt><trkpt lat="36.95816370312288" lon="15.136995636923476"><ele>407.79999999999995</ele><time>2026-04-17T07:21:45Z</time></trkpt><trkpt lat="36.95808697032665" lon="15.136904046429553"><ele>409.0</ele><time>2026-04-17T07:21:46Z</time></trkpt><trkpt lat="36.95801553623031" lon="15.136812875678547"><ele>409.00000000000006</ele><time>2026-04-17T07:21:47Z</time></trkpt><trkpt lat="36.95793852362001" lon="15.136720300830135"><ele>409.0</ele><time>2026-04-17T07:21:48Z</time></trkpt><trkpt lat="36.957877854966064" lon="15.136643862948445"><ele>409.0</ele><time>2026-04-17T07:21:49Z</time></trkpt><trkpt lat="36.95782948104228" lon="15.136581754848855"><ele>409.0</ele><time>2026-04-17T07:21:50Z</time></trkpt><trkpt lat="36.957780381050235" lon="15.136513515926852"><ele>409.00000000000006</ele><time>2026-04-17T07:21:51Z</time></trkpt><trkpt lat="36.957725210800575" lon="15.136433246351476"><ele>409.0</ele><time>2026-04-17T07:21:52Z</time></trkpt><trkpt lat="36.95765835225024" lon="15.136357420556552"><ele>410.1666666666667</ele><time>2026-04-17T07:21:53Z</time></trkpt><trkpt lat="36.95759343186629" lon="15.136302697232045"><ele>411.33333333333337</ele><time>2026-04-17T07:21:54Z</time></trkpt><trkpt lat="36.95753329171786" lon="15.13625628579041"><ele>412.5</ele><time>2026-04-17T07:21:55Z</time></trkpt><trkpt lat="36.9574895343733" lon="15.136193861913453"><ele>413.66666666666663</ele><time>2026-04-17T07:21:56Z</time></trkpt><trkpt lat="36.9574616030014" lon="15.136118047837037"><ele>414.8333333333333</ele><time>2026-04-17T07:21:57Z</time></trkpt><trkpt lat="36.957389082022154" lon="15.136033213492835"><ele>416.0</ele><time>2026-04-17T07:21:59Z</time></trkpt><trkpt lat="36.95726278917809" lon="15.136061461592728"><ele>415.99999999999994</ele><time>2026-04-17T07:22:01Z</time></trkpt><trkpt lat="36.95720777031217" lon="15.136106974111916"><ele>416.0</ele><time>2026-04-17T07:22:02Z</time></trkpt><trkpt lat="36.95715064202675" lon="15.136159215634944"><ele>416.0</ele><time>2026-04-17T07:22:03Z</time></trkpt><trkpt lat="36.95704155455662" lon="15.136205580200846"><ele>416.0</ele><time>2026-04-17T07:22:05Z</time></trkpt><trkpt lat="36.95694390789001" lon="15.136164231127196"><ele>415.99999999999994</ele><time>2026-04-17T07:22:07Z</time></trkpt><trkpt lat="36.95688615689056" lon="15.13612792835637"><ele>416.0</ele><time>2026-04-17T07:22:08Z</time></trkpt><trkpt lat="36.95682331869945" lon="15.136092115982754"><ele>415.99999999999994</ele><time>2026-04-17T07:22:09Z</time></trkpt><trkpt lat="36.95675691449054" lon="15.13605016429384"><ele>416.0</ele><time>2026-04-17T07:22:10Z</time></trkpt><trkpt lat="36.95669694757548" lon="15.135996885404174"><ele>416.0</ele><time>2026-04-17T07:22:11Z</time></trkpt><trkpt lat="36.956648293422894" lon="15.135939573048336"><ele>416.0</ele><time>2026-04-17T07:22:12Z</time></trkpt><trkpt lat="36.95656068629281" lon="15.13586612174917"><ele>415.99999999999994</ele><time>2026-04-17T07:22:14Z</time></trkpt><trkpt lat="36.95649450571543" lon="15.13582479594729"><ele>416.0</ele><time>2026-04-17T07:22:15Z</time></trkpt><trkpt lat="36.95642357136693" lon="15.135783418337557"><ele>415.99999999999994</ele><time>2026-04-17T07:22:16Z</time></trkpt><trkpt lat="36.956357363171264" lon="15.135755453650404"><ele>416.0</ele><time>2026-04-17T07:22:17Z</time></trkpt><trkpt lat="36.956284836509774" lon="15.135739467221331"><ele>416.0</ele><time>2026-04-17T07:22:18Z</time></trkpt><trkpt lat="36.956214655097156" lon="15.13572076855666"><ele>416.0</ele><time>2026-04-17T07:22:19Z</time></trkpt><trkpt lat="36.95611529954494" lon="15.135706121691847"><ele>415.99999999999994</ele><time>2026-04-17T07:22:21Z</time></trkpt><trkpt lat="36.95603532473288" lon="15.135782667006085"><ele>416.0</ele><time>2026-04-17T07:22:23Z</time></trkpt><trkpt lat="36.95598177841189" lon="15.135859445362591"><ele>416.0</ele><time>2026-04-17T07:22:25Z</time></trkpt><trkpt lat="36.95591865590696" lon="15.13591180547743"><ele>416.0</ele><time>2026-04-17T07:22:27Z</time></trkpt><trkpt lat="36.955854535682654" lon="15.135986729947769"><ele>416.0</ele><time>2026-04-17T07:22:30Z</time></trkpt><trkpt lat="36.95574187927467" lon="15.136098312621465"><ele>416.0</ele><time>2026-04-17T07:22:32Z</time></trkpt><trkpt lat="36.95568335742751" lon="15.136154138373199"><ele>416.0</ele><time>2026-04-17T07:22:33Z</time></trkpt><trkpt lat="36.95562474975039" lon="15.136232528765344"><ele>417.16666666666663</ele><time>2026-04-17T07:22:35Z</time></trkpt><trkpt lat="36.955582679032524" lon="15.136311111135422"><ele>418.3333333333333</ele><time>2026-04-17T07:22:37Z</time></trkpt><trkpt lat="36.95552228964641" lon="15.136402362500473"><ele>419.5</ele><time>2026-04-17T07:22:39Z</time></trkpt><trkpt lat="36.95548566445568" lon="15.136467338219065"><ele>420.66666666666663</ele><time>2026-04-17T07:22:41Z</time></trkpt><trkpt lat="36.955443406879716" lon="15.136589605553215"><ele>421.8333333333333</ele><time>2026-04-17T07:22:56Z</time></trkpt><trkpt lat="36.955408460644776" lon="15.136687374817578"><ele>423.0</ele><time>2026-04-17T07:22:57Z</time></trkpt><trkpt lat="36.9553624722068" lon="15.136803175983776"><ele>423.0</ele><time>2026-04-17T07:22:58Z</time></trkpt><trkpt lat="36.95530919086094" lon="15.136923773156749"><ele>423.0</ele><time>2026-04-17T07:22:59Z</time></trkpt><trkpt lat="36.95524804188807" lon="15.137056240164425"><ele>423.0</ele><time>2026-04-17T07:23:00Z</time></trkpt><trkpt lat="36.955195024777005" lon="15.137181190229438"><ele>423.0</ele><time>2026-04-17T07:23:01Z</time></trkpt><trkpt lat="36.955140592356955" lon="15.137288352263734"><ele>423.0</ele><time>2026-04-17T07:23:02Z</time></trkpt><trkpt lat="36.95509364706742" lon="15.137390423825028"><ele>422.8333333333333</ele><time>2026-04-17T07:23:03Z</time></trkpt><trkpt lat="36.95505399429428" lon="15.137485448544933"><ele>422.66666666666663</ele><time>2026-04-17T07:23:04Z</time></trkpt><trkpt lat="36.9550102542935" lon="15.137582815626537"><ele>422.5</ele><time>2026-04-17T07:23:05Z</time></trkpt><trkpt lat="36.95495919278242" lon="15.137685964331194"><ele>422.3333333333333</ele><time>2026-04-17T07:23:06Z</time></trkpt><trkpt lat="36.95491112969909" lon="15.137777870364047"><ele>422.16666666666663</ele><time>2026-04-17T07:23:07Z</time></trkpt><trkpt lat="36.95486873554122" lon="15.137862715603497"><ele>422.0</ele><time>2026-04-17T07:23:08Z</time></trkpt><trkpt lat="36.954827667040206" lon="15.137942485676318"><ele>421.99999999999994</ele><time>2026-04-17T07:23:09Z</time></trkpt><trkpt lat="36.95479272959286" lon="15.13801722578435"><ele>422.0</ele><time>2026-04-17T07:23:10Z</time></trkpt><trkpt lat="36.95474974471605" lon="15.138104057341874"><ele>422.0</ele><time>2026-04-17T07:23:11Z</time></trkpt><trkpt lat="36.954686351193715" lon="15.138194233978084"><ele>422.0</ele><time>2026-04-17T07:23:12Z</time></trkpt><trkpt lat="36.95461727508819" lon="15.138285262009768"><ele>421.99999999999994</ele><time>2026-04-17T07:23:13Z</time></trkpt><trkpt lat="36.95455595523085" lon="15.13836751972826"><ele>422.0</ele><time>2026-04-17T07:23:14Z</time></trkpt><trkpt lat="36.954497224757176" lon="15.138436237199164"><ele>421.20000000000005</ele><time>2026-04-17T07:23:15Z</time></trkpt><trkpt lat="36.954447722593834" lon="15.138503939718925"><ele>420.4</ele><time>2026-04-17T07:23:16Z</time></trkpt><trkpt lat="36.954401264669634" lon="15.138565494924352"><ele>419.6</ele><time>2026-04-17T07:23:17Z</time></trkpt><trkpt lat="36.954330645377986" lon="15.138726542532721"><ele>418.79999999999995</ele><time>2026-04-17T07:23:19Z</time></trkpt><trkpt lat="36.954276989962764" lon="15.138842625384148"><ele>418.0</ele><time>2026-04-17T07:23:20Z</time></trkpt><trkpt lat="36.95422153504607" lon="15.138959016911047"><ele>416.83333333333337</ele><time>2026-04-17T07:23:21Z</time></trkpt><trkpt lat="36.95418194608319" lon="15.139053381057064"><ele>415.6666666666667</ele><time>2026-04-17T07:23:22Z</time></trkpt><trkpt lat="36.95414387502884" lon="15.139124165900862"><ele>414.5</ele><time>2026-04-17T07:23:23Z</time></trkpt><trkpt lat="36.95411101406899" lon="15.139192890201217"><ele>413.33333333333337</ele><time>2026-04-17T07:23:24Z</time></trkpt><trkpt lat="36.954077490067895" lon="15.139260502156608"><ele>412.1666666666667</ele><time>2026-04-17T07:23:25Z</time></trkpt><trkpt lat="36.95401461943329" lon="15.139340606896493"><ele>411.0</ele><time>2026-04-17T07:23:26Z</time></trkpt><trkpt lat="36.95394616357989" lon="15.139437456177662"><ele>411.0</ele><time>2026-04-17T07:23:27Z</time></trkpt><trkpt lat="36.95386946333984" lon="15.139543754307425"><ele>411.0</ele><time>2026-04-17T07:23:28Z</time></trkpt><trkpt lat="36.953805023609185" lon="15.139630077555195"><ele>411.0</ele><time>2026-04-17T07:23:29Z</time></trkpt><trkpt lat="36.95375518420881" lon="15.139700572203488"><ele>411.0</ele><time>2026-04-17T07:23:30Z</time></trkpt><trkpt lat="36.9537029006195" lon="15.139789901927895"><ele>411.0</ele><time>2026-04-17T07:23:31Z</time></trkpt><trkpt lat="36.953652680039106" lon="15.139886976503357"><ele>410.0</ele><time>2026-04-17T07:23:32Z</time></trkpt><trkpt lat="36.95360484152724" lon="15.13997532889531"><ele>409.0</ele><time>2026-04-17T07:23:33Z</time></trkpt><trkpt lat="36.953552811850955" lon="15.140050131722697"><ele>408.0</ele><time>2026-04-17T07:23:34Z</time></trkpt><trkpt lat="36.953503144707305" lon="15.140134811746496"><ele>407.0</ele><time>2026-04-17T07:23:35Z</time></trkpt><trkpt lat="36.95345472349164" lon="15.14023135356421"><ele>406.0</ele><time>2026-04-17T07:23:36Z</time></trkpt><trkpt lat="36.95341292541483" lon="15.140311102034016"><ele>405.0</ele><time>2026-04-17T07:23:37Z</time></trkpt><trkpt lat="36.95338174625702" lon="15.140386119238784"><ele>404.5</ele><time>2026-04-17T07:23:38Z</time></trkpt><trkpt lat="36.9532987606235" lon="15.140529839357535"><ele>404.0</ele><time>2026-04-17T07:23:40Z</time></trkpt><trkpt lat="36.95325319060393" lon="15.140623722024818"><ele>403.5</ele><time>2026-04-17T07:23:41Z</time></trkpt><trkpt lat="36.953213038822156" lon="15.140701709225844"><ele>403.0</ele><time>2026-04-17T07:23:42Z</time></trkpt><trkpt lat="36.95317831373937" lon="15.140779037578373"><ele>402.5</ele><time>2026-04-17T07:23:43Z</time></trkpt><trkpt lat="36.953139167630546" lon="15.140853050382624"><ele>402.0</ele><time>2026-04-17T07:23:44Z</time></trkpt><trkpt lat="36.95308033872449" lon="15.140928146616643"><ele>402.0</ele><time>2026-04-17T07:23:45Z</time></trkpt><trkpt lat="36.953020916640895" lon="15.141010494520579"><ele>402.0</ele><time>2026-04-17T07:23:46Z</time></trkpt><trkpt lat="36.952964454755744" lon="15.141070683144694"><ele>402.0</ele><time>2026-04-17T07:23:47Z</time></trkpt><trkpt lat="36.952898626793306" lon="15.141113695241845"><ele>402.0</ele><time>2026-04-17T07:23:48Z</time></trkpt><trkpt lat="36.952831839067855" lon="15.14113823443578"><ele>402.0</ele><time>2026-04-17T07:23:49Z</time></trkpt><trkpt lat="36.952764260559476" lon="15.14115286076899"><ele>402.0</ele><time>2026-04-17T07:23:50Z</time></trkpt><trkpt lat="36.95265226764194" lon="15.141122762813469"><ele>402.0</ele><time>2026-04-17T07:23:52Z</time></trkpt><trkpt lat="36.9525944874954" lon="15.14107294044145"><ele>402.0</ele><time>2026-04-17T07:23:53Z</time></trkpt><trkpt lat="36.95253673809007" lon="15.14100624942532"><ele>402.0</ele><time>2026-04-17T07:23:54Z</time></trkpt><trkpt lat="36.95248363827182" lon="15.140939366760383"><ele>402.0</ele><time>2026-04-17T07:23:55Z</time></trkpt><trkpt lat="36.952439236447944" lon="15.140860887043962"><ele>402.0</ele><time>2026-04-17T07:23:56Z</time></trkpt><trkpt lat="36.95239173632559" lon="15.140785902875106"><ele>402.0</ele><time>2026-04-17T07:23:57Z</time></trkpt><trkpt lat="36.95234367798029" lon="15.14072151723478"><ele>402.0</ele><time>2026-04-17T07:23:58Z</time></trkpt><trkpt lat="36.95227103566946" lon="15.140645419501606"><ele>404.0</ele><time>2026-04-17T07:24:00Z</time></trkpt><trkpt lat="36.95220300880937" lon="15.140593036045805"><ele>406.0</ele><time>2026-04-17T07:24:03Z</time></trkpt><trkpt lat="36.952127018248525" lon="15.140620470655389"><ele>408.0</ele><time>2026-04-17T07:24:07Z</time></trkpt><trkpt lat="36.95212963050463" lon="15.140702025030615"><ele>410.0</ele><time>2026-04-17T07:24:35Z</time></trkpt><trkpt lat="36.95218774546072" lon="15.140667227033843"><ele>412.0</ele><time>2026-04-17T07:24:38Z</time></trkpt><trkpt lat="36.95225512011207" lon="15.140580899803439"><ele>414.0</ele><time>2026-04-17T07:24:41Z</time></trkpt><trkpt lat="36.95234667418963" lon="15.1405129709597"><ele>414.0</ele><time>2026-04-17T07:24:43Z</time></trkpt><trkpt lat="36.95240977955938" lon="15.140469679402878"><ele>414.0</ele><time>2026-04-17T07:24:44Z</time></trkpt><trkpt lat="36.95251960109016" lon="15.140376933500862"><ele>414.0</ele><time>2026-04-17T07:24:45Z</time></trkpt><trkpt lat="36.952580273124255" lon="15.14030718357691"><ele>414.0</ele><time>2026-04-17T07:24:46Z</time></trkpt><trkpt lat="36.95264174324333" lon="15.1402467806196"><ele>414.0</ele><time>2026-04-17T07:24:47Z</time></trkpt><trkpt lat="36.95270750710124" lon="15.140174942628276"><ele>413.5</ele><time>2026-04-17T07:24:48Z</time></trkpt><trkpt lat="36.95276155943756" lon="15.14009488815737"><ele>413.0</ele><time>2026-04-17T07:24:49Z</time></trkpt><trkpt lat="36.9528046793957" lon="15.140009927009995"><ele>412.5</ele><time>2026-04-17T07:24:50Z</time></trkpt><trkpt lat="36.952849991371664" lon="15.139914320862397"><ele>412.0</ele><time>2026-04-17T07:24:51Z</time></trkpt><trkpt lat="36.95289342169953" lon="15.139806823294778"><ele>411.5</ele><time>2026-04-17T07:24:52Z</time></trkpt><trkpt lat="36.95293242910621" lon="15.139706770329514"><ele>411.0</ele><time>2026-04-17T07:24:53Z</time></trkpt><trkpt lat="36.95297522028722" lon="15.139612839456248"><ele>412.2857142857143</ele><time>2026-04-17T07:24:54Z</time></trkpt><trkpt lat="36.95302258019177" lon="15.139522460901112"><ele>413.57142857142856</ele><time>2026-04-17T07:24:55Z</time></trkpt><trkpt lat="36.953063868942564" lon="15.13944693016717"><ele>414.8571428571429</ele><time>2026-04-17T07:24:56Z</time></trkpt><trkpt lat="36.95310294893149" lon="15.139373611392065"><ele>416.1428571428571</ele><time>2026-04-17T07:24:57Z</time></trkpt><trkpt lat="36.95313179364457" lon="15.139300704594591"><ele>417.42857142857144</ele><time>2026-04-17T07:24:58Z</time></trkpt><trkpt lat="36.95316555416042" lon="15.139225742234746"><ele>418.7142857142857</ele><time>2026-04-17T07:24:59Z</time></trkpt><trkpt lat="36.95320815573712" lon="15.139144350527289"><ele>420.0</ele><time>2026-04-17T07:25:00Z</time></trkpt><trkpt lat="36.953251411709154" lon="15.13905965063299"><ele>419.6666666666667</ele><time>2026-04-17T07:25:01Z</time></trkpt><trkpt lat="36.95329493827385" lon="15.138972646357846"><ele>419.33333333333337</ele><time>2026-04-17T07:25:02Z</time></trkpt><trkpt lat="36.9533313430481" lon="15.138883849180191"><ele>419.0</ele><time>2026-04-17T07:25:03Z</time></trkpt><trkpt lat="36.95336997006864" lon="15.13879296756013"><ele>418.6666666666667</ele><time>2026-04-17T07:25:04Z</time></trkpt><trkpt lat="36.953410612688785" lon="15.138704245052036"><ele>418.33333333333337</ele><time>2026-04-17T07:25:05Z</time></trkpt><trkpt lat="36.95345265066058" lon="15.138610682960746"><ele>418.0</ele><time>2026-04-17T07:25:06Z</time></trkpt><trkpt lat="36.95349690566089" lon="15.138508414921825"><ele>418.00000000000006</ele><time>2026-04-17T07:25:07Z</time></trkpt><trkpt lat="36.953538877838895" lon="15.138415523376091"><ele>418.0</ele><time>2026-04-17T07:25:08Z</time></trkpt><trkpt lat="36.953583807885686" lon="15.138331908210784"><ele>418.0</ele><time>2026-04-17T07:25:09Z</time></trkpt><trkpt lat="36.95362376491432" lon="15.138243269598387"><ele>418.0</ele><time>2026-04-17T07:25:10Z</time></trkpt><trkpt lat="36.953658630698484" lon="15.13816151256621"><ele>418.00000000000006</ele><time>2026-04-17T07:25:11Z</time></trkpt><trkpt lat="36.9536993572368" lon="15.138090690602313"><ele>418.0</ele><time>2026-04-17T07:25:12Z</time></trkpt><trkpt lat="36.953737391348014" lon="15.138004324831451"><ele>418.57142857142856</ele><time>2026-04-17T07:25:13Z</time></trkpt><trkpt lat="36.95377618371603" lon="15.137915141229904"><ele>419.1428571428571</ele><time>2026-04-17T07:25:14Z</time></trkpt><trkpt lat="36.95381424102572" lon="15.137828977764912"><ele>419.7142857142857</ele><time>2026-04-17T07:25:15Z</time></trkpt><trkpt lat="36.95384865027749" lon="15.13774145007379"><ele>420.2857142857143</ele><time>2026-04-17T07:25:16Z</time></trkpt><trkpt lat="36.95388105608793" lon="15.13766367836767"><ele>420.8571428571429</ele><time>2026-04-17T07:25:17Z</time></trkpt><trkpt lat="36.95391394429781" lon="15.137591283484815"><ele>421.42857142857144</ele><time>2026-04-17T07:25:18Z</time></trkpt><trkpt lat="36.95394636523426" lon="15.13752125191568"><ele>422.0</ele><time>2026-04-17T07:25:19Z</time></trkpt><trkpt lat="36.95397787057415" lon="15.137445039589448"><ele>421.8333333333333</ele><time>2026-04-17T07:25:20Z</time></trkpt><trkpt lat="36.9540105804299" lon="15.137361907775206"><ele>421.66666666666663</ele><time>2026-04-17T07:25:21Z</time></trkpt><trkpt lat="36.954039567364404" lon="15.1372813837408"><ele>421.5</ele><time>2026-04-17T07:25:22Z</time></trkpt><trkpt lat="36.95409177036814" lon="15.137135710383335"><ele>421.33333333333337</ele><time>2026-04-17T07:25:24Z</time></trkpt><trkpt lat="36.954126492206846" lon="15.137051946048524"><ele>421.1666666666667</ele><time>2026-04-17T07:25:25Z</time></trkpt><trkpt lat="36.95416034017641" lon="15.136964126386415"><ele>421.0</ele><time>2026-04-17T07:25:26Z</time></trkpt><trkpt lat="36.95418761406971" lon="15.136891219465848"><ele>421.83333333333337</ele><time>2026-04-17T07:25:27Z</time></trkpt><trkpt lat="36.95423533295751" lon="15.136774023674613"><ele>422.6666666666667</ele><time>2026-04-17T07:25:29Z</time></trkpt><trkpt lat="36.95425789189352" lon="15.13669985044865"><ele>423.5</ele><time>2026-04-17T07:25:30Z</time></trkpt><trkpt lat="36.954293491729004" lon="15.136614227298434"><ele>424.33333333333337</ele><time>2026-04-17T07:25:31Z</time></trkpt><trkpt lat="36.95433237396966" lon="15.136523528487809"><ele>425.1666666666667</ele><time>2026-04-17T07:25:32Z</time></trkpt><trkpt lat="36.95436549384473" lon="15.13642667891081"><ele>426.0</ele><time>2026-04-17T07:25:33Z</time></trkpt><trkpt lat="36.95439944766229" lon="15.13632802200243"><ele>426.8333333333333</ele><time>2026-04-17T07:25:34Z</time></trkpt><trkpt lat="36.954430206565604" lon="15.136238570940028"><ele>427.66666666666663</ele><time>2026-04-17T07:25:35Z</time></trkpt><trkpt lat="36.954461310619166" lon="15.136154020945227"><ele>428.5</ele><time>2026-04-17T07:25:36Z</time></trkpt><trkpt lat="36.95450834539965" lon="15.136064288672383"><ele>429.3333333333333</ele><time>2026-04-17T07:25:37Z</time></trkpt><trkpt lat="36.95456137816045" lon="15.135950440663285"><ele>430.16666666666663</ele><time>2026-04-17T07:25:38Z</time></trkpt><trkpt lat="36.954608018662405" lon="15.135840254304767"><ele>431.0</ele><time>2026-04-17T07:25:39Z</time></trkpt><trkpt lat="36.954659890740956" lon="15.135728203264033"><ele>430.20000000000005</ele><time>2026-04-17T07:25:40Z</time></trkpt><trkpt lat="36.95471584560529" lon="15.135616867805012"><ele>429.40000000000003</ele><time>2026-04-17T07:25:41Z</time></trkpt><trkpt lat="36.954778878871515" lon="15.135499036657299"><ele>428.6</ele><time>2026-04-17T07:25:42Z</time></trkpt><trkpt lat="36.95483044917361" lon="15.135390516068844"><ele>427.8</ele><time>2026-04-17T07:25:43Z</time></trkpt><trkpt lat="36.95488482894483" lon="15.135296300780803"><ele>427.0</ele><time>2026-04-17T07:25:44Z</time></trkpt><trkpt lat="36.9549469406665" lon="15.135196799488417"><ele>427.0</ele><time>2026-04-17T07:25:45Z</time></trkpt><trkpt lat="36.955014581002985" lon="15.135085537010472"><ele>427.00000000000006</ele><time>2026-04-17T07:25:46Z</time></trkpt><trkpt lat="36.955083067409824" lon="15.134972246409324"><ele>427.00000000000006</ele><time>2026-04-17T07:25:47Z</time></trkpt><trkpt lat="36.955135371442765" lon="15.134872803925226"><ele>427.0</ele><time>2026-04-17T07:25:48Z</time></trkpt><trkpt lat="36.955183869490014" lon="15.13478425160776"><ele>427.0</ele><time>2026-04-17T07:25:49Z</time></trkpt><trkpt lat="36.9552339151782" lon="15.13468847427893"><ele>426.83333333333337</ele><time>2026-04-17T07:25:50Z</time></trkpt><trkpt lat="36.955282758964806" lon="15.134585040665819"><ele>426.6666666666667</ele><time>2026-04-17T07:25:51Z</time></trkpt><trkpt lat="36.955324464966736" lon="15.134498615179906"><ele>426.5</ele><time>2026-04-17T07:25:52Z</time></trkpt><trkpt lat="36.95536535074083" lon="15.134417252135687"><ele>426.33333333333337</ele><time>2026-04-17T07:25:53Z</time></trkpt><trkpt lat="36.95542030088864" lon="15.134329780270244"><ele>426.1666666666667</ele><time>2026-04-17T07:25:54Z</time></trkpt><trkpt lat="36.95548581365631" lon="15.134248003609303"><ele>426.0</ele><time>2026-04-17T07:25:55Z</time></trkpt><trkpt lat="36.955544883690486" lon="15.134189189894638"><ele>426.0</ele><time>2026-04-17T07:25:56Z</time></trkpt><trkpt lat="36.95559076227099" lon="15.134130544064229"><ele>426.0</ele><time>2026-04-17T07:25:57Z</time></trkpt><trkpt lat="36.95563529332966" lon="15.134073489701795"><ele>426.0</ele><time>2026-04-17T07:25:58Z</time></trkpt><trkpt lat="36.95571036389037" lon="15.133978296164575"><ele>426.0</ele><time>2026-04-17T07:26:00Z</time></trkpt><trkpt lat="36.95576834369434" lon="15.13389761189908"><ele>426.0</ele><time>2026-04-17T07:26:02Z</time></trkpt><trkpt lat="36.95582487464521" lon="15.133835412354554"><ele>426.0</ele><time>2026-04-17T07:26:04Z</time></trkpt><trkpt lat="36.955868815993256" lon="15.133767478987878"><ele>426.6</ele><time>2026-04-17T07:26:06Z</time></trkpt><trkpt lat="36.95594849805173" lon="15.133737806734215"><ele>427.20000000000005</ele><time>2026-04-17T07:26:08Z</time></trkpt><trkpt lat="36.95604812952132" lon="15.13376386934903"><ele>427.79999999999995</ele><time>2026-04-17T07:26:10Z</time></trkpt><trkpt lat="36.95615868437937" lon="15.133789246015388"><ele>428.4</ele><time>2026-04-17T07:26:12Z</time></trkpt><trkpt lat="36.95625524507183" lon="15.13380155434771"><ele>429.0</ele><time>2026-04-17T07:26:14Z</time></trkpt><trkpt lat="36.95633888010009" lon="15.133810211535993"><ele>429.0</ele><time>2026-04-17T07:26:16Z</time></trkpt><trkpt lat="36.956435291612095" lon="15.133815417101284"><ele>429.0</ele><time>2026-04-17T07:26:18Z</time></trkpt><trkpt lat="36.95652246350658" lon="15.133826711675072"><ele>429.0</ele><time>2026-04-17T07:26:20Z</time></trkpt><trkpt lat="36.956633734546" lon="15.13384415251509"><ele>429.0</ele><time>2026-04-17T07:26:22Z</time></trkpt><trkpt lat="36.95674117809512" lon="15.13386324669998"><ele>429.0</ele><time>2026-04-17T07:26:24Z</time></trkpt><trkpt lat="36.956823232786434" lon="15.133864596309474"><ele>428.6</ele><time>2026-04-17T07:26:26Z</time></trkpt><trkpt lat="36.95693550297911" lon="15.133873989154022"><ele>428.2</ele><time>2026-04-17T07:26:28Z</time></trkpt><trkpt lat="36.957029691702544" lon="15.133907000617512"><ele>427.80000000000007</ele><time>2026-04-17T07:26:30Z</time></trkpt><trkpt lat="36.95710790584621" lon="15.13392552290021"><ele>427.40000000000003</ele><time>2026-04-17T07:26:32Z</time></trkpt><trkpt lat="36.95724621864211" lon="15.13393015794289"><ele>427.0</ele><time>2026-04-17T07:26:34Z</time></trkpt><trkpt lat="36.957318132321774" lon="15.133943636365759"><ele>427.00000000000006</ele><time>2026-04-17T07:26:35Z</time></trkpt><trkpt lat="36.95738156370309" lon="15.133973754919062"><ele>427.0</ele><time>2026-04-17T07:26:36Z</time></trkpt><trkpt lat="36.957439650097534" lon="15.134016146823512"><ele>427.0</ele><time>2026-04-17T07:26:37Z</time></trkpt><trkpt lat="36.95753462850029" lon="15.134083968993155"><ele>427.0</ele><time>2026-04-17T07:26:39Z</time></trkpt><trkpt lat="36.95765641236605" lon="15.134127950933872"><ele>427.00000000000006</ele><time>2026-04-17T07:26:41Z</time></trkpt><trkpt lat="36.95772373617383" lon="15.134151767029502"><ele>427.0</ele><time>2026-04-17T07:26:42Z</time></trkpt><trkpt lat="36.95779228056038" lon="15.134186440872378"><ele>427.50000000000006</ele><time>2026-04-17T07:26:43Z</time></trkpt><trkpt lat="36.95785986758607" lon="15.134224230163948"><ele>428.0</ele><time>2026-04-17T07:26:44Z</time></trkpt><trkpt lat="36.95793848457353" lon="15.134249074874212"><ele>428.5</ele><time>2026-04-17T07:26:45Z</time></trkpt><trkpt lat="36.95801896553395" lon="15.134269001278906"><ele>429.0</ele><time>2026-04-17T07:26:46.001Z</time></trkpt><trkpt lat="36.95809998749798" lon="15.1343047141114"><ele>429.50000000000006</ele><time>2026-04-17T07:26:47.001Z</time></trkpt><trkpt lat="36.958168117674006" lon="15.134335693386744"><ele>430.0</ele><time>2026-04-17T07:26:48.001Z</time></trkpt><trkpt lat="36.958239767153636" lon="15.134363947099981"><ele>430.0</ele><time>2026-04-17T07:26:49.001Z</time></trkpt><trkpt lat="36.958305690191686" lon="15.134392173046717"><ele>430.0</ele><time>2026-04-17T07:26:50.001Z</time></trkpt><trkpt lat="36.958419077994776" lon="15.134445438726724"><ele>430.0</ele><time>2026-04-17T07:26:52.001Z</time></trkpt><trkpt lat="36.958483288599275" lon="15.134468967314584"><ele>430.0</ele><time>2026-04-17T07:26:53.001Z</time></trkpt><trkpt lat="36.95855178031753" lon="15.134492532122978"><ele>430.0</ele><time>2026-04-17T07:26:54.001Z</time></trkpt><trkpt lat="36.95867159776762" lon="15.134542583833882"><ele>429.0</ele><time>2026-04-17T07:26:56.001Z</time></trkpt><trkpt lat="36.958780010501656" lon="15.134590960548675"><ele>428.0</ele><time>2026-04-17T07:26:58.001Z</time></trkpt><trkpt lat="36.95887521677265" lon="15.134628233491737"><ele>427.0</ele><time>2026-04-17T07:27:00Z</time></trkpt><trkpt lat="36.95897757263415" lon="15.134657915345535"><ele>426.0</ele><time>2026-04-17T07:27:02Z</time></trkpt><trkpt lat="36.95906908784986" lon="15.134658680240127"><ele>425.0</ele><time>2026-04-17T07:27:04Z</time></trkpt><trkpt lat="36.959135619595706" lon="15.134584507721211"><ele>424.99999999999994</ele><time>2026-04-17T07:27:07Z</time></trkpt><trkpt lat="36.95914496450003" lon="15.13446602080625"><ele>425.0</ele><time>2026-04-17T07:27:09Z</time></trkpt><trkpt lat="36.95912528649997" lon="15.134390836729928"><ele>425.0</ele><time>2026-04-17T07:27:10Z</time></trkpt><trkpt lat="36.95913515794242" lon="15.134298142570518"><ele>425.0</ele><time>2026-04-17T07:27:11Z</time></trkpt><trkpt lat="36.95915343263385" lon="15.134212226716542"><ele>424.99999999999994</ele><time>2026-04-17T07:27:12Z</time></trkpt><trkpt lat="36.95918685186715" lon="15.134128077902178"><ele>425.0</ele><time>2026-04-17T07:27:13Z</time></trkpt><trkpt lat="36.95922598840487" lon="15.134045065143424"><ele>422.2857142857143</ele><time>2026-04-17T07:27:14Z</time></trkpt><trkpt lat="36.95925900692591" lon="15.13396076556142"><ele>419.57142857142856</ele><time>2026-04-17T07:27:15Z</time></trkpt><trkpt lat="36.95929167254515" lon="15.13387593362938"><ele>416.8571428571429</ele><time>2026-04-17T07:27:16Z</time></trkpt><trkpt lat="36.95932288711801" lon="15.133794009166012"><ele>414.1428571428571</ele><time>2026-04-17T07:27:17Z</time></trkpt><trkpt lat="36.95935365399969" lon="15.133708710117116"><ele>411.42857142857144</ele><time>2026-04-17T07:27:18Z</time></trkpt><trkpt lat="36.959378354032005" lon="15.133617187438318"><ele>408.7142857142857</ele><time>2026-04-17T07:27:19Z</time></trkpt><trkpt lat="36.95940358905634" lon="15.133530532123606"><ele>406.0</ele><time>2026-04-17T07:27:20Z</time></trkpt><trkpt lat="36.9594224114732" lon="15.133440816450745"><ele>406.00000000000006</ele><time>2026-04-17T07:27:21Z</time></trkpt><trkpt lat="36.959438900103166" lon="15.133352240508874"><ele>406.0</ele><time>2026-04-17T07:27:22Z</time></trkpt><trkpt lat="36.959464405379805" lon="15.133267059409901"><ele>406.0</ele><time>2026-04-17T07:27:23Z</time></trkpt><trkpt lat="36.959495720155736" lon="15.133177585512048"><ele>406.0</ele><time>2026-04-17T07:27:24Z</time></trkpt><trkpt lat="36.95952979108508" lon="15.133086697099039"><ele>406.00000000000006</ele><time>2026-04-17T07:27:25Z</time></trkpt><trkpt lat="36.95957030398913" lon="15.133006237832593"><ele>406.0</ele><time>2026-04-17T07:27:26Z</time></trkpt><trkpt lat="36.95961247499694" lon="15.132917225130559"><ele>410.1666666666667</ele><time>2026-04-17T07:27:27Z</time></trkpt><trkpt lat="36.95964674153537" lon="15.132826855929071"><ele>414.33333333333337</ele><time>2026-04-17T07:27:28Z</time></trkpt><trkpt lat="36.95967625459481" lon="15.132736598251803"><ele>418.5</ele><time>2026-04-17T07:27:29Z</time></trkpt><trkpt lat="36.959698968619634" lon="15.132631124012494"><ele>422.66666666666663</ele><time>2026-04-17T07:27:30Z</time></trkpt><trkpt lat="36.95970753169267" lon="15.132514883188946"><ele>426.8333333333333</ele><time>2026-04-17T07:27:31Z</time></trkpt><trkpt lat="36.95971203093506" lon="15.132408714987326"><ele>431.0</ele><time>2026-04-17T07:27:32Z</time></trkpt><trkpt lat="36.959712718447186" lon="15.132305888778575"><ele>432.66666666666663</ele><time>2026-04-17T07:27:33Z</time></trkpt><trkpt lat="36.95971664291807" lon="15.132208784326979"><ele>434.3333333333333</ele><time>2026-04-17T07:27:34Z</time></trkpt><trkpt lat="36.95972132967146" lon="15.132106537213055"><ele>436.0</ele><time>2026-04-17T07:27:35Z</time></trkpt><trkpt lat="36.95972055527969" lon="15.13200921444128"><ele>437.66666666666663</ele><time>2026-04-17T07:27:36Z</time></trkpt><trkpt lat="36.959713532163875" lon="15.131911649719953"><ele>439.3333333333333</ele><time>2026-04-17T07:27:37Z</time></trkpt><trkpt lat="36.9597103052478" lon="15.131813244652019"><ele>441.0</ele><time>2026-04-17T07:27:38Z</time></trkpt><trkpt lat="36.95971275521003" lon="15.131709614481458"><ele>441.0</ele><time>2026-04-17T07:27:39Z</time></trkpt><trkpt lat="36.95971297428994" lon="15.131610836624164"><ele>441.0</ele><time>2026-04-17T07:27:40Z</time></trkpt><trkpt lat="36.959713339705736" lon="15.131522779061426"><ele>441.0</ele><time>2026-04-17T07:27:41Z</time></trkpt><trkpt lat="36.95972279410967" lon="15.131422045221196"><ele>441.0</ele><time>2026-04-17T07:27:42Z</time></trkpt><trkpt lat="36.95973415318067" lon="15.131329571406798"><ele>441.0</ele><time>2026-04-17T07:27:43Z</time></trkpt><trkpt lat="36.95974583371423" lon="15.131245801571335"><ele>441.0</ele><time>2026-04-17T07:27:44Z</time></trkpt><trkpt lat="36.959759975900994" lon="15.131166820397242"><ele>441.0</ele><time>2026-04-17T07:27:45Z</time></trkpt><trkpt lat="36.95977959333892" lon="15.131075752686495"><ele>440.8</ele><time>2026-04-17T07:27:46Z</time></trkpt><trkpt lat="36.9598016839544" lon="15.130975507476885"><ele>440.6</ele><time>2026-04-17T07:27:47Z</time></trkpt><trkpt lat="36.95982844815969" lon="15.13086549602929"><ele>440.4</ele><time>2026-04-17T07:27:48Z</time></trkpt><trkpt lat="36.95987929344741" lon="15.130755098363743"><ele>440.2</ele><time>2026-04-17T07:27:49Z</time></trkpt><trkpt lat="36.95992074233255" lon="15.1306424246762"><ele>440.0</ele><time>2026-04-17T07:27:50Z</time></trkpt><trkpt lat="36.95996320846343" lon="15.130533275880987"><ele>439.25</ele><time>2026-04-17T07:27:51Z</time></trkpt><trkpt lat="36.96001018747311" lon="15.130412527949506"><ele>438.5</ele><time>2026-04-17T07:27:52Z</time></trkpt><trkpt lat="36.960068723505" lon="15.13026207555604"><ele>437.75</ele><time>2026-04-17T07:27:53Z</time></trkpt><trkpt lat="36.96012012290202" lon="15.13012996603775"><ele>437.0</ele><time>2026-04-17T07:27:54Z</time></trkpt><trkpt lat="36.96017159846305" lon="15.129997660705126"><ele>433.75</ele><time>2026-04-17T07:27:55Z</time></trkpt><trkpt lat="36.960224582453726" lon="15.1298582961754"><ele>430.5</ele><time>2026-04-17T07:27:56Z</time></trkpt><trkpt lat="36.96027157716374" lon="15.129734566852258"><ele>427.25</ele><time>2026-04-17T07:27:57Z</time></trkpt><trkpt lat="36.960324497885985" lon="15.12959496789242"><ele>424.0</ele><time>2026-04-17T07:27:58Z</time></trkpt><trkpt lat="36.96037668429403" lon="15.12945673457904"><ele>424.0</ele><time>2026-04-17T07:27:59Z</time></trkpt><trkpt lat="36.96041155667644" lon="15.129311991536"><ele>424.0</ele><time>2026-04-17T07:28:00Z</time></trkpt><trkpt lat="36.960466197180324" lon="15.129186582217898"><ele>424.0</ele><time>2026-04-17T07:28:01Z</time></trkpt><trkpt lat="36.96051310432293" lon="15.12904944879498"><ele>424.0</ele><time>2026-04-17T07:28:02Z</time></trkpt><trkpt lat="36.960554251669" lon="15.128927055178703"><ele>427.00000000000006</ele><time>2026-04-17T07:28:03Z</time></trkpt><trkpt lat="36.96058067149404" lon="15.128825606883352"><ele>430.0</ele><time>2026-04-17T07:28:04Z</time></trkpt><trkpt lat="36.96060326052758" lon="15.128720099900905"><ele>433.0</ele><time>2026-04-17T07:28:05Z</time></trkpt><trkpt lat="36.960630424700476" lon="15.128607871888942"><ele>436.0</ele><time>2026-04-17T07:28:06Z</time></trkpt><trkpt lat="36.960660719220584" lon="15.128505490038124"><ele>439.00000000000006</ele><time>2026-04-17T07:28:07Z</time></trkpt><trkpt lat="36.960691019178974" lon="15.128409053244715"><ele>442.0</ele><time>2026-04-17T07:28:08Z</time></trkpt><trkpt lat="36.96074669780876" lon="15.128316556591509"><ele>443.20000000000005</ele><time>2026-04-17T07:28:09Z</time></trkpt><trkpt lat="36.96079776695373" lon="15.128199487208002"><ele>444.40000000000003</ele><time>2026-04-17T07:28:10Z</time></trkpt><trkpt lat="36.96083607407681" lon="15.128059219831938"><ele>445.59999999999997</ele><time>2026-04-17T07:28:11Z</time></trkpt><trkpt lat="36.96088128433347" lon="15.127928142367761"><ele>446.79999999999995</ele><time>2026-04-17T07:28:12Z</time></trkpt><trkpt lat="36.96091922580123" lon="15.127809449347675"><ele>448.0</ele><time>2026-04-17T07:28:13Z</time></trkpt><trkpt lat="36.96093594779497" lon="15.127673299556001"><ele>442.79999999999995</ele><time>2026-04-17T07:28:14Z</time></trkpt><trkpt lat="36.96094775884243" lon="15.127533659714006"><ele>437.59999999999997</ele><time>2026-04-17T07:28:15Z</time></trkpt><trkpt lat="36.96097755454755" lon="15.12739573320803"><ele>432.4</ele><time>2026-04-17T07:28:16Z</time></trkpt><trkpt lat="36.961003317905565" lon="15.127287179909008"><ele>427.20000000000005</ele><time>2026-04-17T07:28:17Z</time></trkpt><trkpt lat="36.96102748014943" lon="15.12720469237962"><ele>422.0</ele><time>2026-04-17T07:28:18Z</time></trkpt><trkpt lat="36.961063423706264" lon="15.127124088103509"><ele>422.0</ele><time>2026-04-17T07:28:19Z</time></trkpt><trkpt lat="36.96111129393136" lon="15.127036172054765"><ele>422.0</ele><time>2026-04-17T07:28:20Z</time></trkpt><trkpt lat="36.96115220404316" lon="15.126929370063054"><ele>422.0</ele><time>2026-04-17T07:28:21Z</time></trkpt><trkpt lat="36.9611795983467" lon="15.126797583776316"><ele>422.0</ele><time>2026-04-17T07:28:22Z</time></trkpt><trkpt lat="36.961209287411954" lon="15.126658046032926"><ele>422.0</ele><time>2026-04-17T07:28:23Z</time></trkpt><trkpt lat="36.96125457750723" lon="15.126535801765069"><ele>426.40000000000003</ele><time>2026-04-17T07:28:24Z</time></trkpt><trkpt lat="36.96130255422127" lon="15.126417025122882"><ele>430.8</ele><time>2026-04-17T07:28:25Z</time></trkpt><trkpt lat="36.961361093441255" lon="15.12630458365723"><ele>435.2</ele><time>2026-04-17T07:28:26Z</time></trkpt><trkpt lat="36.96142083094879" lon="15.126207827083896"><ele>439.6</ele><time>2026-04-17T07:28:27Z</time></trkpt><trkpt lat="36.961477852107606" lon="15.126112080121908"><ele>444.0</ele><time>2026-04-17T07:28:28Z</time></trkpt><trkpt lat="36.96152003678957" lon="15.126018580287761"><ele>444.0</ele><time>2026-04-17T07:28:29Z</time></trkpt><trkpt lat="36.96158387435122" lon="15.125954763442577"><ele>444.0</ele><time>2026-04-17T07:28:30Z</time></trkpt><trkpt lat="36.96162745256156" lon="15.125897244855262"><ele>444.0</ele><time>2026-04-17T07:28:31Z</time></trkpt><trkpt lat="36.96166180619759" lon="15.125827124691593"><ele>444.0</ele><time>2026-04-17T07:28:32Z</time></trkpt><trkpt lat="36.961687900652215" lon="15.125723572175035"><ele>444.0</ele><time>2026-04-17T07:28:33Z</time></trkpt><trkpt lat="36.96172819527418" lon="15.125594259749889"><ele>444.0</ele><time>2026-04-17T07:28:34Z</time></trkpt><trkpt lat="36.96180460122348" lon="15.12546885516763"><ele>442.25</ele><time>2026-04-17T07:28:35Z</time></trkpt><trkpt lat="36.96186792518767" lon="15.125328475305515"><ele>440.5</ele><time>2026-04-17T07:28:36Z</time></trkpt><trkpt lat="36.96193143811935" lon="15.125185951221143"><ele>438.75</ele><time>2026-04-17T07:28:37Z</time></trkpt><trkpt lat="36.96199632839901" lon="15.125035072967194"><ele>437.0</ele><time>2026-04-17T07:28:38Z</time></trkpt><trkpt lat="36.96206091645411" lon="15.124880214173468"><ele>437.0</ele><time>2026-04-17T07:28:39Z</time></trkpt><trkpt lat="36.962121157830104" lon="15.124727468754797"><ele>437.0</ele><time>2026-04-17T07:28:40Z</time></trkpt><trkpt lat="36.962162874709676" lon="15.124574006602147"><ele>437.0</ele><time>2026-04-17T07:28:41Z</time></trkpt><trkpt lat="36.96220486773241" lon="15.124418422905842"><ele>437.0</ele><time>2026-04-17T07:28:42Z</time></trkpt><trkpt lat="36.962257641047756" lon="15.124269861243427"><ele>437.0</ele><time>2026-04-17T07:28:43Z</time></trkpt><trkpt lat="36.96230056784218" lon="15.124123775555606"><ele>437.00000000000006</ele><time>2026-04-17T07:28:44Z</time></trkpt><trkpt lat="36.962337161313435" lon="15.124002607238832"><ele>437.00000000000006</ele><time>2026-04-17T07:28:45Z</time></trkpt><trkpt lat="36.96236477309531" lon="15.123916829524491"><ele>437.0</ele><time>2026-04-17T07:28:46Z</time></trkpt><trkpt lat="36.96237661111311" lon="15.123829195863689"><ele>437.0</ele><time>2026-04-17T07:28:48Z</time></trkpt><trkpt lat="36.96228980774358" lon="15.123759349593687"><ele>439.8</ele><time>2026-04-17T07:28:52.001Z</time></trkpt><trkpt lat="36.962363252767354" lon="15.123789337663084"><ele>442.6</ele><time>2026-04-17T07:29:15Z</time></trkpt><trkpt lat="36.96246686224539" lon="15.123605796865556"><ele>445.40000000000003</ele><time>2026-04-17T07:29:30Z</time></trkpt><trkpt lat="36.96251139761453" lon="15.123508947971406"><ele>448.20000000000005</ele><time>2026-04-17T07:29:31Z</time></trkpt><trkpt lat="36.9625484270623" lon="15.12342860184916"><ele>451.0</ele><time>2026-04-17T07:29:32Z</time></trkpt><trkpt lat="36.96259253373711" lon="15.123348944162917"><ele>446.0</ele><time>2026-04-17T07:29:33Z</time></trkpt><trkpt lat="36.9626551317942" lon="15.123262963131143"><ele>441.0</ele><time>2026-04-17T07:29:34Z</time></trkpt><trkpt lat="36.96273873989494" lon="15.123177229343"><ele>436.0</ele><time>2026-04-17T07:29:35Z</time></trkpt><trkpt lat="36.96281249402768" lon="15.123104545339578"><ele>431.0</ele><time>2026-04-17T07:29:36Z</time></trkpt><trkpt lat="36.962880410405184" lon="15.123038844744162"><ele>426.0</ele><time>2026-04-17T07:29:37Z</time></trkpt><trkpt lat="36.962935516865734" lon="15.122982067420027"><ele>426.0</ele><time>2026-04-17T07:29:38Z</time></trkpt><trkpt lat="36.96298561424665" lon="15.122927376175017"><ele>426.0</ele><time>2026-04-17T07:29:39Z</time></trkpt><trkpt lat="36.963019494016386" lon="15.122857184812718"><ele>426.0</ele><time>2026-04-17T07:29:40Z</time></trkpt><trkpt lat="36.96310684272619" lon="15.12276374873615"><ele>426.0</ele><time>2026-04-17T07:29:42Z</time></trkpt><trkpt lat="36.96314326991032" lon="15.12268393658715"><ele>426.0</ele><time>2026-04-17T07:29:43Z</time></trkpt><trkpt lat="36.963175938275874" lon="15.122578451145392"><ele>426.0</ele><time>2026-04-17T07:29:44Z</time></trkpt><trkpt lat="36.96319869825092" lon="15.122453534841387"><ele>431.0</ele><time>2026-04-17T07:29:45Z</time></trkpt><trkpt lat="36.96322229636978" lon="15.122315993237653"><ele>436.0</ele><time>2026-04-17T07:29:46Z</time></trkpt><trkpt lat="36.96324843438527" lon="15.122165279726524"><ele>441.0</ele><time>2026-04-17T07:29:47Z</time></trkpt><trkpt lat="36.96326345246839" lon="15.122007768736394"><ele>446.0</ele><time>2026-04-17T07:29:48Z</time></trkpt><trkpt lat="36.96328039046707" lon="15.121848481955226"><ele>446.0</ele><time>2026-04-17T07:29:49Z</time></trkpt><trkpt lat="36.96330158110939" lon="15.121701536526224"><ele>446.0</ele><time>2026-04-17T07:29:50Z</time></trkpt><trkpt lat="36.96331860312715" lon="15.121572859521715"><ele>446.0</ele><time>2026-04-17T07:29:51Z</time></trkpt><trkpt lat="36.96333156243513" lon="15.121462011234431"><ele>446.0</ele><time>2026-04-17T07:29:52Z</time></trkpt><trkpt lat="36.96333171840052" lon="15.121353787199421"><ele>446.0</ele><time>2026-04-17T07:29:53Z</time></trkpt><trkpt lat="36.96331400102332" lon="15.121249545493935"><ele>446.0</ele><time>2026-04-17T07:29:54Z</time></trkpt><trkpt lat="36.96327970271677" lon="15.121142546911692"><ele>446.0</ele><time>2026-04-17T07:29:55Z</time></trkpt><trkpt lat="36.96323687240486" lon="15.121043140412574"><ele>446.0</ele><time>2026-04-17T07:29:56Z</time></trkpt><trkpt lat="36.9632283392669" lon="15.120930654649653"><ele>446.0</ele><time>2026-04-17T07:29:57Z</time></trkpt><trkpt lat="36.963207750827884" lon="15.120819745309465"><ele>446.0</ele><time>2026-04-17T07:29:58Z</time></trkpt><trkpt lat="36.963181558946154" lon="15.120711950820226"><ele>444.49999999999994</ele><time>2026-04-17T07:29:59Z</time></trkpt><trkpt lat="36.96315928662063" lon="15.120602843344553"><ele>443.0</ele><time>2026-04-17T07:30:00Z</time></trkpt><trkpt lat="36.96313670598133" lon="15.12049500211273"><ele>441.5</ele><time>2026-04-17T07:30:01Z</time></trkpt><trkpt lat="36.963116935622594" lon="15.120376346282928"><ele>440.0</ele><time>2026-04-17T07:30:02Z</time></trkpt><trkpt lat="36.96310847477979" lon="15.120276838124985"><ele>438.49999999999994</ele><time>2026-04-17T07:30:03Z</time></trkpt><trkpt lat="36.96309054599503" lon="15.120173784256728"><ele>437.0</ele><time>2026-04-17T07:30:04Z</time></trkpt><trkpt lat="36.96305989281879" lon="15.12006191849844"><ele>437.0</ele><time>2026-04-17T07:30:05Z</time></trkpt><trkpt lat="36.96301634481295" lon="15.119962640899507"><ele>437.00000000000006</ele><time>2026-04-17T07:30:06Z</time></trkpt><trkpt lat="36.96296337009291" lon="15.11986907626066"><ele>437.00000000000006</ele><time>2026-04-17T07:30:07Z</time></trkpt><trkpt lat="36.96289511524199" lon="15.119770585270576"><ele>437.0</ele><time>2026-04-17T07:30:08Z</time></trkpt><trkpt lat="36.9628050600071" lon="15.119660602793264"><ele>437.0</ele><time>2026-04-17T07:30:09Z</time></trkpt><trkpt lat="36.962708285103616" lon="15.119518187416373"><ele>436.25</ele><time>2026-04-17T07:30:10Z</time></trkpt><trkpt lat="36.962627782154364" lon="15.11939737571297"><ele>435.5</ele><time>2026-04-17T07:30:11Z</time></trkpt><trkpt lat="36.96254482960236" lon="15.11927067207965"><ele>434.75</ele><time>2026-04-17T07:30:12Z</time></trkpt><trkpt lat="36.9624664888266" lon="15.119143451015141"><ele>434.0</ele><time>2026-04-17T07:30:13Z</time></trkpt><trkpt lat="36.96242201178919" lon="15.119020912206423"><ele>437.2</ele><time>2026-04-17T07:30:14Z</time></trkpt><trkpt lat="36.96240601132632" lon="15.11893163652007"><ele>440.4</ele><time>2026-04-17T07:30:15Z</time></trkpt><trkpt lat="36.962414742505665" lon="15.118821719354429"><ele>443.6</ele><time>2026-04-17T07:30:16Z</time></trkpt><trkpt lat="36.9624284735946" lon="15.118680343188394"><ele>446.8</ele><time>2026-04-17T07:30:17Z</time></trkpt><trkpt lat="36.962437738485626" lon="15.118518205251618"><ele>450.0</ele><time>2026-04-17T07:30:18Z</time></trkpt><trkpt lat="36.96246142244407" lon="15.118356331267748"><ele>449.0</ele><time>2026-04-17T07:30:19Z</time></trkpt><trkpt lat="36.962478032456474" lon="15.118194985902443"><ele>448.0</ele><time>2026-04-17T07:30:20Z</time></trkpt><trkpt lat="36.96249549505175" lon="15.1180296099164"><ele>447.0</ele><time>2026-04-17T07:30:21Z</time></trkpt><trkpt lat="36.96250947299226" lon="15.117864442862793"><ele>446.0</ele><time>2026-04-17T07:30:22Z</time></trkpt><trkpt lat="36.96251238191281" lon="15.117699009593439"><ele>446.0</ele><time>2026-04-17T07:30:23Z</time></trkpt><trkpt lat="36.9625156953021" lon="15.117539686774576"><ele>446.0</ele><time>2026-04-17T07:30:24Z</time></trkpt><trkpt lat="36.96251458557809" lon="15.117392447447447"><ele>446.0</ele><time>2026-04-17T07:30:25Z</time></trkpt><trkpt lat="36.962504415141886" lon="15.117252113507925"><ele>446.0</ele><time>2026-04-17T07:30:26Z</time></trkpt><trkpt lat="36.96248778477485" lon="15.117099935411417"><ele>445.75</ele><time>2026-04-17T07:30:27Z</time></trkpt><trkpt lat="36.96246801718633" lon="15.116934993472315"><ele>445.5</ele><time>2026-04-17T07:30:28Z</time></trkpt><trkpt lat="36.96244680079695" lon="15.116760221483046"><ele>445.25</ele><time>2026-04-17T07:30:29Z</time></trkpt><trkpt lat="36.962426116470034" lon="15.116596459775916"><ele>445.0</ele><time>2026-04-17T07:30:30Z</time></trkpt><trkpt lat="36.96240904369859" lon="15.116437675071106"><ele>446.0</ele><time>2026-04-17T07:30:31Z</time></trkpt><trkpt lat="36.96240391887753" lon="15.116272200781435"><ele>447.0</ele><time>2026-04-17T07:30:32Z</time></trkpt><trkpt lat="36.962419620712375" lon="15.11612071231909"><ele>448.0</ele><time>2026-04-17T07:30:33Z</time></trkpt><trkpt lat="36.96243984979144" lon="15.115975343138643"><ele>449.0</ele><time>2026-04-17T07:30:34Z</time></trkpt><trkpt lat="36.962458816407214" lon="15.11582712341106"><ele>451.75</ele><time>2026-04-17T07:30:35Z</time></trkpt><trkpt lat="36.96248444779197" lon="15.115674298216033"><ele>454.5</ele><time>2026-04-17T07:30:36Z</time></trkpt><trkpt lat="36.96251699965119" lon="15.115520009622978"><ele>457.25</ele><time>2026-04-17T07:30:37Z</time></trkpt><trkpt lat="36.96256389320629" lon="15.115371862097128"><ele>460.0</ele><time>2026-04-17T07:30:38Z</time></trkpt><trkpt lat="36.962607406733525" lon="15.115230945929978"><ele>445.0</ele><time>2026-04-17T07:30:39Z</time></trkpt><trkpt lat="36.96264943724613" lon="15.115093419234627"><ele>430.0</ele><time>2026-04-17T07:30:40Z</time></trkpt><trkpt lat="36.96268818896891" lon="15.114944525796316"><ele>415.0</ele><time>2026-04-17T07:30:41Z</time></trkpt><trkpt lat="36.9627277145844" lon="15.114806219643532"><ele>400.0</ele><time>2026-04-17T07:30:42Z</time></trkpt><trkpt lat="36.96275889734543" lon="15.114666530541369"><ele>400.0</ele><time>2026-04-17T07:30:43Z</time></trkpt><trkpt lat="36.96280260939015" lon="15.114532809001412"><ele>400.0</ele><time>2026-04-17T07:30:44Z</time></trkpt><trkpt lat="36.96284501789749" lon="15.114400519297988"><ele>400.0</ele><time>2026-04-17T07:30:45Z</time></trkpt><trkpt lat="36.96288860747519" lon="15.114254249312047"><ele>400.0</ele><time>2026-04-17T07:30:46Z</time></trkpt><trkpt lat="36.962928231129986" lon="15.11409477382287"><ele>409.25</ele><time>2026-04-17T07:30:47Z</time></trkpt><trkpt lat="36.962968815733646" lon="15.113923158508138"><ele>418.5</ele><time>2026-04-17T07:30:48Z</time></trkpt><trkpt lat="36.96301223161712" lon="15.113745522987935"><ele>427.75</ele><time>2026-04-17T07:30:49Z</time></trkpt><trkpt lat="36.96306998083929" lon="15.113573112808988"><ele>437.0</ele><time>2026-04-17T07:30:50Z</time></trkpt><trkpt lat="36.96311326424472" lon="15.113375740455119"><ele>446.0</ele><time>2026-04-17T07:30:51Z</time></trkpt><trkpt lat="36.96314632341293" lon="15.113169707767513"><ele>455.0</ele><time>2026-04-17T07:30:52Z</time></trkpt><trkpt lat="36.96319571468993" lon="15.112979587836724"><ele>464.0</ele><time>2026-04-17T07:30:53Z</time></trkpt><trkpt lat="36.96325963177989" lon="15.112794801231988"><ele>464.0</ele><time>2026-04-17T07:30:54Z</time></trkpt><trkpt lat="36.963308943230054" lon="15.112613481246274"><ele>464.0</ele><time>2026-04-17T07:30:55Z</time></trkpt><trkpt lat="36.96335350812395" lon="15.112450816072245"><ele>464.0</ele><time>2026-04-17T07:30:56Z</time></trkpt><trkpt lat="36.96338201886397" lon="15.112283726484387"><ele>464.0</ele><time>2026-04-17T07:30:57Z</time></trkpt><trkpt lat="36.96342348288215" lon="15.11212555354555"><ele>457.75</ele><time>2026-04-17T07:30:58Z</time></trkpt><trkpt lat="36.963464814597884" lon="15.111980493903314"><ele>451.5</ele><time>2026-04-17T07:30:59Z</time></trkpt><trkpt lat="36.96349378293042" lon="15.111840398650926"><ele>445.25</ele><time>2026-04-17T07:31:00Z</time></trkpt><trkpt lat="36.96352080687198" lon="15.111698834348019"><ele>439.0</ele><time>2026-04-17T07:31:01Z</time></trkpt><trkpt lat="36.963539420897135" lon="15.111550199854934"><ele>439.0</ele><time>2026-04-17T07:31:02Z</time></trkpt><trkpt lat="36.96352517486419" lon="15.111407255433113"><ele>439.0</ele><time>2026-04-17T07:31:03Z</time></trkpt><trkpt lat="36.963527478634425" lon="15.111268425820372"><ele>439.0</ele><time>2026-04-17T07:31:04Z</time></trkpt><trkpt lat="36.96350683542926" lon="15.111110235377287"><ele>439.0</ele><time>2026-04-17T07:31:05Z</time></trkpt><trkpt lat="36.963477354526106" lon="15.110936007826268"><ele>439.0</ele><time>2026-04-17T07:31:06Z</time></trkpt><trkpt lat="36.963427165558436" lon="15.110745014009522"><ele>439.0</ele><time>2026-04-17T07:31:07Z</time></trkpt><trkpt lat="36.963399261494715" lon="15.110565604932516"><ele>439.0</ele><time>2026-04-17T07:31:08Z</time></trkpt><trkpt lat="36.963380465316526" lon="15.110411478250551"><ele>439.0</ele><time>2026-04-17T07:31:09Z</time></trkpt><trkpt lat="36.963354478299" lon="15.110259687906197"><ele>447.0</ele><time>2026-04-17T07:31:10Z</time></trkpt><trkpt lat="36.963329807551276" lon="15.110115585590087"><ele>455.0</ele><time>2026-04-17T07:31:11Z</time></trkpt><trkpt lat="36.96330327748614" lon="15.10997712175091"><ele>463.0</ele><time>2026-04-17T07:31:12Z</time></trkpt><trkpt lat="36.96330991024227" lon="15.109820618370613"><ele>471.0</ele><time>2026-04-17T07:31:13Z</time></trkpt><trkpt lat="36.9633063398243" lon="15.109666883990993"><ele>471.20000000000005</ele><time>2026-04-17T07:31:14Z</time></trkpt><trkpt lat="36.963293450665944" lon="15.10952366026164"><ele>471.40000000000003</ele><time>2026-04-17T07:31:15Z</time></trkpt><trkpt lat="36.963295302071806" lon="15.109394181319336"><ele>471.6</ele><time>2026-04-17T07:31:16Z</time></trkpt><trkpt lat="36.96334093714408" lon="15.109286127336393"><ele>471.8</ele><time>2026-04-17T07:31:17Z</time></trkpt><trkpt lat="36.9633872596478" lon="15.109174386192027"><ele>472.0</ele><time>2026-04-17T07:31:18Z</time></trkpt><trkpt lat="36.96344051912334" lon="15.109050457670083"><ele>473.5</ele><time>2026-04-17T07:31:19Z</time></trkpt><trkpt lat="36.96347975052157" lon="15.108903638793123"><ele>475.0</ele><time>2026-04-17T07:31:20Z</time></trkpt><trkpt lat="36.963529355762816" lon="15.108767569290777"><ele>476.5</ele><time>2026-04-17T07:31:21Z</time></trkpt><trkpt lat="36.96357104875677" lon="15.108635179443024"><ele>478.0</ele><time>2026-04-17T07:31:22Z</time></trkpt><trkpt lat="36.96360608068377" lon="15.108498326254233"><ele>478.0</ele><time>2026-04-17T07:31:23Z</time></trkpt><trkpt lat="36.96362595737284" lon="15.108340599179778"><ele>478.0</ele><time>2026-04-17T07:31:24Z</time></trkpt><trkpt lat="36.96365315950853" lon="15.108193021243762"><ele>478.0</ele><time>2026-04-17T07:31:25Z</time></trkpt><trkpt lat="36.96368633609417" lon="15.108030659337912"><ele>478.0</ele><time>2026-04-17T07:31:26Z</time></trkpt><trkpt lat="36.96373514152177" lon="15.10785688879691"><ele>477.75</ele><time>2026-04-17T07:31:27Z</time></trkpt><trkpt lat="36.96377391533036" lon="15.107689840116494"><ele>477.5</ele><time>2026-04-17T07:31:28Z</time></trkpt><trkpt lat="36.96381313790752" lon="15.107530907523623"><ele>477.25</ele><time>2026-04-17T07:31:29Z</time></trkpt><trkpt lat="36.96385984861757" lon="15.10736978673226"><ele>477.0</ele><time>2026-04-17T07:31:30Z</time></trkpt><trkpt lat="36.963913967416715" lon="15.107211686077033"><ele>477.0</ele><time>2026-04-17T07:31:31Z</time></trkpt><trkpt lat="36.96395470792065" lon="15.107051876321966"><ele>477.0</ele><time>2026-04-17T07:31:32Z</time></trkpt><trkpt lat="36.964015449351386" lon="15.106900410817675"><ele>477.0</ele><time>2026-04-17T07:31:33Z</time></trkpt><trkpt lat="36.96407069691386" lon="15.10675519446668"><ele>477.0</ele><time>2026-04-17T07:31:34Z</time></trkpt><trkpt lat="36.96411012729846" lon="15.106584911765014"><ele>477.25</ele><time>2026-04-17T07:31:35Z</time></trkpt><trkpt lat="36.96415345909568" lon="15.106424924562834"><ele>477.5</ele><time>2026-04-17T07:31:36Z</time></trkpt><trkpt lat="36.96419112321923" lon="15.106272324155968"><ele>477.75</ele><time>2026-04-17T07:31:37Z</time></trkpt><trkpt lat="36.96422633702964" lon="15.106109330289298"><ele>478.0</ele><time>2026-04-17T07:31:38Z</time></trkpt><trkpt lat="36.9642679111552" lon="15.10595278571294"><ele>480.25</ele><time>2026-04-17T07:31:39Z</time></trkpt><trkpt lat="36.964311566678866" lon="15.105803043307551"><ele>482.5</ele><time>2026-04-17T07:31:40Z</time></trkpt><trkpt lat="36.964350454981975" lon="15.105654266156597"><ele>484.75</ele><time>2026-04-17T07:31:41Z</time></trkpt><trkpt lat="36.964380290945684" lon="15.105521068664373"><ele>487.0</ele><time>2026-04-17T07:31:42Z</time></trkpt><trkpt lat="36.964405354829324" lon="15.105384473918"><ele>487.75</ele><time>2026-04-17T07:31:43Z</time></trkpt><trkpt lat="36.96442058348285" lon="15.105241992080035"><ele>488.5</ele><time>2026-04-17T07:31:44Z</time></trkpt><trkpt lat="36.96442249183371" lon="15.105078322246445"><ele>489.25</ele><time>2026-04-17T07:31:45Z</time></trkpt><trkpt lat="36.96440954723515" lon="15.104902506259133"><ele>490.0</ele><time>2026-04-17T07:31:46Z</time></trkpt><trkpt lat="36.96438746747452" lon="15.104733758316476"><ele>490.2</ele><time>2026-04-17T07:31:47Z</time></trkpt><trkpt lat="36.96437158150636" lon="15.104585949384811"><ele>490.4</ele><time>2026-04-17T07:31:48Z</time></trkpt><trkpt lat="36.96438011871133" lon="15.10444814926078"><ele>490.6</ele><time>2026-04-17T07:31:49Z</time></trkpt><trkpt lat="36.9643981763163" lon="15.104330294927365"><ele>490.8</ele><time>2026-04-17T07:31:50Z</time></trkpt><trkpt lat="36.96443578072511" lon="15.10419777485194"><ele>491.0</ele><time>2026-04-17T07:31:51Z</time></trkpt><trkpt lat="36.964464083925584" lon="15.104042411141219"><ele>491.5</ele><time>2026-04-17T07:31:52Z</time></trkpt><trkpt lat="36.9644896935297" lon="15.103891413963714"><ele>492.0</ele><time>2026-04-17T07:31:53Z</time></trkpt><trkpt lat="36.96450530258181" lon="15.10373953654206"><ele>492.5</ele><time>2026-04-17T07:31:54Z</time></trkpt><trkpt lat="36.964514363798266" lon="15.103571408159931"><ele>493.0</ele><time>2026-04-17T07:31:55Z</time></trkpt><trkpt lat="36.964524578267984" lon="15.10340120090611"><ele>493.4</ele><time>2026-04-17T07:31:56Z</time></trkpt><trkpt lat="36.964529694626414" lon="15.10324559403874"><ele>493.79999999999995</ele><time>2026-04-17T07:31:57Z</time></trkpt><trkpt lat="36.964544280168376" lon="15.103120563238429"><ele>494.2</ele><time>2026-04-17T07:31:58Z</time></trkpt><trkpt lat="36.96455754313884" lon="15.103020750518631"><ele>494.6</ele><time>2026-04-17T07:31:59Z</time></trkpt><trkpt lat="36.964597714862734" lon="15.102934008825923"><ele>495.0</ele><time>2026-04-17T07:32:00Z</time></trkpt><trkpt lat="36.964645518714235" lon="15.102807073759038"><ele>495.0</ele><time>2026-04-17T07:32:01Z</time></trkpt><trkpt lat="36.96471635247518" lon="15.102710512785936"><ele>495.0</ele><time>2026-04-17T07:32:02Z</time></trkpt><trkpt lat="36.96477125413614" lon="15.102605271728518"><ele>495.0</ele><time>2026-04-17T07:32:03Z</time></trkpt><trkpt lat="36.96484083327495" lon="15.102494201610575"><ele>495.0</ele><time>2026-04-17T07:32:04Z</time></trkpt><trkpt lat="36.96489666650338" lon="15.102382010856712"><ele>495.0</ele><time>2026-04-17T07:32:05Z</time></trkpt><trkpt lat="36.964962900395236" lon="15.102283215944672"><ele>495.2</ele><time>2026-04-17T07:32:06Z</time></trkpt><trkpt lat="36.96501993962052" lon="15.10220062019877"><ele>495.4</ele><time>2026-04-17T07:32:07Z</time></trkpt><trkpt lat="36.96508206398618" lon="15.102120828323097"><ele>495.6</ele><time>2026-04-17T07:32:08Z</time></trkpt><trkpt lat="36.96515407658653" lon="15.102031580593714"><ele>495.8</ele><time>2026-04-17T07:32:09Z</time></trkpt><trkpt lat="36.965231712858866" lon="15.101929533451305"><ele>496.0</ele><time>2026-04-17T07:32:10Z</time></trkpt><trkpt lat="36.9653071853743" lon="15.101830499576662"><ele>497.75</ele><time>2026-04-17T07:32:11Z</time></trkpt><trkpt lat="36.965384943162995" lon="15.101717818426145"><ele>499.5</ele><time>2026-04-17T07:32:12Z</time></trkpt><trkpt lat="36.965460625947244" lon="15.101609770330334"><ele>501.25</ele><time>2026-04-17T07:32:13Z</time></trkpt><trkpt lat="36.965553080045005" lon="15.101507264966651"><ele>503.0</ele><time>2026-04-17T07:32:14Z</time></trkpt><trkpt lat="36.965651454109846" lon="15.101395119343142"><ele>503.0</ele><time>2026-04-17T07:32:15Z</time></trkpt><trkpt lat="36.96575385379622" lon="15.10128757797844"><ele>503.0</ele><time>2026-04-17T07:32:16Z</time></trkpt><trkpt lat="36.965849502154896" lon="15.101185120614069"><ele>503.0</ele><time>2026-04-17T07:32:17Z</time></trkpt><trkpt lat="36.96594003933434" lon="15.10108783696096"><ele>503.0</ele><time>2026-04-17T07:32:18Z</time></trkpt><trkpt lat="36.96602018488717" lon="15.101004587439794"><ele>503.16666666666663</ele><time>2026-04-17T07:32:19Z</time></trkpt><trkpt lat="36.96608566571517" lon="15.100919418308095"><ele>503.3333333333333</ele><time>2026-04-17T07:32:20Z</time></trkpt><trkpt lat="36.9661402748682" lon="15.100825262182001"><ele>503.5</ele><time>2026-04-17T07:32:21Z</time></trkpt><trkpt lat="36.96618465254067" lon="15.100723758014032"><ele>503.66666666666663</ele><time>2026-04-17T07:32:22Z</time></trkpt><trkpt lat="36.96621749721584" lon="15.100639002712597"><ele>503.8333333333333</ele><time>2026-04-17T07:32:23Z</time></trkpt><trkpt lat="36.96625250967123" lon="15.100553971272598"><ele>504.0</ele><time>2026-04-17T07:32:24Z</time></trkpt><trkpt lat="36.96629823079332" lon="15.100448918512779"><ele>503.5</ele><time>2026-04-17T07:32:25Z</time></trkpt><trkpt lat="36.966338390770005" lon="15.100332869159441"><ele>503.0</ele><time>2026-04-17T07:32:26Z</time></trkpt><trkpt lat="36.96636860988126" lon="15.10023452609978"><ele>502.5</ele><time>2026-04-17T07:32:27Z</time></trkpt><trkpt lat="36.96639449392354" lon="15.10015842066041"><ele>502.0</ele><time>2026-04-17T07:32:28Z</time></trkpt><trkpt lat="36.96642817966211" lon="15.100038806911268"><ele>501.5</ele><time>2026-04-17T07:32:30Z</time></trkpt><trkpt lat="36.966442522492216" lon="15.09994152192455"><ele>501.0</ele><time>2026-04-17T07:32:32Z</time></trkpt><trkpt lat="36.96645554380263" lon="15.099862977353324"><ele>499.8</ele><time>2026-04-17T07:32:34Z</time></trkpt><trkpt lat="36.96647507939267" lon="15.099784223683505"><ele>498.6</ele><time>2026-04-17T07:32:36Z</time></trkpt><trkpt lat="36.96649828428765" lon="15.099632090995254"><ele>497.4</ele><time>2026-04-17T07:32:38Z</time></trkpt><trkpt lat="36.96651498086505" lon="15.099522627327218"><ele>496.2</ele><time>2026-04-17T07:32:39Z</time></trkpt><trkpt lat="36.96653112165874" lon="15.09940539214233"><ele>495.0</ele><time>2026-04-17T07:32:40Z</time></trkpt><trkpt lat="36.96655373396405" lon="15.099264975024765"><ele>495.0</ele><time>2026-04-17T07:32:41Z</time></trkpt><trkpt lat="36.96656642611329" lon="15.099124311378567"><ele>495.0</ele><time>2026-04-17T07:32:42Z</time></trkpt><trkpt lat="36.96658636258127" lon="15.09899448754397"><ele>495.0</ele><time>2026-04-17T07:32:43Z</time></trkpt><trkpt lat="36.966609212052525" lon="15.09886275728127"><ele>495.0</ele><time>2026-04-17T07:32:44Z</time></trkpt><trkpt lat="36.9666275431986" lon="15.098741489531935"><ele>495.0</ele><time>2026-04-17T07:32:45Z</time></trkpt><trkpt lat="36.96664605371379" lon="15.098625666962379"><ele>494.6666666666667</ele><time>2026-04-17T07:32:46Z</time></trkpt><trkpt lat="36.9666652658046" lon="15.098513168453493"><ele>494.33333333333337</ele><time>2026-04-17T07:32:47Z</time></trkpt><trkpt lat="36.96668713235654" lon="15.098399749397311"><ele>494.0</ele><time>2026-04-17T07:32:48Z</time></trkpt><trkpt lat="36.96670950933531" lon="15.098287719441311"><ele>493.6666666666667</ele><time>2026-04-17T07:32:49Z</time></trkpt><trkpt lat="36.966722700892" lon="15.098183319590664"><ele>493.33333333333337</ele><time>2026-04-17T07:32:50Z</time></trkpt><trkpt lat="36.966737729434634" lon="15.098089178714519"><ele>493.0</ele><time>2026-04-17T07:32:51Z</time></trkpt><trkpt lat="36.966748488869015" lon="15.098003477709504"><ele>488.33333333333337</ele><time>2026-04-17T07:32:52Z</time></trkpt><trkpt lat="36.96675918430424" lon="15.097910450999555"><ele>483.6666666666667</ele><time>2026-04-17T07:32:53Z</time></trkpt><trkpt lat="36.96676929932585" lon="15.09782025238149"><ele>479.0</ele><time>2026-04-17T07:32:54Z</time></trkpt><trkpt lat="36.96677410678919" lon="15.097729472898246"><ele>474.33333333333337</ele><time>2026-04-17T07:32:55Z</time></trkpt><trkpt lat="36.966779060907946" lon="15.09764577664774"><ele>469.6666666666667</ele><time>2026-04-17T07:32:56Z</time></trkpt><trkpt lat="36.966785949060494" lon="15.097514521446724"><ele>465.0</ele><time>2026-04-17T07:32:58Z</time></trkpt><trkpt lat="36.96679461661054" lon="15.097321168113648"><ele>462.25</ele><time>2026-04-17T07:33:00Z</time></trkpt><trkpt lat="36.96680095499284" lon="15.097184557795657"><ele>459.5</ele><time>2026-04-17T07:33:01Z</time></trkpt><trkpt lat="36.966803560743394" lon="15.097032740669512"><ele>456.75</ele><time>2026-04-17T07:33:02Z</time></trkpt><trkpt lat="36.966800611152216" lon="15.096886084853486"><ele>454.0</ele><time>2026-04-17T07:33:03Z</time></trkpt><trkpt lat="36.96680711516804" lon="15.096740794479652"><ele>454.0</ele><time>2026-04-17T07:33:04Z</time></trkpt><trkpt lat="36.96682464125068" lon="15.09659297698537"><ele>454.0</ele><time>2026-04-17T07:33:05Z</time></trkpt><trkpt lat="36.966817797279504" lon="15.096438382922756"><ele>454.0</ele><time>2026-04-17T07:33:06Z</time></trkpt><trkpt lat="36.96683005374573" lon="15.096287224451887"><ele>454.0</ele><time>2026-04-17T07:33:07Z</time></trkpt><trkpt lat="36.96684072679573" lon="15.09614753909009"><ele>454.4</ele><time>2026-04-17T07:33:08Z</time></trkpt><trkpt lat="36.96686284561195" lon="15.0960228655703"><ele>454.79999999999995</ele><time>2026-04-17T07:33:09Z</time></trkpt><trkpt lat="36.966884665276076" lon="15.095910335361232"><ele>455.20000000000005</ele><time>2026-04-17T07:33:10Z</time></trkpt><trkpt lat="36.96692347014116" lon="15.095798635693926"><ele>455.6</ele><time>2026-04-17T07:33:11Z</time></trkpt><trkpt lat="36.96698912608928" lon="15.095679101775906"><ele>456.0</ele><time>2026-04-17T07:33:12Z</time></trkpt><trkpt lat="36.96705861893175" lon="15.095569686107002"><ele>460.5</ele><time>2026-04-17T07:33:13Z</time></trkpt><trkpt lat="36.96711433041406" lon="15.095479494304014"><ele>465.0</ele><time>2026-04-17T07:33:14Z</time></trkpt><trkpt lat="36.96716448765554" lon="15.095377931442316"><ele>469.5</ele><time>2026-04-17T07:33:15Z</time></trkpt><trkpt lat="36.96721254864345" lon="15.095274366822872"><ele>474.0</ele><time>2026-04-17T07:33:16Z</time></trkpt><trkpt lat="36.96725356550406" lon="15.095175901295603"><ele>478.5</ele><time>2026-04-17T07:33:17Z</time></trkpt><trkpt lat="36.96728510895914" lon="15.095093974599116"><ele>483.0</ele><time>2026-04-17T07:33:18Z</time></trkpt><trkpt lat="36.96731567741476" lon="15.095022991381814"><ele>486.0</ele><time>2026-04-17T07:33:19Z</time></trkpt><trkpt lat="36.96731885136833" lon="15.094891976470251"><ele>489.0</ele><time>2026-04-17T07:33:21Z</time></trkpt><trkpt lat="36.9673106204896" lon="15.094786687300402"><ele>492.0</ele><time>2026-04-17T07:33:23Z</time></trkpt><trkpt lat="36.967246835309425" lon="15.094705614150314"><ele>495.0</ele><time>2026-04-17T07:33:25Z</time></trkpt><trkpt lat="36.967164430346095" lon="15.09471844148969"><ele>498.0</ele><time>2026-04-17T07:33:27Z</time></trkpt><trkpt lat="36.96709747302814" lon="15.094691112178268"><ele>501.0</ele><time>2026-04-17T07:33:31Z</time></trkpt><trkpt lat="36.96699579566575" lon="15.09469002157115"><ele>501.0</ele><time>2026-04-17T07:34:30Z</time></trkpt><trkpt lat="36.96691110877927" lon="15.094666098491503"><ele>501.0</ele><time>2026-04-17T07:34:31Z</time></trkpt><trkpt lat="36.96681651987102" lon="15.094639695006855"><ele>501.0</ele><time>2026-04-17T07:34:32Z</time></trkpt><trkpt lat="36.96671702988931" lon="15.094612144854358"><ele>501.0</ele><time>2026-04-17T07:34:33Z</time></trkpt><trkpt lat="36.9666211826631" lon="15.094585603412014"><ele>501.0</ele><time>2026-04-17T07:34:34Z</time></trkpt><trkpt lat="36.96651969109068" lon="15.0945767845454"><ele>501.5</ele><time>2026-04-17T07:34:35Z</time></trkpt><trkpt lat="36.96641004331763" lon="15.094544128519194"><ele>502.0</ele><time>2026-04-17T07:34:36Z</time></trkpt><trkpt lat="36.96628786414394" lon="15.094503419726387"><ele>502.5</ele><time>2026-04-17T07:34:37Z</time></trkpt><trkpt lat="36.96616908315774" lon="15.094452055517714"><ele>503.0</ele><time>2026-04-17T07:34:38Z</time></trkpt><trkpt lat="36.96604899758391" lon="15.094393067286232"><ele>503.0</ele><time>2026-04-17T07:34:39Z</time></trkpt><trkpt lat="36.96592319787627" lon="15.094345489642665"><ele>503.0</ele><time>2026-04-17T07:34:40Z</time></trkpt><trkpt lat="36.96577884085838" lon="15.094318086021861"><ele>503.0</ele><time>2026-04-17T07:34:41Z</time></trkpt><trkpt lat="36.96562365393548" lon="15.094294529482665"><ele>503.0</ele><time>2026-04-17T07:34:42Z</time></trkpt><trkpt lat="36.96547297089583" lon="15.094240890043277"><ele>501.25</ele><time>2026-04-17T07:34:43Z</time></trkpt><trkpt lat="36.96532725748292" lon="15.094193010965844"><ele>499.5</ele><time>2026-04-17T07:34:44Z</time></trkpt><trkpt lat="36.96518512909324" lon="15.094149430718698"><ele>497.75</ele><time>2026-04-17T07:34:45Z</time></trkpt><trkpt lat="36.9650487868322" lon="15.094095767535768"><ele>496.0</ele><time>2026-04-17T07:34:46Z</time></trkpt><trkpt lat="36.964918993027936" lon="15.094045244194307"><ele>494.6</ele><time>2026-04-17T07:34:47Z</time></trkpt><trkpt lat="36.96480806109544" lon="15.094006357715637"><ele>493.20000000000005</ele><time>2026-04-17T07:34:48Z</time></trkpt><trkpt lat="36.964712396586165" lon="15.093979172686142"><ele>491.79999999999995</ele><time>2026-04-17T07:34:49Z</time></trkpt><trkpt lat="36.964605831080036" lon="15.093966322061547"><ele>490.4</ele><time>2026-04-17T07:34:50Z</time></trkpt><trkpt lat="36.96448985807532" lon="15.093966584702317"><ele>489.0</ele><time>2026-04-17T07:34:51Z</time></trkpt><trkpt lat="36.964376855444435" lon="15.094025608917425"><ele>489.0</ele><time>2026-04-17T07:34:52Z</time></trkpt><trkpt lat="36.9642700585832" lon="15.094056361295781"><ele>489.0</ele><time>2026-04-17T07:34:53Z</time></trkpt><trkpt lat="36.96417511063998" lon="15.0940513977621"><ele>489.0</ele><time>2026-04-17T07:34:54Z</time></trkpt><trkpt lat="36.964086910007545" lon="15.094013053053915"><ele>489.0</ele><time>2026-04-17T07:34:55Z</time></trkpt><trkpt lat="36.964005985568015" lon="15.093924857625089"><ele>489.0</ele><time>2026-04-17T07:34:56Z</time></trkpt><trkpt lat="36.96393806037027" lon="15.093806042738269"><ele>490.0</ele><time>2026-04-17T07:34:57Z</time></trkpt><trkpt lat="36.9638786882224" lon="15.093678355634616"><ele>491.0</ele><time>2026-04-17T07:34:58Z</time></trkpt><trkpt lat="36.96383712056922" lon="15.093563439527948"><ele>492.0</ele><time>2026-04-17T07:34:59Z</time></trkpt><trkpt lat="36.96381047500004" lon="15.093467998507574"><ele>493.0</ele><time>2026-04-17T07:35:00Z</time></trkpt><trkpt lat="36.96375036001327" lon="15.093369924440506"><ele>494.0</ele><time>2026-04-17T07:35:02Z</time></trkpt><trkpt lat="36.96383755104251" lon="15.093219904328237"><ele>494.5</ele><time>2026-04-17T07:35:03Z</time></trkpt><trkpt lat="36.963926476071535" lon="15.093085753143223"><ele>495.0</ele><time>2026-04-17T07:35:04Z</time></trkpt><trkpt lat="36.9639996638221" lon="15.092920271358269"><ele>495.5</ele><time>2026-04-17T07:35:05Z</time></trkpt><trkpt lat="36.96407634595825" lon="15.092754473390018"><ele>496.0</ele><time>2026-04-17T07:35:06Z</time></trkpt><trkpt lat="36.96414773903881" lon="15.092582640648484"><ele>496.33333333333337</ele><time>2026-04-17T07:35:07Z</time></trkpt><trkpt lat="36.964223326192716" lon="15.092407575084552"><ele>496.66666666666663</ele><time>2026-04-17T07:35:08Z</time></trkpt><trkpt lat="36.96429008031646" lon="15.09222747367537"><ele>497.0</ele><time>2026-04-17T07:35:09Z</time></trkpt><trkpt lat="36.96431861985386" lon="15.092016423583448"><ele>497.0</ele><time>2026-04-17T07:35:10Z</time></trkpt><trkpt lat="36.96433779861971" lon="15.091817987467387"><ele>497.0</ele><time>2026-04-17T07:35:11Z</time></trkpt><trkpt lat="36.96436969188806" lon="15.091614675437329"><ele>497.0</ele><time>2026-04-17T07:35:12Z</time></trkpt><trkpt lat="36.964427591164785" lon="15.091424398815846"><ele>498.3333333333333</ele><time>2026-04-17T07:35:13Z</time></trkpt><trkpt lat="36.96450540290907" lon="15.091248096278377"><ele>499.66666666666663</ele><time>2026-04-17T07:35:14Z</time></trkpt><trkpt lat="36.96459647146922" lon="15.091079224203241"><ele>501.0</ele><time>2026-04-17T07:35:15Z</time></trkpt><trkpt lat="36.96468872215383" lon="15.090897750895033"><ele>501.66666666666663</ele><time>2026-04-17T07:35:16Z</time></trkpt><trkpt lat="36.964774578416616" lon="15.090717615869979"><ele>502.3333333333333</ele><time>2026-04-17T07:35:17Z</time></trkpt><trkpt lat="36.96485640553825" lon="15.09054608210535"><ele>503.0</ele><time>2026-04-17T07:35:18Z</time></trkpt><trkpt lat="36.96493407354541" lon="15.090387593267955"><ele>503.0</ele><time>2026-04-17T07:35:19Z</time></trkpt><trkpt lat="36.96499494314207" lon="15.09023323638503"><ele>503.0</ele><time>2026-04-17T07:35:20Z</time></trkpt><trkpt lat="36.96503161764642" lon="15.090060327087675"><ele>503.0</ele><time>2026-04-17T07:35:21Z</time></trkpt><trkpt lat="36.96505267017463" lon="15.089861389080257"><ele>503.0</ele><time>2026-04-17T07:35:22Z</time></trkpt><trkpt lat="36.96505891763859" lon="15.089642192416745"><ele>502.0</ele><time>2026-04-17T07:35:23Z</time></trkpt><trkpt lat="36.96506072432507" lon="15.089412913975936"><ele>501.0</ele><time>2026-04-17T07:35:24Z</time></trkpt><trkpt lat="36.96506554574557" lon="15.08918893880377"><ele>500.0</ele><time>2026-04-17T07:35:25Z</time></trkpt><trkpt lat="36.96506919764269" lon="15.088986252209434"><ele>500.0</ele><time>2026-04-17T07:35:26Z</time></trkpt><trkpt lat="36.96507661652687" lon="15.088792965577404"><ele>500.0</ele><time>2026-04-17T07:35:27Z</time></trkpt><trkpt lat="36.96508274234145" lon="15.08859706280876"><ele>500.0</ele><time>2026-04-17T07:35:28Z</time></trkpt><trkpt lat="36.965084939798494" lon="15.088393988232932"><ele>501.0</ele><time>2026-04-17T07:35:29Z</time></trkpt><trkpt lat="36.965081524280826" lon="15.088189580318309"><ele>502.0</ele><time>2026-04-17T07:35:30Z</time></trkpt><trkpt lat="36.96508438627144" lon="15.08800803150478"><ele>503.0</ele><time>2026-04-17T07:35:31Z</time></trkpt><trkpt lat="36.96509978163624" lon="15.087841915801624"><ele>504.0</ele><time>2026-04-17T07:35:32Z</time></trkpt><trkpt lat="36.96513367243811" lon="15.087719804924722"><ele>504.0</ele><time>2026-04-17T07:35:33Z</time></trkpt><trkpt lat="36.965187172217504" lon="15.087624947237982"><ele>504.0</ele><time>2026-04-17T07:35:34Z</time></trkpt><trkpt lat="36.96528690814074" lon="15.087556119539071"><ele>504.0</ele><time>2026-04-17T07:35:35Z</time></trkpt><trkpt lat="36.96538390635262" lon="15.087457578559945"><ele>504.0</ele><time>2026-04-17T07:35:36Z</time></trkpt><trkpt lat="36.965470186507346" lon="15.087376412171102"><ele>504.0</ele><time>2026-04-17T07:35:37Z</time></trkpt><trkpt lat="36.9655362679996" lon="15.087284654514526"><ele>503.25</ele><time>2026-04-17T07:35:38Z</time></trkpt><trkpt lat="36.9655753586167" lon="15.087165969413686"><ele>502.5</ele><time>2026-04-17T07:35:39Z</time></trkpt><trkpt lat="36.96559556517225" lon="15.087002297888287"><ele>501.75</ele><time>2026-04-17T07:35:40Z</time></trkpt><trkpt lat="36.965598949294254" lon="15.08681366234424"><ele>501.0</ele><time>2026-04-17T07:35:41Z</time></trkpt><trkpt lat="36.96560294151372" lon="15.086614028400657"><ele>499.5</ele><time>2026-04-17T07:35:42Z</time></trkpt><trkpt lat="36.96560729121668" lon="15.086431816521129"><ele>498.0</ele><time>2026-04-17T07:35:43Z</time></trkpt><trkpt lat="36.96561547440358" lon="15.086256149297258"><ele>496.5</ele><time>2026-04-17T07:35:44Z</time></trkpt><trkpt lat="36.96562533762662" lon="15.086088922833655"><ele>495.0</ele><time>2026-04-17T07:35:45Z</time></trkpt><trkpt lat="36.965635386176814" lon="15.085930464319905"><ele>495.0</ele><time>2026-04-17T07:35:46Z</time></trkpt><trkpt lat="36.9656453783132" lon="15.085782504944715"><ele>495.0</ele><time>2026-04-17T07:35:47Z</time></trkpt><trkpt lat="36.96565597439347" lon="15.085642629340677"><ele>495.0</ele><time>2026-04-17T07:35:48Z</time></trkpt><trkpt lat="36.96566063545722" lon="15.085510869232216"><ele>495.0</ele><time>2026-04-17T07:35:49Z</time></trkpt><trkpt lat="36.965710620570555" lon="15.085394812023242"><ele>495.0</ele><time>2026-04-17T07:35:50Z</time></trkpt><trkpt lat="36.9656578369594" lon="15.085230383101962"><ele>495.3333333333333</ele><time>2026-04-17T07:35:51Z</time></trkpt><trkpt lat="36.965642564700204" lon="15.085099861520488"><ele>495.66666666666663</ele><time>2026-04-17T07:35:52Z</time></trkpt><trkpt lat="36.965625476746986" lon="15.084975110771092"><ele>496.0</ele><time>2026-04-17T07:35:53Z</time></trkpt><trkpt lat="36.965614010323996" lon="15.084858028745893"><ele>496.3333333333333</ele><time>2026-04-17T07:35:54Z</time></trkpt><trkpt lat="36.96560688883793" lon="15.08475684702447"><ele>496.66666666666663</ele><time>2026-04-17T07:35:55Z</time></trkpt><trkpt lat="36.965594352763645" lon="15.084678250561419"><ele>497.0</ele><time>2026-04-17T07:35:56Z</time></trkpt><trkpt lat="36.96557904546822" lon="15.084589611523159"><ele>497.0</ele><time>2026-04-17T07:35:57Z</time></trkpt><trkpt lat="36.965572135983884" lon="15.084481910625271"><ele>497.00000000000006</ele><time>2026-04-17T07:35:58Z</time></trkpt><trkpt lat="36.96558106930925" lon="15.08436374777275"><ele>497.00000000000006</ele><time>2026-04-17T07:35:59Z</time></trkpt><trkpt lat="36.96560893186423" lon="15.084246665821677"><ele>497.0</ele><time>2026-04-17T07:36:00Z</time></trkpt><trkpt lat="36.965648095827866" lon="15.084128158545695"><ele>497.0</ele><time>2026-04-17T07:36:01Z</time></trkpt><trkpt lat="36.96567626045166" lon="15.084003925179797"><ele>497.0</ele><time>2026-04-17T07:36:02Z</time></trkpt><trkpt lat="36.965702489780334" lon="15.08387753262685"><ele>497.00000000000006</ele><time>2026-04-17T07:36:03Z</time></trkpt><trkpt lat="36.96571868568094" lon="15.083751287161787"><ele>497.00000000000006</ele><time>2026-04-17T07:36:04Z</time></trkpt><trkpt lat="36.9657263555627" lon="15.083623942598043"><ele>497.0</ele><time>2026-04-17T07:36:05Z</time></trkpt><trkpt lat="36.96572404883342" lon="15.083489158179317"><ele>497.0</ele><time>2026-04-17T07:36:06Z</time></trkpt><trkpt lat="36.965711983104555" lon="15.083341088490132"><ele>494.75</ele><time>2026-04-17T07:36:07Z</time></trkpt><trkpt lat="36.965688416361694" lon="15.08318322654573"><ele>492.5</ele><time>2026-04-17T07:36:08Z</time></trkpt><trkpt lat="36.96564926682642" lon="15.083011378878238"><ele>490.25</ele><time>2026-04-17T07:36:09Z</time></trkpt><trkpt lat="36.96560476881388" lon="15.08283088407641"><ele>488.0</ele><time>2026-04-17T07:36:10Z</time></trkpt><trkpt lat="36.96554051077809" lon="15.082643248263363"><ele>488.0</ele><time>2026-04-17T07:36:11Z</time></trkpt><trkpt lat="36.965469208571506" lon="15.082453106772167"><ele>488.0</ele><time>2026-04-17T07:36:12Z</time></trkpt><trkpt lat="36.965404056121955" lon="15.082259436738198"><ele>488.0</ele><time>2026-04-17T07:36:13Z</time></trkpt><trkpt lat="36.96534581655477" lon="15.082062166295614"><ele>484.66666666666663</ele><time>2026-04-17T07:36:14Z</time></trkpt><trkpt lat="36.96529635292009" lon="15.081861361877735"><ele>481.33333333333337</ele><time>2026-04-17T07:36:15Z</time></trkpt><trkpt lat="36.96525870732645" lon="15.081646812007627"><ele>478.0</ele><time>2026-04-17T07:36:16Z</time></trkpt><trkpt lat="36.96523166023496" lon="15.081422597165046"><ele>475.33333333333337</ele><time>2026-04-17T07:36:17Z</time></trkpt><trkpt lat="36.96521904551389" lon="15.081192501855675"><ele>472.66666666666663</ele><time>2026-04-17T07:36:18Z</time></trkpt><trkpt lat="36.965212786563" lon="15.080971689103897"><ele>470.0</ele><time>2026-04-17T07:36:19Z</time></trkpt><trkpt lat="36.96520344619911" lon="15.080758884810795"><ele>469.0</ele><time>2026-04-17T07:36:20Z</time></trkpt><trkpt lat="36.965188113148685" lon="15.080551611164005"><ele>468.0</ele><time>2026-04-17T07:36:21Z</time></trkpt><trkpt lat="36.965164204162996" lon="15.080347687944416"><ele>467.0</ele><time>2026-04-17T07:36:22Z</time></trkpt><trkpt lat="36.96512985917857" lon="15.080137483376456"><ele>468.0</ele><time>2026-04-17T07:36:23Z</time></trkpt><trkpt lat="36.965080762898346" lon="15.079918332573383"><ele>469.0</ele><time>2026-04-17T07:36:24Z</time></trkpt><trkpt lat="36.965031211181554" lon="15.079692367742192"><ele>470.0</ele><time>2026-04-17T07:36:25Z</time></trkpt><trkpt lat="36.96497514279375" lon="15.079461879018972"><ele>468.3333333333333</ele><time>2026-04-17T07:36:26Z</time></trkpt><trkpt lat="36.964916044685545" lon="15.079229454409074"><ele>466.66666666666663</ele><time>2026-04-17T07:36:27Z</time></trkpt><trkpt lat="36.96485511701103" lon="15.079001718159288"><ele>465.0</ele><time>2026-04-17T07:36:28Z</time></trkpt><trkpt lat="36.96479528090605" lon="15.078796390832018"><ele>465.0</ele><time>2026-04-17T07:36:29Z</time></trkpt><trkpt lat="36.964741605535096" lon="15.078614023702135"><ele>465.0</ele><time>2026-04-17T07:36:30Z</time></trkpt><trkpt lat="36.96469154822689" lon="15.078443928838063"><ele>465.0</ele><time>2026-04-17T07:36:31Z</time></trkpt><trkpt lat="36.96463781035098" lon="15.078288638125057"><ele>465.0</ele><time>2026-04-17T07:36:32Z</time></trkpt><trkpt lat="36.96456767152202" lon="15.07814231429876"><ele>464.5</ele><time>2026-04-17T07:36:33Z</time></trkpt><trkpt lat="36.9644817140489" lon="15.077997611403545"><ele>464.0</ele><time>2026-04-17T07:36:34Z</time></trkpt><trkpt lat="36.964387097285424" lon="15.077860821622423"><ele>463.5</ele><time>2026-04-17T07:36:35Z</time></trkpt><trkpt lat="36.96430503030572" lon="15.077746115411916"><ele>463.0</ele><time>2026-04-17T07:36:36Z</time></trkpt><trkpt lat="36.964243211244955" lon="15.077640630640376"><ele>462.6666666666667</ele><time>2026-04-17T07:36:37Z</time></trkpt><trkpt lat="36.96419238978773" lon="15.077547200464855"><ele>462.33333333333337</ele><time>2026-04-17T07:36:38Z</time></trkpt><trkpt lat="36.964156703601994" lon="15.077474129717892"><ele>462.0</ele><time>2026-04-17T07:36:39Z</time></trkpt><trkpt lat="36.964100267886415" lon="15.07741533494191"><ele>461.66666666666663</ele><time>2026-04-17T07:36:40Z</time></trkpt><trkpt lat="36.964048026840985" lon="15.077350670174802"><ele>461.3333333333333</ele><time>2026-04-17T07:36:41Z</time></trkpt><trkpt lat="36.963992111478014" lon="15.077288222289251"><ele>461.0</ele><time>2026-04-17T07:36:42Z</time></trkpt><trkpt lat="36.963907790498226" lon="15.077197256176463"><ele>459.66666666666663</ele><time>2026-04-17T07:36:44Z</time></trkpt><trkpt lat="36.964083014744794" lon="15.076816101702024"><ele>458.33333333333337</ele><time>2026-04-17T07:36:45Z</time></trkpt><trkpt lat="36.96407694796367" lon="15.076723483760398"><ele>457.0</ele><time>2026-04-17T07:36:46Z</time></trkpt><trkpt lat="36.96407251085075" lon="15.076641053028943"><ele>456.0</ele><time>2026-04-17T07:36:47Z</time></trkpt><trkpt lat="36.96406623019246" lon="15.076501212939577"><ele>455.00000000000006</ele><time>2026-04-17T07:36:49Z</time></trkpt><trkpt lat="36.96404143716436" lon="15.076396818664994"><ele>454.00000000000006</ele><time>2026-04-17T07:36:51Z</time></trkpt><trkpt lat="36.96400629385027" lon="15.076302655612329"><ele>453.0</ele><time>2026-04-17T07:36:53Z</time></trkpt><trkpt lat="36.963962475386296" lon="15.076190510170523"><ele>452.0</ele><time>2026-04-17T07:36:55Z</time></trkpt><trkpt lat="36.96393672158551" lon="15.076097520792098"><ele>452.0</ele><time>2026-04-17T07:36:57Z</time></trkpt><trkpt lat="36.963908213933344" lon="15.076018058054727"><ele>452.00000000000006</ele><time>2026-04-17T07:36:59Z</time></trkpt><trkpt lat="36.9638675922748" lon="15.075911955110742"><ele>452.00000000000006</ele><time>2026-04-17T07:37:01Z</time></trkpt><trkpt lat="36.963833849457714" lon="15.07576652711088"><ele>452.0</ele><time>2026-04-17T07:37:03Z</time></trkpt><trkpt lat="36.963804011854826" lon="15.075616446362654"><ele>452.0</ele><time>2026-04-17T07:37:05Z</time></trkpt><trkpt lat="36.96377515553692" lon="15.075542250308919"><ele>452.40000000000003</ele><time>2026-04-17T07:37:06Z</time></trkpt><trkpt lat="36.96370941507683" lon="15.075393865803541"><ele>452.80000000000007</ele><time>2026-04-17T07:37:08Z</time></trkpt><trkpt lat="36.96365545060155" lon="15.07526401668126"><ele>453.2</ele><time>2026-04-17T07:37:10Z</time></trkpt><trkpt lat="36.96362726401545" lon="15.075188332202991"><ele>453.6</ele><time>2026-04-17T07:37:11Z</time></trkpt><trkpt lat="36.96360154397307" lon="15.075098792806996"><ele>454.0</ele><time>2026-04-17T07:37:12Z</time></trkpt><trkpt lat="36.963572819798635" lon="15.074939925960992"><ele>454.5714285714286</ele><time>2026-04-17T07:37:14Z</time></trkpt><trkpt lat="36.96357372158307" lon="15.07485452939574"><ele>455.1428571428572</ele><time>2026-04-17T07:37:15Z</time></trkpt><trkpt lat="36.963586093341966" lon="15.074767211845305"><ele>455.7142857142857</ele><time>2026-04-17T07:37:16Z</time></trkpt><trkpt lat="36.963601786541005" lon="15.074688025581816"><ele>456.28571428571433</ele><time>2026-04-17T07:37:17Z</time></trkpt><trkpt lat="36.96360813864453" lon="15.074600111053623"><ele>456.8571428571429</ele><time>2026-04-17T07:37:18Z</time></trkpt><trkpt lat="36.963624872048584" lon="15.07451097902083"><ele>457.42857142857144</ele><time>2026-04-17T07:37:19Z</time></trkpt><trkpt lat="36.96365379448168" lon="15.074430122195897"><ele>458.0</ele><time>2026-04-17T07:37:20Z</time></trkpt><trkpt lat="36.963683475744695" lon="15.07435997560102"><ele>458.0</ele><time>2026-04-17T07:37:21Z</time></trkpt><trkpt lat="36.96370631756117" lon="15.074285594972832"><ele>457.99999999999994</ele><time>2026-04-17T07:37:22Z</time></trkpt><trkpt lat="36.96376273563826" lon="15.074141956173568"><ele>457.99999999999994</ele><time>2026-04-17T07:37:24Z</time></trkpt><trkpt lat="36.96380189683162" lon="15.074065518260886"><ele>458.0</ele><time>2026-04-17T07:37:25Z</time></trkpt><trkpt lat="36.96384626807398" lon="15.074000128428235"><ele>458.0</ele><time>2026-04-17T07:37:26Z</time></trkpt><trkpt lat="36.963906043581936" lon="15.073871367374007"><ele>457.99999999999994</ele><time>2026-04-17T07:37:28Z</time></trkpt><trkpt lat="36.96395412330925" lon="15.073748684572625"><ele>458.0</ele><time>2026-04-17T07:37:30Z</time></trkpt><trkpt lat="36.96396606793266" lon="15.073666122260509"><ele>458.0</ele><time>2026-04-17T07:37:31Z</time></trkpt><trkpt lat="36.963988779402" lon="15.073583604667611"><ele>458.0</ele><time>2026-04-17T07:37:32Z</time></trkpt><trkpt lat="36.96400984121592" lon="15.073502978729437"><ele>457.99999999999994</ele><time>2026-04-17T07:37:33Z</time></trkpt><trkpt lat="36.96403481210824" lon="15.073356110876977"><ele>458.0</ele><time>2026-04-17T07:37:35Z</time></trkpt><trkpt lat="36.96406774395037" lon="15.073200126878822"><ele>458.0</ele><time>2026-04-17T07:37:37Z</time></trkpt><trkpt lat="36.964084535569945" lon="15.073078753283937"><ele>457.99999999999994</ele><time>2026-04-17T07:37:39Z</time></trkpt><trkpt lat="36.96409667045333" lon="15.07293653793819"><ele>457.99999999999994</ele><time>2026-04-17T07:37:41Z</time></trkpt><trkpt lat="36.964109429047724" lon="15.072846879475449"><ele>458.0</ele><time>2026-04-17T07:37:42Z</time></trkpt><trkpt lat="36.964119259417146" lon="15.072702966011985"><ele>458.0</ele><time>2026-04-17T07:37:44Z</time></trkpt><trkpt lat="36.964128737950546" lon="15.072540100903193"><ele>457.99999999999994</ele><time>2026-04-17T07:37:46Z</time></trkpt><trkpt lat="36.96412461434544" lon="15.07245554561687"><ele>458.0</ele><time>2026-04-17T07:37:47Z</time></trkpt><trkpt lat="36.96409177965203" lon="15.072317787504664"><ele>458.0</ele><time>2026-04-17T07:37:49Z</time></trkpt><trkpt lat="36.96412079822073" lon="15.072175131491166"><ele>458.0</ele><time>2026-04-17T07:37:51Z</time></trkpt><trkpt lat="36.96410061642445" lon="15.072088254482074"><ele>457.99999999999994</ele><time>2026-04-17T07:37:52Z</time></trkpt><trkpt lat="36.964073216436276" lon="15.072005160809914"><ele>458.0</ele><time>2026-04-17T07:37:53Z</time></trkpt><trkpt lat="36.96404677417686" lon="15.071931823807567"><ele>457.99999999999994</ele><time>2026-04-17T07:37:54Z</time></trkpt><trkpt lat="36.96402954694681" lon="15.071850583827464"><ele>458.0</ele><time>2026-04-17T07:37:55Z</time></trkpt><trkpt lat="36.96401813972202" lon="15.071714998054894"><ele>458.0</ele><time>2026-04-17T07:37:57Z</time></trkpt><trkpt lat="36.964022378300605" lon="15.071550403334136"><ele>458.0</ele><time>2026-04-17T07:37:59Z</time></trkpt><trkpt lat="36.964025502590985" lon="15.071463759085251"><ele>457.99999999999994</ele><time>2026-04-17T07:38:00Z</time></trkpt><trkpt lat="36.96403679879847" lon="15.071376085693004"><ele>458.0</ele><time>2026-04-17T07:38:01Z</time></trkpt><trkpt lat="36.96404644831907" lon="15.071288678515073"><ele>458.16666666666663</ele><time>2026-04-17T07:38:02Z</time></trkpt><trkpt lat="36.964044926628326" lon="15.071208935088016"><ele>458.3333333333333</ele><time>2026-04-17T07:38:03Z</time></trkpt><trkpt lat="36.96406072492207" lon="15.07105954877196"><ele>458.5</ele><time>2026-04-17T07:38:05Z</time></trkpt><trkpt lat="36.964063054288026" lon="15.070969618059173"><ele>458.66666666666663</ele><time>2026-04-17T07:38:06Z</time></trkpt><trkpt lat="36.96406135556085" lon="15.070890444139618"><ele>458.8333333333333</ele><time>2026-04-17T07:38:07Z</time></trkpt><trkpt lat="36.96406626825559" lon="15.070760860291198"><ele>459.0</ele><time>2026-04-17T07:38:09Z</time></trkpt><trkpt lat="36.964065001341766" lon="15.070656634391584"><ele>458.4</ele><time>2026-04-17T07:38:11Z</time></trkpt><trkpt lat="36.964060726143174" lon="15.070542208733878"><ele>457.79999999999995</ele><time>2026-04-17T07:38:13Z</time></trkpt><trkpt lat="36.964076890992054" lon="15.070419948955706"><ele>457.20000000000005</ele><time>2026-04-17T07:38:15Z</time></trkpt><trkpt lat="36.96405597787207" lon="15.07030880297469"><ele>456.6</ele><time>2026-04-17T07:38:17Z</time></trkpt><trkpt lat="36.96400616540369" lon="15.07016781117916"><ele>456.0</ele><time>2026-04-17T07:38:19Z</time></trkpt><trkpt lat="36.9639903364292" lon="15.070044841667462"><ele>456.0</ele><time>2026-04-17T07:38:21Z</time></trkpt><trkpt lat="36.963968313703624" lon="15.069966207585285"><ele>456.0</ele><time>2026-04-17T07:38:23Z</time></trkpt><trkpt lat="36.96393785040744" lon="15.06985175506761"><ele>456.0</ele><time>2026-04-17T07:38:25Z</time></trkpt><trkpt lat="36.96391106735753" lon="15.069714872448346"><ele>456.0</ele><time>2026-04-17T07:38:27Z</time></trkpt><trkpt lat="36.96388264491642" lon="15.06957551160014"><ele>456.0</ele><time>2026-04-17T07:38:29Z</time></trkpt><trkpt lat="36.96384588953977" lon="15.069488648202698"><ele>456.2857142857143</ele><time>2026-04-17T07:38:30Z</time></trkpt><trkpt lat="36.96381723315108" lon="15.069415431857527"><ele>456.57142857142856</ele><time>2026-04-17T07:38:31Z</time></trkpt><trkpt lat="36.963784713786616" lon="15.06932695519063"><ele>456.85714285714283</ele><time>2026-04-17T07:38:32Z</time></trkpt><trkpt lat="36.96374290681323" lon="15.069242000691313"><ele>457.1428571428571</ele><time>2026-04-17T07:38:33Z</time></trkpt><trkpt lat="36.96370284653307" lon="15.069164385400565"><ele>457.42857142857144</ele><time>2026-04-17T07:38:34Z</time></trkpt><trkpt lat="36.96366589412081" lon="15.069087153840774"><ele>457.71428571428567</ele><time>2026-04-17T07:38:35Z</time></trkpt><trkpt lat="36.96361666775051" lon="15.069021690386002"><ele>458.0</ele><time>2026-04-17T07:38:36Z</time></trkpt><trkpt lat="36.96356399352087" lon="15.068954585292479"><ele>458.3333333333333</ele><time>2026-04-17T07:38:37Z</time></trkpt><trkpt lat="36.963513836282324" lon="15.06889326486898"><ele>458.66666666666663</ele><time>2026-04-17T07:38:38Z</time></trkpt><trkpt lat="36.96342616322049" lon="15.068800156211768"><ele>459.0</ele><time>2026-04-17T07:38:40Z</time></trkpt><trkpt lat="36.96337949614713" lon="15.068745424960596"><ele>459.33333333333337</ele><time>2026-04-17T07:38:41Z</time></trkpt><trkpt lat="36.96331792648087" lon="15.068693453762958"><ele>459.6666666666667</ele><time>2026-04-17T07:38:42Z</time></trkpt><trkpt lat="36.96321767600772" lon="15.068609989158343"><ele>460.0</ele><time>2026-04-17T07:38:44Z</time></trkpt><trkpt lat="36.963136924182436" lon="15.068512580625955"><ele>460.0</ele><time>2026-04-17T07:38:46Z</time></trkpt><trkpt lat="36.96304449854036" lon="15.068407800424463"><ele>460.0</ele><time>2026-04-17T07:38:48Z</time></trkpt><trkpt lat="36.962961054862426" lon="15.068279273986466"><ele>460.0</ele><time>2026-04-17T07:38:50Z</time></trkpt><trkpt lat="36.96290509723369" lon="15.068197468921182"><ele>460.0</ele><time>2026-04-17T07:38:51Z</time></trkpt><trkpt lat="36.962856766053115" lon="15.06811799927661"><ele>460.0</ele><time>2026-04-17T07:38:52Z</time></trkpt><trkpt lat="36.962817246180805" lon="15.068056343818723"><ele>460.50000000000006</ele><time>2026-04-17T07:38:53Z</time></trkpt><trkpt lat="36.962774370806" lon="15.067927184348003"><ele>461.0</ele><time>2026-04-17T07:38:55Z</time></trkpt><trkpt lat="36.96271828454797" lon="15.067830234939462"><ele>461.5</ele><time>2026-04-17T07:38:57Z</time></trkpt><trkpt lat="36.962666253816536" lon="15.067761749415054"><ele>462.0</ele><time>2026-04-17T07:38:59Z</time></trkpt><trkpt lat="36.96266211351624" lon="15.067669638504883"><ele>462.50000000000006</ele><time>2026-04-17T07:39:01Z</time></trkpt><trkpt lat="36.962707777700665" lon="15.06759945143606"><ele>463.0</ele><time>2026-04-17T07:39:03Z</time></trkpt><trkpt lat="36.96275245810422" lon="15.067512528544336"><ele>462.59999999999997</ele><time>2026-04-17T07:39:54Z</time></trkpt><trkpt lat="36.96279785046993" lon="15.067362577835413"><ele>462.19999999999993</ele><time>2026-04-17T07:39:56Z</time></trkpt><trkpt lat="36.96282736574705" lon="15.067278184245806"><ele>461.8</ele><time>2026-04-17T07:39:57Z</time></trkpt><trkpt lat="36.962865612495975" lon="15.067168139071189"><ele>461.4</ele><time>2026-04-17T07:39:58Z</time></trkpt><trkpt lat="36.962903975372406" lon="15.06705802269236"><ele>461.0</ele><time>2026-04-17T07:39:59Z</time></trkpt><trkpt lat="36.96293561049649" lon="15.066954876024376"><ele>461.0</ele><time>2026-04-17T07:40:00Z</time></trkpt><trkpt lat="36.96296519736" lon="15.066838321966848"><ele>461.0</ele><time>2026-04-17T07:40:01Z</time></trkpt><trkpt lat="36.962985601304794" lon="15.066713402483929"><ele>461.0</ele><time>2026-04-17T07:40:02Z</time></trkpt><trkpt lat="36.96299677809156" lon="15.06660455434719"><ele>461.0</ele><time>2026-04-17T07:40:03Z</time></trkpt><trkpt lat="36.963030998422006" lon="15.066480218362324"><ele>461.0</ele><time>2026-04-17T07:40:04Z</time></trkpt><trkpt lat="36.96305031402974" lon="15.066374502939755"><ele>460.3333333333333</ele><time>2026-04-17T07:40:05Z</time></trkpt><trkpt lat="36.96306980613291" lon="15.066259895222242"><ele>459.66666666666663</ele><time>2026-04-17T07:40:06Z</time></trkpt><trkpt lat="36.96308933672483" lon="15.066147401957057"><ele>459.0</ele><time>2026-04-17T07:40:07Z</time></trkpt><trkpt lat="36.96310827880125" lon="15.066046683911035"><ele>458.33333333333337</ele><time>2026-04-17T07:40:08Z</time></trkpt><trkpt lat="36.963122879981384" lon="15.065954058384872"><ele>457.6666666666667</ele><time>2026-04-17T07:40:09Z</time></trkpt><trkpt lat="36.96315454491631" lon="15.065874888874061"><ele>457.0</ele><time>2026-04-17T07:40:10Z</time></trkpt><trkpt lat="36.963176897550206" lon="15.065787882643418"><ele>456.1666666666667</ele><time>2026-04-17T07:40:11Z</time></trkpt><trkpt lat="36.963213740958075" lon="15.06570025667435"><ele>455.33333333333337</ele><time>2026-04-17T07:40:12Z</time></trkpt><trkpt lat="36.96322516827737" lon="15.065603222603055"><ele>454.5</ele><time>2026-04-17T07:40:13Z</time></trkpt><trkpt lat="36.96324310314006" lon="15.065514152078318"><ele>453.66666666666663</ele><time>2026-04-17T07:40:14Z</time></trkpt><trkpt lat="36.96326915170868" lon="15.065363770155505"><ele>452.8333333333333</ele><time>2026-04-17T07:40:16Z</time></trkpt><trkpt lat="36.96327969078384" lon="15.065273705772707"><ele>452.0</ele><time>2026-04-17T07:40:17Z</time></trkpt><trkpt lat="36.96328764824918" lon="15.06515335283362"><ele>452.0</ele><time>2026-04-17T07:40:18Z</time></trkpt><trkpt lat="36.963289464186836" lon="15.065013176773116"><ele>452.00000000000006</ele><time>2026-04-17T07:40:19Z</time></trkpt><trkpt lat="36.96329306673418" lon="15.064896281863142"><ele>452.00000000000006</ele><time>2026-04-17T07:40:20Z</time></trkpt><trkpt lat="36.96330556180824" lon="15.064804591571733"><ele>452.0</ele><time>2026-04-17T07:40:21Z</time></trkpt><trkpt lat="36.96332564573137" lon="15.064698317592468"><ele>452.0</ele><time>2026-04-17T07:40:22Z</time></trkpt><trkpt lat="36.963348839534476" lon="15.064582876519884"><ele>452.49999999999994</ele><time>2026-04-17T07:40:23Z</time></trkpt><trkpt lat="36.96337509548213" lon="15.064464122870238"><ele>453.0</ele><time>2026-04-17T07:40:24Z</time></trkpt><trkpt lat="36.963399875190966" lon="15.064381222845798"><ele>453.5</ele><time>2026-04-17T07:40:25Z</time></trkpt><trkpt lat="36.963424304953605" lon="15.064301385363045"><ele>454.0</ele><time>2026-04-17T07:40:26Z</time></trkpt><trkpt lat="36.96345078746574" lon="15.064204795654817"><ele>454.49999999999994</ele><time>2026-04-17T07:40:27Z</time></trkpt><trkpt lat="36.96347916580116" lon="15.06410020004704"><ele>455.0</ele><time>2026-04-17T07:40:28Z</time></trkpt><trkpt lat="36.96350821825259" lon="15.06400260392445"><ele>455.0</ele><time>2026-04-17T07:40:29Z</time></trkpt><trkpt lat="36.96357360504009" lon="15.063908554035487"><ele>455.0</ele><time>2026-04-17T07:40:30Z</time></trkpt><trkpt lat="36.963630466725384" lon="15.063805292163677"><ele>455.0</ele><time>2026-04-17T07:40:31Z</time></trkpt><trkpt lat="36.963692472077575" lon="15.063668407924714"><ele>455.0</ele><time>2026-04-17T07:40:32Z</time></trkpt><trkpt lat="36.96376960558103" lon="15.063535793171138"><ele>455.0</ele><time>2026-04-17T07:40:33Z</time></trkpt><trkpt lat="36.963843862698894" lon="15.063406387250893"><ele>455.0</ele><time>2026-04-17T07:40:34Z</time></trkpt><trkpt lat="36.96391315966196" lon="15.063283613038251"><ele>455.0</ele><time>2026-04-17T07:40:35Z</time></trkpt><trkpt lat="36.96396588384065" lon="15.06318442427654"><ele>455.0</ele><time>2026-04-17T07:40:36Z</time></trkpt><trkpt lat="36.96402868504939" lon="15.063079428037813"><ele>455.0</ele><time>2026-04-17T07:40:37Z</time></trkpt><trkpt lat="36.96410016134627" lon="15.062964046865394"><ele>455.99999999999994</ele><time>2026-04-17T07:40:38Z</time></trkpt><trkpt lat="36.96416488849951" lon="15.062858310803437"><ele>457.0</ele><time>2026-04-17T07:40:39Z</time></trkpt><trkpt lat="36.96422294909769" lon="15.062796392372215"><ele>458.0</ele><time>2026-04-17T07:40:40Z</time></trkpt><trkpt lat="36.96429621185961" lon="15.06274883623891"><ele>459.0</ele><time>2026-04-17T07:40:41Z</time></trkpt><trkpt lat="36.96437213762843" lon="15.062699262292972"><ele>459.99999999999994</ele><time>2026-04-17T07:40:42Z</time></trkpt><trkpt lat="36.96442022876932" lon="15.062646900916437"><ele>461.0</ele><time>2026-04-17T07:40:43Z</time></trkpt><trkpt lat="36.9644321037489" lon="15.06250693245147"><ele>461.99999999999994</ele><time>2026-04-17T07:40:45Z</time></trkpt><trkpt lat="36.964436105753784" lon="15.062410526661308"><ele>463.0</ele><time>2026-04-17T07:40:46Z</time></trkpt><trkpt lat="36.964467105498684" lon="15.06232566610854"><ele>464.0</ele><time>2026-04-17T07:40:47Z</time></trkpt><trkpt lat="36.964486098025645" lon="15.062220585286829"><ele>465.0</ele><time>2026-04-17T07:40:48Z</time></trkpt><trkpt lat="36.9645228806499" lon="15.062129052082028"><ele>465.99999999999994</ele><time>2026-04-17T07:40:49Z</time></trkpt><trkpt lat="36.96457347366965" lon="15.062031384813668"><ele>467.0</ele><time>2026-04-17T07:40:50Z</time></trkpt><trkpt lat="36.96461499985304" lon="15.061924347992036"><ele>467.0</ele><time>2026-04-17T07:40:51Z</time></trkpt><trkpt lat="36.96466251907342" lon="15.061824559585311"><ele>467.00000000000006</ele><time>2026-04-17T07:40:52Z</time></trkpt><trkpt lat="36.96471856920666" lon="15.061709518724461"><ele>467.00000000000006</ele><time>2026-04-17T07:40:53Z</time></trkpt><trkpt lat="36.96477566926517" lon="15.061602123984605"><ele>467.0</ele><time>2026-04-17T07:40:54Z</time></trkpt><trkpt lat="36.964834686520064" lon="15.06150274015012"><ele>467.0</ele><time>2026-04-17T07:40:55Z</time></trkpt><trkpt lat="36.9648952063726" lon="15.061398795308145"><ele>467.20000000000005</ele><time>2026-04-17T07:40:56Z</time></trkpt><trkpt lat="36.96493753536234" lon="15.061300378289584"><ele>467.40000000000003</ele><time>2026-04-17T07:40:57Z</time></trkpt><trkpt lat="36.96498669161953" lon="15.06117451623742"><ele>467.59999999999997</ele><time>2026-04-17T07:40:58Z</time></trkpt><trkpt lat="36.9650426567556" lon="15.061056629061584"><ele>467.79999999999995</ele><time>2026-04-17T07:40:59Z</time></trkpt><trkpt lat="36.96509574016975" lon="15.060944266020405"><ele>468.0</ele><time>2026-04-17T07:41:00Z</time></trkpt><trkpt lat="36.965141728819695" lon="15.060827581306404"><ele>468.4</ele><time>2026-04-17T07:41:01Z</time></trkpt><trkpt lat="36.965197395190714" lon="15.060709381035196"><ele>468.79999999999995</ele><time>2026-04-17T07:41:02Z</time></trkpt><trkpt lat="36.96524769012668" lon="15.060593180485498"><ele>469.2</ele><time>2026-04-17T07:41:03Z</time></trkpt><trkpt lat="36.96529845088742" lon="15.060473751484016"><ele>469.6</ele><time>2026-04-17T07:41:04Z</time></trkpt><trkpt lat="36.96535658840624" lon="15.06037526181369"><ele>470.0</ele><time>2026-04-17T07:41:05Z</time></trkpt><trkpt lat="36.96539870924355" lon="15.060258406784618"><ele>470.0</ele><time>2026-04-17T07:41:06Z</time></trkpt><trkpt lat="36.96546165269858" lon="15.06016121491256"><ele>470.0</ele><time>2026-04-17T07:41:07Z</time></trkpt><trkpt lat="36.96552500658763" lon="15.060073418779679"><ele>470.0</ele><time>2026-04-17T07:41:08Z</time></trkpt><trkpt lat="36.965591326668324" lon="15.059986769601583"><ele>470.0</ele><time>2026-04-17T07:41:09Z</time></trkpt><trkpt lat="36.965650547551206" lon="15.059909113490134"><ele>470.0</ele><time>2026-04-17T07:41:10Z</time></trkpt><trkpt lat="36.965699561383644" lon="15.059838412723684"><ele>470.16666666666663</ele><time>2026-04-17T07:41:11Z</time></trkpt><trkpt lat="36.965744951242165" lon="15.059755623717471"><ele>470.3333333333333</ele><time>2026-04-17T07:41:12Z</time></trkpt><trkpt lat="36.96578890603325" lon="15.059658264884275"><ele>470.5</ele><time>2026-04-17T07:41:13Z</time></trkpt><trkpt lat="36.96582897975236" lon="15.059562094750998"><ele>470.66666666666663</ele><time>2026-04-17T07:41:14Z</time></trkpt><trkpt lat="36.96587373624848" lon="15.059465890453655"><ele>470.8333333333333</ele><time>2026-04-17T07:41:15Z</time></trkpt><trkpt lat="36.965926644232226" lon="15.059364851597898"><ele>471.0</ele><time>2026-04-17T07:41:16Z</time></trkpt><trkpt lat="36.965964765858374" lon="15.05927566061574"><ele>471.0</ele><time>2026-04-17T07:41:17Z</time></trkpt><trkpt lat="36.96599147743493" lon="15.059192081998809"><ele>471.0</ele><time>2026-04-17T07:41:18Z</time></trkpt><trkpt lat="36.966012490994935" lon="15.059096440688013"><ele>471.0</ele><time>2026-04-17T07:41:19Z</time></trkpt><trkpt lat="36.966033390807475" lon="15.058988135034442"><ele>471.0</ele><time>2026-04-17T07:41:20Z</time></trkpt><trkpt lat="36.966056164752956" lon="15.058895656974917"><ele>471.0</ele><time>2026-04-17T07:41:21Z</time></trkpt><trkpt lat="36.96607051370821" lon="15.058810235432212"><ele>471.0</ele><time>2026-04-17T07:41:22Z</time></trkpt><trkpt lat="36.966083913226385" lon="15.058723873538577"><ele>470.6</ele><time>2026-04-17T07:41:23Z</time></trkpt><trkpt lat="36.966096267981406" lon="15.0586231802749"><ele>470.20000000000005</ele><time>2026-04-17T07:41:24Z</time></trkpt><trkpt lat="36.966105671664614" lon="15.058504436052432"><ele>469.79999999999995</ele><time>2026-04-17T07:41:25Z</time></trkpt><trkpt lat="36.96610311578616" lon="15.058398320728838"><ele>469.4</ele><time>2026-04-17T07:41:26Z</time></trkpt><trkpt lat="36.96609993426018" lon="15.058307119349198"><ele>469.0</ele><time>2026-04-17T07:41:27Z</time></trkpt><trkpt lat="36.966100984507094" lon="15.058146923741516"><ele>468.57142857142856</ele><time>2026-04-17T07:41:29Z</time></trkpt><trkpt lat="36.96610568205585" lon="15.058057184373071"><ele>468.1428571428571</ele><time>2026-04-17T07:41:30Z</time></trkpt><trkpt lat="36.966110659465585" lon="15.057967608180142"><ele>467.7142857142857</ele><time>2026-04-17T07:41:31Z</time></trkpt><trkpt lat="36.96610930927768" lon="15.057868802841378"><ele>467.2857142857143</ele><time>2026-04-17T07:41:32Z</time></trkpt><trkpt lat="36.96611040925412" lon="15.057784125290835"><ele>466.85714285714283</ele><time>2026-04-17T07:41:33Z</time></trkpt><trkpt lat="36.96612225510852" lon="15.057702539209059"><ele>466.42857142857144</ele><time>2026-04-17T07:41:34Z</time></trkpt><trkpt lat="36.96614368419477" lon="15.057624285965051"><ele>466.0</ele><time>2026-04-17T07:41:35Z</time></trkpt><trkpt lat="36.96616664735738" lon="15.05754164149152"><ele>466.00000000000006</ele><time>2026-04-17T07:41:36Z</time></trkpt><trkpt lat="36.96618466628793" lon="15.057454643035689"><ele>466.0</ele><time>2026-04-17T07:41:37Z</time></trkpt><trkpt lat="36.966205321213735" lon="15.057364993256561"><ele>466.0</ele><time>2026-04-17T07:41:38Z</time></trkpt><trkpt lat="36.96624588022802" lon="15.057268211207223"><ele>466.0</ele><time>2026-04-17T07:41:39Z</time></trkpt><trkpt lat="36.96626867705637" lon="15.057169779174258"><ele>466.00000000000006</ele><time>2026-04-17T07:41:40Z</time></trkpt><trkpt lat="36.96628886690565" lon="15.057071613291662"><ele>466.0</ele><time>2026-04-17T07:41:41Z</time></trkpt><trkpt lat="36.96630772939495" lon="15.056968047817097"><ele>465.1666666666667</ele><time>2026-04-17T07:41:42Z</time></trkpt><trkpt lat="36.96631088199319" lon="15.056867142779256"><ele>464.33333333333337</ele><time>2026-04-17T07:41:43Z</time></trkpt><trkpt lat="36.966333858055606" lon="15.056756830782163"><ele>463.5</ele><time>2026-04-17T07:41:44Z</time></trkpt><trkpt lat="36.96634514138019" lon="15.056637577568761"><ele>462.66666666666663</ele><time>2026-04-17T07:41:45Z</time></trkpt><trkpt lat="36.96635431066189" lon="15.056525611367501"><ele>461.8333333333333</ele><time>2026-04-17T07:41:46Z</time></trkpt><trkpt lat="36.966364142591836" lon="15.056422106354729"><ele>461.0</ele><time>2026-04-17T07:41:47Z</time></trkpt><trkpt lat="36.96637408400778" lon="15.056322423822362"><ele>460.3333333333333</ele><time>2026-04-17T07:41:48Z</time></trkpt><trkpt lat="36.96639018398803" lon="15.056212769425573"><ele>459.66666666666663</ele><time>2026-04-17T07:41:49Z</time></trkpt><trkpt lat="36.96639724971264" lon="15.0560969222536"><ele>459.0</ele><time>2026-04-17T07:41:50Z</time></trkpt><trkpt lat="36.966394099980015" lon="15.05599095888967"><ele>458.33333333333337</ele><time>2026-04-17T07:41:51Z</time></trkpt><trkpt lat="36.96640556185632" lon="15.055899457721614"><ele>457.6666666666667</ele><time>2026-04-17T07:41:52Z</time></trkpt><trkpt lat="36.96638665279932" lon="15.055822208782937"><ele>457.0</ele><time>2026-04-17T07:41:53Z</time></trkpt><trkpt lat="36.966398815673145" lon="15.055744649893334"><ele>456.1666666666667</ele><time>2026-04-17T07:41:54Z</time></trkpt><trkpt lat="36.96640012106568" lon="15.055640601996746"><ele>455.33333333333337</ele><time>2026-04-17T07:41:56Z</time></trkpt><trkpt lat="36.96640473297758" lon="15.05554174922297"><ele>454.5</ele><time>2026-04-17T07:41:58Z</time></trkpt><trkpt lat="36.96640944106659" lon="15.055446413249177"><ele>453.66666666666663</ele><time>2026-04-17T07:42:00Z</time></trkpt><trkpt lat="36.96641771082547" lon="15.055344764697134"><ele>452.8333333333333</ele><time>2026-04-17T07:42:02Z</time></trkpt><trkpt lat="36.966428227665745" lon="15.055257295849854"><ele>452.0</ele><time>2026-04-17T07:42:04Z</time></trkpt><trkpt lat="36.96643615763464" lon="15.055176874081237"><ele>452.0</ele><time>2026-04-17T07:43:01Z</time></trkpt><trkpt lat="36.96647171812997" lon="15.055077014532534"><ele>452.00000000000006</ele><time>2026-04-17T07:43:03Z</time></trkpt><trkpt lat="36.966488761333494" lon="15.05493607463614"><ele>452.00000000000006</ele><time>2026-04-17T07:43:05Z</time></trkpt><trkpt lat="36.96651603330028" lon="15.05479487288478"><ele>452.0</ele><time>2026-04-17T07:43:07Z</time></trkpt><trkpt lat="36.96653711026885" lon="15.054703702786849"><ele>452.0</ele><time>2026-04-17T07:43:08Z</time></trkpt><trkpt lat="36.966558679703695" lon="15.054599153985817"><ele>450.99999999999994</ele><time>2026-04-17T07:43:09Z</time></trkpt><trkpt lat="36.96657536064457" lon="15.054511032269325"><ele>450.0</ele><time>2026-04-17T07:43:10Z</time></trkpt><trkpt lat="36.96659510410208" lon="15.05440721861212"><ele>449.0</ele><time>2026-04-17T07:43:11Z</time></trkpt><trkpt lat="36.96661091038746" lon="15.054307383489045"><ele>448.0</ele><time>2026-04-17T07:43:12Z</time></trkpt><trkpt lat="36.96662733896241" lon="15.054210736742826"><ele>446.99999999999994</ele><time>2026-04-17T07:43:13Z</time></trkpt><trkpt lat="36.96664065639022" lon="15.054101898106754"><ele>446.0</ele><time>2026-04-17T07:43:14Z</time></trkpt><trkpt lat="36.96665565177912" lon="15.054004979125596"><ele>446.8</ele><time>2026-04-17T07:43:15Z</time></trkpt><trkpt lat="36.96667436097346" lon="15.053904764494481"><ele>447.6</ele><time>2026-04-17T07:43:16Z</time></trkpt><trkpt lat="36.966691742165146" lon="15.053788582095954"><ele>448.4</ele><time>2026-04-17T07:43:17Z</time></trkpt><trkpt lat="36.96671101278711" lon="15.053669232233934"><ele>449.2</ele><time>2026-04-17T07:43:18Z</time></trkpt><trkpt lat="36.966735854342275" lon="15.053548758337326"><ele>450.0</ele><time>2026-04-17T07:43:19Z</time></trkpt><trkpt lat="36.96675984243666" lon="15.053431533069956"><ele>450.0</ele><time>2026-04-17T07:43:20Z</time></trkpt><trkpt lat="36.96678129629287" lon="15.053310336659974"><ele>450.0</ele><time>2026-04-17T07:43:21Z</time></trkpt><trkpt lat="36.96679108069979" lon="15.053187593482743"><ele>450.0</ele><time>2026-04-17T07:43:22Z</time></trkpt><trkpt lat="36.9667879758147" lon="15.053065784524755"><ele>450.0</ele><time>2026-04-17T07:43:23Z</time></trkpt><trkpt lat="36.96677953192671" lon="15.052939287131709"><ele>450.0</ele><time>2026-04-17T07:43:24Z</time></trkpt><trkpt lat="36.966806623973056" lon="15.05281190191931"><ele>450.0</ele><time>2026-04-17T07:43:25Z</time></trkpt><trkpt lat="36.966752453336426" lon="15.052694564094772"><ele>450.0</ele><time>2026-04-17T07:43:26Z</time></trkpt><trkpt lat="36.966734708313915" lon="15.05258504135441"><ele>450.0</ele><time>2026-04-17T07:43:27Z</time></trkpt><trkpt lat="36.96671930203871" lon="15.052469830671214"><ele>450.0</ele><time>2026-04-17T07:43:28Z</time></trkpt><trkpt lat="36.96668619145214" lon="15.052353312108536"><ele>450.0</ele><time>2026-04-17T07:43:29Z</time></trkpt><trkpt lat="36.96664355182028" lon="15.052237729759327"><ele>447.4</ele><time>2026-04-17T07:43:30Z</time></trkpt><trkpt lat="36.96658920670004" lon="15.052113464020332"><ele>444.8</ele><time>2026-04-17T07:43:31Z</time></trkpt><trkpt lat="36.966542358611534" lon="15.051988032100576"><ele>442.20000000000005</ele><time>2026-04-17T07:43:32Z</time></trkpt><trkpt lat="36.96649296099056" lon="15.051884403839919"><ele>439.6</ele><time>2026-04-17T07:43:33Z</time></trkpt><trkpt lat="36.96646477252611" lon="15.051782388429805"><ele>437.0</ele><time>2026-04-17T07:43:34Z</time></trkpt><trkpt lat="36.96643934120349" lon="15.051690981334051"><ele>436.40000000000003</ele><time>2026-04-17T07:43:35Z</time></trkpt><trkpt lat="36.966406055087056" lon="15.051590553318619"><ele>435.80000000000007</ele><time>2026-04-17T07:43:36Z</time></trkpt><trkpt lat="36.9663888774625" lon="15.051471533446474"><ele>435.2</ele><time>2026-04-17T07:43:37Z</time></trkpt><trkpt lat="36.96636017414415" lon="15.051331427418505"><ele>434.6</ele><time>2026-04-17T07:43:38Z</time></trkpt><trkpt lat="36.966327132838806" lon="15.051196430153636"><ele>434.0</ele><time>2026-04-17T07:43:39Z</time></trkpt><trkpt lat="36.96629447812656" lon="15.051089893390891"><ele>433.99999999999994</ele><time>2026-04-17T07:43:40Z</time></trkpt><trkpt lat="36.96626939230047" lon="15.050989690638806"><ele>434.0</ele><time>2026-04-17T07:43:41Z</time></trkpt><trkpt lat="36.966253904225056" lon="15.050874496186555"><ele>434.0</ele><time>2026-04-17T07:43:42Z</time></trkpt><trkpt lat="36.9662096950409" lon="15.050776937892293"><ele>434.0</ele><time>2026-04-17T07:43:43Z</time></trkpt><trkpt lat="36.966181274455536" lon="15.050682680347279"><ele>433.99999999999994</ele><time>2026-04-17T07:43:44Z</time></trkpt><trkpt lat="36.96615425276816" lon="15.050589673382651"><ele>434.0</ele><time>2026-04-17T07:43:45Z</time></trkpt><trkpt lat="36.96613048585999" lon="15.050502927516453"><ele>431.99999999999994</ele><time>2026-04-17T07:43:46Z</time></trkpt><trkpt lat="36.96611574725216" lon="15.050394305702834"><ele>430.0</ele><time>2026-04-17T07:43:48Z</time></trkpt><trkpt lat="36.96612800661687" lon="15.050300430388345"><ele>428.0</ele><time>2026-04-17T07:44:17Z</time></trkpt><trkpt lat="36.96611947042698" lon="15.05017604611678"><ele>426.0</ele><time>2026-04-17T07:44:20Z</time></trkpt><trkpt lat="36.96611385458925" lon="15.050094627930957"><ele>423.99999999999994</ele><time>2026-04-17T07:44:21Z</time></trkpt><trkpt lat="36.96610434620014" lon="15.049956775437291"><ele>422.0</ele><time>2026-04-17T07:44:23Z</time></trkpt><trkpt lat="36.966098631701875" lon="15.049873617281087"><ele>421.16666666666663</ele><time>2026-04-17T07:44:24Z</time></trkpt><trkpt lat="36.966092506099535" lon="15.049784365318855"><ele>420.3333333333333</ele><time>2026-04-17T07:44:25Z</time></trkpt><trkpt lat="36.966085528569316" lon="15.04969640897242"><ele>419.5</ele><time>2026-04-17T07:44:26Z</time></trkpt><trkpt lat="36.96607684240299" lon="15.049595937872887"><ele>418.66666666666663</ele><time>2026-04-17T07:44:27Z</time></trkpt><trkpt lat="36.96605483164211" lon="15.04949050738426"><ele>417.8333333333333</ele><time>2026-04-17T07:44:28Z</time></trkpt><trkpt lat="36.966050304551175" lon="15.049378454767929"><ele>417.0</ele><time>2026-04-17T07:44:29Z</time></trkpt><trkpt lat="36.966040782782926" lon="15.04926927629037"><ele>417.0</ele><time>2026-04-17T07:44:30Z</time></trkpt><trkpt lat="36.96604398387757" lon="15.049160081553815"><ele>417.0</ele><time>2026-04-17T07:44:31Z</time></trkpt><trkpt lat="36.96604126357782" lon="15.049055368477386"><ele>417.0</ele><time>2026-04-17T07:44:32Z</time></trkpt><trkpt lat="36.9660429813586" lon="15.04896637388696"><ele>417.0</ele><time>2026-04-17T07:44:33Z</time></trkpt><trkpt lat="36.96604327884596" lon="15.04887876501855"><ele>417.0</ele><time>2026-04-17T07:44:34Z</time></trkpt><trkpt lat="36.96606373530353" lon="15.048724172232632"><ele>417.0</ele><time>2026-04-17T07:44:36Z</time></trkpt><trkpt lat="36.96608761433855" lon="15.048626732606449"><ele>416.6666666666667</ele><time>2026-04-17T07:44:37Z</time></trkpt><trkpt lat="36.96608649019698" lon="15.048517696439813"><ele>416.33333333333337</ele><time>2026-04-17T07:44:38Z</time></trkpt><trkpt lat="36.966081184473325" lon="15.048407676773705"><ele>416.0</ele><time>2026-04-17T07:44:39Z</time></trkpt><trkpt lat="36.96607213426531" lon="15.048325009763541"><ele>415.6666666666667</ele><time>2026-04-17T07:44:40Z</time></trkpt><trkpt lat="36.96605231639668" lon="15.04823921089417"><ele>415.33333333333337</ele><time>2026-04-17T07:44:41Z</time></trkpt><trkpt lat="36.96601809754539" lon="15.048147654236816"><ele>415.0</ele><time>2026-04-17T07:44:42Z</time></trkpt><trkpt lat="36.966015647956134" lon="15.048034839247288"><ele>414.6666666666667</ele><time>2026-04-17T07:44:43Z</time></trkpt><trkpt lat="36.96600276439766" lon="15.047946367845261"><ele>414.33333333333337</ele><time>2026-04-17T07:44:44Z</time></trkpt><trkpt lat="36.96600210231131" lon="15.047841869164245"><ele>414.0</ele><time>2026-04-17T07:44:45Z</time></trkpt><trkpt lat="36.966006672242855" lon="15.04772448856025"><ele>413.66666666666663</ele><time>2026-04-17T07:44:46Z</time></trkpt><trkpt lat="36.96601538978134" lon="15.047610693586671"><ele>413.3333333333333</ele><time>2026-04-17T07:44:47Z</time></trkpt><trkpt lat="36.96603368183383" lon="15.047499946330458"><ele>413.0</ele><time>2026-04-17T07:44:48Z</time></trkpt><trkpt lat="36.966042906184754" lon="15.047405066432209"><ele>412.57142857142856</ele><time>2026-04-17T07:44:49Z</time></trkpt><trkpt lat="36.966035057749544" lon="15.047321607421374"><ele>412.1428571428571</ele><time>2026-04-17T07:44:50Z</time></trkpt><trkpt lat="36.96602924672384" lon="15.047226706477067"><ele>411.7142857142857</ele><time>2026-04-17T07:44:51Z</time></trkpt><trkpt lat="36.96598574903637" lon="15.047125790229668"><ele>411.2857142857143</ele><time>2026-04-17T07:44:52Z</time></trkpt><trkpt lat="36.96595474160408" lon="15.047032612108339"><ele>410.85714285714283</ele><time>2026-04-17T07:44:53Z</time></trkpt><trkpt lat="36.96591826314818" lon="15.046963731956227"><ele>410.42857142857144</ele><time>2026-04-17T07:44:54Z</time></trkpt><trkpt lat="36.96588509445687" lon="15.046892621119525"><ele>410.0</ele><time>2026-04-17T07:44:55Z</time></trkpt><trkpt lat="36.96589336843381" lon="15.04679737397945"><ele>410.0</ele><time>2026-04-17T07:44:56Z</time></trkpt><trkpt lat="36.96587798073048" lon="15.046720228977064"><ele>410.0</ele><time>2026-04-17T07:44:57Z</time></trkpt><trkpt lat="36.96581251039249" lon="15.046630603293423"><ele>410.0</ele><time>2026-04-17T07:44:59Z</time></trkpt><trkpt lat="36.965689107306886" lon="15.04659939163842"><ele>410.0</ele><time>2026-04-17T07:45:01Z</time></trkpt><trkpt lat="36.965616298238196" lon="15.046557849895683"><ele>410.0</ele><time>2026-04-17T07:45:02Z</time></trkpt><trkpt lat="36.965538805208325" lon="15.046519140559196"><ele>409.49999999999994</ele><time>2026-04-17T07:45:03Z</time></trkpt><trkpt lat="36.96546147097435" lon="15.046478507353765"><ele>409.0</ele><time>2026-04-17T07:45:04Z</time></trkpt><trkpt lat="36.96538048745747" lon="15.04642788097434"><ele>408.5</ele><time>2026-04-17T07:45:05Z</time></trkpt><trkpt lat="36.96531601884054" lon="15.046368085273713"><ele>408.0</ele><time>2026-04-17T07:45:06Z</time></trkpt><trkpt lat="36.965256004869815" lon="15.046293962228088"><ele>407.49999999999994</ele><time>2026-04-17T07:45:07Z</time></trkpt><trkpt lat="36.96522245377593" lon="15.046198290558138"><ele>407.0</ele><time>2026-04-17T07:45:08Z</time></trkpt><trkpt lat="36.965179448743136" lon="15.046086410904879"><ele>407.0</ele><time>2026-04-17T07:45:09Z</time></trkpt><trkpt lat="36.965139018757085" lon="15.045954464124566"><ele>407.0</ele><time>2026-04-17T07:45:10Z</time></trkpt><trkpt lat="36.9651033869349" lon="15.04583532281659"><ele>407.0</ele><time>2026-04-17T07:45:11Z</time></trkpt><trkpt lat="36.965060387798076" lon="15.045721969341924"><ele>407.0</ele><time>2026-04-17T07:45:12Z</time></trkpt><trkpt lat="36.96499829515521" lon="15.045615360347016"><ele>407.0</ele><time>2026-04-17T07:45:13Z</time></trkpt><trkpt lat="36.96495553696348" lon="15.045508559052905"><ele>406.0</ele><time>2026-04-17T07:45:14Z</time></trkpt><trkpt lat="36.96492083706935" lon="15.045413004059126"><ele>405.0</ele><time>2026-04-17T07:45:15Z</time></trkpt><trkpt lat="36.96487526236235" lon="15.045322944087555"><ele>404.0</ele><time>2026-04-17T07:45:16Z</time></trkpt><trkpt lat="36.96485067986289" lon="15.045224978263926"><ele>403.0</ele><time>2026-04-17T07:45:17Z</time></trkpt><trkpt lat="36.96481800885029" lon="15.045108584097806"><ele>402.0</ele><time>2026-04-17T07:45:18Z</time></trkpt><trkpt lat="36.96478124164198" lon="15.044987950309514"><ele>401.20000000000005</ele><time>2026-04-17T07:45:19Z</time></trkpt><trkpt lat="36.9647530669728" lon="15.044879481031126"><ele>400.4</ele><time>2026-04-17T07:45:20Z</time></trkpt><trkpt lat="36.964707252762985" lon="15.044774375720392"><ele>399.6</ele><time>2026-04-17T07:45:21Z</time></trkpt><trkpt lat="36.96464975026351" lon="15.044668238641295"><ele>398.79999999999995</ele><time>2026-04-17T07:45:22Z</time></trkpt><trkpt lat="36.9645847515819" lon="15.044583295792856"><ele>398.0</ele><time>2026-04-17T07:45:23Z</time></trkpt><trkpt lat="36.96453880494712" lon="15.044498649671224"><ele>398.0</ele><time>2026-04-17T07:45:24Z</time></trkpt><trkpt lat="36.96450439582092" lon="15.04439932335514"><ele>398.0</ele><time>2026-04-17T07:45:25Z</time></trkpt><trkpt lat="36.96444206759015" lon="15.044308410438573"><ele>398.0</ele><time>2026-04-17T07:45:26Z</time></trkpt><trkpt lat="36.96436836300403" lon="15.04422003606668"><ele>398.0</ele><time>2026-04-17T07:45:27Z</time></trkpt><trkpt lat="36.96429738417782" lon="15.044133778099482"><ele>398.0</ele><time>2026-04-17T07:45:28Z</time></trkpt><trkpt lat="36.96424282218144" lon="15.044062096583273"><ele>397.57142857142856</ele><time>2026-04-17T07:45:29Z</time></trkpt><trkpt lat="36.96420604759493" lon="15.043979921503688"><ele>397.1428571428571</ele><time>2026-04-17T07:45:30Z</time></trkpt><trkpt lat="36.964161186152424" lon="15.043905052039833"><ele>396.71428571428567</ele><time>2026-04-17T07:45:31Z</time></trkpt><trkpt lat="36.96410289849623" lon="15.043847755338813"><ele>396.2857142857143</ele><time>2026-04-17T07:45:32Z</time></trkpt><trkpt lat="36.96405676376604" lon="15.04378592453334"><ele>395.8571428571429</ele><time>2026-04-17T07:45:33Z</time></trkpt><trkpt lat="36.96399243452419" lon="15.04373194818006"><ele>395.4285714285714</ele><time>2026-04-17T07:45:34Z</time></trkpt><trkpt lat="36.96393150843995" lon="15.043667388553747"><ele>395.0</ele><time>2026-04-17T07:45:35Z</time></trkpt><trkpt lat="36.963873961902074" lon="15.043590865245598"><ele>394.49999999999994</ele><time>2026-04-17T07:45:36Z</time></trkpt><trkpt lat="36.963828627241924" lon="15.043504473032403"><ele>394.0</ele><time>2026-04-17T07:45:37Z</time></trkpt><trkpt lat="36.963799313603815" lon="15.043413178518316"><ele>393.5</ele><time>2026-04-17T07:45:38.001Z</time></trkpt><trkpt lat="36.96377872027495" lon="15.0433219512668"><ele>393.0</ele><time>2026-04-17T07:45:39.001Z</time></trkpt><trkpt lat="36.96376136682207" lon="15.043219614488681"><ele>392.49999999999994</ele><time>2026-04-17T07:45:40Z</time></trkpt><trkpt lat="36.963751562949255" lon="15.043098581334162"><ele>392.0</ele><time>2026-04-17T07:45:41.001Z</time></trkpt><trkpt lat="36.963744659393775" lon="15.042955924152455"><ele>391.75</ele><time>2026-04-17T07:45:42.001Z</time></trkpt><trkpt lat="36.963736108408" lon="15.042808371665746"><ele>391.5</ele><time>2026-04-17T07:45:43Z</time></trkpt><trkpt lat="36.96374386134123" lon="15.04266825469843"><ele>391.25</ele><time>2026-04-17T07:45:44.001Z</time></trkpt><trkpt lat="36.963735805260285" lon="15.042528542733274"><ele>391.0</ele><time>2026-04-17T07:45:45.001Z</time></trkpt><trkpt lat="36.963713999807624" lon="15.042384996065994"><ele>392.25</ele><time>2026-04-17T07:45:46Z</time></trkpt><trkpt lat="36.963682146648736" lon="15.042240677346616"><ele>393.5</ele><time>2026-04-17T07:45:47Z</time></trkpt><trkpt lat="36.9636652461759" lon="15.042094804603591"><ele>394.75</ele><time>2026-04-17T07:45:48Z</time></trkpt><trkpt lat="36.96365529191458" lon="15.041944585661138"><ele>396.0</ele><time>2026-04-17T07:45:49Z</time></trkpt><trkpt lat="36.96364579426312" lon="15.041794921068792"><ele>396.0</ele><time>2026-04-17T07:45:50Z</time></trkpt><trkpt lat="36.96363467975923" lon="15.041652190808385"><ele>396.0</ele><time>2026-04-17T07:45:51Z</time></trkpt><trkpt lat="36.963603173532874" lon="15.041515283279363"><ele>396.0</ele><time>2026-04-17T07:45:52Z</time></trkpt><trkpt lat="36.96357110719753" lon="15.041376711070203"><ele>396.0</ele><time>2026-04-17T07:45:53Z</time></trkpt><trkpt lat="36.96355764988926" lon="15.041238418164342"><ele>397.5</ele><time>2026-04-17T07:45:54Z</time></trkpt><trkpt lat="36.96354477467228" lon="15.041103748788982"><ele>399.0</ele><time>2026-04-17T07:45:55Z</time></trkpt><trkpt lat="36.96353124022309" lon="15.040971572304986"><ele>400.5</ele><time>2026-04-17T07:45:56Z</time></trkpt><trkpt lat="36.96352214982094" lon="15.040826694832816"><ele>402.0</ele><time>2026-04-17T07:45:57Z</time></trkpt><trkpt lat="36.96351650992406" lon="15.040672263420896"><ele>403.25</ele><time>2026-04-17T07:45:58Z</time></trkpt><trkpt lat="36.96350607422129" lon="15.040517622199994"><ele>404.5</ele><time>2026-04-17T07:45:59Z</time></trkpt><trkpt lat="36.96349495479658" lon="15.04035912764336"><ele>405.75</ele><time>2026-04-17T07:46:00Z</time></trkpt><trkpt lat="36.963483884232076" lon="15.040192022602756"><ele>407.0</ele><time>2026-04-17T07:46:01Z</time></trkpt><trkpt lat="36.96347670891579" lon="15.040032651265506"><ele>407.75</ele><time>2026-04-17T07:46:02Z</time></trkpt><trkpt lat="36.96345876273166" lon="15.039877735997102"><ele>408.5</ele><time>2026-04-17T07:46:03Z</time></trkpt><trkpt lat="36.96342752417988" lon="15.039744015971145"><ele>409.25</ele><time>2026-04-17T07:46:04Z</time></trkpt><trkpt lat="36.96340379781415" lon="15.039601785764475"><ele>410.0</ele><time>2026-04-17T07:46:05Z</time></trkpt><trkpt lat="36.9634041895279" lon="15.039462454905316"><ele>410.0</ele><time>2026-04-17T07:46:06Z</time></trkpt><trkpt lat="36.963402244129135" lon="15.039341184890706"><ele>410.0</ele><time>2026-04-17T07:46:07Z</time></trkpt><trkpt lat="36.96339915305285" lon="15.039218714383642"><ele>410.0</ele><time>2026-04-17T07:46:08Z</time></trkpt><trkpt lat="36.96339047297217" lon="15.039099218945545"><ele>410.0</ele><time>2026-04-17T07:46:09Z</time></trkpt><trkpt lat="36.96337735716419" lon="15.038978648582738"><ele>410.0</ele><time>2026-04-17T07:46:10Z</time></trkpt><trkpt lat="36.963362709256735" lon="15.038852603921127"><ele>410.0</ele><time>2026-04-17T07:46:11Z</time></trkpt><trkpt lat="36.963334809872165" lon="15.038732517383137"><ele>410.0</ele><time>2026-04-17T07:46:12Z</time></trkpt><trkpt lat="36.96327542465536" lon="15.03862714359943"><ele>410.0</ele><time>2026-04-17T07:46:13Z</time></trkpt><trkpt lat="36.963198290094475" lon="15.03852930447861"><ele>410.0</ele><time>2026-04-17T07:46:14Z</time></trkpt><trkpt lat="36.96310995016257" lon="15.03843924054391"><ele>410.0</ele><time>2026-04-17T07:46:15Z</time></trkpt><trkpt lat="36.96301782887542" lon="15.03834251809695"><ele>411.3333333333333</ele><time>2026-04-17T07:46:16Z</time></trkpt><trkpt lat="36.96293642857326" lon="15.03825586008986"><ele>412.66666666666663</ele><time>2026-04-17T07:46:17Z</time></trkpt><trkpt lat="36.96285627376044" lon="15.038194684816544"><ele>414.0</ele><time>2026-04-17T07:46:18Z</time></trkpt><trkpt lat="36.96278339393763" lon="15.038128190451314"><ele>415.33333333333337</ele><time>2026-04-17T07:46:19Z</time></trkpt><trkpt lat="36.96273233313046" lon="15.038046185238978"><ele>416.6666666666667</ele><time>2026-04-17T07:46:20Z</time></trkpt><trkpt lat="36.962699630906364" lon="15.037971548876866"><ele>418.0</ele><time>2026-04-17T07:46:21Z</time></trkpt><trkpt lat="36.96266185996481" lon="15.037857608633185"><ele>418.00000000000006</ele><time>2026-04-17T07:46:23Z</time></trkpt><trkpt lat="36.962544370981014" lon="15.037850512886124"><ele>418.0</ele><time>2026-04-17T07:46:50Z</time></trkpt><trkpt lat="36.962478765468006" lon="15.037866571348646"><ele>418.0</ele><time>2026-04-17T07:46:54Z</time></trkpt><trkpt lat="36.962395961721406" lon="15.037923734052272"><ele>418.0</ele><time>2026-04-17T07:47:01Z</time></trkpt><trkpt lat="36.96231978608478" lon="15.037936245695713"><ele>418.00000000000006</ele><time>2026-04-17T07:47:02Z</time></trkpt><trkpt lat="36.96224905685829" lon="15.03796070659757"><ele>418.0</ele><time>2026-04-17T07:47:03Z</time></trkpt><trkpt lat="36.96217807274775" lon="15.03798427351142"><ele>417.4</ele><time>2026-04-17T07:47:04Z</time></trkpt><trkpt lat="36.962047538267726" lon="15.038039964706432"><ele>416.79999999999995</ele><time>2026-04-17T07:47:06Z</time></trkpt><trkpt lat="36.961971401376324" lon="15.038043388887882"><ele>416.2</ele><time>2026-04-17T07:47:07Z</time></trkpt><trkpt lat="36.96189498428142" lon="15.038095202226051"><ele>415.6</ele><time>2026-04-17T07:47:08Z</time></trkpt><trkpt lat="36.96181282722709" lon="15.038113541824815"><ele>415.0</ele><time>2026-04-17T07:47:09Z</time></trkpt><trkpt lat="36.961739526908204" lon="15.038185570621673"><ele>414.33333333333337</ele><time>2026-04-17T07:47:10Z</time></trkpt><trkpt lat="36.961675557231885" lon="15.038261002515993"><ele>413.6666666666667</ele><time>2026-04-17T07:47:11Z</time></trkpt><trkpt lat="36.961590869862356" lon="15.038316171506645"><ele>413.0</ele><time>2026-04-17T07:47:12Z</time></trkpt><trkpt lat="36.96152170443332" lon="15.038378046486448"><ele>412.33333333333337</ele><time>2026-04-17T07:47:13Z</time></trkpt><trkpt lat="36.96145366050353" lon="15.038442215680567"><ele>411.6666666666667</ele><time>2026-04-17T07:47:14Z</time></trkpt><trkpt lat="36.961387237805845" lon="15.0385021291668"><ele>411.0</ele><time>2026-04-17T07:47:15Z</time></trkpt><trkpt lat="36.96132475099656" lon="15.038559229619171"><ele>411.0</ele><time>2026-04-17T07:47:16Z</time></trkpt><trkpt lat="36.96126465431343" lon="15.038623804053008"><ele>411.0</ele><time>2026-04-17T07:47:17Z</time></trkpt><trkpt lat="36.961210440107855" lon="15.038694166342982"><ele>411.0</ele><time>2026-04-17T07:47:18Z</time></trkpt><trkpt lat="36.96114730144996" lon="15.038768651690608"><ele>411.0</ele><time>2026-04-17T07:47:19Z</time></trkpt><trkpt lat="36.96108616103469" lon="15.03883606207003"><ele>411.0</ele><time>2026-04-17T07:47:20Z</time></trkpt><trkpt lat="36.9610361779495" lon="15.038925430677935"><ele>411.0</ele><time>2026-04-17T07:47:21Z</time></trkpt><trkpt lat="36.960976535227346" lon="15.038989731304865"><ele>411.0</ele><time>2026-04-17T07:47:22Z</time></trkpt><trkpt lat="36.96091637786504" lon="15.039105786323134"><ele>411.0</ele><time>2026-04-17T07:47:24Z</time></trkpt><trkpt lat="36.960857396451026" lon="15.039173472427132"><ele>411.0</ele><time>2026-04-17T07:47:27Z</time></trkpt><trkpt lat="36.9609726245308" lon="15.039368248054936"><ele>411.0</ele><time>2026-04-17T07:47:36Z</time></trkpt><trkpt lat="36.96097488332136" lon="15.039447650124407"><ele>411.0</ele><time>2026-04-17T07:47:37Z</time></trkpt><trkpt lat="36.96095325224254" lon="15.03960475460663"><ele>410.6666666666667</ele><time>2026-04-17T07:47:39Z</time></trkpt><trkpt lat="36.96094289703417" lon="15.039692126734087"><ele>410.33333333333337</ele><time>2026-04-17T07:47:40Z</time></trkpt><trkpt lat="36.960931087812014" lon="15.039787956518653"><ele>410.0</ele><time>2026-04-17T07:47:41Z</time></trkpt><trkpt lat="36.96091667657246" lon="15.039888814617862"><ele>409.6666666666667</ele><time>2026-04-17T07:47:42Z</time></trkpt><trkpt lat="36.9608996510927" lon="15.039984258928406"><ele>409.33333333333337</ele><time>2026-04-17T07:47:43Z</time></trkpt><trkpt lat="36.96088633954767" lon="15.040077989475217"><ele>409.0</ele><time>2026-04-17T07:47:44Z</time></trkpt><trkpt lat="36.960885232698246" lon="15.040172073679825"><ele>408.2</ele><time>2026-04-17T07:47:45Z</time></trkpt><trkpt lat="36.96088543880815" lon="15.040315347010148"><ele>407.4</ele><time>2026-04-17T07:47:47Z</time></trkpt><trkpt lat="36.96086319147074" lon="15.040452712746589"><ele>406.6</ele><time>2026-04-17T07:47:49Z</time></trkpt><trkpt lat="36.96087519379564" lon="15.040549610876363"><ele>405.8</ele><time>2026-04-17T07:48:16Z</time></trkpt><trkpt lat="36.96088315849515" lon="15.040657465381575"><ele>405.0</ele><time>2026-04-17T07:48:18Z</time></trkpt><trkpt lat="36.9608370499038" lon="15.040737656383618"><ele>405.1666666666667</ele><time>2026-04-17T07:48:20Z</time></trkpt><trkpt lat="36.960796180881125" lon="15.04080227441605"><ele>405.33333333333337</ele><time>2026-04-17T07:48:22Z</time></trkpt><trkpt lat="36.96077167819364" lon="15.040914356696218"><ele>405.5</ele><time>2026-04-17T07:48:24Z</time></trkpt><trkpt lat="36.960736831644006" lon="15.040984188514473"><ele>405.6666666666667</ele><time>2026-04-17T07:48:25Z</time></trkpt><trkpt lat="36.96065398981593" lon="15.041055959773393"><ele>405.83333333333337</ele><time>2026-04-17T07:48:27Z</time></trkpt><trkpt lat="36.9605596550149" lon="15.041118406649844"><ele>406.0</ele><time>2026-04-17T07:48:29Z</time></trkpt><trkpt lat="36.96047728296809" lon="15.041201914350436"><ele>406.0</ele><time>2026-04-17T07:48:31Z</time></trkpt><trkpt lat="36.96040173795682" lon="15.041284102150543"><ele>406.0</ele><time>2026-04-17T07:48:33Z</time></trkpt><trkpt lat="36.96032728968332" lon="15.041357179915886"><ele>406.0</ele><time>2026-04-17T07:48:35Z</time></trkpt><trkpt lat="36.96024976720099" lon="15.041422097318382"><ele>406.0</ele><time>2026-04-17T07:48:37Z</time></trkpt><trkpt lat="36.96017262584675" lon="15.041492735827692"><ele>406.0</ele><time>2026-04-17T07:48:39Z</time></trkpt><trkpt lat="36.960097794205794" lon="15.041560558452964"><ele>406.0</ele><time>2026-04-17T07:48:41Z</time></trkpt><trkpt lat="36.96004158251522" lon="15.041627867451282"><ele>406.0</ele><time>2026-04-17T07:48:44Z</time></trkpt><trkpt lat="36.95999580373891" lon="15.041692226756064"><ele>406.0</ele><time>2026-04-17T07:49:02Z</time></trkpt><trkpt lat="36.95995622063172" lon="15.041761722887353"><ele>406.0</ele><time>2026-04-17T07:49:04Z</time></trkpt><trkpt lat="36.959917605575825" lon="15.04182571565735"><ele>406.0</ele><time>2026-04-17T07:49:06Z</time></trkpt><trkpt lat="36.9598489470634" lon="15.041882609099174"><ele>406.0</ele><time>2026-04-17T07:49:09Z</time></trkpt><trkpt lat="36.95979598597254" lon="15.0419588406862"><ele>406.0</ele><time>2026-04-17T07:49:12Z</time></trkpt><trkpt lat="36.9597481152106" lon="15.042012373921295"><ele>405.2857142857143</ele><time>2026-04-17T07:49:14Z</time></trkpt><trkpt lat="36.95969872858636" lon="15.042082594192197"><ele>404.57142857142856</ele><time>2026-04-17T07:49:16Z</time></trkpt><trkpt lat="36.95964919333685" lon="15.042132137902826"><ele>403.8571428571429</ele><time>2026-04-17T07:49:18Z</time></trkpt><trkpt lat="36.95959435558827" lon="15.042187866898303"><ele>403.1428571428571</ele><time>2026-04-17T07:49:21Z</time></trkpt><trkpt lat="36.959537176117045" lon="15.042256406648065"><ele>402.42857142857144</ele><time>2026-04-17T07:49:43Z</time></trkpt><trkpt lat="36.95952455652932" lon="15.042350216253942"><ele>401.7142857142857</ele><time>2026-04-17T07:49:46Z</time></trkpt><trkpt lat="36.95946682286933" lon="15.04239311449929"><ele>401.0</ele><time>2026-04-17T07:49:49Z</time></trkpt><trkpt lat="36.95938832631983" lon="15.042458983557735"><ele>399.49999999999994</ele><time>2026-04-17T07:49:51Z</time></trkpt><trkpt lat="36.95932468624409" lon="15.042485275265044"><ele>398.0</ele><time>2026-04-17T07:49:52Z</time></trkpt><trkpt lat="36.95926469873748" lon="15.042516227136067"><ele>396.5</ele><time>2026-04-17T07:49:53Z</time></trkpt><trkpt lat="36.95917947834393" lon="15.042589494982828"><ele>395.0</ele><time>2026-04-17T07:49:55Z</time></trkpt><trkpt lat="36.959126995715295" lon="15.04265733361638"><ele>393.49999999999994</ele><time>2026-04-17T07:49:57Z</time></trkpt><trkpt lat="36.95906984428753" lon="15.042726546486925"><ele>392.0</ele><time>2026-04-17T07:50:41Z</time></trkpt><trkpt lat="36.95900790629855" lon="15.042745128416954"><ele>390.3333333333333</ele><time>2026-04-17T07:50:46Z</time></trkpt><trkpt lat="36.958940175045704" lon="15.042737785333099"><ele>388.66666666666663</ele><time>2026-04-17T07:51:08Z</time></trkpt><trkpt lat="36.958877221961345" lon="15.042735494684303"><ele>387.0</ele><time>2026-04-17T07:51:13Z</time></trkpt><trkpt lat="36.958774377730585" lon="15.042684139371898"><ele>385.3333333333333</ele><time>2026-04-17T07:54:50Z</time></trkpt><trkpt lat="36.958838422119626" lon="15.042717416496494"><ele>383.66666666666663</ele><time>2026-04-17T07:55:23Z</time></trkpt><trkpt lat="36.95872094243138" lon="15.04263154205968"><ele>382.0</ele><time>2026-04-17T08:03:57Z</time></trkpt><trkpt lat="36.9586612515902" lon="15.042664078459602"><ele>382.0</ele><time>2026-04-17T08:04:06Z</time></trkpt><trkpt lat="36.958621513893505" lon="15.042737763216428"><ele>382.0</ele><time>2026-04-17T08:04:20Z</time></trkpt><trkpt lat="36.95859168252018" lon="15.042816096073615"><ele>382.0</ele><time>2026-04-17T08:04:31Z</time></trkpt><trkpt lat="36.958570698593384" lon="15.04289558843756"><ele>382.0</ele><time>2026-04-17T08:04:39Z</time></trkpt><trkpt lat="36.95853023027971" lon="15.042956892716871"><ele>382.0</ele><time>2026-04-17T08:04:58Z</time></trkpt><trkpt lat="36.958509475436735" lon="15.043037855506297"><ele>382.0</ele><time>2026-04-17T08:05:02Z</time></trkpt><trkpt lat="36.958479961298245" lon="15.043111956935759"><ele>382.0</ele><time>2026-04-17T08:10:57Z</time></trkpt><trkpt lat="36.958451665168745" lon="15.04320878764634"><ele>382.0</ele><time>2026-04-17T08:11:06Z</time></trkpt><trkpt lat="36.958423811187544" lon="15.043280169967177"><ele>382.0</ele><time>2026-04-17T08:11:10Z</time></trkpt><trkpt lat="36.95839139214583" lon="15.04335365512162"><ele>382.0</ele><time>2026-04-17T08:11:14Z</time></trkpt><trkpt lat="36.95835708211189" lon="15.043423801570873"><ele>382.0</ele><time>2026-04-17T08:11:18Z</time></trkpt><trkpt lat="36.9583218662554" lon="15.043495628919686"><ele>382.0</ele><time>2026-04-17T08:11:20Z</time></trkpt><trkpt lat="36.95827970484375" lon="15.043580379804059"><ele>382.0</ele><time>2026-04-17T08:11:22Z</time></trkpt><trkpt lat="36.95824771463449" lon="15.043675591481643"><ele>382.0</ele><time>2026-04-17T08:11:25Z</time></trkpt><trkpt lat="36.95820928106449" lon="15.043788921211332"><ele>381.7142857142857</ele><time>2026-04-17T08:11:27Z</time></trkpt><trkpt lat="36.958167719082866" lon="15.043875249030789"><ele>381.4285714285714</ele><time>2026-04-17T08:11:30Z</time></trkpt><trkpt lat="36.95815601441735" lon="15.043960246043145"><ele>381.1428571428571</ele><time>2026-04-17T08:11:43Z</time></trkpt><trkpt lat="36.95811658766274" lon="15.0440454065388"><ele>380.8571428571429</ele><time>2026-04-17T08:12:34Z</time></trkpt><trkpt lat="36.9580936647887" lon="15.04411977522993"><ele>380.57142857142856</ele><time>2026-04-17T08:13:18Z</time></trkpt><trkpt lat="36.95803180090194" lon="15.04409249208571"><ele>380.2857142857143</ele><time>2026-04-17T08:15:13Z</time></trkpt><trkpt lat="36.95796867001046" lon="15.044131889318999"><ele>380.0</ele><time>2026-04-17T08:15:23Z</time></trkpt><trkpt lat="36.957897979442386" lon="15.044204581398136"><ele>380.0</ele><time>2026-04-17T08:15:27Z</time></trkpt><trkpt lat="36.957840281957694" lon="15.044256305948425"><ele>380.0</ele><time>2026-04-17T08:15:30Z</time></trkpt><trkpt lat="36.95776568882073" lon="15.044295532944151"><ele>380.0</ele><time>2026-04-17T08:15:33Z</time></trkpt><trkpt lat="36.95771023093758" lon="15.044337509215989"><ele>380.0</ele><time>2026-04-17T08:15:35Z</time></trkpt><trkpt lat="36.95765747591836" lon="15.044406202287554"><ele>380.0</ele><time>2026-04-17T08:15:37Z</time></trkpt><trkpt lat="36.957574510978226" lon="15.04442517161876"><ele>380.0</ele><time>2026-04-17T08:15:39Z</time></trkpt><trkpt lat="36.95748184091866" lon="15.044474552395616"><ele>378.6666666666667</ele><time>2026-04-17T08:15:41Z</time></trkpt><trkpt lat="36.95743282194749" lon="15.044561475406157"><ele>377.33333333333337</ele><time>2026-04-17T08:15:43Z</time></trkpt><trkpt lat="36.95738605754407" lon="15.044641669601978"><ele>376.0</ele><time>2026-04-17T08:15:45Z</time></trkpt><trkpt lat="36.957315524415314" lon="15.044718238854072"><ele>374.6666666666667</ele><time>2026-04-17T08:15:47Z</time></trkpt><trkpt lat="36.9572529602806" lon="15.044772521267616"><ele>373.3333333333333</ele><time>2026-04-17T08:15:49Z</time></trkpt><trkpt lat="36.95714560114531" lon="15.044795493209609"><ele>372.0</ele><time>2026-04-17T08:15:51Z</time></trkpt><trkpt lat="36.957058117021774" lon="15.044833489084635"><ele>372.0</ele><time>2026-04-17T08:15:53Z</time></trkpt><trkpt lat="36.95700057129685" lon="15.04488657079405"><ele>372.0</ele><time>2026-04-17T08:15:55Z</time></trkpt><trkpt lat="36.95695801325144" lon="15.044947909459347"><ele>372.0</ele><time>2026-04-17T08:15:57Z</time></trkpt><trkpt lat="36.95689819599628" lon="15.045022023720648"><ele>372.0</ele><time>2026-04-17T08:16:00Z</time></trkpt><trkpt lat="36.95684058972535" lon="15.04514149064527"><ele>372.0</ele><time>2026-04-17T08:16:03Z</time></trkpt><trkpt lat="36.95678957396878" lon="15.045242373753378"><ele>372.0</ele><time>2026-04-17T08:16:05Z</time></trkpt><trkpt lat="36.95676865215421" lon="15.045319365140228"><ele>371.8</ele><time>2026-04-17T08:16:07Z</time></trkpt><trkpt lat="36.95674330058689" lon="15.045428224365777"><ele>371.6</ele><time>2026-04-17T08:16:09Z</time></trkpt><trkpt lat="36.956689327949356" lon="15.045530733340463"><ele>371.40000000000003</ele><time>2026-04-17T08:16:11Z</time></trkpt><trkpt lat="36.95660316251886" lon="15.045608383203412"><ele>371.20000000000005</ele><time>2026-04-17T08:16:13Z</time></trkpt><trkpt lat="36.956520290717705" lon="15.045610110784665"><ele>371.0</ele><time>2026-04-17T08:16:15Z</time></trkpt><trkpt lat="36.956447988444694" lon="15.045568071324766"><ele>371.0</ele><time>2026-04-17T08:16:17Z</time></trkpt><trkpt lat="36.95638716806701" lon="15.045493596034438"><ele>371.0</ele><time>2026-04-17T08:16:19Z</time></trkpt><trkpt lat="36.95630227017636" lon="15.045393626962612"><ele>371.0</ele><time>2026-04-17T08:16:21Z</time></trkpt><trkpt lat="36.95621633919523" lon="15.045312147430804"><ele>371.0</ele><time>2026-04-17T08:16:23Z</time></trkpt><trkpt lat="36.95610185459043" lon="15.045243594979164"><ele>371.0</ele><time>2026-04-17T08:16:25Z</time></trkpt><trkpt lat="36.95599095101941" lon="15.045173783944069"><ele>371.0</ele><time>2026-04-17T08:16:27Z</time></trkpt><trkpt lat="36.955946259760346" lon="15.045114633832684"><ele>371.0</ele><time>2026-04-17T08:16:28Z</time></trkpt><trkpt lat="36.95591886587677" lon="15.045042850586107"><ele>371.0</ele><time>2026-04-17T08:16:29Z</time></trkpt><trkpt lat="36.955886234518495" lon="15.04490431620917"><ele>371.0</ele><time>2026-04-17T08:16:31Z</time></trkpt><trkpt lat="36.95585743672254" lon="15.044824788737944"><ele>371.0</ele><time>2026-04-17T08:16:32Z</time></trkpt><trkpt lat="36.95582594963078" lon="15.044736030895278"><ele>371.0</ele><time>2026-04-17T08:16:33Z</time></trkpt><trkpt lat="36.95580274174882" lon="15.044654023157525"><ele>370.8</ele><time>2026-04-17T08:16:34Z</time></trkpt><trkpt lat="36.95581703336424" lon="15.044517083733675"><ele>370.6</ele><time>2026-04-17T08:16:36Z</time></trkpt><trkpt lat="36.95583632654829" lon="15.04443282456371"><ele>370.4</ele><time>2026-04-17T08:16:37Z</time></trkpt><trkpt lat="36.955885537394565" lon="15.04432274740459"><ele>370.2</ele><time>2026-04-17T08:16:38Z</time></trkpt><trkpt lat="36.95594579043665" lon="15.044203981655537"><ele>370.0</ele><time>2026-04-17T08:16:39Z</time></trkpt><trkpt lat="36.95598618480178" lon="15.044078143453092"><ele>369.8333333333333</ele><time>2026-04-17T08:16:40Z</time></trkpt><trkpt lat="36.95603743341028" lon="15.04396514389928"><ele>369.66666666666663</ele><time>2026-04-17T08:16:41Z</time></trkpt><trkpt lat="36.956063486432605" lon="15.043851076014718"><ele>369.5</ele><time>2026-04-17T08:16:42Z</time></trkpt><trkpt lat="36.95606316318599" lon="15.0437507490991"><ele>369.3333333333333</ele><time>2026-04-17T08:16:43Z</time></trkpt><trkpt lat="36.95606962192708" lon="15.043660347809611"><ele>369.1666666666667</ele><time>2026-04-17T08:16:44Z</time></trkpt><trkpt lat="36.95607027244404" lon="15.043555964801598"><ele>369.0</ele><time>2026-04-17T08:16:45Z</time></trkpt><trkpt lat="36.95607702786792" lon="15.043442396242108"><ele>369.0</ele><time>2026-04-17T08:16:46Z</time></trkpt><trkpt lat="36.95608196944284" lon="15.04332455469895"><ele>369.0</ele><time>2026-04-17T08:16:47Z</time></trkpt><trkpt lat="36.95610035838603" lon="15.043203870572484"><ele>369.0</ele><time>2026-04-17T08:16:48Z</time></trkpt><trkpt lat="36.95611842505293" lon="15.043083193161694"><ele>369.0</ele><time>2026-04-17T08:16:49Z</time></trkpt><trkpt lat="36.95610266918911" lon="15.04296878856105"><ele>369.0</ele><time>2026-04-17T08:16:50Z</time></trkpt><trkpt lat="36.95608325533143" lon="15.042867410751139"><ele>369.79999999999995</ele><time>2026-04-17T08:16:51Z</time></trkpt><trkpt lat="36.956060237679104" lon="15.042769623616207"><ele>370.59999999999997</ele><time>2026-04-17T08:16:52Z</time></trkpt><trkpt lat="36.95604065884594" lon="15.042662028743615"><ele>371.4</ele><time>2026-04-17T08:16:53Z</time></trkpt><trkpt lat="36.95599754740658" lon="15.042586333325733"><ele>372.2</ele><time>2026-04-17T08:16:54Z</time></trkpt><trkpt lat="36.95590579816881" lon="15.04244503470178"><ele>373.0</ele><time>2026-04-17T08:16:56Z</time></trkpt><trkpt lat="36.95584781281908" lon="15.042377352723882"><ele>373.66666666666663</ele><time>2026-04-17T08:16:57Z</time></trkpt><trkpt lat="36.955785481663796" lon="15.042340035945895"><ele>374.3333333333333</ele><time>2026-04-17T08:16:58Z</time></trkpt><trkpt lat="36.95572455193557" lon="15.042318615570013"><ele>375.0</ele><time>2026-04-17T08:16:59Z</time></trkpt><trkpt lat="36.95561914229948" lon="15.042284149619103"><ele>375.6666666666667</ele><time>2026-04-17T08:17:01Z</time></trkpt><trkpt lat="36.95553307455462" lon="15.042182154519026"><ele>376.33333333333337</ele><time>2026-04-17T08:17:03Z</time></trkpt><trkpt lat="36.955517423071974" lon="15.04209100692585"><ele>377.0</ele><time>2026-04-17T08:17:04Z</time></trkpt><trkpt lat="36.955496849341486" lon="15.041992189578426"><ele>377.0</ele><time>2026-04-17T08:17:05Z</time></trkpt><trkpt lat="36.95547013814811" lon="15.041903523135938"><ele>377.0</ele><time>2026-04-17T08:17:06Z</time></trkpt><trkpt lat="36.955435473471" lon="15.04182237784877"><ele>377.0</ele><time>2026-04-17T08:17:07Z</time></trkpt><trkpt lat="36.95538275984628" lon="15.04174986126759"><ele>377.0</ele><time>2026-04-17T08:17:08Z</time></trkpt><trkpt lat="36.955338169458834" lon="15.041670223907287"><ele>377.0</ele><time>2026-04-17T08:17:09Z</time></trkpt><trkpt lat="36.95528112261576" lon="15.041595117138693"><ele>377.0</ele><time>2026-04-17T08:17:10Z</time></trkpt><trkpt lat="36.95523903114245" lon="15.041527517659036"><ele>377.6</ele><time>2026-04-17T08:17:11Z</time></trkpt><trkpt lat="36.95517267491282" lon="15.041433290995473"><ele>378.20000000000005</ele><time>2026-04-17T08:17:13Z</time></trkpt><trkpt lat="36.95512110112431" lon="15.041376227253512"><ele>378.8</ele><time>2026-04-17T08:17:33Z</time></trkpt><trkpt lat="36.95507532900253" lon="15.041302405414882"><ele>379.4</ele><time>2026-04-17T08:17:35Z</time></trkpt><trkpt lat="36.95515032888748" lon="15.041163210771876"><ele>380.0</ele><time>2026-04-17T08:17:36Z</time></trkpt><trkpt lat="36.95520841086469" lon="15.04104001525655"><ele>380.0</ele><time>2026-04-17T08:17:37Z</time></trkpt><trkpt lat="36.95525722847093" lon="15.040895884827464"><ele>380.0</ele><time>2026-04-17T08:17:38Z</time></trkpt><trkpt lat="36.955319199555774" lon="15.040753120811381"><ele>380.0</ele><time>2026-04-17T08:17:39Z</time></trkpt><trkpt lat="36.95537578471355" lon="15.040646585503938"><ele>380.0</ele><time>2026-04-17T08:17:40Z</time></trkpt><trkpt lat="36.95544699614802" lon="15.040545564163082"><ele>381.0</ele><time>2026-04-17T08:17:41Z</time></trkpt><trkpt lat="36.95554081042029" lon="15.040457362802686"><ele>382.0</ele><time>2026-04-17T08:17:42Z</time></trkpt><trkpt lat="36.95565160821354" lon="15.040376169528454"><ele>383.0</ele><time>2026-04-17T08:17:43Z</time></trkpt><trkpt lat="36.95576628265551" lon="15.040283351100515"><ele>384.0</ele><time>2026-04-17T08:17:44Z</time></trkpt><trkpt lat="36.95589335217507" lon="15.040182322259977"><ele>384.0</ele><time>2026-04-17T08:17:45Z</time></trkpt><trkpt lat="36.95602527980263" lon="15.040077528937294"><ele>384.0</ele><time>2026-04-17T08:17:46Z</time></trkpt><trkpt lat="36.956171219542334" lon="15.039958445517952"><ele>384.0</ele><time>2026-04-17T08:17:47Z</time></trkpt><trkpt lat="36.95632456390326" lon="15.039823652762179"><ele>385.33333333333337</ele><time>2026-04-17T08:17:48Z</time></trkpt><trkpt lat="36.9564877201336" lon="15.039683384634852"><ele>386.6666666666667</ele><time>2026-04-17T08:17:49Z</time></trkpt><trkpt lat="36.956653938852746" lon="15.039544617498823"><ele>388.0</ele><time>2026-04-17T08:17:50Z</time></trkpt><trkpt lat="36.95682822657319" lon="15.03939908347934"><ele>388.0</ele><time>2026-04-17T08:17:51Z</time></trkpt><trkpt lat="36.95701063911801" lon="15.039248805408423"><ele>388.0</ele><time>2026-04-17T08:17:52Z</time></trkpt><trkpt lat="36.957194727227325" lon="15.039096386487529"><ele>388.0</ele><time>2026-04-17T08:17:53Z</time></trkpt><trkpt lat="36.957382452025875" lon="15.038942303553842"><ele>390.5</ele><time>2026-04-17T08:17:54Z</time></trkpt><trkpt lat="36.95757098238997" lon="15.03878868876717"><ele>393.0</ele><time>2026-04-17T08:17:55Z</time></trkpt><trkpt lat="36.95776095643107" lon="15.038636277973483"><ele>393.0</ele><time>2026-04-17T08:17:56Z</time></trkpt><trkpt lat="36.95794712573664" lon="15.038497623511969"><ele>393.0</ele><time>2026-04-17T08:17:57Z</time></trkpt><trkpt lat="36.958128545492926" lon="15.038366155700068"><ele>393.0</ele><time>2026-04-17T08:17:58Z</time></trkpt><trkpt lat="36.95829475154326" lon="15.038248248412147"><ele>393.0</ele><time>2026-04-17T08:17:59Z</time></trkpt><trkpt lat="36.95845659975947" lon="15.038142082567632"><ele>393.0</ele><time>2026-04-17T08:18:00Z</time></trkpt><trkpt lat="36.95861503182818" lon="15.0380584657446"><ele>393.0</ele><time>2026-04-17T08:18:01Z</time></trkpt><trkpt lat="36.95877708945017" lon="15.03799653415141"><ele>393.0</ele><time>2026-04-17T08:18:02Z</time></trkpt><trkpt lat="36.95894521183723" lon="15.037948640350278"><ele>393.0</ele><time>2026-04-17T08:18:03Z</time></trkpt><trkpt lat="36.95910232491784" lon="15.037925475038328"><ele>393.0</ele><time>2026-04-17T08:18:04Z</time></trkpt><trkpt lat="36.9592548666232" lon="15.037930140353328"><ele>394.33333333333337</ele><time>2026-04-17T08:18:05Z</time></trkpt><trkpt lat="36.95940793850474" lon="15.037954041296778"><ele>395.6666666666667</ele><time>2026-04-17T08:18:06Z</time></trkpt><trkpt lat="36.95956805928165" lon="15.037986792844114"><ele>397.0</ele><time>2026-04-17T08:18:07Z</time></trkpt><trkpt lat="36.95973656457051" lon="15.0380132754752"><ele>397.0</ele><time>2026-04-17T08:18:08Z</time></trkpt><trkpt lat="36.95990943518987" lon="15.038034978879027"><ele>397.0</ele><time>2026-04-17T08:18:09Z</time></trkpt><trkpt lat="36.960079516176116" lon="15.038059570734362"><ele>397.0</ele><time>2026-04-17T08:18:10Z</time></trkpt><trkpt lat="36.96023989089008" lon="15.038078105537377"><ele>399.33333333333337</ele><time>2026-04-17T08:18:11Z</time></trkpt><trkpt lat="36.96038397228139" lon="15.03807269273819"><ele>401.66666666666663</ele><time>2026-04-17T08:18:12Z</time></trkpt><trkpt lat="36.960537413597905" lon="15.038035411061433"><ele>404.0</ele><time>2026-04-17T08:18:13Z</time></trkpt><trkpt lat="36.960710429961644" lon="15.037969595573978"><ele>406.0</ele><time>2026-04-17T08:18:14Z</time></trkpt><trkpt lat="36.960881830401" lon="15.037900611370913"><ele>408.0</ele><time>2026-04-17T08:18:15Z</time></trkpt><trkpt lat="36.96104965606464" lon="15.037828451069283"><ele>410.0</ele><time>2026-04-17T08:18:16Z</time></trkpt><trkpt lat="36.96120626901336" lon="15.037761141073098"><ele>410.0</ele><time>2026-04-17T08:18:17Z</time></trkpt><trkpt lat="36.961363439950134" lon="15.037692798962293"><ele>410.0</ele><time>2026-04-17T08:18:18Z</time></trkpt><trkpt lat="36.96152637963136" lon="15.037619347413438"><ele>410.0</ele><time>2026-04-17T08:18:19Z</time></trkpt><trkpt lat="36.96169426503195" lon="15.037545955620532"><ele>411.0</ele><time>2026-04-17T08:18:20Z</time></trkpt><trkpt lat="36.96186756548657" lon="15.037477142974438"><ele>412.0</ele><time>2026-04-17T08:18:21Z</time></trkpt><trkpt lat="36.96203284394007" lon="15.037406589632981"><ele>413.0</ele><time>2026-04-17T08:18:22Z</time></trkpt><trkpt lat="36.96218885562088" lon="15.037340505019483"><ele>413.0</ele><time>2026-04-17T08:18:23Z</time></trkpt><trkpt lat="36.962335391899806" lon="15.037275487194524"><ele>413.0</ele><time>2026-04-17T08:18:24Z</time></trkpt><trkpt lat="36.9624772784443" lon="15.037194886406771"><ele>413.0</ele><time>2026-04-17T08:18:25Z</time></trkpt><trkpt lat="36.96260002841875" lon="15.037092725831139"><ele>415.66666666666663</ele><time>2026-04-17T08:18:26Z</time></trkpt><trkpt lat="36.9627011680801" lon="15.03696165076061"><ele>418.33333333333337</ele><time>2026-04-17T08:18:27Z</time></trkpt><trkpt lat="36.96279909286498" lon="15.036792932505595"><ele>421.0</ele><time>2026-04-17T08:18:28Z</time></trkpt><trkpt lat="36.96289343782391" lon="15.036588542951918"><ele>421.33333333333337</ele><time>2026-04-17T08:18:29Z</time></trkpt><trkpt lat="36.96299045755248" lon="15.036376459572079"><ele>421.66666666666663</ele><time>2026-04-17T08:18:30Z</time></trkpt><trkpt lat="36.96309355058916" lon="15.03616000301924"><ele>422.0</ele><time>2026-04-17T08:18:31Z</time></trkpt><trkpt lat="36.9632037081213" lon="15.035934976617524"><ele>422.3333333333333</ele><time>2026-04-17T08:18:32Z</time></trkpt><trkpt lat="36.96330946585485" lon="15.035713969987123"><ele>422.66666666666663</ele><time>2026-04-17T08:18:33Z</time></trkpt><trkpt lat="36.96341724440387" lon="15.035488119582894"><ele>423.0</ele><time>2026-04-17T08:18:34Z</time></trkpt><trkpt lat="36.96352653532681" lon="15.035272124650232"><ele>425.66666666666663</ele><time>2026-04-17T08:18:35Z</time></trkpt><trkpt lat="36.96363536085702" lon="15.035060602165787"><ele>428.3333333333333</ele><time>2026-04-17T08:18:36Z</time></trkpt><trkpt lat="36.96374358106216" lon="15.034856151626123"><ele>431.0</ele><time>2026-04-17T08:18:37Z</time></trkpt><trkpt lat="36.96386138870088" lon="15.034659028187841"><ele>431.0</ele><time>2026-04-17T08:18:38Z</time></trkpt><trkpt lat="36.963994007778275" lon="15.034476950174225"><ele>431.0</ele><time>2026-04-17T08:18:39Z</time></trkpt><trkpt lat="36.96413368698691" lon="15.034305888471764"><ele>431.0</ele><time>2026-04-17T08:18:40Z</time></trkpt><trkpt lat="36.96426601514417" lon="15.034154435260906"><ele>432.0</ele><time>2026-04-17T08:18:41Z</time></trkpt><trkpt lat="36.96438269549027" lon="15.034040975674452"><ele>433.0</ele><time>2026-04-17T08:18:42Z</time></trkpt><trkpt lat="36.964492298244366" lon="15.033965601158203"><ele>434.0</ele><time>2026-04-17T08:18:43Z</time></trkpt><trkpt lat="36.96461311076845" lon="15.033933203117916"><ele>435.0</ele><time>2026-04-17T08:18:44Z</time></trkpt><trkpt lat="36.964755711742164" lon="15.033934900433675"><ele>435.0</ele><time>2026-04-17T08:18:45Z</time></trkpt><trkpt lat="36.964910186386945" lon="15.034003409299311"><ele>435.0</ele><time>2026-04-17T08:18:46Z</time></trkpt><trkpt lat="36.9650823625643" lon="15.034059070382778"><ele>435.0</ele><time>2026-04-17T08:18:47Z</time></trkpt><trkpt lat="36.96525004216698" lon="15.034133843304561"><ele>435.75</ele><time>2026-04-17T08:18:48Z</time></trkpt><trkpt lat="36.965401951577846" lon="15.034205897512456"><ele>436.5</ele><time>2026-04-17T08:18:49Z</time></trkpt><trkpt lat="36.96553451270573" lon="15.034266968376988"><ele>437.25</ele><time>2026-04-17T08:18:50Z</time></trkpt><trkpt lat="36.96562935833984" lon="15.034303795932319"><ele>438.0</ele><time>2026-04-17T08:18:51Z</time></trkpt><trkpt lat="36.96570942474778" lon="15.034335052400682"><ele>438.0</ele><time>2026-04-17T08:18:52Z</time></trkpt><trkpt lat="36.96577277738249" lon="15.034365596206987"><ele>438.0</ele><time>2026-04-17T08:18:53Z</time></trkpt><trkpt lat="36.96583218607517" lon="15.034414302614055"><ele>438.0</ele><time>2026-04-17T08:18:54Z</time></trkpt><trkpt lat="36.96590355849023" lon="15.03448972101514"><ele>438.0</ele><time>2026-04-17T08:18:56Z</time></trkpt><trkpt lat="36.96584601870244" lon="15.034553944168023"><ele>438.0</ele><time>2026-04-17T08:31:55.998Z</time></trkpt><trkpt lat="36.96584031549409" lon="15.034468068030334"><ele>438.0</ele><time>2026-04-17T08:31:58.998Z</time></trkpt><trkpt lat="36.965793839847095" lon="15.034358632193625"><ele>438.0</ele><time>2026-04-17T08:32:02.999Z</time></trkpt><trkpt lat="36.96570394315392" lon="15.03430100993486"><ele>438.0</ele><time>2026-04-17T08:32:03.999Z</time></trkpt><trkpt lat="36.96559309997959" lon="15.034260425374015"><ele>438.0</ele><time>2026-04-17T08:32:04.999Z</time></trkpt><trkpt lat="36.965471505866795" lon="15.034217157084182"><ele>438.0</ele><time>2026-04-17T08:32:05.999Z</time></trkpt><trkpt lat="36.9653505667243" lon="15.034166619628532"><ele>437.25</ele><time>2026-04-17T08:32:06.999Z</time></trkpt><trkpt lat="36.96523466519717" lon="15.034120819160483"><ele>436.5</ele><time>2026-04-17T08:32:07.999Z</time></trkpt><trkpt lat="36.96513266843638" lon="15.034056030294005"><ele>435.75</ele><time>2026-04-17T08:32:08.999Z</time></trkpt><trkpt lat="36.96501726254311" lon="15.034005033742252"><ele>435.0</ele><time>2026-04-17T08:32:09.999Z</time></trkpt><trkpt lat="36.96490220223935" lon="15.033953887911922"><ele>435.0</ele><time>2026-04-17T08:32:10.999Z</time></trkpt><trkpt lat="36.96478272779161" lon="15.03391259122983"><ele>435.0</ele><time>2026-04-17T08:32:11.999Z</time></trkpt><trkpt lat="36.96466973650364" lon="15.03388955253655"><ele>435.0</ele><time>2026-04-17T08:32:12.999Z</time></trkpt><trkpt lat="36.96455028093824" lon="15.033888265865084"><ele>435.0</ele><time>2026-04-17T08:32:13.999Z</time></trkpt><trkpt lat="36.96442577050812" lon="15.033941153218015"><ele>435.0</ele><time>2026-04-17T08:32:14.999Z</time></trkpt><trkpt lat="36.96429881602584" lon="15.03404482569457"><ele>435.0</ele><time>2026-04-17T08:32:15.999Z</time></trkpt><trkpt lat="36.9641816596384" lon="15.034168601137688"><ele>435.0</ele><time>2026-04-17T08:32:16.999Z</time></trkpt><trkpt lat="36.96405993805141" lon="15.034310191828247"><ele>433.66666666666663</ele><time>2026-04-17T08:32:17.999Z</time></trkpt><trkpt lat="36.96393074984802" lon="15.034470181507697"><ele>432.3333333333333</ele><time>2026-04-17T08:32:18.999Z</time></trkpt><trkpt lat="36.963803845020124" lon="15.034649006658295"><ele>431.0</ele><time>2026-04-17T08:32:19.999Z</time></trkpt><trkpt lat="36.96369019923673" lon="15.034848999762653"><ele>431.0</ele><time>2026-04-17T08:32:20.999Z</time></trkpt><trkpt lat="36.96358002878483" lon="15.035064925280839"><ele>431.0</ele><time>2026-04-17T08:32:21.999Z</time></trkpt><trkpt lat="36.963473301581615" lon="15.03528310880472"><ele>431.0</ele><time>2026-04-17T08:32:22.999Z</time></trkpt><trkpt lat="36.963373098124514" lon="15.03548795605499"><ele>428.3333333333333</ele><time>2026-04-17T08:32:23.999Z</time></trkpt><trkpt lat="36.9632758595226" lon="15.035686469322288"><ele>425.66666666666663</ele><time>2026-04-17T08:32:24.999Z</time></trkpt><trkpt lat="36.96318308634036" lon="15.035873581203552"><ele>423.0</ele><time>2026-04-17T08:32:25.999Z</time></trkpt><trkpt lat="36.96309778567812" lon="15.03604562188317"><ele>422.75</ele><time>2026-04-17T08:32:26.999Z</time></trkpt><trkpt lat="36.963018879156074" lon="15.03620619762705"><ele>422.5</ele><time>2026-04-17T08:32:27.999Z</time></trkpt><trkpt lat="36.96294447962393" lon="15.036357879608683"><ele>422.25</ele><time>2026-04-17T08:32:28.999Z</time></trkpt><trkpt lat="36.96287064588713" lon="15.036508408193043"><ele>422.0</ele><time>2026-04-17T08:32:29.999Z</time></trkpt><trkpt lat="36.96280004731398" lon="15.03665303277016"><ele>421.75</ele><time>2026-04-17T08:32:30.999Z</time></trkpt><trkpt lat="36.96272815338383" lon="15.036802309904047"><ele>421.5</ele><time>2026-04-17T08:32:31.999Z</time></trkpt><trkpt lat="36.9626463935402" lon="15.036950871320629"><ele>421.25</ele><time>2026-04-17T08:32:33Z</time></trkpt><trkpt lat="36.96255456395685" lon="15.037066119483722"><ele>421.0</ele><time>2026-04-17T08:32:34Z</time></trkpt><trkpt lat="36.96243083904934" lon="15.037166202660806"><ele>418.33333333333337</ele><time>2026-04-17T08:32:35Z</time></trkpt><trkpt lat="36.9622779467166" lon="15.03724434797512"><ele>415.66666666666663</ele><time>2026-04-17T08:32:36Z</time></trkpt><trkpt lat="36.962109492066105" lon="15.037316500077313"><ele>413.0</ele><time>2026-04-17T08:32:37Z</time></trkpt><trkpt lat="36.96194802134108" lon="15.037385022596185"><ele>413.0</ele><time>2026-04-17T08:32:38Z</time></trkpt><trkpt lat="36.961785364999955" lon="15.03745404822101"><ele>413.0</ele><time>2026-04-17T08:32:39Z</time></trkpt><trkpt lat="36.96161129197219" lon="15.037527918729237"><ele>413.0</ele><time>2026-04-17T08:32:40Z</time></trkpt><trkpt lat="36.96143098494957" lon="15.037604434685452"><ele>412.0</ele><time>2026-04-17T08:32:41Z</time></trkpt><trkpt lat="36.96125087357166" lon="15.037680872693993"><ele>411.0</ele><time>2026-04-17T08:32:42Z</time></trkpt><trkpt lat="36.96108298152208" lon="15.037752129322994"><ele>410.0</ele><time>2026-04-17T08:32:43Z</time></trkpt><trkpt lat="36.96092204618145" lon="15.037820433376545"><ele>408.0</ele><time>2026-04-17T08:32:44Z</time></trkpt><trkpt lat="36.96076552125339" lon="15.037886865639747"><ele>406.0</ele><time>2026-04-17T08:32:45Z</time></trkpt><trkpt lat="36.960613383039366" lon="15.037951436004432"><ele>404.0</ele><time>2026-04-17T08:32:46Z</time></trkpt><trkpt lat="36.960469331747355" lon="15.038007162863167"><ele>404.0</ele><time>2026-04-17T08:32:47Z</time></trkpt><trkpt lat="36.960328185645096" lon="15.038033723040332"><ele>404.0</ele><time>2026-04-17T08:32:48Z</time></trkpt><trkpt lat="36.96017041738585" lon="15.038036620911436"><ele>404.0</ele><time>2026-04-17T08:32:49Z</time></trkpt><trkpt lat="36.9600037386701" lon="15.038013460299204"><ele>401.66666666666663</ele><time>2026-04-17T08:32:50Z</time></trkpt><trkpt lat="36.95982736503588" lon="15.038001476474115"><ele>399.33333333333337</ele><time>2026-04-17T08:32:51Z</time></trkpt><trkpt lat="36.95964646157334" lon="15.037974962480188"><ele>397.0</ele><time>2026-04-17T08:32:52Z</time></trkpt><trkpt lat="36.95946674497797" lon="15.037924026572494"><ele>397.0</ele><time>2026-04-17T08:32:53Z</time></trkpt><trkpt lat="36.959296203340045" lon="15.037894835143252"><ele>397.0</ele><time>2026-04-17T08:32:54Z</time></trkpt><trkpt lat="36.959128729608935" lon="15.037875223417167"><ele>397.0</ele><time>2026-04-17T08:32:55Z</time></trkpt><trkpt lat="36.95896336164715" lon="15.037891172619481"><ele>395.6666666666667</ele><time>2026-04-17T08:32:56Z</time></trkpt><trkpt lat="36.95879271112795" lon="15.037943687811676"><ele>394.33333333333337</ele><time>2026-04-17T08:32:57Z</time></trkpt><trkpt lat="36.958614320698665" lon="15.038015274788167"><ele>393.0</ele><time>2026-04-17T08:32:58Z</time></trkpt><trkpt lat="36.95843952841134" lon="15.038098922393768"><ele>393.0</ele><time>2026-04-17T08:32:59Z</time></trkpt><trkpt lat="36.958266702211375" lon="15.03820808431683"><ele>393.0</ele><time>2026-04-17T08:33:00Z</time></trkpt><trkpt lat="36.95809296785482" lon="15.038328241893714"><ele>393.0</ele><time>2026-04-17T08:33:01Z</time></trkpt><trkpt lat="36.9579163349747" lon="15.038456321290287"><ele>393.0</ele><time>2026-04-17T08:33:02Z</time></trkpt><trkpt lat="36.95773993410412" lon="15.038587908478625"><ele>393.0</ele><time>2026-04-17T08:33:03Z</time></trkpt><trkpt lat="36.95756778077747" lon="15.038720552269757"><ele>393.0</ele><time>2026-04-17T08:33:04Z</time></trkpt><trkpt lat="36.95739714503464" lon="15.038856952581671"><ele>391.33333333333337</ele><time>2026-04-17T08:33:05Z</time></trkpt><trkpt lat="36.95722831252594" lon="15.038995565721548"><ele>389.6666666666667</ele><time>2026-04-17T08:33:06Z</time></trkpt><trkpt lat="36.95706332219605" lon="15.039132699764185"><ele>388.0</ele><time>2026-04-17T08:33:07Z</time></trkpt><trkpt lat="36.956902028031855" lon="15.039266761671637"><ele>388.0</ele><time>2026-04-17T08:33:08Z</time></trkpt><trkpt lat="36.956748120257764" lon="15.039394684302264"><ele>388.0</ele><time>2026-04-17T08:33:09Z</time></trkpt><trkpt lat="36.956597240166104" lon="15.039518186494513"><ele>388.0</ele><time>2026-04-17T08:33:10Z</time></trkpt><trkpt lat="36.95645382853428" lon="15.039635544686893"><ele>386.6666666666667</ele><time>2026-04-17T08:33:11Z</time></trkpt><trkpt lat="36.956318205865884" lon="15.039766674678377"><ele>385.33333333333337</ele><time>2026-04-17T08:33:12Z</time></trkpt><trkpt lat="36.956167190978725" lon="15.039877661910491"><ele>384.0</ele><time>2026-04-17T08:33:13Z</time></trkpt><trkpt lat="36.95601473063562" lon="15.039985602495257"><ele>380.0</ele><time>2026-04-17T08:33:14Z</time></trkpt><trkpt lat="36.955847539780066" lon="15.040156325898282"><ele>376.0</ele><time>2026-04-17T08:33:15Z</time></trkpt><trkpt lat="36.95570494821813" lon="15.040275302815477"><ele>372.0</ele><time>2026-04-17T08:33:16Z</time></trkpt><trkpt lat="36.95556626476469" lon="15.04036470747218"><ele>372.0</ele><time>2026-04-17T08:33:17Z</time></trkpt><trkpt lat="36.95544754775347" lon="15.040468097122195"><ele>372.0</ele><time>2026-04-17T08:33:18Z</time></trkpt><trkpt lat="36.95534218797788" lon="15.040587775574554"><ele>372.0</ele><time>2026-04-17T08:33:19Z</time></trkpt><trkpt lat="36.95525686483404" lon="15.040739157745737"><ele>372.0</ele><time>2026-04-17T08:33:20Z</time></trkpt><trkpt lat="36.95517914364676" lon="15.040937603411178"><ele>369.6666666666667</ele><time>2026-04-17T08:33:21.001Z</time></trkpt><trkpt lat="36.9551184318205" lon="15.041147252425647"><ele>367.33333333333337</ele><time>2026-04-17T08:33:22.001Z</time></trkpt><trkpt lat="36.9550648200079" lon="15.041331867424017"><ele>365.0</ele><time>2026-04-17T08:33:23.001Z</time></trkpt><trkpt lat="36.95499542208437" lon="15.041473636823921"><ele>365.0</ele><time>2026-04-17T08:33:24.001Z</time></trkpt><trkpt lat="36.95491267636489" lon="15.041587376057223"><ele>365.0</ele><time>2026-04-17T08:33:25.001Z</time></trkpt><trkpt lat="36.95481382660804" lon="15.041664626729142"><ele>365.0</ele><time>2026-04-17T08:33:26.001Z</time></trkpt><trkpt lat="36.95470959575612" lon="15.041754415879314"><ele>365.0</ele><time>2026-04-17T08:33:27.001Z</time></trkpt><trkpt lat="36.95458055328483" lon="15.041865849318329"><ele>364.6666666666667</ele><time>2026-04-17T08:33:28.001Z</time></trkpt><trkpt lat="36.95443001375192" lon="15.041995383297069"><ele>364.3333333333333</ele><time>2026-04-17T08:33:29.001Z</time></trkpt><trkpt lat="36.95427184361967" lon="15.042131483193254"><ele>364.0</ele><time>2026-04-17T08:33:30.001Z</time></trkpt><trkpt lat="36.954122793880664" lon="15.042261908672327"><ele>363.0</ele><time>2026-04-17T08:33:31.001Z</time></trkpt><trkpt lat="36.953986201073214" lon="15.04242433595616"><ele>362.0</ele><time>2026-04-17T08:33:32.001Z</time></trkpt><trkpt lat="36.953864567071946" lon="15.042569675438113"><ele>361.0</ele><time>2026-04-17T08:33:33.001Z</time></trkpt><trkpt lat="36.953775971351334" lon="15.04269970255091"><ele>361.0</ele><time>2026-04-17T08:33:34.001Z</time></trkpt><trkpt lat="36.953707358654185" lon="15.04281666174595"><ele>361.0</ele><time>2026-04-17T08:33:35.001Z</time></trkpt><trkpt lat="36.953631715886374" lon="15.042912979633892"><ele>361.0</ele><time>2026-04-17T08:33:36.001Z</time></trkpt><trkpt lat="36.95356878389436" lon="15.043014992567942"><ele>361.0</ele><time>2026-04-17T08:33:37.001Z</time></trkpt><trkpt lat="36.953515607543345" lon="15.043101191536467"><ele>361.0</ele><time>2026-04-17T08:33:38.001Z</time></trkpt><trkpt lat="36.953461706011836" lon="15.043188803195111"><ele>361.0</ele><time>2026-04-17T08:33:39.001Z</time></trkpt><trkpt lat="36.953409912583446" lon="15.043273520344005"><ele>361.0</ele><time>2026-04-17T08:33:40.001Z</time></trkpt><trkpt lat="36.95335458896846" lon="15.043364011932166"><ele>361.0</ele><time>2026-04-17T08:33:41.001Z</time></trkpt><trkpt lat="36.953297368536866" lon="15.043457606109868"><ele>361.0</ele><time>2026-04-17T08:33:42.001Z</time></trkpt><trkpt lat="36.953248681977314" lon="15.043537241481966"><ele>361.0</ele><time>2026-04-17T08:33:43.001Z</time></trkpt><trkpt lat="36.95319581463556" lon="15.043623715284674"><ele>361.0</ele><time>2026-04-17T08:33:44.001Z</time></trkpt><trkpt lat="36.95314029592909" lon="15.043714581223389"><ele>361.20000000000005</ele><time>2026-04-17T08:33:45.001Z</time></trkpt><trkpt lat="36.953079321537494" lon="15.043814482100583"><ele>361.40000000000003</ele><time>2026-04-17T08:33:46.001Z</time></trkpt><trkpt lat="36.95301432463251" lon="15.043920973349671"><ele>361.6</ele><time>2026-04-17T08:33:47.001Z</time></trkpt><trkpt lat="36.95294697376737" lon="15.04403132129079"><ele>361.8</ele><time>2026-04-17T08:33:48.001Z</time></trkpt><trkpt lat="36.95287815031795" lon="15.044144081962713"><ele>362.0</ele><time>2026-04-17T08:33:49.001Z</time></trkpt><trkpt lat="36.95280919368538" lon="15.044257060786446"><ele>361.5</ele><time>2026-04-17T08:33:50.001Z</time></trkpt><trkpt lat="36.9527382663007" lon="15.044373268522753"><ele>361.0</ele><time>2026-04-17T08:33:51.001Z</time></trkpt><trkpt lat="36.952665613778045" lon="15.044492302774735"><ele>360.5</ele><time>2026-04-17T08:33:52.001Z</time></trkpt><trkpt lat="36.95259378787208" lon="15.044610633368901"><ele>360.0</ele><time>2026-04-17T08:33:53.001Z</time></trkpt><trkpt lat="36.952525110249375" lon="15.044724046570458"><ele>360.6666666666667</ele><time>2026-04-17T08:33:54.001Z</time></trkpt><trkpt lat="36.95246065265909" lon="15.04483049083591"><ele>361.3333333333333</ele><time>2026-04-17T08:33:55.001Z</time></trkpt><trkpt lat="36.95240109065184" lon="15.044927640259436"><ele>362.0</ele><time>2026-04-17T08:33:56.001Z</time></trkpt><trkpt lat="36.95234406186979" lon="15.045020566003354"><ele>362.66666666666663</ele><time>2026-04-17T08:33:57.001Z</time></trkpt><trkpt lat="36.952295334628886" lon="15.045099964730827"><ele>363.3333333333333</ele><time>2026-04-17T08:33:58.001Z</time></trkpt><trkpt lat="36.95225679676276" lon="15.045162760421688"><ele>364.0</ele><time>2026-04-17T08:33:59.001Z</time></trkpt><trkpt lat="36.952212888417876" lon="15.045234306920173"><ele>364.0</ele><time>2026-04-17T08:34:01.001Z</time></trkpt><trkpt lat="36.95213452139474" lon="15.04522037967294"><ele>364.0</ele><time>2026-04-17T08:34:07.001Z</time></trkpt><trkpt lat="36.95208365553256" lon="15.045118571045204"><ele>364.0</ele><time>2026-04-17T08:34:09.001Z</time></trkpt><trkpt lat="36.952027983555666" lon="15.045058500295982"><ele>364.0</ele><time>2026-04-17T08:34:11.001Z</time></trkpt><trkpt lat="36.951985039553385" lon="15.044976306970637"><ele>364.0</ele><time>2026-04-17T08:34:13.001Z</time></trkpt><trkpt lat="36.951931120948224" lon="15.044903782060258"><ele>364.0</ele><time>2026-04-17T08:34:16.001Z</time></trkpt><trkpt lat="36.951860126024535" lon="15.04489097115678"><ele>364.0</ele><time>2026-04-17T08:34:20.001Z</time></trkpt><trkpt lat="36.95180954899722" lon="15.044947119386551"><ele>364.0</ele><time>2026-04-17T08:34:24.001Z</time></trkpt><trkpt lat="36.951747568528624" lon="15.0449740935733"><ele>364.0</ele><time>2026-04-17T08:34:27.001Z</time></trkpt><trkpt lat="36.95167612693547" lon="15.045037450575332"><ele>364.0</ele><time>2026-04-17T08:34:29.001Z</time></trkpt><trkpt lat="36.95159371145805" lon="15.045075106113508"><ele>364.0</ele><time>2026-04-17T08:34:31.001Z</time></trkpt><trkpt lat="36.951511497413996" lon="15.045070248323022"><ele>364.0</ele><time>2026-04-17T08:34:33.001Z</time></trkpt><trkpt lat="36.9514193229399" lon="15.04514720252564"><ele>364.4</ele><time>2026-04-17T08:34:35.001Z</time></trkpt><trkpt lat="36.951334994339206" lon="15.045213548288272"><ele>364.79999999999995</ele><time>2026-04-17T08:34:37.001Z</time></trkpt><trkpt lat="36.951239803350134" lon="15.045255015248946"><ele>365.20000000000005</ele><time>2026-04-17T08:34:39.001Z</time></trkpt><trkpt lat="36.95114376963055" lon="15.045257891554185"><ele>365.6</ele><time>2026-04-17T08:34:41.001Z</time></trkpt><trkpt lat="36.95106583525434" lon="15.045252211818443"><ele>366.0</ele><time>2026-04-17T08:34:43.001Z</time></trkpt><trkpt lat="36.95101285074769" lon="15.045182169724544"><ele>366.0</ele><time>2026-04-17T08:34:47.001Z</time></trkpt><trkpt lat="36.95099015113814" lon="15.045106416075967"><ele>366.0</ele><time>2026-04-17T08:34:50.001Z</time></trkpt><trkpt lat="36.95091817710518" lon="15.045092213765209"><ele>366.0</ele><time>2026-04-17T08:34:53.001Z</time></trkpt><trkpt lat="36.95085355327327" lon="15.04505526895496"><ele>366.0</ele><time>2026-04-17T08:34:55.001Z</time></trkpt><trkpt lat="36.95079687270642" lon="15.044989267539068"><ele>366.0</ele><time>2026-04-17T08:34:58.001Z</time></trkpt><trkpt lat="36.95076402488685" lon="15.044900267024083"><ele>366.0</ele><time>2026-04-17T08:35:01.001Z</time></trkpt><trkpt lat="36.9506905215802" lon="15.044853546886369"><ele>366.0</ele><time>2026-04-17T08:35:04.001Z</time></trkpt><trkpt lat="36.95062685848458" lon="15.044858791312215"><ele>364.0</ele><time>2026-04-17T08:35:06.001Z</time></trkpt><trkpt lat="36.950557773637165" lon="15.044851995289159"><ele>362.0</ele><time>2026-04-17T08:35:08.001Z</time></trkpt><trkpt lat="36.95049439617231" lon="15.044815247461708"><ele>360.0</ele><time>2026-04-17T08:35:11.001Z</time></trkpt><trkpt lat="36.95043386263658" lon="15.044848940114186"><ele>358.0</ele><time>2026-04-17T08:35:14.001Z</time></trkpt><trkpt lat="36.950361186698444" lon="15.044837792556843"><ele>356.0</ele><time>2026-04-17T08:35:16.001Z</time></trkpt><trkpt lat="36.950273483487564" lon="15.044841438939882"><ele>354.0</ele><time>2026-04-17T08:35:19.002Z</time></trkpt><trkpt lat="36.95020714947306" lon="15.044852853849257"><ele>352.0</ele><time>2026-04-17T08:35:21.002Z</time></trkpt><trkpt lat="36.95013505434145" lon="15.04484631941133"><ele>352.0</ele><time>2026-04-17T08:35:24.002Z</time></trkpt><trkpt lat="36.95006842693861" lon="15.044859233792078"><ele>352.0</ele><time>2026-04-17T08:35:26.002Z</time></trkpt><trkpt lat="36.950004012238146" lon="15.044810009216391"><ele>352.0</ele><time>2026-04-17T08:35:30.002Z</time></trkpt><trkpt lat="36.94997180002493" lon="15.044726321860653"><ele>352.0</ele><time>2026-04-17T08:35:32.002Z</time></trkpt><trkpt lat="36.950003517607406" lon="15.044632487918765"><ele>352.0</ele><time>2026-04-17T08:35:34.002Z</time></trkpt><trkpt lat="36.950011763260854" lon="15.044533123863697"><ele>352.0</ele><time>2026-04-17T08:35:36.002Z</time></trkpt><trkpt lat="36.95001681460034" lon="15.044433237558586"><ele>351.16666666666663</ele><time>2026-04-17T08:35:38.002Z</time></trkpt><trkpt lat="36.950010303971005" lon="15.044278197113684"><ele>350.3333333333333</ele><time>2026-04-17T08:35:40.002Z</time></trkpt><trkpt lat="36.95001120478885" lon="15.044187384591556"><ele>349.5</ele><time>2026-04-17T08:35:41.002Z</time></trkpt><trkpt lat="36.950010580832746" lon="15.04409657305718"><ele>348.6666666666667</ele><time>2026-04-17T08:35:42.002Z</time></trkpt><trkpt lat="36.950010946546016" lon="15.044007720461423"><ele>347.83333333333337</ele><time>2026-04-17T08:35:43.002Z</time></trkpt><trkpt lat="36.9500086773973" lon="15.04392007812307"><ele>347.0</ele><time>2026-04-17T08:35:44.002Z</time></trkpt><trkpt lat="36.950004113077966" lon="15.043837703780477"><ele>346.83333333333337</ele><time>2026-04-17T08:35:45.002Z</time></trkpt><trkpt lat="36.949996476496935" lon="15.043757000918648"><ele>346.6666666666667</ele><time>2026-04-17T08:35:46.002Z</time></trkpt><trkpt lat="36.94998879123224" lon="15.04367182608995"><ele>346.5</ele><time>2026-04-17T08:35:47.002Z</time></trkpt><trkpt lat="36.94999196659759" lon="15.043580873125443"><ele>346.3333333333333</ele><time>2026-04-17T08:35:48.002Z</time></trkpt><trkpt lat="36.949999943064924" lon="15.043461599780533"><ele>346.16666666666663</ele><time>2026-04-17T08:35:49.002Z</time></trkpt><trkpt lat="36.95000040071677" lon="15.04332464314125"><ele>346.0</ele><time>2026-04-17T08:35:50.002Z</time></trkpt><trkpt lat="36.95001047173111" lon="15.04317907282663"><ele>346.0</ele><time>2026-04-17T08:35:51.002Z</time></trkpt><trkpt lat="36.95002385323862" lon="15.043019757371171"><ele>346.0</ele><time>2026-04-17T08:35:52.002Z</time></trkpt><trkpt lat="36.950037975892464" lon="15.042853563151876"><ele>346.0</ele><time>2026-04-17T08:35:53.002Z</time></trkpt><trkpt lat="36.95004842581652" lon="15.042681432781043"><ele>346.0</ele><time>2026-04-17T08:35:54.002Z</time></trkpt><trkpt lat="36.950061172504824" lon="15.042511189413002"><ele>347.25</ele><time>2026-04-17T08:35:55.002Z</time></trkpt><trkpt lat="36.950074380942546" lon="15.04236107832419"><ele>348.5</ele><time>2026-04-17T08:35:56.002Z</time></trkpt><trkpt lat="36.95008377469173" lon="15.042220987327578"><ele>349.75</ele><time>2026-04-17T08:35:57.002Z</time></trkpt><trkpt lat="36.95009511186452" lon="15.042075966931733"><ele>351.0</ele><time>2026-04-17T08:35:58.002Z</time></trkpt><trkpt lat="36.950106546127735" lon="15.041928890862387"><ele>351.0</ele><time>2026-04-17T08:35:59.002Z</time></trkpt><trkpt lat="36.95011333717358" lon="15.041780844482126"><ele>351.0</ele><time>2026-04-17T08:36:00.002Z</time></trkpt><trkpt lat="36.95011420230496" lon="15.041631083601603"><ele>351.0</ele><time>2026-04-17T08:36:01.002Z</time></trkpt><trkpt lat="36.95010985475562" lon="15.041477171219109"><ele>351.0</ele><time>2026-04-17T08:36:02.002Z</time></trkpt><trkpt lat="36.95010334192024" lon="15.04132221561375"><ele>351.25</ele><time>2026-04-17T08:36:03.002Z</time></trkpt><trkpt lat="36.950095401838375" lon="15.041163089088888"><ele>351.5</ele><time>2026-04-17T08:36:04.002Z</time></trkpt><trkpt lat="36.950090191600516" lon="15.041016232116943"><ele>351.75</ele><time>2026-04-17T08:36:05.002Z</time></trkpt><trkpt lat="36.95008490533432" lon="15.040879213438751"><ele>352.0</ele><time>2026-04-17T08:36:06.002Z</time></trkpt><trkpt lat="36.95006941253046" lon="15.040753883277135"><ele>351.25</ele><time>2026-04-17T08:36:07.002Z</time></trkpt><trkpt lat="36.95003670964315" lon="15.040626365639406"><ele>350.5</ele><time>2026-04-17T08:36:08.002Z</time></trkpt><trkpt lat="36.949990109637035" lon="15.040500452037216"><ele>349.75</ele><time>2026-04-17T08:36:09.002Z</time></trkpt><trkpt lat="36.949936107414956" lon="15.040371078998128"><ele>349.0</ele><time>2026-04-17T08:36:10.002Z</time></trkpt><trkpt lat="36.949882142422425" lon="15.040238275830427"><ele>349.0</ele><time>2026-04-17T08:36:11.002Z</time></trkpt><trkpt lat="36.94982837209768" lon="15.040105713321136"><ele>349.0</ele><time>2026-04-17T08:36:12.002Z</time></trkpt><trkpt lat="36.94977429258732" lon="15.039980472200602"><ele>349.0</ele><time>2026-04-17T08:36:13.002Z</time></trkpt><trkpt lat="36.94971607922406" lon="15.039859847234187"><ele>349.0</ele><time>2026-04-17T08:36:14.002Z</time></trkpt><trkpt lat="36.94966296024517" lon="15.039747324014627"><ele>348.5</ele><time>2026-04-17T08:36:15.002Z</time></trkpt><trkpt lat="36.9496172630329" lon="15.039653606394609"><ele>348.0</ele><time>2026-04-17T08:36:16.002Z</time></trkpt><trkpt lat="36.949583717568956" lon="15.039560535249084"><ele>347.5</ele><time>2026-04-17T08:36:17.002Z</time></trkpt><trkpt lat="36.94958565274432" lon="15.03946811370525"><ele>347.0</ele><time>2026-04-17T08:36:18.002Z</time></trkpt><trkpt lat="36.9496206229313" lon="15.039363199552854"><ele>346.5</ele><time>2026-04-17T08:36:19.002Z</time></trkpt><trkpt lat="36.94964673866585" lon="15.039251989464539"><ele>346.0</ele><time>2026-04-17T08:36:20.001Z</time></trkpt><trkpt lat="36.949654009032756" lon="15.039150680534046"><ele>346.4</ele><time>2026-04-17T08:36:21.001Z</time></trkpt><trkpt lat="36.94965195671275" lon="15.039059278790955"><ele>346.8</ele><time>2026-04-17T08:36:22.001Z</time></trkpt><trkpt lat="36.9496488371434" lon="15.038949038311108"><ele>347.2</ele><time>2026-04-17T08:36:24.001Z</time></trkpt><trkpt lat="36.94962127382383" lon="15.038871210221275"><ele>347.59999999999997</ele><time>2026-04-17T08:36:36.001Z</time></trkpt><trkpt lat="36.94948613443858" lon="15.03888043704958"><ele>348.0</ele><time>2026-04-17T08:37:00.002Z</time></trkpt><trkpt lat="36.949401248277326" lon="15.038898461852904"><ele>348.0</ele><time>2026-04-17T08:37:01.002Z</time></trkpt><trkpt lat="36.9493133742946" lon="15.038900384568354"><ele>348.0</ele><time>2026-04-17T08:37:02.002Z</time></trkpt><trkpt lat="36.9492189495153" lon="15.03886570501388"><ele>348.0</ele><time>2026-04-17T08:37:03.002Z</time></trkpt><trkpt lat="36.949109238265486" lon="15.0388431809991"><ele>348.0</ele><time>2026-04-17T08:37:04.002Z</time></trkpt><trkpt lat="36.949018114392885" lon="15.038802916168297"><ele>348.0</ele><time>2026-04-17T08:37:05.002Z</time></trkpt><trkpt lat="36.94892169693852" lon="15.038768840215276"><ele>347.0</ele><time>2026-04-17T08:37:06.002Z</time></trkpt><trkpt lat="36.94880680862668" lon="15.038740392528466"><ele>346.0</ele><time>2026-04-17T08:37:07.002Z</time></trkpt><trkpt lat="36.94868389689015" lon="15.038713085670969"><ele>345.0</ele><time>2026-04-17T08:37:08.002Z</time></trkpt><trkpt lat="36.94856535393257" lon="15.0386753113039"><ele>344.0</ele><time>2026-04-17T08:37:09.002Z</time></trkpt><trkpt lat="36.94844318534581" lon="15.038659620507557"><ele>344.0</ele><time>2026-04-17T08:37:10.002Z</time></trkpt><trkpt lat="36.948332911261225" lon="15.038632217015925"><ele>344.0</ele><time>2026-04-17T08:37:11.002Z</time></trkpt><trkpt lat="36.948231887236545" lon="15.038627200134934"><ele>344.0</ele><time>2026-04-17T08:37:12.002Z</time></trkpt><trkpt lat="36.94812215329169" lon="15.0386362032184"><ele>344.0</ele><time>2026-04-17T08:37:13.002Z</time></trkpt><trkpt lat="36.94800694180191" lon="15.038678899062035"><ele>344.0</ele><time>2026-04-17T08:37:14.002Z</time></trkpt><trkpt lat="36.947890492441104" lon="15.038732732916285"><ele>344.0</ele><time>2026-04-17T08:37:15.002Z</time></trkpt><trkpt lat="36.94776879069377" lon="15.038790383475412"><ele>344.0</ele><time>2026-04-17T08:37:16.002Z</time></trkpt><trkpt lat="36.947636491663395" lon="15.038849639983127"><ele>344.0</ele><time>2026-04-17T08:37:17.002Z</time></trkpt><trkpt lat="36.94752530225757" lon="15.038900023377789"><ele>344.0</ele><time>2026-04-17T08:37:18.002Z</time></trkpt><trkpt lat="36.94743652999424" lon="15.038953909098044"><ele>344.5</ele><time>2026-04-17T08:37:19.002Z</time></trkpt><trkpt lat="36.94734606886792" lon="15.039033120626542"><ele>345.0</ele><time>2026-04-17T08:37:20.002Z</time></trkpt><trkpt lat="36.94726198900771" lon="15.039153973384714"><ele>345.5</ele><time>2026-04-17T08:37:21.002Z</time></trkpt><trkpt lat="36.94715436931049" lon="15.039220021819029"><ele>346.0</ele><time>2026-04-17T08:37:22.002Z</time></trkpt><trkpt lat="36.947005759445275" lon="15.03929702406705"><ele>347.3333333333333</ele><time>2026-04-17T08:37:23.002Z</time></trkpt><trkpt lat="36.94685522954992" lon="15.039379417629169"><ele>348.6666666666667</ele><time>2026-04-17T08:37:24.002Z</time></trkpt><trkpt lat="36.94670471712575" lon="15.039459637118675"><ele>350.0</ele><time>2026-04-17T08:37:25.002Z</time></trkpt><trkpt lat="36.94658050534771" lon="15.039517537852507"><ele>350.0</ele><time>2026-04-17T08:37:26.002Z</time></trkpt><trkpt lat="36.946450985079956" lon="15.039592266959838"><ele>350.0</ele><time>2026-04-17T08:37:27.002Z</time></trkpt><trkpt lat="36.94632217848931" lon="15.039678388492385"><ele>350.0</ele><time>2026-04-17T08:37:28.002Z</time></trkpt><trkpt lat="36.946196873104185" lon="15.039756131652162"><ele>350.0</ele><time>2026-04-17T08:37:29.002Z</time></trkpt><trkpt lat="36.946067606382954" lon="15.039835209146776"><ele>350.0</ele><time>2026-04-17T08:37:30.002Z</time></trkpt><trkpt lat="36.94592811958889" lon="15.039936080894194"><ele>350.0</ele><time>2026-04-17T08:37:31.002Z</time></trkpt><trkpt lat="36.945787293455716" lon="15.040059895906975"><ele>350.0</ele><time>2026-04-17T08:37:32.002Z</time></trkpt><trkpt lat="36.94564720059912" lon="15.040193733864863"><ele>350.33333333333337</ele><time>2026-04-17T08:37:33.002Z</time></trkpt><trkpt lat="36.945512886029086" lon="15.040320358462676"><ele>350.6666666666667</ele><time>2026-04-17T08:37:34.002Z</time></trkpt><trkpt lat="36.945380689391776" lon="15.040427444000096"><ele>351.0</ele><time>2026-04-17T08:37:35.002Z</time></trkpt><trkpt lat="36.9452537653133" lon="15.040519154946672"><ele>351.0</ele><time>2026-04-17T08:37:36.002Z</time></trkpt><trkpt lat="36.94512530345875" lon="15.0406295397094"><ele>351.0</ele><time>2026-04-17T08:37:37.002Z</time></trkpt><trkpt lat="36.944999589417144" lon="15.040756544352915"><ele>351.0</ele><time>2026-04-17T08:37:38.002Z</time></trkpt><trkpt lat="36.944874347985156" lon="15.040890989061515"><ele>350.3333333333333</ele><time>2026-04-17T08:37:39.002Z</time></trkpt><trkpt lat="36.94474982261931" lon="15.04103420394275"><ele>349.66666666666663</ele><time>2026-04-17T08:37:40.002Z</time></trkpt><trkpt lat="36.94463368800748" lon="15.04116907595192"><ele>349.0</ele><time>2026-04-17T08:37:41.002Z</time></trkpt><trkpt lat="36.944524399197945" lon="15.04129682549949"><ele>349.0</ele><time>2026-04-17T08:37:42.002Z</time></trkpt><trkpt lat="36.94441921020404" lon="15.041428469297994"><ele>349.0</ele><time>2026-04-17T08:37:43.002Z</time></trkpt><trkpt lat="36.94431552417581" lon="15.041568495049813"><ele>349.0</ele><time>2026-04-17T08:37:44.002Z</time></trkpt><trkpt lat="36.94420442567216" lon="15.041696916078493"><ele>347.3333333333333</ele><time>2026-04-17T08:37:45.002Z</time></trkpt><trkpt lat="36.94407826399575" lon="15.041814051752485"><ele>345.6666666666667</ele><time>2026-04-17T08:37:46.002Z</time></trkpt><trkpt lat="36.943928516157456" lon="15.04192308681541"><ele>344.0</ele><time>2026-04-17T08:37:47.002Z</time></trkpt><trkpt lat="36.943788095393934" lon="15.042019054638018"><ele>344.0</ele><time>2026-04-17T08:37:48.002Z</time></trkpt><trkpt lat="36.943656230133776" lon="15.042107740073936"><ele>344.0</ele><time>2026-04-17T08:37:49.002Z</time></trkpt><trkpt lat="36.943537984840845" lon="15.042187265396759"><ele>344.0</ele><time>2026-04-17T08:37:50.002Z</time></trkpt><trkpt lat="36.94342849401568" lon="15.042260902996764"><ele>344.0</ele><time>2026-04-17T08:37:51.002Z</time></trkpt><trkpt lat="36.94333102759471" lon="15.042324649945584"><ele>343.25</ele><time>2026-04-17T08:37:52.002Z</time></trkpt><trkpt lat="36.943233602483566" lon="15.042387983412302"><ele>342.5</ele><time>2026-04-17T08:37:53.002Z</time></trkpt><trkpt lat="36.9431211574636" lon="15.042471725434357"><ele>341.75</ele><time>2026-04-17T08:37:54.002Z</time></trkpt><trkpt lat="36.9429940023098" lon="15.042590266248876"><ele>341.0</ele><time>2026-04-17T08:37:55.002Z</time></trkpt><trkpt lat="36.9428877891617" lon="15.042699579644818"><ele>341.0</ele><time>2026-04-17T08:37:56.002Z</time></trkpt><trkpt lat="36.942794893847854" lon="15.042801634764794"><ele>341.0</ele><time>2026-04-17T08:37:57.002Z</time></trkpt><trkpt lat="36.942710798894176" lon="15.04291089266081"><ele>341.0</ele><time>2026-04-17T08:37:58.002Z</time></trkpt><trkpt lat="36.94263327696773" lon="15.043060368185214"><ele>341.0</ele><time>2026-04-17T08:37:59.002Z</time></trkpt><trkpt lat="36.94255786280654" lon="15.043211934027932"><ele>341.0</ele><time>2026-04-17T08:38:00.002Z</time></trkpt><trkpt lat="36.94249427383845" lon="15.043354562754457"><ele>341.0</ele><time>2026-04-17T08:38:01.002Z</time></trkpt><trkpt lat="36.94243744728312" lon="15.043499914053225"><ele>341.0</ele><time>2026-04-17T08:38:02.002Z</time></trkpt><trkpt lat="36.9423819032805" lon="15.043655390738692"><ele>341.0</ele><time>2026-04-17T08:38:03.002Z</time></trkpt><trkpt lat="36.94233001320607" lon="15.043809808099489"><ele>341.0</ele><time>2026-04-17T08:38:04.002Z</time></trkpt><trkpt lat="36.942267253429655" lon="15.043958637694985"><ele>341.0</ele><time>2026-04-17T08:38:05.002Z</time></trkpt><trkpt lat="36.94218806364884" lon="15.044105058992432"><ele>341.0</ele><time>2026-04-17T08:38:06.002Z</time></trkpt><trkpt lat="36.942102874016086" lon="15.044240460451672"><ele>341.0</ele><time>2026-04-17T08:38:07.002Z</time></trkpt><trkpt lat="36.942025352240236" lon="15.044362635365015"><ele>339.75</ele><time>2026-04-17T08:38:08.002Z</time></trkpt><trkpt lat="36.94194421851089" lon="15.044486276898516"><ele>338.5</ele><time>2026-04-17T08:38:09.002Z</time></trkpt><trkpt lat="36.94186520670822" lon="15.044606469602675"><ele>337.25</ele><time>2026-04-17T08:38:10.002Z</time></trkpt><trkpt lat="36.94178954915159" lon="15.04471318876813"><ele>336.0</ele><time>2026-04-17T08:38:11.002Z</time></trkpt><trkpt lat="36.94170987607149" lon="15.044820330254598"><ele>336.5</ele><time>2026-04-17T08:38:12.002Z</time></trkpt><trkpt lat="36.941624743178565" lon="15.044928321500732"><ele>337.0</ele><time>2026-04-17T08:38:13.002Z</time></trkpt><trkpt lat="36.941530109013456" lon="15.045028661519638"><ele>337.5</ele><time>2026-04-17T08:38:14.002Z</time></trkpt><trkpt lat="36.94142489922506" lon="15.04512017040454"><ele>338.0</ele><time>2026-04-17T08:38:15.002Z</time></trkpt><trkpt lat="36.94131642413725" lon="15.045208227027727"><ele>338.0</ele><time>2026-04-17T08:38:16.002Z</time></trkpt><trkpt lat="36.94120651166246" lon="15.04529128817255"><ele>338.0</ele><time>2026-04-17T08:38:17.002Z</time></trkpt><trkpt lat="36.941094492695484" lon="15.045373160920136"><ele>338.0</ele><time>2026-04-17T08:38:18.002Z</time></trkpt><trkpt lat="36.94098764043867" lon="15.045451250351087"><ele>338.0</ele><time>2026-04-17T08:38:19.002Z</time></trkpt><trkpt lat="36.940860703690916" lon="15.045505413470607"><ele>340.6666666666667</ele><time>2026-04-17T08:38:20.002Z</time></trkpt><trkpt lat="36.94071311718278" lon="15.0455594148303"><ele>343.3333333333333</ele><time>2026-04-17T08:38:21.002Z</time></trkpt><trkpt lat="36.94056416558258" lon="15.045606926774827"><ele>346.0</ele><time>2026-04-17T08:38:22.002Z</time></trkpt><trkpt lat="36.94041211873524" lon="15.045657117079347"><ele>346.0</ele><time>2026-04-17T08:38:23.002Z</time></trkpt><trkpt lat="36.94025823021588" lon="15.04572446421699"><ele>346.0</ele><time>2026-04-17T08:38:24.002Z</time></trkpt><trkpt lat="36.940103835062295" lon="15.045799477954295"><ele>346.0</ele><time>2026-04-17T08:38:25.002Z</time></trkpt><trkpt lat="36.93995419608823" lon="15.045877068486426"><ele>344.5</ele><time>2026-04-17T08:38:26.002Z</time></trkpt><trkpt lat="36.93982381383941" lon="15.0459430066181"><ele>343.0</ele><time>2026-04-17T08:38:27.001Z</time></trkpt><trkpt lat="36.93969939696436" lon="15.046002902071345"><ele>341.5</ele><time>2026-04-17T08:38:28.001Z</time></trkpt><trkpt lat="36.93957185545304" lon="15.046062372737717"><ele>340.0</ele><time>2026-04-17T08:38:29.001Z</time></trkpt><trkpt lat="36.9394419915563" lon="15.046123454585196"><ele>340.0</ele><time>2026-04-17T08:38:30.001Z</time></trkpt><trkpt lat="36.93931845732359" lon="15.046185891375346"><ele>340.0</ele><time>2026-04-17T08:38:31.001Z</time></trkpt><trkpt lat="36.93919122874797" lon="15.046227093520496"><ele>340.0</ele><time>2026-04-17T08:38:32.001Z</time></trkpt><trkpt lat="36.93906270732484" lon="15.046243705574929"><ele>340.0</ele><time>2026-04-17T08:38:33.001Z</time></trkpt><trkpt lat="36.93894239104144" lon="15.046257636928074"><ele>341.25</ele><time>2026-04-17T08:38:34.001Z</time></trkpt><trkpt lat="36.938824999053125" lon="15.046277091782978"><ele>342.5</ele><time>2026-04-17T08:38:35.001Z</time></trkpt><trkpt lat="36.93870197813341" lon="15.046304034065388"><ele>343.75</ele><time>2026-04-17T08:38:36.001Z</time></trkpt><trkpt lat="36.938576637911375" lon="15.04633379066245"><ele>345.0</ele><time>2026-04-17T08:38:37.001Z</time></trkpt><trkpt lat="36.938461812691884" lon="15.046357965667005"><ele>344.6</ele><time>2026-04-17T08:38:38.001Z</time></trkpt><trkpt lat="36.93835290058415" lon="15.046379815053607"><ele>344.2</ele><time>2026-04-17T08:38:39.001Z</time></trkpt><trkpt lat="36.93824975765881" lon="15.046396398619986"><ele>343.79999999999995</ele><time>2026-04-17T08:38:40.001Z</time></trkpt><trkpt lat="36.9381785048752" lon="15.04640703271642"><ele>343.4</ele><time>2026-04-17T08:38:41.001Z</time></trkpt><trkpt lat="36.93808326240723" lon="15.046413230505841"><ele>343.0</ele><time>2026-04-17T08:38:43.001Z</time></trkpt><trkpt lat="36.93801464158465" lon="15.046405105169406"><ele>342.4</ele><time>2026-04-17T08:38:46.001Z</time></trkpt><trkpt lat="36.937933998129076" lon="15.046661645951342"><ele>341.79999999999995</ele><time>2026-04-17T08:38:57.001Z</time></trkpt><trkpt lat="36.937934097165545" lon="15.046747843606854"><ele>341.2</ele><time>2026-04-17T08:38:58.001Z</time></trkpt><trkpt lat="36.93793283071869" lon="15.046828896285536"><ele>340.6</ele><time>2026-04-17T08:38:59.001Z</time></trkpt><trkpt lat="36.93793038250786" lon="15.046913293315166"><ele>340.0</ele><time>2026-04-17T08:39:00.001Z</time></trkpt><trkpt lat="36.93792713125089" lon="15.046994758736707"><ele>340.0</ele><time>2026-04-17T08:39:01.001Z</time></trkpt><trkpt lat="36.93791945352045" lon="15.047100567639406"><ele>340.0</ele><time>2026-04-17T08:39:03.001Z</time></trkpt><trkpt lat="36.937912463854815" lon="15.047197475179093"><ele>340.0</ele><time>2026-04-17T08:39:13.001Z</time></trkpt><trkpt lat="36.93790501152295" lon="15.047322136052944"><ele>340.0</ele><time>2026-04-17T08:39:17.001Z</time></trkpt><trkpt lat="36.93791459321781" lon="15.047448011732914"><ele>340.0</ele><time>2026-04-17T08:39:19.001Z</time></trkpt><trkpt lat="36.937906202749" lon="15.047560574092337"><ele>338.6</ele><time>2026-04-17T08:39:21.001Z</time></trkpt><trkpt lat="36.93789334955698" lon="15.047692277166567"><ele>337.2</ele><time>2026-04-17T08:39:23.001Z</time></trkpt><trkpt lat="36.937871624616804" lon="15.047821617810946"><ele>335.79999999999995</ele><time>2026-04-17T08:39:25.001Z</time></trkpt><trkpt lat="36.937872667363116" lon="15.047950046162715"><ele>334.4</ele><time>2026-04-17T08:39:27.001Z</time></trkpt><trkpt lat="36.937862703955254" lon="15.048069098172085"><ele>333.0</ele><time>2026-04-17T08:39:30.002Z</time></trkpt><trkpt lat="36.93785001592568" lon="15.04818160160198"><ele>333.0</ele><time>2026-04-17T08:39:32.002Z</time></trkpt><trkpt lat="36.93783442648098" lon="15.048280588401902"><ele>333.0</ele><time>2026-04-17T08:39:34.002Z</time></trkpt><trkpt lat="36.9378049302555" lon="15.048370600150667"><ele>333.0</ele><time>2026-04-17T08:39:36.002Z</time></trkpt><trkpt lat="36.93779056429805" lon="15.04846430455031"><ele>333.0</ele><time>2026-04-17T08:39:38.002Z</time></trkpt><trkpt lat="36.937758359502276" lon="15.048549986496178"><ele>333.0</ele><time>2026-04-17T08:39:40.002Z</time></trkpt><trkpt lat="36.937724690013006" lon="15.048640902211169"><ele>333.0</ele><time>2026-04-17T08:39:42.002Z</time></trkpt><trkpt lat="36.93770100025962" lon="15.048733151338817"><ele>331.2</ele><time>2026-04-17T08:39:44.002Z</time></trkpt><trkpt lat="36.937669208464385" lon="15.048828701545892"><ele>329.4</ele><time>2026-04-17T08:39:46.002Z</time></trkpt><trkpt lat="36.93763899037097" lon="15.048940169406542"><ele>327.59999999999997</ele><time>2026-04-17T08:39:48.002Z</time></trkpt><trkpt lat="36.93760596419453" lon="15.049075974190686"><ele>325.79999999999995</ele><time>2026-04-17T08:39:50.002Z</time></trkpt><trkpt lat="36.93759956429079" lon="15.049161408301762"><ele>324.0</ele><time>2026-04-17T08:39:51.002Z</time></trkpt><trkpt lat="36.937600408650894" lon="15.049312095569041"><ele>321.8</ele><time>2026-04-17T08:39:53.002Z</time></trkpt><trkpt lat="36.937599176867074" lon="15.049429081672837"><ele>319.59999999999997</ele><time>2026-04-17T08:39:55.002Z</time></trkpt><trkpt lat="36.93760372968699" lon="15.049528312457733"><ele>317.4</ele><time>2026-04-17T08:39:57.002Z</time></trkpt><trkpt lat="36.93761200691779" lon="15.0496752680945"><ele>315.2</ele><time>2026-04-17T08:39:59.002Z</time></trkpt><trkpt lat="36.93762493656192" lon="15.04979228460133"><ele>313.0</ele><time>2026-04-17T08:40:01.002Z</time></trkpt><trkpt lat="36.937656296351435" lon="15.049912912325404"><ele>309.8333333333333</ele><time>2026-04-17T08:40:03.002Z</time></trkpt><trkpt lat="36.93770520356604" lon="15.050016467421457"><ele>306.66666666666663</ele><time>2026-04-17T08:40:05.002Z</time></trkpt><trkpt lat="36.9377280052363" lon="15.050110211856705"><ele>303.5</ele><time>2026-04-17T08:40:07.002Z</time></trkpt><trkpt lat="36.93772850784738" lon="15.050210530509217"><ele>300.3333333333333</ele><time>2026-04-17T08:40:09.002Z</time></trkpt><trkpt lat="36.93771420234185" lon="15.050292457576173"><ele>297.1666666666667</ele><time>2026-04-17T08:40:11.002Z</time></trkpt><trkpt lat="36.93771265109618" lon="15.050385862356103"><ele>294.0</ele><time>2026-04-17T08:40:15.002Z</time></trkpt><trkpt lat="36.93773713701164" lon="15.050492204558854"><ele>294.0</ele><time>2026-04-17T08:40:17.002Z</time></trkpt><trkpt lat="36.93769036681863" lon="15.050581474645018"><ele>294.0</ele><time>2026-04-17T08:40:19.002Z</time></trkpt><trkpt lat="36.93760935581303" lon="15.050611074412892"><ele>294.0</ele><time>2026-04-17T08:40:21.002Z</time></trkpt><trkpt lat="36.93758136097086" lon="15.050716169331032"><ele>294.0</ele><time>2026-04-17T08:40:24.001Z</time></trkpt><trkpt lat="36.93756247113303" lon="15.050830945161133"><ele>294.0</ele><time>2026-04-17T08:40:26.001Z</time></trkpt><trkpt lat="36.93751098864431" lon="15.050935368282422"><ele>296.0</ele><time>2026-04-17T08:40:28.001Z</time></trkpt><trkpt lat="36.93744914883599" lon="15.051045768384954"><ele>298.0</ele><time>2026-04-17T08:40:30.001Z</time></trkpt><trkpt lat="36.93737375314092" lon="15.051139628866032"><ele>300.0</ele><time>2026-04-17T08:40:32.001Z</time></trkpt><trkpt lat="36.9373087338295" lon="15.051266122492683"><ele>302.0</ele><time>2026-04-17T08:40:34.001Z</time></trkpt><trkpt lat="36.93726201045717" lon="15.051405496186677"><ele>302.0</ele><time>2026-04-17T08:40:36.001Z</time></trkpt><trkpt lat="36.93717344491272" lon="15.05150036360697"><ele>302.0</ele><time>2026-04-17T08:40:38.001Z</time></trkpt><trkpt lat="36.93710410879298" lon="15.05163597035596"><ele>302.0</ele><time>2026-04-17T08:40:40.001Z</time></trkpt><trkpt lat="36.93707684617" lon="15.051721232230175"><ele>302.0</ele><time>2026-04-17T08:40:41.001Z</time></trkpt><trkpt lat="36.937047088741934" lon="15.051800675224671"><ele>302.0</ele><time>2026-04-17T08:40:42.001Z</time></trkpt><trkpt lat="36.93702761793722" lon="15.051954137220557"><ele>298.5</ele><time>2026-04-17T08:40:44.001Z</time></trkpt><trkpt lat="36.93701703540552" lon="15.052099454835792"><ele>295.0</ele><time>2026-04-17T08:40:46.001Z</time></trkpt><trkpt lat="36.93694986183385" lon="15.052222217462905"><ele>291.5</ele><time>2026-04-17T08:40:48.001Z</time></trkpt><trkpt lat="36.93689695026236" lon="15.052345453096368"><ele>288.0</ele><time>2026-04-17T08:40:50.001Z</time></trkpt><trkpt lat="36.936842481569094" lon="15.052485542126401"><ele>289.5</ele><time>2026-04-17T08:40:52.001Z</time></trkpt><trkpt lat="36.9368267282126" lon="15.052628116263831"><ele>291.0</ele><time>2026-04-17T08:40:54.001Z</time></trkpt><trkpt lat="36.93680359421188" lon="15.052752322611619"><ele>292.5</ele><time>2026-04-17T08:40:56.001Z</time></trkpt><trkpt lat="36.93679285683441" lon="15.052843514472263"><ele>294.0</ele><time>2026-04-17T08:40:58.001Z</time></trkpt><trkpt lat="36.93677056827507" lon="15.052941649331757"><ele>295.5</ele><time>2026-04-17T08:41:00.001Z</time></trkpt><trkpt lat="36.93672359372589" lon="15.05300786104141"><ele>297.0</ele><time>2026-04-17T08:41:02.001Z</time></trkpt><trkpt lat="36.936631239680146" lon="15.053063554012269"><ele>297.0</ele><time>2026-04-17T08:41:04.001Z</time></trkpt><trkpt lat="36.936510972485635" lon="15.053066042309082"><ele>297.0</ele><time>2026-04-17T08:41:06.001Z</time></trkpt><trkpt lat="36.93640413402065" lon="15.0530640150727"><ele>297.0</ele><time>2026-04-17T08:41:08.001Z</time></trkpt><trkpt lat="36.93630301298409" lon="15.053030655922356"><ele>297.0</ele><time>2026-04-17T08:41:10.001Z</time></trkpt><trkpt lat="36.93624207647141" lon="15.052989995318592"><ele>297.0</ele><time>2026-04-17T08:41:11.001Z</time></trkpt><trkpt lat="36.93618442881878" lon="15.052955615115463"><ele>297.0</ele><time>2026-04-17T08:41:12.001Z</time></trkpt><trkpt lat="36.936087066148595" lon="15.052959238210446"><ele>297.0</ele><time>2026-04-17T08:41:14.001Z</time></trkpt><trkpt lat="36.93599981591892" lon="15.052970442881625"><ele>297.0</ele><time>2026-04-17T08:41:16.001Z</time></trkpt><trkpt lat="36.93596927184166" lon="15.053042241816263"><ele>297.0</ele><time>2026-04-17T08:41:22.001Z</time></trkpt><trkpt lat="36.93608230031834" lon="15.053100111110215"><ele>297.0</ele><time>2026-04-17T08:41:25.001Z</time></trkpt><trkpt lat="36.93620243662049" lon="15.053148525246986"><ele>297.0</ele><time>2026-04-17T08:41:26.001Z</time></trkpt><trkpt lat="36.93628798575372" lon="15.053184413278094"><ele>297.0</ele><time>2026-04-17T08:41:27.001Z</time></trkpt><trkpt lat="36.93635827546437" lon="15.053201740564674"><ele>297.0</ele><time>2026-04-17T08:41:28.001Z</time></trkpt><trkpt lat="36.9363080460243" lon="15.053303589939055"><ele>297.0</ele><time>2026-04-17T08:41:34.001Z</time></trkpt><trkpt lat="36.936202316116805" lon="15.053244721914469"><ele>297.0</ele><time>2026-04-17T08:41:36.001Z</time></trkpt><trkpt lat="36.936107190256635" lon="15.05320157244987"><ele>297.0</ele><time>2026-04-17T08:41:38.001Z</time></trkpt><trkpt lat="36.93601257762099" lon="15.053175662111652"><ele>297.0</ele><time>2026-04-17T08:41:40.001Z</time></trkpt><trkpt lat="36.935957366647216" lon="15.053136727070692"><ele>297.0</ele><time>2026-04-17T08:41:42.001Z</time></trkpt><trkpt lat="36.935874640758314" lon="15.053074110789535"><ele>297.0</ele><time>2026-04-17T08:41:44.001Z</time></trkpt><trkpt lat="36.935765701455" lon="15.053052698577444"><ele>297.0</ele><time>2026-04-17T08:41:46.001Z</time></trkpt><trkpt lat="36.93565724870287" lon="15.053081614320075"><ele>297.57142857142856</ele><time>2026-04-17T08:41:48.001Z</time></trkpt><trkpt lat="36.93559252988772" lon="15.053081753742667"><ele>298.14285714285717</ele><time>2026-04-17T08:41:49.001Z</time></trkpt><trkpt lat="36.93552880849803" lon="15.05307712530276"><ele>298.7142857142857</ele><time>2026-04-17T08:41:50.001Z</time></trkpt><trkpt lat="36.935467880960516" lon="15.053117356142046"><ele>299.2857142857143</ele><time>2026-04-17T08:41:53.001Z</time></trkpt><trkpt lat="36.93544526001472" lon="15.053191909817556"><ele>299.8571428571429</ele><time>2026-04-17T08:41:56.001Z</time></trkpt><trkpt lat="36.93548151900368" lon="15.053283097246647"><ele>300.42857142857144</ele><time>2026-04-17T08:42:03.001Z</time></trkpt><trkpt lat="36.93553043638957" lon="15.05334628647785"><ele>301.0</ele><time>2026-04-17T08:42:05.001Z</time></trkpt><trkpt lat="36.93559908570917" lon="15.053389943077397"><ele>296.8333333333333</ele><time>2026-04-17T08:42:07.001Z</time></trkpt><trkpt lat="36.93570225496108" lon="15.053448204775185"><ele>292.66666666666663</ele><time>2026-04-17T08:42:09.001Z</time></trkpt><trkpt lat="36.935773230589646" lon="15.053490942167423"><ele>288.5</ele><time>2026-04-17T08:42:11.001Z</time></trkpt><trkpt lat="36.93585146534946" lon="15.053525657568446"><ele>284.3333333333333</ele><time>2026-04-17T08:42:13.001Z</time></trkpt><trkpt lat="36.935918229492465" lon="15.053554009329423"><ele>280.1666666666667</ele><time>2026-04-17T08:42:15.001Z</time></trkpt><trkpt lat="36.935985196014684" lon="15.053573107124263"><ele>276.0</ele><time>2026-04-17T08:42:17.001Z</time></trkpt><trkpt lat="36.93605179168845" lon="15.053617719239066"><ele>276.0</ele><time>2026-04-17T08:42:20.001Z</time></trkpt><trkpt lat="36.93612103616711" lon="15.053671716653966"><ele>276.0</ele><time>2026-04-17T08:42:23.001Z</time></trkpt><trkpt lat="36.93613916909258" lon="15.053755088319951"><ele>276.0</ele><time>2026-04-17T08:42:26.001Z</time></trkpt><trkpt lat="36.93609409289447" lon="15.053826281021582"><ele>276.0</ele><time>2026-04-17T08:42:29.001Z</time></trkpt><trkpt lat="36.93616658287549" lon="15.053877449324585"><ele>276.0</ele><time>2026-04-17T08:42:46.001Z</time></trkpt><trkpt lat="36.936169255679985" lon="15.053959864731063"><ele>276.0</ele><time>2026-04-17T08:42:49.001Z</time></trkpt><trkpt lat="36.93608638179617" lon="15.053958817028779"><ele>276.0</ele><time>2026-04-17T08:42:51.001Z</time></trkpt><trkpt lat="36.9360275451006" lon="15.053856256021962"><ele>276.0</ele><time>2026-04-17T08:42:53.001Z</time></trkpt><trkpt lat="36.93601004414874" lon="15.053728609760446"><ele>276.0</ele><time>2026-04-17T08:42:55.001Z</time></trkpt><trkpt lat="36.93593690957184" lon="15.053654332444543"><ele>276.0</ele><time>2026-04-17T08:43:04.001Z</time></trkpt><trkpt lat="36.935873816864394" lon="15.053645784844512"><ele>276.0</ele><time>2026-04-17T08:43:45.001Z</time></trkpt><trkpt lat="36.93580865922989" lon="15.053629670007448"><ele>276.0</ele><time>2026-04-17T08:43:55.001Z</time></trkpt><trkpt lat="36.93574646410378" lon="15.05364435785273"><ele>275.57142857142856</ele><time>2026-04-17T08:44:04.001Z</time></trkpt><trkpt lat="36.935679781467826" lon="15.053644752984091"><ele>275.14285714285717</ele><time>2026-04-17T08:44:09.001Z</time></trkpt><trkpt lat="36.93562435381547" lon="15.053692857163247"><ele>274.7142857142857</ele><time>2026-04-17T08:44:18.001Z</time></trkpt><trkpt lat="36.935554862198906" lon="15.053664682434267"><ele>274.2857142857143</ele><time>2026-04-17T08:44:56Z</time></trkpt><trkpt lat="36.93562016458203" lon="15.05363115555992"><ele>273.8571428571429</ele><time>2026-04-17T08:46:44.999Z</time></trkpt><trkpt lat="36.93568556010505" lon="15.05360404229008"><ele>273.42857142857144</ele><time>2026-04-17T08:46:53.999Z</time></trkpt><trkpt lat="36.93573828814883" lon="15.053663186330988"><ele>273.0</ele><time>2026-04-17T08:47:09.999Z</time></trkpt><trkpt lat="36.93582469272917" lon="15.053729282214272"><ele>273.0</ele><time>2026-04-17T08:47:24.999Z</time></trkpt><trkpt lat="36.93586658689787" lon="15.053790753062618"><ele>273.0</ele><time>2026-04-17T08:47:41.999Z</time></trkpt><trkpt lat="36.935812569750915" lon="15.053745323244032"><ele>273.0</ele><time>2026-04-17T08:51:21.999Z</time></trkpt><trkpt lat="36.93573998624732" lon="15.053720605028998"><ele>273.0</ele><time>2026-04-17T08:51:31.999Z</time></trkpt><trkpt lat="36.93573852440722" lon="15.053638294515261"><ele>273.0</ele><time>2026-04-17T08:51:52.999Z</time></trkpt><trkpt lat="36.93580151102469" lon="15.0535994863662"><ele>273.0</ele><time>2026-04-17T08:52:06Z</time></trkpt><trkpt lat="36.935860799555094" lon="15.053632118565556"><ele>273.0</ele><time>2026-04-17T08:52:19Z</time></trkpt><trkpt lat="36.93592707565219" lon="15.053657654087084"><ele>273.0</ele><time>2026-04-17T08:52:31Z</time></trkpt><trkpt lat="36.93588654655498" lon="15.053549789131022"><ele>273.0</ele><time>2026-04-17T09:00:14.001Z</time></trkpt><trkpt lat="36.93585987331323" lon="15.05346954671889"><ele>273.0</ele><time>2026-04-17T09:00:16.001Z</time></trkpt><trkpt lat="36.93577090228402" lon="15.053430191813776"><ele>273.0</ele><time>2026-04-17T09:00:19.001Z</time></trkpt><trkpt lat="36.935658471269534" lon="15.053379193124007"><ele>273.0</ele><time>2026-04-17T09:00:21.001Z</time></trkpt><trkpt lat="36.9355733433128" lon="15.053321573939442"><ele>277.6666666666667</ele><time>2026-04-17T09:00:23.001Z</time></trkpt><trkpt lat="36.93552250981549" lon="15.053259975085817"><ele>282.3333333333333</ele><time>2026-04-17T09:00:25.001Z</time></trkpt><trkpt lat="36.93547926372229" lon="15.053163202442162"><ele>287.0</ele><time>2026-04-17T09:00:27.001Z</time></trkpt><trkpt lat="36.93550462000256" lon="15.053070438912915"><ele>291.66666666666663</ele><time>2026-04-17T09:00:30.001Z</time></trkpt><trkpt lat="36.93559548678838" lon="15.053049260884645"><ele>296.3333333333333</ele><time>2026-04-17T09:00:32.001Z</time></trkpt><trkpt lat="36.935662476991816" lon="15.053068326217113"><ele>301.0</ele><time>2026-04-17T09:00:33.001Z</time></trkpt><trkpt lat="36.935728078785296" lon="15.053070030544019"><ele>301.0</ele><time>2026-04-17T09:00:34.001Z</time></trkpt><trkpt lat="36.935802426055595" lon="15.053069037685875"><ele>301.0</ele><time>2026-04-17T09:00:35.001Z</time></trkpt><trkpt lat="36.9359117956222" lon="15.053091538256911"><ele>301.0</ele><time>2026-04-17T09:00:37.001Z</time></trkpt><trkpt lat="36.935986600139294" lon="15.0531449458191"><ele>301.0</ele><time>2026-04-17T09:00:39.001Z</time></trkpt><trkpt lat="36.93606898978554" lon="15.053192900856294"><ele>301.0</ele><time>2026-04-17T09:00:41.001Z</time></trkpt><trkpt lat="36.936181109228066" lon="15.053214548778671"><ele>300.3333333333333</ele><time>2026-04-17T09:00:43.001Z</time></trkpt><trkpt lat="36.93624025634086" lon="15.053251123556178"><ele>299.66666666666663</ele><time>2026-04-17T09:00:44.001Z</time></trkpt><trkpt lat="36.936324098276614" lon="15.0532799336032"><ele>299.0</ele><time>2026-04-17T09:00:46.001Z</time></trkpt><trkpt lat="36.93640630525542" lon="15.053239032406088"><ele>298.3333333333333</ele><time>2026-04-17T09:00:49.001Z</time></trkpt><trkpt lat="36.936380257047794" lon="15.05316432305191"><ele>297.6666666666667</ele><time>2026-04-17T09:00:52.001Z</time></trkpt><trkpt lat="36.936285104929425" lon="15.053146741076269"><ele>297.0</ele><time>2026-04-17T09:00:54.001Z</time></trkpt><trkpt lat="36.93621036728214" lon="15.053115894705337"><ele>297.0</ele><time>2026-04-17T09:00:55.001Z</time></trkpt><trkpt lat="36.93612432469467" lon="15.053076179390507"><ele>297.0</ele><time>2026-04-17T09:00:56.001Z</time></trkpt><trkpt lat="36.93606271829895" lon="15.053046867742673"><ele>297.0</ele><time>2026-04-17T09:00:57.001Z</time></trkpt><trkpt lat="36.93598417670791" lon="15.053013069359126"><ele>297.0</ele><time>2026-04-17T09:00:59.001Z</time></trkpt><trkpt lat="36.93605202798128" lon="15.052932483496402"><ele>297.0</ele><time>2026-04-17T09:01:03.001Z</time></trkpt><trkpt lat="36.93615126655241" lon="15.052957893564745"><ele>297.0</ele><time>2026-04-17T09:01:05.001Z</time></trkpt><trkpt lat="36.93627176826232" lon="15.053007176304726"><ele>297.0</ele><time>2026-04-17T09:01:07.001Z</time></trkpt><trkpt lat="36.936382163741904" lon="15.053090388752809"><ele>297.0</ele><time>2026-04-17T09:01:09.001Z</time></trkpt><trkpt lat="36.93649771935826" lon="15.053092705145762"><ele>297.0</ele><time>2026-04-17T09:01:11.001Z</time></trkpt><trkpt lat="36.93656498257867" lon="15.053070519964724"><ele>297.0</ele><time>2026-04-17T09:01:12.001Z</time></trkpt><trkpt lat="36.93664065999447" lon="15.053053661970964"><ele>297.0</ele><time>2026-04-17T09:01:13.001Z</time></trkpt><trkpt lat="36.93671315658034" lon="15.05302709800994"><ele>292.8</ele><time>2026-04-17T09:01:14.001Z</time></trkpt><trkpt lat="36.93679127468684" lon="15.052941229628722"><ele>288.6</ele><time>2026-04-17T09:01:16.001Z</time></trkpt><trkpt lat="36.936816001702795" lon="15.052833116260812"><ele>284.40000000000003</ele><time>2026-04-17T09:01:18.001Z</time></trkpt><trkpt lat="36.936826037890256" lon="15.052737048431828"><ele>280.2</ele><time>2026-04-17T09:01:20.001Z</time></trkpt><trkpt lat="36.93683713672279" lon="15.052575563434536"><ele>276.0</ele><time>2026-04-17T09:01:23.001Z</time></trkpt><trkpt lat="36.93686258966969" lon="15.052472641128013"><ele>278.0</ele><time>2026-04-17T09:01:24.001Z</time></trkpt><trkpt lat="36.9368897543086" lon="15.052367700429233"><ele>280.0</ele><time>2026-04-17T09:01:25.001Z</time></trkpt><trkpt lat="36.93691633229214" lon="15.052280151259835"><ele>282.0</ele><time>2026-04-17T09:01:26.001Z</time></trkpt><trkpt lat="36.93696506772947" lon="15.052206120567952"><ele>284.0</ele><time>2026-04-17T09:01:27.001Z</time></trkpt><trkpt lat="36.93700906525235" lon="15.052075122212054"><ele>286.0</ele><time>2026-04-17T09:01:29.001Z</time></trkpt><trkpt lat="36.93703921596307" lon="15.051994026007906"><ele>288.0</ele><time>2026-04-17T09:01:30.001Z</time></trkpt><trkpt lat="36.93705095804486" lon="15.051899636939345"><ele>288.0</ele><time>2026-04-17T09:01:31.001Z</time></trkpt><trkpt lat="36.93705753803939" lon="15.051799900790105"><ele>288.0</ele><time>2026-04-17T09:01:32.001Z</time></trkpt><trkpt lat="36.93707718493244" lon="15.051710674636807"><ele>288.0</ele><time>2026-04-17T09:01:33.001Z</time></trkpt><trkpt lat="36.937107363307746" lon="15.051614617379947"><ele>288.0</ele><time>2026-04-17T09:01:34.001Z</time></trkpt><trkpt lat="36.93714440459174" lon="15.051523667601167"><ele>288.0</ele><time>2026-04-17T09:01:35.001Z</time></trkpt><trkpt lat="36.93719490378227" lon="15.051449297357605"><ele>288.0</ele><time>2026-04-17T09:01:36.001Z</time></trkpt><trkpt lat="36.937246378986245" lon="15.051395170887526"><ele>290.3333333333333</ele><time>2026-04-17T09:01:37.001Z</time></trkpt><trkpt lat="36.937321039296364" lon="15.0512717405372"><ele>292.6666666666667</ele><time>2026-04-17T09:01:39.001Z</time></trkpt><trkpt lat="36.93733521019742" lon="15.051191062191842"><ele>295.0</ele><time>2026-04-17T09:01:40.001Z</time></trkpt><trkpt lat="36.93736082458434" lon="15.051115612597794"><ele>297.33333333333337</ele><time>2026-04-17T09:01:41.001Z</time></trkpt><trkpt lat="36.93741349275469" lon="15.051044190754816"><ele>299.6666666666667</ele><time>2026-04-17T09:01:42.001Z</time></trkpt><trkpt lat="36.93745836726054" lon="15.05098563115326"><ele>302.0</ele><time>2026-04-17T09:01:43.001Z</time></trkpt><trkpt lat="36.93753196418097" lon="15.050862196178372"><ele>300.6666666666667</ele><time>2026-04-17T09:01:45.001Z</time></trkpt><trkpt lat="36.93755957312672" lon="15.050790717837286"><ele>299.33333333333337</ele><time>2026-04-17T09:01:46.001Z</time></trkpt><trkpt lat="36.93759900239963" lon="15.050665651103863"><ele>298.0</ele><time>2026-04-17T09:01:48.001Z</time></trkpt><trkpt lat="36.93762714722431" lon="15.050576562578096"><ele>296.6666666666667</ele><time>2026-04-17T09:01:50.001Z</time></trkpt><trkpt lat="36.93770203336654" lon="15.050523318364116"><ele>295.3333333333333</ele><time>2026-04-17T09:01:52.001Z</time></trkpt><trkpt lat="36.93773002944904" lon="15.05043455114729"><ele>294.0</ele><time>2026-04-17T09:01:54.001Z</time></trkpt><trkpt lat="36.93769983932946" lon="15.050351426165635"><ele>294.0</ele><time>2026-04-17T09:01:56.001Z</time></trkpt><trkpt lat="36.93769094564894" lon="15.050247117673353"><ele>294.0</ele><time>2026-04-17T09:01:58.001Z</time></trkpt><trkpt lat="36.93772040200859" lon="15.050163283913706"><ele>294.0</ele><time>2026-04-17T09:02:00.001Z</time></trkpt><trkpt lat="36.937706676101776" lon="15.050070223876755"><ele>294.0</ele><time>2026-04-17T09:02:02.001Z</time></trkpt><trkpt lat="36.937682969790615" lon="15.049955553334023"><ele>294.0</ele><time>2026-04-17T09:02:04.001Z</time></trkpt><trkpt lat="36.93763591401432" lon="15.04984968704628"><ele>294.0</ele><time>2026-04-17T09:02:06.001Z</time></trkpt><trkpt lat="36.93761363540477" lon="15.049744811866294"><ele>297.1666666666667</ele><time>2026-04-17T09:02:08.001Z</time></trkpt><trkpt lat="36.937610395883645" lon="15.049657880705588"><ele>300.3333333333333</ele><time>2026-04-17T09:02:09.001Z</time></trkpt><trkpt lat="36.93760363736568" lon="15.049569079576354"><ele>303.5</ele><time>2026-04-17T09:02:10.001Z</time></trkpt><trkpt lat="36.93759957682479" lon="15.049488016369752"><ele>306.66666666666663</ele><time>2026-04-17T09:02:11.001Z</time></trkpt><trkpt lat="36.93759578164815" lon="15.049353916113416"><ele>309.8333333333333</ele><time>2026-04-17T09:02:13.001Z</time></trkpt><trkpt lat="36.93760304777783" lon="15.049209509943928"><ele>313.0</ele><time>2026-04-17T09:02:15.001Z</time></trkpt><trkpt lat="36.93760515494205" lon="15.049122925862529"><ele>315.2</ele><time>2026-04-17T09:02:16.001Z</time></trkpt><trkpt lat="36.93762226066453" lon="15.048979204151896"><ele>317.4</ele><time>2026-04-17T09:02:18.001Z</time></trkpt><trkpt lat="36.93765163790622" lon="15.048893691377655"><ele>319.59999999999997</ele><time>2026-04-17T09:02:20.001Z</time></trkpt><trkpt lat="36.93765742319053" lon="15.048788509961852"><ele>321.8</ele><time>2026-04-17T09:02:24.001Z</time></trkpt><trkpt lat="36.93770081516804" lon="15.048652083322176"><ele>324.0</ele><time>2026-04-17T09:02:26.001Z</time></trkpt><trkpt lat="36.9377368925059" lon="15.048530461834673"><ele>324.0</ele><time>2026-04-17T09:02:28.001Z</time></trkpt><trkpt lat="36.93778351726608" lon="15.048452279536932"><ele>324.0</ele><time>2026-04-17T09:02:30.001Z</time></trkpt><trkpt lat="36.93781808593622" lon="15.048345739708944"><ele>324.0</ele><time>2026-04-17T09:02:32.001Z</time></trkpt><trkpt lat="36.93783993825018" lon="15.048213495591432"><ele>324.0</ele><time>2026-04-17T09:02:34.001Z</time></trkpt><trkpt lat="36.93785113786771" lon="15.048092990600685"><ele>324.0</ele><time>2026-04-17T09:02:36.001Z</time></trkpt><trkpt lat="36.9378685496115" lon="15.047968555526316"><ele>325.79999999999995</ele><time>2026-04-17T09:02:38.001Z</time></trkpt><trkpt lat="36.93790233071999" lon="15.0478683508202"><ele>327.59999999999997</ele><time>2026-04-17T09:02:40.001Z</time></trkpt><trkpt lat="36.93791135484662" lon="15.047732571065337"><ele>329.4</ele><time>2026-04-17T09:02:42.001Z</time></trkpt><trkpt lat="36.9379028956884" lon="15.047637869755187"><ele>331.2</ele><time>2026-04-17T09:02:43.001Z</time></trkpt><trkpt lat="36.93792958835061" lon="15.047484220163744"><ele>333.0</ele><time>2026-04-17T09:02:45.001Z</time></trkpt><trkpt lat="36.93792199215824" lon="15.047394337676714"><ele>334.1666666666667</ele><time>2026-04-17T09:02:46.001Z</time></trkpt><trkpt lat="36.9379322950319" lon="15.047315772889297"><ele>335.3333333333333</ele><time>2026-04-17T09:02:47.001Z</time></trkpt><trkpt lat="36.93793801530508" lon="15.047149862957585"><ele>336.5</ele><time>2026-04-17T09:02:49.001Z</time></trkpt><trkpt lat="36.937945071027585" lon="15.047058207720234"><ele>337.66666666666663</ele><time>2026-04-17T09:02:50.001Z</time></trkpt><trkpt lat="36.937957516449565" lon="15.046977112203123"><ele>338.8333333333333</ele><time>2026-04-17T09:02:51.001Z</time></trkpt><trkpt lat="36.93795484341953" lon="15.046888895674826"><ele>340.0</ele><time>2026-04-17T09:02:52.001Z</time></trkpt><trkpt lat="36.93795877253955" lon="15.046790906470696"><ele>340.0</ele><time>2026-04-17T09:02:53.001Z</time></trkpt><trkpt lat="36.937961266625145" lon="15.046709221222786"><ele>340.0</ele><time>2026-04-17T09:02:54.001Z</time></trkpt><trkpt lat="36.937959409764325" lon="15.04657017833153"><ele>340.0</ele><time>2026-04-17T09:02:56.001Z</time></trkpt><trkpt lat="36.93795113720699" lon="15.046432045875251"><ele>340.0</ele><time>2026-04-17T09:02:58.001Z</time></trkpt><trkpt lat="36.93796522598041" lon="15.046343611894779"><ele>340.0</ele><time>2026-04-17T09:03:01.001Z</time></trkpt><trkpt lat="36.93789008752287" lon="15.046321106153506"><ele>340.0</ele><time>2026-04-17T09:03:13.001Z</time></trkpt><trkpt lat="36.93777186363358" lon="15.046385384281031"><ele>339.6</ele><time>2026-04-17T09:03:40Z</time></trkpt><trkpt lat="36.937711317292475" lon="15.046425428430103"><ele>339.2</ele><time>2026-04-17T09:03:42Z</time></trkpt><trkpt lat="36.93759425051388" lon="15.046518718375797"><ele>338.79999999999995</ele><time>2026-04-17T09:03:44Z</time></trkpt><trkpt lat="36.937523094008206" lon="15.046596879297395"><ele>338.4</ele><time>2026-04-17T09:03:45Z</time></trkpt><trkpt lat="36.93745636144667" lon="15.04668043817392"><ele>338.0</ele><time>2026-04-17T09:03:46Z</time></trkpt><trkpt lat="36.93738953847927" lon="15.046753787494229"><ele>337.59999999999997</ele><time>2026-04-17T09:03:47Z</time></trkpt><trkpt lat="36.93730277258572" lon="15.046799470952083"><ele>337.2</ele><time>2026-04-17T09:03:48Z</time></trkpt><trkpt lat="36.93720817271675" lon="15.046867739535598"><ele>336.8</ele><time>2026-04-17T09:03:49Z</time></trkpt><trkpt lat="36.93711780509649" lon="15.04695780834981"><ele>336.4</ele><time>2026-04-17T09:03:50Z</time></trkpt><trkpt lat="36.93702520205657" lon="15.047044186185069"><ele>336.0</ele><time>2026-04-17T09:03:51Z</time></trkpt><trkpt lat="36.93694996595501" lon="15.047134810381522"><ele>336.0</ele><time>2026-04-17T09:03:52Z</time></trkpt><trkpt lat="36.936869731460305" lon="15.047196583477325"><ele>336.0</ele><time>2026-04-17T09:03:53Z</time></trkpt><trkpt lat="36.9367985039781" lon="15.047270473015045"><ele>336.0</ele><time>2026-04-17T09:03:54Z</time></trkpt><trkpt lat="36.93673054152719" lon="15.04734097558849"><ele>336.0</ele><time>2026-04-17T09:03:55Z</time></trkpt><trkpt lat="36.936672127201" lon="15.047437079825203"><ele>336.0</ele><time>2026-04-17T09:03:56Z</time></trkpt><trkpt lat="36.936598485654955" lon="15.047537217836899"><ele>334.0</ele><time>2026-04-17T09:03:57Z</time></trkpt><trkpt lat="36.936539118592876" lon="15.047661866783953"><ele>332.0</ele><time>2026-04-17T09:03:58Z</time></trkpt><trkpt lat="36.93646339503581" lon="15.04776438662465"><ele>330.0</ele><time>2026-04-17T09:03:59Z</time></trkpt><trkpt lat="36.93639454586104" lon="15.047883157229544"><ele>328.0</ele><time>2026-04-17T09:04:00Z</time></trkpt><trkpt lat="36.936316767785236" lon="15.048017331047733"><ele>328.0</ele><time>2026-04-17T09:04:01Z</time></trkpt><trkpt lat="36.936250510641436" lon="15.048157263882523"><ele>328.0</ele><time>2026-04-17T09:04:02Z</time></trkpt><trkpt lat="36.936169361866305" lon="15.04828172220992"><ele>328.0</ele><time>2026-04-17T09:04:03Z</time></trkpt><trkpt lat="36.93612355021939" lon="15.048407797718852"><ele>328.0</ele><time>2026-04-17T09:04:04Z</time></trkpt><trkpt lat="36.936075026661314" lon="15.048505171472653"><ele>328.0</ele><time>2026-04-17T09:04:05Z</time></trkpt><trkpt lat="36.93602715996681" lon="15.048587657741937"><ele>328.0</ele><time>2026-04-17T09:04:06Z</time></trkpt><trkpt lat="36.93599007028513" lon="15.048655991820041"><ele>328.0</ele><time>2026-04-17T09:04:07Z</time></trkpt><trkpt lat="36.93592053995069" lon="15.048726913025027"><ele>328.0</ele><time>2026-04-17T09:04:09Z</time></trkpt><trkpt lat="36.93571322372416" lon="15.048651474742522"><ele>328.0</ele><time>2026-04-17T09:04:12Z</time></trkpt><trkpt lat="36.93561487929323" lon="15.04862381435777"><ele>328.0</ele><time>2026-04-17T09:04:13Z</time></trkpt><trkpt lat="36.9355325009345" lon="15.048562609226801"><ele>328.0</ele><time>2026-04-17T09:04:14Z</time></trkpt><trkpt lat="36.93543570636663" lon="15.0485274544183"><ele>328.0</ele><time>2026-04-17T09:04:15Z</time></trkpt><trkpt lat="36.935358681105974" lon="15.048465878484182"><ele>328.0</ele><time>2026-04-17T09:04:16Z</time></trkpt><trkpt lat="36.93528739668275" lon="15.04839813720854"><ele>328.0</ele><time>2026-04-17T09:04:17Z</time></trkpt><trkpt lat="36.93522210037075" lon="15.048343306330002"><ele>328.0</ele><time>2026-04-17T09:04:18Z</time></trkpt><trkpt lat="36.935152427266644" lon="15.048302771876424"><ele>328.0</ele><time>2026-04-17T09:04:19Z</time></trkpt><trkpt lat="36.9350647979284" lon="15.0482766901692"><ele>328.0</ele><time>2026-04-17T09:04:20Z</time></trkpt><trkpt lat="36.93497082960981" lon="15.048255536119171"><ele>328.0</ele><time>2026-04-17T09:04:21Z</time></trkpt><trkpt lat="36.934871467096116" lon="15.048240135489657"><ele>328.0</ele><time>2026-04-17T09:04:22Z</time></trkpt><trkpt lat="36.934776659211046" lon="15.048203501189192"><ele>327.59999999999997</ele><time>2026-04-17T09:04:23Z</time></trkpt><trkpt lat="36.934678996897276" lon="15.048207545361956"><ele>327.2</ele><time>2026-04-17T09:04:24Z</time></trkpt><trkpt lat="36.934582887942675" lon="15.04820522528733"><ele>326.8</ele><time>2026-04-17T09:04:25Z</time></trkpt><trkpt lat="36.93448776992316" lon="15.048197518604116"><ele>326.4</ele><time>2026-04-17T09:04:26Z</time></trkpt><trkpt lat="36.934383422553864" lon="15.048184989677978"><ele>326.0</ele><time>2026-04-17T09:04:27Z</time></trkpt><trkpt lat="36.93428009809222" lon="15.048183493268953"><ele>325.83333333333337</ele><time>2026-04-17T09:04:28Z</time></trkpt><trkpt lat="36.934185439257924" lon="15.048179665290245"><ele>325.6666666666667</ele><time>2026-04-17T09:04:29Z</time></trkpt><trkpt lat="36.9341058108434" lon="15.048152879355781"><ele>325.5</ele><time>2026-04-17T09:04:30Z</time></trkpt><trkpt lat="36.93403490336663" lon="15.048171534482755"><ele>325.3333333333333</ele><time>2026-04-17T09:04:31Z</time></trkpt><trkpt lat="36.93392499664843" lon="15.048146588337175"><ele>325.16666666666663</ele><time>2026-04-17T09:04:33Z</time></trkpt><trkpt lat="36.93387203172752" lon="15.048189294934591"><ele>325.0</ele><time>2026-04-17T09:04:34Z</time></trkpt><trkpt lat="36.93376008886063" lon="15.04805539867525"><ele>325.0</ele><time>2026-04-17T09:04:36Z</time></trkpt><trkpt lat="36.93366925655893" lon="15.047994744481361"><ele>325.0</ele><time>2026-04-17T09:04:38Z</time></trkpt><trkpt lat="36.93358826604089" lon="15.047936346064803"><ele>325.0</ele><time>2026-04-17T09:04:40Z</time></trkpt><trkpt lat="36.9335083627163" lon="15.047870586837375"><ele>325.0</ele><time>2026-04-17T09:04:42Z</time></trkpt><trkpt lat="36.93340833798494" lon="15.047805507415077"><ele>325.0</ele><time>2026-04-17T09:04:44Z</time></trkpt><trkpt lat="36.93331864835793" lon="15.047755943988196"><ele>325.0</ele><time>2026-04-17T09:04:46Z</time></trkpt><trkpt lat="36.93326021782481" lon="15.04769841968139"><ele>325.0</ele><time>2026-04-17T09:04:50Z</time></trkpt><trkpt lat="36.933230576302286" lon="15.04762537596324"><ele>325.0</ele><time>2026-04-17T09:04:54.001Z</time></trkpt><trkpt lat="36.933181750706005" lon="15.047553257834593"><ele>325.0</ele><time>2026-04-17T09:05:03.001Z</time></trkpt><trkpt lat="36.933221614483145" lon="15.047624291281291"><ele>325.0</ele><time>2026-04-17T09:11:37Z</time></trkpt><trkpt lat="36.9332670272745" lon="15.047706092853167"><ele>325.0</ele><time>2026-04-17T09:11:41Z</time></trkpt><trkpt lat="36.93336032276597" lon="15.04778014936656"><ele>325.0</ele><time>2026-04-17T09:11:44Z</time></trkpt><trkpt lat="36.93344733893197" lon="15.0478329034018"><ele>325.0</ele><time>2026-04-17T09:11:46Z</time></trkpt><trkpt lat="36.933523322829195" lon="15.047884125025583"><ele>325.0</ele><time>2026-04-17T09:11:47Z</time></trkpt><trkpt lat="36.933619759252274" lon="15.047948409508926"><ele>325.0</ele><time>2026-04-17T09:11:49Z</time></trkpt><trkpt lat="36.933700303417496" lon="15.048027251963065"><ele>325.0</ele><time>2026-04-17T09:11:51Z</time></trkpt><trkpt lat="36.93380636033451" lon="15.048089106271162"><ele>325.0</ele><time>2026-04-17T09:11:53Z</time></trkpt><trkpt lat="36.933869040118424" lon="15.048113495514121"><ele>325.0</ele><time>2026-04-17T09:11:54Z</time></trkpt><trkpt lat="36.933936331882364" lon="15.048130736696448"><ele>325.0</ele><time>2026-04-17T09:11:55Z</time></trkpt><trkpt lat="36.93402716220144" lon="15.048167941336192"><ele>325.0</ele><time>2026-04-17T09:11:57Z</time></trkpt><trkpt lat="36.934110346177874" lon="15.048194996343888"><ele>325.0</ele><time>2026-04-17T09:12:47Z</time></trkpt><trkpt lat="36.934214999119924" lon="15.048205461635792"><ele>325.0</ele><time>2026-04-17T09:12:48Z</time></trkpt><trkpt lat="36.93433235467906" lon="15.048196073482803"><ele>325.16666666666663</ele><time>2026-04-17T09:12:49Z</time></trkpt><trkpt lat="36.93441014090509" lon="15.048217895428948"><ele>325.3333333333333</ele><time>2026-04-17T09:12:50Z</time></trkpt><trkpt lat="36.934506136633644" lon="15.048223484994985"><ele>325.5</ele><time>2026-04-17T09:12:51Z</time></trkpt><trkpt lat="36.93459700867463" lon="15.048208503007595"><ele>325.6666666666667</ele><time>2026-04-17T09:12:52Z</time></trkpt><trkpt lat="36.93467228188746" lon="15.048220238403262"><ele>325.83333333333337</ele><time>2026-04-17T09:12:53Z</time></trkpt><trkpt lat="36.934739199223635" lon="15.048232087629325"><ele>326.0</ele><time>2026-04-17T09:12:54Z</time></trkpt><trkpt lat="36.934863795288" lon="15.048241937273072"><ele>326.0</ele><time>2026-04-17T09:12:56Z</time></trkpt><trkpt lat="36.93493640968635" lon="15.048282775575895"><ele>326.0</ele><time>2026-04-17T09:12:57Z</time></trkpt><trkpt lat="36.935020492535656" lon="15.048310722423512"><ele>326.0</ele><time>2026-04-17T09:12:58Z</time></trkpt><trkpt lat="36.93510956072886" lon="15.048342761925019"><ele>326.0</ele><time>2026-04-17T09:12:59Z</time></trkpt><trkpt lat="36.935197496323354" lon="15.048383046263144"><ele>326.0</ele><time>2026-04-17T09:13:00Z</time></trkpt><trkpt lat="36.93527139872065" lon="15.048428305274728"><ele>326.0</ele><time>2026-04-17T09:13:01Z</time></trkpt><trkpt lat="36.935330353187695" lon="15.04847478971793"><ele>326.33333333333337</ele><time>2026-04-17T09:13:02Z</time></trkpt><trkpt lat="36.93539336720069" lon="15.048522042476012"><ele>326.6666666666667</ele><time>2026-04-17T09:13:03Z</time></trkpt><trkpt lat="36.93545899730572" lon="15.048551599443877"><ele>327.0</ele><time>2026-04-17T09:13:04Z</time></trkpt><trkpt lat="36.935513245149664" lon="15.048597515354237"><ele>327.3333333333333</ele><time>2026-04-17T09:13:05Z</time></trkpt><trkpt lat="36.935579618734636" lon="15.048633711800855"><ele>327.66666666666663</ele><time>2026-04-17T09:13:06Z</time></trkpt><trkpt lat="36.93564892125965" lon="15.048647292096138"><ele>328.0</ele><time>2026-04-17T09:13:07Z</time></trkpt><trkpt lat="36.935762536096156" lon="15.048701192320184"><ele>328.0</ele><time>2026-04-17T09:13:09Z</time></trkpt><trkpt lat="36.93585773006169" lon="15.048706708934986"><ele>328.0</ele><time>2026-04-17T09:13:11Z</time></trkpt><trkpt lat="36.93594583144231" lon="15.048740506354795"><ele>328.0</ele><time>2026-04-17T09:13:13Z</time></trkpt><trkpt lat="36.93605510485271" lon="15.048587905546915"><ele>328.0</ele><time>2026-04-17T09:13:16Z</time></trkpt><trkpt lat="36.93609854056612" lon="15.048489178186655"><ele>328.0</ele><time>2026-04-17T09:13:17Z</time></trkpt><trkpt lat="36.936154550836264" lon="15.048381747860654"><ele>328.0</ele><time>2026-04-17T09:13:18Z</time></trkpt><trkpt lat="36.93619967231804" lon="15.048265567461328"><ele>328.0</ele><time>2026-04-17T09:13:19Z</time></trkpt><trkpt lat="36.93626570473415" lon="15.04815201289422"><ele>328.0</ele><time>2026-04-17T09:13:20Z</time></trkpt><trkpt lat="36.93632150357058" lon="15.048050316458786"><ele>328.0</ele><time>2026-04-17T09:13:21Z</time></trkpt><trkpt lat="36.9363718770655" lon="15.047957890805076"><ele>328.0</ele><time>2026-04-17T09:13:22Z</time></trkpt><trkpt lat="36.93644353494965" lon="15.047869586838958"><ele>327.99999999999994</ele><time>2026-04-17T09:13:23Z</time></trkpt><trkpt lat="36.93649256660003" lon="15.047785003187485"><ele>328.0</ele><time>2026-04-17T09:13:24Z</time></trkpt><trkpt lat="36.93653408576172" lon="15.047713379013594"><ele>328.0</ele><time>2026-04-17T09:13:25Z</time></trkpt><trkpt lat="36.93656184317478" lon="15.047629858934759"><ele>328.0</ele><time>2026-04-17T09:13:26Z</time></trkpt><trkpt lat="36.93660412340422" lon="15.047556658407622"><ele>328.0</ele><time>2026-04-17T09:13:27Z</time></trkpt><trkpt lat="36.93666249923559" lon="15.047489780062524"><ele>327.99999999999994</ele><time>2026-04-17T09:13:28Z</time></trkpt><trkpt lat="36.93670968325308" lon="15.04742339618537"><ele>328.0</ele><time>2026-04-17T09:13:29Z</time></trkpt><trkpt lat="36.93677034578893" lon="15.047352258229688"><ele>329.59999999999997</ele><time>2026-04-17T09:13:30Z</time></trkpt><trkpt lat="36.93684441151039" lon="15.047276895433743"><ele>331.2</ele><time>2026-04-17T09:13:31Z</time></trkpt><trkpt lat="36.936931251838494" lon="15.047166993264325"><ele>332.8</ele><time>2026-04-17T09:13:32Z</time></trkpt><trkpt lat="36.9370280370814" lon="15.047086407024523"><ele>334.4</ele><time>2026-04-17T09:13:33Z</time></trkpt><trkpt lat="36.937111454425306" lon="15.047003089428008"><ele>336.0</ele><time>2026-04-17T09:13:34Z</time></trkpt><trkpt lat="36.93720285295524" lon="15.046922227531605"><ele>336.0</ele><time>2026-04-17T09:13:35Z</time></trkpt><trkpt lat="36.93730646897667" lon="15.046843870229381"><ele>336.0</ele><time>2026-04-17T09:13:36Z</time></trkpt><trkpt lat="36.937412737638994" lon="15.046781034296073"><ele>336.0</ele><time>2026-04-17T09:13:37Z</time></trkpt><trkpt lat="36.93748846561191" lon="15.046696553283743"><ele>336.0</ele><time>2026-04-17T09:13:38Z</time></trkpt><trkpt lat="36.93756226972336" lon="15.046610838199985"><ele>336.0</ele><time>2026-04-17T09:13:39Z</time></trkpt><trkpt lat="36.93765226022559" lon="15.046512389870246"><ele>337.4</ele><time>2026-04-17T09:13:40Z</time></trkpt><trkpt lat="36.93773200099541" lon="15.046442322851227"><ele>338.8</ele><time>2026-04-17T09:13:41Z</time></trkpt><trkpt lat="36.937804430513225" lon="15.04640280010692"><ele>340.2</ele><time>2026-04-17T09:13:41.999Z</time></trkpt><trkpt lat="36.9378713926973" lon="15.046379351991458"><ele>341.59999999999997</ele><time>2026-04-17T09:13:42.999Z</time></trkpt><trkpt lat="36.937991962881824" lon="15.046423096410953"><ele>343.0</ele><time>2026-04-17T09:13:44.999Z</time></trkpt><trkpt lat="36.938071044395635" lon="15.046461564637552"><ele>343.0</ele><time>2026-04-17T09:13:45.999Z</time></trkpt><trkpt lat="36.93814315611841" lon="15.046442473224946"><ele>343.0</ele><time>2026-04-17T09:13:46.999Z</time></trkpt><trkpt lat="36.93822889007572" lon="15.046430999878044"><ele>343.0</ele><time>2026-04-17T09:13:47.999Z</time></trkpt><trkpt lat="36.93832726227733" lon="15.046407496518261"><ele>343.0</ele><time>2026-04-17T09:13:48.999Z</time></trkpt><trkpt lat="36.93841555659004" lon="15.046409845979904"><ele>343.0</ele><time>2026-04-17T09:13:49.999Z</time></trkpt><trkpt lat="36.93848878991194" lon="15.04639439703972"><ele>343.0</ele><time>2026-04-17T09:13:50.999Z</time></trkpt><trkpt lat="36.93856137549009" lon="15.046362410002194"><ele>343.4</ele><time>2026-04-17T09:13:51.999Z</time></trkpt><trkpt lat="36.9386243719943" lon="15.046352342486509"><ele>343.79999999999995</ele><time>2026-04-17T09:13:52.999Z</time></trkpt><trkpt lat="36.93869145072629" lon="15.046334765968354"><ele>344.2</ele><time>2026-04-17T09:13:53.999Z</time></trkpt><trkpt lat="36.938783849387406" lon="15.046312978387952"><ele>344.6</ele><time>2026-04-17T09:13:54.999Z</time></trkpt><trkpt lat="36.93890054352917" lon="15.04628708657584"><ele>345.0</ele><time>2026-04-17T09:13:55.999Z</time></trkpt><trkpt lat="36.93901552961717" lon="15.046290878338098"><ele>345.0</ele><time>2026-04-17T09:13:56.999Z</time></trkpt><trkpt lat="36.939106404464326" lon="15.046263446906474"><ele>345.0</ele><time>2026-04-17T09:13:58Z</time></trkpt><trkpt lat="36.939198567864615" lon="15.046252017300873"><ele>345.0</ele><time>2026-04-17T09:13:59Z</time></trkpt><trkpt lat="36.93931010595079" lon="15.04622202690597"><ele>345.0</ele><time>2026-04-17T09:14:00Z</time></trkpt><trkpt lat="36.939427055455745" lon="15.046164758536188"><ele>345.0</ele><time>2026-04-17T09:14:01Z</time></trkpt><trkpt lat="36.93955404430589" lon="15.046114897407307"><ele>344.0</ele><time>2026-04-17T09:14:02Z</time></trkpt><trkpt lat="36.93966174221673" lon="15.046065143092529"><ele>343.0</ele><time>2026-04-17T09:14:03Z</time></trkpt><trkpt lat="36.939756815348176" lon="15.04599957998346"><ele>342.0</ele><time>2026-04-17T09:14:04Z</time></trkpt><trkpt lat="36.93985369087277" lon="15.045960352835413"><ele>341.0</ele><time>2026-04-17T09:14:05Z</time></trkpt><trkpt lat="36.9399517221097" lon="15.045911749613763"><ele>340.0</ele><time>2026-04-17T09:14:06Z</time></trkpt><trkpt lat="36.940055922251894" lon="15.045856488934767"><ele>339.0</ele><time>2026-04-17T09:14:07Z</time></trkpt><trkpt lat="36.940160361333774" lon="15.045798208264813"><ele>338.0</ele><time>2026-04-17T09:14:08Z</time></trkpt><trkpt lat="36.94026708138098" lon="15.04574500342401"><ele>337.0</ele><time>2026-04-17T09:14:09Z</time></trkpt><trkpt lat="36.940378455496266" lon="15.045697643800805"><ele>336.0</ele><time>2026-04-17T09:14:10Z</time></trkpt><trkpt lat="36.94049873429039" lon="15.045655764820761"><ele>336.5</ele><time>2026-04-17T09:14:11Z</time></trkpt><trkpt lat="36.9406246351331" lon="15.045619403142746"><ele>337.0</ele><time>2026-04-17T09:14:12Z</time></trkpt><trkpt lat="36.940737100545" lon="15.045584989001926"><ele>337.5</ele><time>2026-04-17T09:14:13Z</time></trkpt><trkpt lat="36.94084259010117" lon="15.045546159386788"><ele>338.0</ele><time>2026-04-17T09:14:14Z</time></trkpt><trkpt lat="36.940950498758525" lon="15.04549792832617"><ele>338.0</ele><time>2026-04-17T09:14:15Z</time></trkpt><trkpt lat="36.94106506481941" lon="15.045427243369927"><ele>338.0</ele><time>2026-04-17T09:14:16Z</time></trkpt><trkpt lat="36.9411838325165" lon="15.045334642828376"><ele>338.0</ele><time>2026-04-17T09:14:17Z</time></trkpt><trkpt lat="36.94129622204812" lon="15.04525665779626"><ele>338.0</ele><time>2026-04-17T09:14:18Z</time></trkpt><trkpt lat="36.94140049512513" lon="15.045182030267927"><ele>338.0</ele><time>2026-04-17T09:14:19Z</time></trkpt><trkpt lat="36.94149889518139" lon="15.045095939620106"><ele>338.0</ele><time>2026-04-17T09:14:20Z</time></trkpt><trkpt lat="36.94159987033901" lon="15.044994749455366"><ele>338.0</ele><time>2026-04-17T09:14:21Z</time></trkpt><trkpt lat="36.941705421870765" lon="15.04487424192562"><ele>338.0</ele><time>2026-04-17T09:14:22Z</time></trkpt><trkpt lat="36.94180981255903" lon="15.044734659769091"><ele>337.5</ele><time>2026-04-17T09:14:23Z</time></trkpt><trkpt lat="36.94191127270799" lon="15.044584543451743"><ele>337.0</ele><time>2026-04-17T09:14:24Z</time></trkpt><trkpt lat="36.94200752813098" lon="15.04444443142135"><ele>336.5</ele><time>2026-04-17T09:14:25Z</time></trkpt><trkpt lat="36.94209171896337" lon="15.044314816166908"><ele>336.0</ele><time>2026-04-17T09:14:26Z</time></trkpt><trkpt lat="36.94216474350714" lon="15.044189882447812"><ele>337.0</ele><time>2026-04-17T09:14:27Z</time></trkpt><trkpt lat="36.9422322592519" lon="15.04407550576978"><ele>338.0</ele><time>2026-04-17T09:14:28Z</time></trkpt><trkpt lat="36.94229694156928" lon="15.043974641956453"><ele>339.0</ele><time>2026-04-17T09:14:29Z</time></trkpt><trkpt lat="36.94234089355049" lon="15.043867945102434"><ele>340.0</ele><time>2026-04-17T09:14:30Z</time></trkpt><trkpt lat="36.94238503387105" lon="15.04375145720409"><ele>341.0</ele><time>2026-04-17T09:14:31Z</time></trkpt><trkpt lat="36.94243166620355" lon="15.043619403828641"><ele>341.0</ele><time>2026-04-17T09:14:32Z</time></trkpt><trkpt lat="36.94248342463744" lon="15.043473741999936"><ele>341.0</ele><time>2026-04-17T09:14:33Z</time></trkpt><trkpt lat="36.94254641077039" lon="15.043318377829232"><ele>341.0</ele><time>2026-04-17T09:14:34Z</time></trkpt><trkpt lat="36.9426105997811" lon="15.043169531277032"><ele>341.0</ele><time>2026-04-17T09:14:35Z</time></trkpt><trkpt lat="36.9426752888395" lon="15.043035252024534"><ele>341.0</ele><time>2026-04-17T09:14:36Z</time></trkpt><trkpt lat="36.94273783922677" lon="15.042917343113912"><ele>341.0</ele><time>2026-04-17T09:14:37Z</time></trkpt><trkpt lat="36.942822139717244" lon="15.042825169321627"><ele>341.0</ele><time>2026-04-17T09:14:38Z</time></trkpt><trkpt lat="36.94290335234036" lon="15.042711363792916"><ele>341.0</ele><time>2026-04-17T09:14:39Z</time></trkpt><trkpt lat="36.943006957099165" lon="15.04261643728744"><ele>341.0</ele><time>2026-04-17T09:14:40Z</time></trkpt><trkpt lat="36.9431146623699" lon="15.04251998238137"><ele>341.0</ele><time>2026-04-17T09:14:41Z</time></trkpt><trkpt lat="36.943240835105854" lon="15.042419931043652"><ele>341.0</ele><time>2026-04-17T09:14:42Z</time></trkpt><trkpt lat="36.94338905947544" lon="15.042312600030158"><ele>341.75</ele><time>2026-04-17T09:14:43Z</time></trkpt><trkpt lat="36.943522458470134" lon="15.042223975252828"><ele>342.5</ele><time>2026-04-17T09:14:44Z</time></trkpt><trkpt lat="36.94365112176556" lon="15.042145144151508"><ele>343.25</ele><time>2026-04-17T09:14:45Z</time></trkpt><trkpt lat="36.9437662834939" lon="15.042067963273167"><ele>344.0</ele><time>2026-04-17T09:14:46Z</time></trkpt><trkpt lat="36.943873362522304" lon="15.041996362362603"><ele>344.0</ele><time>2026-04-17T09:14:47Z</time></trkpt><trkpt lat="36.94396732240181" lon="15.041931902389532"><ele>344.0</ele><time>2026-04-17T09:14:48Z</time></trkpt><trkpt lat="36.94406025141874" lon="15.041866063412709"><ele>344.0</ele><time>2026-04-17T09:14:49Z</time></trkpt><trkpt lat="36.94415777620625" lon="15.041786157601301"><ele>344.0</ele><time>2026-04-17T09:14:50Z</time></trkpt><trkpt lat="36.94426193269658" lon="15.041689401675342"><ele>345.6666666666667</ele><time>2026-04-17T09:14:51Z</time></trkpt><trkpt lat="36.944372092251406" lon="15.041565191661467"><ele>347.3333333333333</ele><time>2026-04-17T09:14:52Z</time></trkpt><trkpt lat="36.944480116491064" lon="15.041421359199106"><ele>349.0</ele><time>2026-04-17T09:14:53Z</time></trkpt><trkpt lat="36.94458860890967" lon="15.041274594855125"><ele>349.0</ele><time>2026-04-17T09:14:54Z</time></trkpt><trkpt lat="36.94469723430887" lon="15.041138252800033"><ele>349.0</ele><time>2026-04-17T09:14:55Z</time></trkpt><trkpt lat="36.944793756064975" lon="15.041032828482553"><ele>349.0</ele><time>2026-04-17T09:14:56Z</time></trkpt><trkpt lat="36.94489035637056" lon="15.04091732531974"><ele>349.0</ele><time>2026-04-17T09:14:57Z</time></trkpt><trkpt lat="36.944986760707685" lon="15.040810977849107"><ele>349.5</ele><time>2026-04-17T09:14:58Z</time></trkpt><trkpt lat="36.94508316307026" lon="15.04070857943063"><ele>350.0</ele><time>2026-04-17T09:14:59Z</time></trkpt><trkpt lat="36.94518391048336" lon="15.040612767700763"><ele>350.5</ele><time>2026-04-17T09:15:00Z</time></trkpt><trkpt lat="36.94529246192973" lon="15.040523088354826"><ele>351.0</ele><time>2026-04-17T09:15:01Z</time></trkpt><trkpt lat="36.94541189005539" lon="15.04045246887627"><ele>351.0</ele><time>2026-04-17T09:15:02Z</time></trkpt><trkpt lat="36.94551260433257" lon="15.040372010707705"><ele>351.0</ele><time>2026-04-17T09:15:03Z</time></trkpt><trkpt lat="36.94559457362707" lon="15.040275269103573"><ele>351.0</ele><time>2026-04-17T09:15:04Z</time></trkpt><trkpt lat="36.94568385422939" lon="15.040202460619764"><ele>351.0</ele><time>2026-04-17T09:15:05Z</time></trkpt><trkpt lat="36.94577334581408" lon="15.040118697856904"><ele>351.0</ele><time>2026-04-17T09:15:06Z</time></trkpt><trkpt lat="36.945864921139496" lon="15.040032568747602"><ele>351.0</ele><time>2026-04-17T09:15:07Z</time></trkpt><trkpt lat="36.945951206861096" lon="15.039952331927633"><ele>351.0</ele><time>2026-04-17T09:15:08Z</time></trkpt><trkpt lat="36.94602813758479" lon="15.039891919540645"><ele>351.0</ele><time>2026-04-17T09:15:09Z</time></trkpt><trkpt lat="36.946119194538696" lon="15.039829165512193"><ele>351.0</ele><time>2026-04-17T09:15:10Z</time></trkpt><trkpt lat="36.94622433286709" lon="15.03977397451133"><ele>350.8</ele><time>2026-04-17T09:15:11Z</time></trkpt><trkpt lat="36.946318369506244" lon="15.039718153383959"><ele>350.6</ele><time>2026-04-17T09:15:12Z</time></trkpt><trkpt lat="36.94640410213584" lon="15.039662614979047"><ele>350.4</ele><time>2026-04-17T09:15:13Z</time></trkpt><trkpt lat="36.946493222041184" lon="15.039597967207603"><ele>350.2</ele><time>2026-04-17T09:15:14Z</time></trkpt><trkpt lat="36.94660304023297" lon="15.039550018078344"><ele>350.0</ele><time>2026-04-17T09:15:15Z</time></trkpt><trkpt lat="36.9467250410999" lon="15.039494297712416"><ele>347.8</ele><time>2026-04-17T09:15:16Z</time></trkpt><trkpt lat="36.94684234613865" lon="15.039417172691127"><ele>345.6</ele><time>2026-04-17T09:15:17Z</time></trkpt><trkpt lat="36.94694371713865" lon="15.03936480553845"><ele>343.4</ele><time>2026-04-17T09:15:18Z</time></trkpt><trkpt lat="36.94704284231271" lon="15.039312872983276"><ele>341.2</ele><time>2026-04-17T09:15:19Z</time></trkpt><trkpt lat="36.947133114541494" lon="15.039264460397241"><ele>339.0</ele><time>2026-04-17T09:15:20Z</time></trkpt><trkpt lat="36.94721666065114" lon="15.039221393959705"><ele>339.0</ele><time>2026-04-17T09:15:21Z</time></trkpt><trkpt lat="36.947302845898335" lon="15.039166666277357"><ele>339.0</ele><time>2026-04-17T09:15:22Z</time></trkpt><trkpt lat="36.94738227162739" lon="15.03907885107357"><ele>339.0</ele><time>2026-04-17T09:15:23Z</time></trkpt><trkpt lat="36.947448210369785" lon="15.038985507607014"><ele>339.0</ele><time>2026-04-17T09:15:24Z</time></trkpt><trkpt lat="36.94754208732713" lon="15.038932361705225"><ele>339.0</ele><time>2026-04-17T09:15:25Z</time></trkpt><trkpt lat="36.94766925384214" lon="15.038879379810968"><ele>340.25</ele><time>2026-04-17T09:15:26Z</time></trkpt><trkpt lat="36.94779141281615" lon="15.038803074256089"><ele>341.5</ele><time>2026-04-17T09:15:27Z</time></trkpt><trkpt lat="36.947900261094105" lon="15.038751376153144"><ele>342.75</ele><time>2026-04-17T09:15:28Z</time></trkpt><trkpt lat="36.94800201629554" lon="15.038724341909045"><ele>344.0</ele><time>2026-04-17T09:15:29Z</time></trkpt><trkpt lat="36.94808725024788" lon="15.038671009419074"><ele>344.0</ele><time>2026-04-17T09:15:30Z</time></trkpt><trkpt lat="36.94818416570507" lon="15.038648600399853"><ele>344.0</ele><time>2026-04-17T09:15:31Z</time></trkpt><trkpt lat="36.948299294577566" lon="15.038671742262968"><ele>344.0</ele><time>2026-04-17T09:15:32Z</time></trkpt><trkpt lat="36.94841179666921" lon="15.038680183320484"><ele>344.0</ele><time>2026-04-17T09:15:33Z</time></trkpt><trkpt lat="36.94852427932175" lon="15.038694997262953"><ele>344.0</ele><time>2026-04-17T09:15:34Z</time></trkpt><trkpt lat="36.94863683173929" lon="15.038721051406354"><ele>344.0</ele><time>2026-04-17T09:15:35Z</time></trkpt><trkpt lat="36.94875566492606" lon="15.038764567405243"><ele>344.0</ele><time>2026-04-17T09:15:36Z</time></trkpt><trkpt lat="36.94888560485674" lon="15.038799800314832"><ele>344.0</ele><time>2026-04-17T09:15:37Z</time></trkpt><trkpt lat="36.9490125490712" lon="15.03883570142421"><ele>344.0</ele><time>2026-04-17T09:15:38Z</time></trkpt><trkpt lat="36.94911876435469" lon="15.03887217407648"><ele>344.0</ele><time>2026-04-17T09:15:39Z</time></trkpt><trkpt lat="36.94920757302671" lon="15.03890483148439"><ele>344.0</ele><time>2026-04-17T09:15:40Z</time></trkpt><trkpt lat="36.94928840633935" lon="15.038934556198232"><ele>344.0</ele><time>2026-04-17T09:15:41Z</time></trkpt><trkpt lat="36.949388358017245" lon="15.038949304840152"><ele>344.0</ele><time>2026-04-17T09:15:42Z</time></trkpt><trkpt lat="36.94950489065272" lon="15.038919258880977"><ele>344.0</ele><time>2026-04-17T09:15:43Z</time></trkpt><trkpt lat="36.949572381567" lon="15.038903251705921"><ele>344.33333333333337</ele><time>2026-04-17T09:15:44Z</time></trkpt><trkpt lat="36.949598658894146" lon="15.038980558071053"><ele>344.6666666666667</ele><time>2026-04-17T09:15:47Z</time></trkpt><trkpt lat="36.94961366954863" lon="15.039074380392005"><ele>345.0</ele><time>2026-04-17T09:15:49Z</time></trkpt><trkpt lat="36.94961131049212" lon="15.039227540087552"><ele>345.3333333333333</ele><time>2026-04-17T09:15:51Z</time></trkpt><trkpt lat="36.94959675173037" lon="15.039313511753582"><ele>345.66666666666663</ele><time>2026-04-17T09:15:52Z</time></trkpt><trkpt lat="36.949560374241294" lon="15.03944041505718"><ele>346.0</ele><time>2026-04-17T09:15:54Z</time></trkpt><trkpt lat="36.949551015143264" lon="15.03958551659843"><ele>346.0</ele><time>2026-04-17T09:15:56Z</time></trkpt><trkpt lat="36.949589473014285" lon="15.03965637420792"><ele>346.0</ele><time>2026-04-17T09:15:56.999Z</time></trkpt><trkpt lat="36.94965272819759" lon="15.039780412477953"><ele>346.0</ele><time>2026-04-17T09:15:59Z</time></trkpt><trkpt lat="36.94969346991457" lon="15.039870058318105"><ele>346.0</ele><time>2026-04-17T09:16:00Z</time></trkpt><trkpt lat="36.949732039012105" lon="15.039958126198647"><ele>346.0</ele><time>2026-04-17T09:16:01Z</time></trkpt><trkpt lat="36.949771908593405" lon="15.040049612787644"><ele>346.0</ele><time>2026-04-17T09:16:02Z</time></trkpt><trkpt lat="36.94982228541797" lon="15.040169826934905"><ele>346.6</ele><time>2026-04-17T09:16:03Z</time></trkpt><trkpt lat="36.94987823658331" lon="15.040303343356248"><ele>347.20000000000005</ele><time>2026-04-17T09:16:04Z</time></trkpt><trkpt lat="36.949934910225856" lon="15.040433222660095"><ele>347.79999999999995</ele><time>2026-04-17T09:16:05Z</time></trkpt><trkpt lat="36.9499808985742" lon="15.040535430971657"><ele>348.4</ele><time>2026-04-17T09:16:06Z</time></trkpt><trkpt lat="36.950009917975706" lon="15.040617044743126"><ele>349.0</ele><time>2026-04-17T09:16:07Z</time></trkpt><trkpt lat="36.950029993982476" lon="15.040715099049725"><ele>349.6</ele><time>2026-04-17T09:16:08Z</time></trkpt><trkpt lat="36.95004320412365" lon="15.040848904428133"><ele>350.2</ele><time>2026-04-17T09:16:09Z</time></trkpt><trkpt lat="36.95005186481671" lon="15.040988396023552"><ele>350.8</ele><time>2026-04-17T09:16:10Z</time></trkpt><trkpt lat="36.95005966142097" lon="15.041116970236454"><ele>351.40000000000003</ele><time>2026-04-17T09:16:11Z</time></trkpt><trkpt lat="36.9500662196362" lon="15.041225121994522"><ele>352.0</ele><time>2026-04-17T09:16:12Z</time></trkpt><trkpt lat="36.95007209956324" lon="15.041322088073722"><ele>352.0</ele><time>2026-04-17T09:16:13Z</time></trkpt><trkpt lat="36.95007792317843" lon="15.041418125476316"><ele>352.0</ele><time>2026-04-17T09:16:14Z</time></trkpt><trkpt lat="36.95008248363163" lon="15.04152500724062"><ele>352.0</ele><time>2026-04-17T09:16:15Z</time></trkpt><trkpt lat="36.95008523075461" lon="15.041641083638789"><ele>352.0</ele><time>2026-04-17T09:16:16Z</time></trkpt><trkpt lat="36.95008279838435" lon="15.041764802760582"><ele>352.0</ele><time>2026-04-17T09:16:17Z</time></trkpt><trkpt lat="36.950074353979026" lon="15.041903792880698"><ele>351.66666666666663</ele><time>2026-04-17T09:16:18Z</time></trkpt><trkpt lat="36.950062956257966" lon="15.042073037577643"><ele>351.3333333333333</ele><time>2026-04-17T09:16:19Z</time></trkpt><trkpt lat="36.950048744997076" lon="15.042273728345961"><ele>351.0</ele><time>2026-04-17T09:16:20Z</time></trkpt><trkpt lat="36.9500326344607" lon="15.042485712098363"><ele>349.75</ele><time>2026-04-17T09:16:21Z</time></trkpt><trkpt lat="36.950017665156196" lon="15.042680582443543"><ele>348.5</ele><time>2026-04-17T09:16:22Z</time></trkpt><trkpt lat="36.950018296404984" lon="15.04286778262595"><ele>347.25</ele><time>2026-04-17T09:16:23Z</time></trkpt><trkpt lat="36.950003103857874" lon="15.043046168950829"><ele>346.0</ele><time>2026-04-17T09:16:24Z</time></trkpt><trkpt lat="36.94998966333546" lon="15.043233965257404"><ele>345.3333333333333</ele><time>2026-04-17T09:16:25Z</time></trkpt><trkpt lat="36.94996353788671" lon="15.043442582655576"><ele>344.6666666666667</ele><time>2026-04-17T09:16:26Z</time></trkpt><trkpt lat="36.94997049710692" lon="15.043674431796957"><ele>344.0</ele><time>2026-04-17T09:16:27Z</time></trkpt><trkpt lat="36.949982091127076" lon="15.043902351871909"><ele>344.0</ele><time>2026-04-17T09:16:28Z</time></trkpt><trkpt lat="36.949985976829495" lon="15.04410290637967"><ele>344.0</ele><time>2026-04-17T09:16:29Z</time></trkpt><trkpt lat="36.94999615996891" lon="15.044290441790272"><ele>344.0</ele><time>2026-04-17T09:16:30Z</time></trkpt><trkpt lat="36.94999324448866" lon="15.044449200662973"><ele>344.0</ele><time>2026-04-17T09:16:31Z</time></trkpt><trkpt lat="36.949975828241364" lon="15.04458415584879"><ele>344.75</ele><time>2026-04-17T09:16:32Z</time></trkpt><trkpt lat="36.9499692531946" lon="15.04470023992638"><ele>345.5</ele><time>2026-04-17T09:16:33Z</time></trkpt><trkpt lat="36.949935520938844" lon="15.044808285962379"><ele>346.25</ele><time>2026-04-17T09:16:34Z</time></trkpt><trkpt lat="36.94988225658672" lon="15.044956314118082"><ele>347.0</ele><time>2026-04-17T09:16:35Z</time></trkpt><trkpt lat="36.94979762769995" lon="15.045119781173751"><ele>347.6666666666667</ele><time>2026-04-17T09:16:36Z</time></trkpt><trkpt lat="36.94968885146821" lon="15.04528911504552"><ele>348.3333333333333</ele><time>2026-04-17T09:16:37Z</time></trkpt><trkpt lat="36.94953810868939" lon="15.04544867495593"><ele>349.0</ele><time>2026-04-17T09:16:38Z</time></trkpt><trkpt lat="36.949396340618314" lon="15.045616315950936"><ele>349.0</ele><time>2026-04-17T09:16:39Z</time></trkpt><trkpt lat="36.949269164177856" lon="15.045766334016712"><ele>349.0</ele><time>2026-04-17T09:16:40Z</time></trkpt><trkpt lat="36.949147633280006" lon="15.045908662594382"><ele>349.0</ele><time>2026-04-17T09:16:41Z</time></trkpt><trkpt lat="36.949031163510206" lon="15.0460406327415"><ele>348.5</ele><time>2026-04-17T09:16:42Z</time></trkpt><trkpt lat="36.948913669336896" lon="15.046158828648107"><ele>348.0</ele><time>2026-04-17T09:16:43Z</time></trkpt><trkpt lat="36.94880577219289" lon="15.0462803269083"><ele>347.5</ele><time>2026-04-17T09:16:44Z</time></trkpt><trkpt lat="36.94868957243693" lon="15.046362473035934"><ele>347.0</ele><time>2026-04-17T09:16:45Z</time></trkpt><trkpt lat="36.94858540195997" lon="15.04645102831474"><ele>347.0</ele><time>2026-04-17T09:16:46Z</time></trkpt><trkpt lat="36.948487225456894" lon="15.04655747944097"><ele>347.0</ele><time>2026-04-17T09:16:47Z</time></trkpt><trkpt lat="36.948405286774225" lon="15.046695714578934"><ele>347.0</ele><time>2026-04-17T09:16:48Z</time></trkpt><trkpt lat="36.94833135551905" lon="15.04686521724098"><ele>347.0</ele><time>2026-04-17T09:16:49Z</time></trkpt><trkpt lat="36.948257430336234" lon="15.04705732315537"><ele>346.75</ele><time>2026-04-17T09:16:50Z</time></trkpt><trkpt lat="36.948172710182234" lon="15.047224737744727"><ele>346.5</ele><time>2026-04-17T09:16:51Z</time></trkpt><trkpt lat="36.94810521313251" lon="15.04738554085546"><ele>346.25</ele><time>2026-04-17T09:16:52Z</time></trkpt><trkpt lat="36.94803975564593" lon="15.047532336229418"><ele>346.0</ele><time>2026-04-17T09:16:53Z</time></trkpt><trkpt lat="36.94797673679003" lon="15.047671651373909"><ele>346.0</ele><time>2026-04-17T09:16:54Z</time></trkpt><trkpt lat="36.94792386283921" lon="15.047803878904249"><ele>346.0</ele><time>2026-04-17T09:16:55Z</time></trkpt><trkpt lat="36.94789185602875" lon="15.047941358784417"><ele>346.0</ele><time>2026-04-17T09:16:56Z</time></trkpt><trkpt lat="36.94781901881932" lon="15.048068968025925"><ele>346.0</ele><time>2026-04-17T09:16:57Z</time></trkpt><trkpt lat="36.94770979062756" lon="15.04818265383531"><ele>346.0</ele><time>2026-04-17T09:16:58Z</time></trkpt><trkpt lat="36.94760924219971" lon="15.048290644025933"><ele>346.0</ele><time>2026-04-17T09:16:59Z</time></trkpt><trkpt lat="36.94751539610254" lon="15.048389912683035"><ele>346.0</ele><time>2026-04-17T09:17:00Z</time></trkpt><trkpt lat="36.94743239840829" lon="15.048487388590155"><ele>346.0</ele><time>2026-04-17T09:17:01Z</time></trkpt><trkpt lat="36.94736446015588" lon="15.048592852882845"><ele>345.0</ele><time>2026-04-17T09:17:02Z</time></trkpt><trkpt lat="36.94728617470622" lon="15.048675172624149"><ele>344.0</ele><time>2026-04-17T09:17:03Z</time></trkpt><trkpt lat="36.947203950299695" lon="15.048752461820255"><ele>343.0</ele><time>2026-04-17T09:17:04Z</time></trkpt><trkpt lat="36.947124688538835" lon="15.048841476767967"><ele>342.0</ele><time>2026-04-17T09:17:05Z</time></trkpt><trkpt lat="36.947056643035985" lon="15.048926518334877"><ele>341.0</ele><time>2026-04-17T09:17:06Z</time></trkpt><trkpt lat="36.94698458437274" lon="15.048990241939636"><ele>341.0</ele><time>2026-04-17T09:17:07Z</time></trkpt><trkpt lat="36.946918974819006" lon="15.049073431291"><ele>341.0</ele><time>2026-04-17T09:17:08Z</time></trkpt><trkpt lat="36.94686657856528" lon="15.049171916511373"><ele>341.0</ele><time>2026-04-17T09:17:09Z</time></trkpt><trkpt lat="36.946798739652614" lon="15.04925193672758"><ele>341.0</ele><time>2026-04-17T09:17:10Z</time></trkpt><trkpt lat="36.94673063782255" lon="15.049328911493745"><ele>341.0</ele><time>2026-04-17T09:17:11Z</time></trkpt><trkpt lat="36.94666712883174" lon="15.049393344518787"><ele>340.33333333333337</ele><time>2026-04-17T09:17:12Z</time></trkpt><trkpt lat="36.94660642074919" lon="15.049452491780531"><ele>339.6666666666667</ele><time>2026-04-17T09:17:13Z</time></trkpt><trkpt lat="36.946550984546946" lon="15.049508271937011"><ele>339.0</ele><time>2026-04-17T09:17:14Z</time></trkpt><trkpt lat="36.94651492836073" lon="15.049580067357356"><ele>338.3333333333333</ele><time>2026-04-17T09:17:15Z</time></trkpt><trkpt lat="36.946436643774796" lon="15.049623367905253"><ele>337.66666666666663</ele><time>2026-04-17T09:17:16Z</time></trkpt><trkpt lat="36.9463565222199" lon="15.049696580036033"><ele>337.0</ele><time>2026-04-17T09:17:17Z</time></trkpt><trkpt lat="36.946244425701344" lon="15.049766033056464"><ele>337.0</ele><time>2026-04-17T09:17:18Z</time></trkpt><trkpt lat="36.94612312127151" lon="15.049841595005795"><ele>337.0</ele><time>2026-04-17T09:17:19Z</time></trkpt><trkpt lat="36.94600241267796" lon="15.04992077415507"><ele>337.0</ele><time>2026-04-17T09:17:20Z</time></trkpt><trkpt lat="36.94587651017467" lon="15.049997513408861"><ele>337.0</ele><time>2026-04-17T09:17:21Z</time></trkpt><trkpt lat="36.94574734146139" lon="15.050082186143543"><ele>337.66666666666663</ele><time>2026-04-17T09:17:22Z</time></trkpt><trkpt lat="36.94562221587364" lon="15.050184663626272"><ele>338.3333333333333</ele><time>2026-04-17T09:17:23Z</time></trkpt><trkpt lat="36.94550580141959" lon="15.050314148416657"><ele>339.0</ele><time>2026-04-17T09:17:24Z</time></trkpt><trkpt lat="36.94539074390084" lon="15.050454449060842"><ele>339.0</ele><time>2026-04-17T09:17:25Z</time></trkpt><trkpt lat="36.94528154344407" lon="15.050589973788407"><ele>339.0</ele><time>2026-04-17T09:17:26Z</time></trkpt><trkpt lat="36.945168797721124" lon="15.050707338295995"><ele>339.0</ele><time>2026-04-17T09:17:27Z</time></trkpt><trkpt lat="36.94505666228812" lon="15.050814187353502"><ele>339.0</ele><time>2026-04-17T09:17:28Z</time></trkpt><trkpt lat="36.944943701260556" lon="15.05090840607865"><ele>336.25</ele><time>2026-04-17T09:17:29Z</time></trkpt><trkpt lat="36.9448282976755" lon="15.050985146669928"><ele>333.5</ele><time>2026-04-17T09:17:30Z</time></trkpt><trkpt lat="36.94470912395569" lon="15.051039810526795"><ele>330.75</ele><time>2026-04-17T09:17:31Z</time></trkpt><trkpt lat="36.944578685205265" lon="15.051038370955034"><ele>328.0</ele><time>2026-04-17T09:17:32Z</time></trkpt><trkpt lat="36.94442850723087" lon="15.051057787922892"><ele>328.0</ele><time>2026-04-17T09:17:33Z</time></trkpt><trkpt lat="36.94428431193478" lon="15.05105796064714"><ele>328.0</ele><time>2026-04-17T09:17:34Z</time></trkpt><trkpt lat="36.94414189218673" lon="15.051055686966047"><ele>328.0</ele><time>2026-04-17T09:17:35Z</time></trkpt><trkpt lat="36.94399491230387" lon="15.051054061885026"><ele>328.0</ele><time>2026-04-17T09:17:36Z</time></trkpt><trkpt lat="36.9438410559842" lon="15.051056162291363"><ele>327.79999999999995</ele><time>2026-04-17T09:17:37Z</time></trkpt><trkpt lat="36.94369933157536" lon="15.051027065777449"><ele>327.6</ele><time>2026-04-17T09:17:38Z</time></trkpt><trkpt lat="36.94357217900284" lon="15.051027500769544"><ele>327.4</ele><time>2026-04-17T09:17:39Z</time></trkpt><trkpt lat="36.94347442324663" lon="15.05099856834763"><ele>327.20000000000005</ele><time>2026-04-17T09:17:40Z</time></trkpt><trkpt lat="36.943407242430645" lon="15.050952825337045"><ele>327.0</ele><time>2026-04-17T09:17:41Z</time></trkpt><trkpt lat="36.94337103197869" lon="15.050874479174297"><ele>327.6</ele><time>2026-04-17T09:17:42Z</time></trkpt><trkpt lat="36.94336788396838" lon="15.050764376928953"><ele>328.20000000000005</ele><time>2026-04-17T09:17:43Z</time></trkpt><trkpt lat="36.9433972479929" lon="15.050648063702573"><ele>328.8</ele><time>2026-04-17T09:17:44Z</time></trkpt><trkpt lat="36.94344491671114" lon="15.050513114296589"><ele>329.4</ele><time>2026-04-17T09:17:45Z</time></trkpt><trkpt lat="36.943509960545825" lon="15.050366299581361"><ele>330.0</ele><time>2026-04-17T09:17:46Z</time></trkpt><trkpt lat="36.94356571443967" lon="15.050236288526463"><ele>330.0</ele><time>2026-04-17T09:17:47Z</time></trkpt><trkpt lat="36.94360917264701" lon="15.050120611296029"><ele>330.0</ele><time>2026-04-17T09:17:48Z</time></trkpt><trkpt lat="36.94362127808961" lon="15.05001039457748"><ele>330.0</ele><time>2026-04-17T09:17:49Z</time></trkpt><trkpt lat="36.94360340654356" lon="15.04991059604587"><ele>330.0</ele><time>2026-04-17T09:17:50Z</time></trkpt><trkpt lat="36.94355854402303" lon="15.049831679317702"><ele>330.0</ele><time>2026-04-17T09:17:51Z</time></trkpt><trkpt lat="36.943497650704565" lon="15.049792539193431"><ele>330.0</ele><time>2026-04-17T09:17:52Z</time></trkpt><trkpt lat="36.94342689505427" lon="15.049782551214967"><ele>325.5</ele><time>2026-04-17T09:17:53Z</time></trkpt><trkpt lat="36.943350547836445" lon="15.049854637786666"><ele>321.0</ele><time>2026-04-17T09:17:54Z</time></trkpt><trkpt lat="36.94332475897033" lon="15.049983905714628"><ele>316.5</ele><time>2026-04-17T09:17:55Z</time></trkpt><trkpt lat="36.94329008943695" lon="15.050146144061427"><ele>312.0</ele><time>2026-04-17T09:17:56Z</time></trkpt><trkpt lat="36.9432272179213" lon="15.050318105070627"><ele>311.75</ele><time>2026-04-17T09:17:57Z</time></trkpt><trkpt lat="36.94317995934579" lon="15.050489130027398"><ele>311.5</ele><time>2026-04-17T09:17:58Z</time></trkpt><trkpt lat="36.94313604953906" lon="15.050652885815861"><ele>311.25</ele><time>2026-04-17T09:17:59Z</time></trkpt><trkpt lat="36.94308845809269" lon="15.05080250989485"><ele>311.0</ele><time>2026-04-17T09:18:00Z</time></trkpt><trkpt lat="36.943006924515345" lon="15.050909375473067"><ele>311.75</ele><time>2026-04-17T09:18:01Z</time></trkpt><trkpt lat="36.94290200702053" lon="15.050974070299924"><ele>312.5</ele><time>2026-04-17T09:18:02Z</time></trkpt><trkpt lat="36.942780176790784" lon="15.051057575636989"><ele>313.25</ele><time>2026-04-17T09:18:03Z</time></trkpt><trkpt lat="36.942637152027196" lon="15.051134311742052"><ele>314.0</ele><time>2026-04-17T09:18:04Z</time></trkpt><trkpt lat="36.94249435759614" lon="15.051188559172271"><ele>309.75</ele><time>2026-04-17T09:18:05Z</time></trkpt><trkpt lat="36.942369557091276" lon="15.051255782120123"><ele>305.5</ele><time>2026-04-17T09:18:06Z</time></trkpt><trkpt lat="36.94225576623364" lon="15.051317672063986"><ele>301.25</ele><time>2026-04-17T09:18:07Z</time></trkpt><trkpt lat="36.94216632168569" lon="15.051383159886564"><ele>297.0</ele><time>2026-04-17T09:18:08Z</time></trkpt><trkpt lat="36.9420778759241" lon="15.051396141738651"><ele>297.0</ele><time>2026-04-17T09:18:09Z</time></trkpt><trkpt lat="36.94200098648772" lon="15.051412103514444"><ele>297.0</ele><time>2026-04-17T09:18:10Z</time></trkpt><trkpt lat="36.94191970494563" lon="15.05137353975257"><ele>297.0</ele><time>2026-04-17T09:18:11Z</time></trkpt><trkpt lat="36.941861077381525" lon="15.05130019663897"><ele>297.0</ele><time>2026-04-17T09:18:12Z</time></trkpt><trkpt lat="36.941854283402584" lon="15.051189397016385"><ele>297.0</ele><time>2026-04-17T09:18:13Z</time></trkpt><trkpt lat="36.94188296672336" lon="15.051044164895801"><ele>297.0</ele><time>2026-04-17T09:18:14Z</time></trkpt><trkpt lat="36.94194874103064" lon="15.050817965280016"><ele>297.0</ele><time>2026-04-17T09:18:16Z</time></trkpt><trkpt lat="36.94198040132992" lon="15.050669351558742"><ele>297.0</ele><time>2026-04-17T09:18:17Z</time></trkpt><trkpt lat="36.94198676936814" lon="15.050539518073032"><ele>297.0</ele><time>2026-04-17T09:18:18Z</time></trkpt><trkpt lat="36.941953778589124" lon="15.050423921763867"><ele>296.0</ele><time>2026-04-17T09:18:19Z</time></trkpt><trkpt lat="36.94185146146453" lon="15.050354566554317"><ele>295.0</ele><time>2026-04-17T09:18:20Z</time></trkpt><trkpt lat="36.94170784634788" lon="15.050362431947581"><ele>294.0</ele><time>2026-04-17T09:18:21Z</time></trkpt><trkpt lat="36.9415482110789" lon="15.050352702149157"><ele>293.0</ele><time>2026-04-17T09:18:22Z</time></trkpt><trkpt lat="36.941379836472564" lon="15.050327077655625"><ele>297.33333333333337</ele><time>2026-04-17T09:18:23Z</time></trkpt><trkpt lat="36.94120905652677" lon="15.050306163919023"><ele>301.6666666666667</ele><time>2026-04-17T09:18:24Z</time></trkpt><trkpt lat="36.941028779677666" lon="15.050282995604695"><ele>306.0</ele><time>2026-04-17T09:18:25Z</time></trkpt><trkpt lat="36.94088102377865" lon="15.050254823419133"><ele>308.2</ele><time>2026-04-17T09:18:26Z</time></trkpt><trkpt lat="36.94076015052032" lon="15.050235852322311"><ele>310.40000000000003</ele><time>2026-04-17T09:18:27Z</time></trkpt><trkpt lat="36.940649687417995" lon="15.0502195387128"><ele>312.6</ele><time>2026-04-17T09:18:28Z</time></trkpt><trkpt lat="36.94055945047" lon="15.050211482469862"><ele>314.8</ele><time>2026-04-17T09:18:29Z</time></trkpt><trkpt lat="36.94048726176738" lon="15.050225173180603"><ele>317.0</ele><time>2026-04-17T09:18:30Z</time></trkpt><trkpt lat="36.94040959134473" lon="15.05026465780236"><ele>317.0</ele><time>2026-04-17T09:18:31Z</time></trkpt><trkpt lat="36.94033543406812" lon="15.050335288574102"><ele>317.0</ele><time>2026-04-17T09:18:32Z</time></trkpt><trkpt lat="36.94027382487955" lon="15.050436440351538"><ele>317.0</ele><time>2026-04-17T09:18:33Z</time></trkpt><trkpt lat="36.94024055279705" lon="15.050566078137969"><ele>317.0</ele><time>2026-04-17T09:18:34Z</time></trkpt><trkpt lat="36.94023567436109" lon="15.050721300886075"><ele>317.0</ele><time>2026-04-17T09:18:35Z</time></trkpt><trkpt lat="36.94025104952605" lon="15.05086607206006"><ele>319.5</ele><time>2026-04-17T09:18:36Z</time></trkpt><trkpt lat="36.940243278420944" lon="15.051021165161217"><ele>322.0</ele><time>2026-04-17T09:18:37Z</time></trkpt><trkpt lat="36.94023857397417" lon="15.051168778986696"><ele>324.5</ele><time>2026-04-17T09:18:38Z</time></trkpt><trkpt lat="36.940243675876054" lon="15.051311173008738"><ele>327.0</ele><time>2026-04-17T09:18:39Z</time></trkpt><trkpt lat="36.94027070974775" lon="15.051456081287643"><ele>327.0</ele><time>2026-04-17T09:18:40Z</time></trkpt><trkpt lat="36.94032380594748" lon="15.051585019124122"><ele>327.0</ele><time>2026-04-17T09:18:41Z</time></trkpt><trkpt lat="36.94039464886415" lon="15.05170397931623"><ele>327.0</ele><time>2026-04-17T09:18:42Z</time></trkpt><trkpt lat="36.940456567319075" lon="15.05181512162168"><ele>327.0</ele><time>2026-04-17T09:18:43Z</time></trkpt><trkpt lat="36.94049688117514" lon="15.05190719107504"><ele>327.0</ele><time>2026-04-17T09:18:44Z</time></trkpt><trkpt lat="36.940527154960975" lon="15.052002523520034"><ele>328.0</ele><time>2026-04-17T09:18:45Z</time></trkpt><trkpt lat="36.940529995783656" lon="15.052105011084453"><ele>329.0</ele><time>2026-04-17T09:18:46Z</time></trkpt><trkpt lat="36.94047203021139" lon="15.052184877859954"><ele>330.0</ele><time>2026-04-17T09:18:47Z</time></trkpt><trkpt lat="36.94037718839152" lon="15.05223726330009"><ele>331.0</ele><time>2026-04-17T09:18:48Z</time></trkpt><trkpt lat="36.940265276496945" lon="15.052332036782317"><ele>332.0</ele><time>2026-04-17T09:18:49Z</time></trkpt><trkpt lat="36.94014316601641" lon="15.05245637729157"><ele>330.33333333333337</ele><time>2026-04-17T09:18:50Z</time></trkpt><trkpt lat="36.94002706988138" lon="15.052588194750713"><ele>328.6666666666667</ele><time>2026-04-17T09:18:51Z</time></trkpt><trkpt lat="36.939915647773695" lon="15.052727683226834"><ele>327.0</ele><time>2026-04-17T09:18:52Z</time></trkpt><trkpt lat="36.93980636841158" lon="15.052867792618938"><ele>327.0</ele><time>2026-04-17T09:18:53Z</time></trkpt><trkpt lat="36.93971391903462" lon="15.05298725783197"><ele>327.0</ele><time>2026-04-17T09:18:54Z</time></trkpt><trkpt lat="36.939637388924965" lon="15.05308923276405"><ele>327.0</ele><time>2026-04-17T09:18:55Z</time></trkpt><trkpt lat="36.939574225423534" lon="15.0531937564359"><ele>327.0</ele><time>2026-04-17T09:18:56Z</time></trkpt><trkpt lat="36.93950475130316" lon="15.05327572506748"><ele>327.0</ele><time>2026-04-17T09:18:57Z</time></trkpt><trkpt lat="36.93944634673169" lon="15.053359055767825"><ele>326.5</ele><time>2026-04-17T09:18:58Z</time></trkpt><trkpt lat="36.93939773540731" lon="15.053453137203952"><ele>326.0</ele><time>2026-04-17T09:18:59Z</time></trkpt><trkpt lat="36.93931692876145" lon="15.053557727836594"><ele>325.5</ele><time>2026-04-17T09:19:00Z</time></trkpt><trkpt lat="36.939247886173476" lon="15.053692945375477"><ele>325.0</ele><time>2026-04-17T09:19:01Z</time></trkpt><trkpt lat="36.939163785971814" lon="15.053803735227794"><ele>325.0</ele><time>2026-04-17T09:19:02Z</time></trkpt><trkpt lat="36.9390973562509" lon="15.053903350532964"><ele>325.0</ele><time>2026-04-17T09:19:03Z</time></trkpt><trkpt lat="36.939033589782326" lon="15.053981353145002"><ele>325.0</ele><time>2026-04-17T09:19:04Z</time></trkpt><trkpt lat="36.93898584053824" lon="15.054072544855195"><ele>325.0</ele><time>2026-04-17T09:19:05Z</time></trkpt><trkpt lat="36.938916724096266" lon="15.05415457679423"><ele>325.0</ele><time>2026-04-17T09:19:06Z</time></trkpt><trkpt lat="36.938844383330974" lon="15.054237494577665"><ele>327.2</ele><time>2026-04-17T09:19:07Z</time></trkpt><trkpt lat="36.93876368842551" lon="15.05432572482032"><ele>329.4</ele><time>2026-04-17T09:19:08Z</time></trkpt><trkpt lat="36.93868062263002" lon="15.054410300740237"><ele>331.6</ele><time>2026-04-17T09:19:09Z</time></trkpt><trkpt lat="36.93859915117808" lon="15.054480770358028"><ele>333.8</ele><time>2026-04-17T09:19:10Z</time></trkpt><trkpt lat="36.93851779396404" lon="15.054546485518655"><ele>336.0</ele><time>2026-04-17T09:19:11Z</time></trkpt><trkpt lat="36.93843613869666" lon="15.054611512584087"><ele>335.8333333333333</ele><time>2026-04-17T09:19:12Z</time></trkpt><trkpt lat="36.93835341521727" lon="15.054682111047802"><ele>335.6666666666667</ele><time>2026-04-17T09:19:13Z</time></trkpt><trkpt lat="36.938271330969016" lon="15.054754700843274"><ele>335.5</ele><time>2026-04-17T09:19:14Z</time></trkpt><trkpt lat="36.938198437504994" lon="15.054817416321113"><ele>335.33333333333337</ele><time>2026-04-17T09:19:15Z</time></trkpt><trkpt lat="36.93813688340299" lon="15.054871690435702"><ele>335.1666666666667</ele><time>2026-04-17T09:19:16Z</time></trkpt><trkpt lat="36.93807766789491" lon="15.054916519315848"><ele>335.0</ele><time>2026-04-17T09:19:17Z</time></trkpt><trkpt lat="36.938023286662656" lon="15.054959161501898"><ele>335.0</ele><time>2026-04-17T09:19:18Z</time></trkpt><trkpt lat="36.93796600419008" lon="15.05500616985468"><ele>335.0</ele><time>2026-04-17T09:19:19Z</time></trkpt><trkpt lat="36.93787338619943" lon="15.055091902732556"><ele>335.0</ele><time>2026-04-17T09:19:21Z</time></trkpt><trkpt lat="36.93782250943853" lon="15.055142032265392"><ele>335.0</ele><time>2026-04-17T09:19:23Z</time></trkpt><trkpt lat="36.93775668983279" lon="15.055210125042715"><ele>335.0</ele><time>2026-04-17T09:19:43Z</time></trkpt><trkpt lat="36.937696373947524" lon="15.055345382761313"><ele>335.0</ele><time>2026-04-17T09:19:45Z</time></trkpt><trkpt lat="36.93763956206085" lon="15.055449243438217"><ele>335.0</ele><time>2026-04-17T09:19:46Z</time></trkpt><trkpt lat="36.93757088076361" lon="15.055562806189368"><ele>335.0</ele><time>2026-04-17T09:19:47Z</time></trkpt><trkpt lat="36.93749647559474" lon="15.055695776651072"><ele>335.0</ele><time>2026-04-17T09:19:48Z</time></trkpt><trkpt lat="36.93740236862981" lon="15.055857633262288"><ele>333.6666666666667</ele><time>2026-04-17T09:19:49Z</time></trkpt><trkpt lat="36.9373032205897" lon="15.056028670049768"><ele>332.3333333333333</ele><time>2026-04-17T09:19:50Z</time></trkpt><trkpt lat="36.93719670952197" lon="15.056209992746032"><ele>331.0</ele><time>2026-04-17T09:19:51Z</time></trkpt><trkpt lat="36.93708150574714" lon="15.056401505419245"><ele>331.0</ele><time>2026-04-17T09:19:52Z</time></trkpt><trkpt lat="36.936966534007446" lon="15.056596625263749"><ele>331.0</ele><time>2026-04-17T09:19:53Z</time></trkpt><trkpt lat="36.93685745962155" lon="15.056786972714537"><ele>331.0</ele><time>2026-04-17T09:19:54Z</time></trkpt><trkpt lat="36.93674840912941" lon="15.05697385754098"><ele>329.66666666666663</ele><time>2026-04-17T09:19:55Z</time></trkpt><trkpt lat="36.93663106044164" lon="15.057143502368614"><ele>328.3333333333333</ele><time>2026-04-17T09:19:56Z</time></trkpt><trkpt lat="36.93652620657719" lon="15.057322814320585"><ele>327.0</ele><time>2026-04-17T09:19:57Z</time></trkpt><trkpt lat="36.93642620940083" lon="15.057493714485823"><ele>327.0</ele><time>2026-04-17T09:19:58Z</time></trkpt><trkpt lat="36.936333142906356" lon="15.057652614165352"><ele>327.0</ele><time>2026-04-17T09:19:59Z</time></trkpt><trkpt lat="36.936243761005294" lon="15.05780515413164"><ele>327.0</ele><time>2026-04-17T09:20:00Z</time></trkpt><trkpt lat="36.93614847176215" lon="15.05796785374031"><ele>327.0</ele><time>2026-04-17T09:20:01Z</time></trkpt><trkpt lat="36.936055663679426" lon="15.058147802340464"><ele>327.0</ele><time>2026-04-17T09:20:02Z</time></trkpt><trkpt lat="36.93593363804564" lon="15.058322644172781"><ele>327.0</ele><time>2026-04-17T09:20:03Z</time></trkpt><trkpt lat="36.935806365517685" lon="15.058499592567363"><ele>325.6666666666667</ele><time>2026-04-17T09:20:04Z</time></trkpt><trkpt lat="36.935681031199174" lon="15.058665110806164"><ele>324.33333333333337</ele><time>2026-04-17T09:20:05Z</time></trkpt><trkpt lat="36.935569454106265" lon="15.058812157333321"><ele>323.0</ele><time>2026-04-17T09:20:06Z</time></trkpt><trkpt lat="36.93546855742347" lon="15.058946599320366"><ele>323.0</ele><time>2026-04-17T09:20:07Z</time></trkpt><trkpt lat="36.93537521008274" lon="15.059067232905447"><ele>323.0</ele><time>2026-04-17T09:20:08Z</time></trkpt><trkpt lat="36.935283786768984" lon="15.059171298964156"><ele>323.0</ele><time>2026-04-17T09:20:09Z</time></trkpt><trkpt lat="36.93517435865258" lon="15.05925862166731"><ele>323.0</ele><time>2026-04-17T09:20:10Z</time></trkpt><trkpt lat="36.935027627442366" lon="15.059329606980716"><ele>321.6666666666667</ele><time>2026-04-17T09:20:11Z</time></trkpt><trkpt lat="36.93486993735284" lon="15.059400022887441"><ele>320.3333333333333</ele><time>2026-04-17T09:20:12Z</time></trkpt><trkpt lat="36.93469378215699" lon="15.059477937673933"><ele>319.0</ele><time>2026-04-17T09:20:13Z</time></trkpt><trkpt lat="36.934517633975595" lon="15.059554697748094"><ele>319.0</ele><time>2026-04-17T09:20:14Z</time></trkpt><trkpt lat="36.93434347759888" lon="15.059635699148954"><ele>319.0</ele><time>2026-04-17T09:20:15Z</time></trkpt><trkpt lat="36.9341765121654" lon="15.059693440115577"><ele>319.0</ele><time>2026-04-17T09:20:16Z</time></trkpt><trkpt lat="36.93402193081111" lon="15.05976701318586"><ele>318.75</ele><time>2026-04-17T09:20:17Z</time></trkpt><trkpt lat="36.93387525061646" lon="15.05983682564725"><ele>318.5</ele><time>2026-04-17T09:20:18Z</time></trkpt><trkpt lat="36.93374114689735" lon="15.059900652362112"><ele>318.25</ele><time>2026-04-17T09:20:19Z</time></trkpt><trkpt lat="36.93361582004991" lon="15.059958506928794"><ele>318.0</ele><time>2026-04-17T09:20:20Z</time></trkpt><trkpt lat="36.933501717019084" lon="15.060007724414074"><ele>315.5</ele><time>2026-04-17T09:20:21Z</time></trkpt><trkpt lat="36.933378737930866" lon="15.06003863190388"><ele>313.0</ele><time>2026-04-17T09:20:22Z</time></trkpt><trkpt lat="36.93322517748647" lon="15.060049403026401"><ele>310.5</ele><time>2026-04-17T09:20:23Z</time></trkpt><trkpt lat="36.933065807902125" lon="15.060028018119882"><ele>308.0</ele><time>2026-04-17T09:20:24Z</time></trkpt><trkpt lat="36.93291844990572" lon="15.060033910272814"><ele>308.0</ele><time>2026-04-17T09:20:25Z</time></trkpt><trkpt lat="36.93276438283886" lon="15.06007452649311"><ele>308.0</ele><time>2026-04-17T09:20:26Z</time></trkpt><trkpt lat="36.93262050739815" lon="15.060127376802244"><ele>308.0</ele><time>2026-04-17T09:20:27Z</time></trkpt><trkpt lat="36.93249586702902" lon="15.060181744289649"><ele>308.0</ele><time>2026-04-17T09:20:28Z</time></trkpt><trkpt lat="36.9323873226035" lon="15.060240297019247"><ele>308.0</ele><time>2026-04-17T09:20:29Z</time></trkpt><trkpt lat="36.93227623273246" lon="15.060319644251477"><ele>308.0</ele><time>2026-04-17T09:20:30Z</time></trkpt><trkpt lat="36.93216454647724" lon="15.060443053845646"><ele>308.0</ele><time>2026-04-17T09:20:31Z</time></trkpt><trkpt lat="36.93207027384473" lon="15.060560662155275"><ele>308.0</ele><time>2026-04-17T09:20:32Z</time></trkpt><trkpt lat="36.93198420721281" lon="15.060660770408315"><ele>308.0</ele><time>2026-04-17T09:20:33Z</time></trkpt><trkpt lat="36.93189301556664" lon="15.060737530585543"><ele>308.0</ele><time>2026-04-17T09:20:34Z</time></trkpt><trkpt lat="36.931777615024934" lon="15.060788171520217"><ele>308.0</ele><time>2026-04-17T09:20:35Z</time></trkpt><trkpt lat="36.9316409339443" lon="15.06079942622676"><ele>308.0</ele><time>2026-04-17T09:20:36Z</time></trkpt><trkpt lat="36.931479174448306" lon="15.060826274579686"><ele>304.33333333333337</ele><time>2026-04-17T09:20:37Z</time></trkpt><trkpt lat="36.93130598083606" lon="15.060852233054312"><ele>300.6666666666667</ele><time>2026-04-17T09:20:38Z</time></trkpt><trkpt lat="36.931142037434284" lon="15.060909584447655"><ele>297.0</ele><time>2026-04-17T09:20:39Z</time></trkpt><trkpt lat="36.93098144351187" lon="15.06095232349546"><ele>296.25</ele><time>2026-04-17T09:20:40Z</time></trkpt><trkpt lat="36.930842263695496" lon="15.061007371062272"><ele>295.5</ele><time>2026-04-17T09:20:41Z</time></trkpt><trkpt lat="36.93072321846294" lon="15.061047104793397"><ele>294.75</ele><time>2026-04-17T09:20:42Z</time></trkpt><trkpt lat="36.93061158700537" lon="15.061077044382309"><ele>294.0</ele><time>2026-04-17T09:20:43Z</time></trkpt><trkpt lat="36.930502968024236" lon="15.061101086464875"><ele>294.0</ele><time>2026-04-17T09:20:44Z</time></trkpt><trkpt lat="36.930401508794816" lon="15.061082797103092"><ele>294.0</ele><time>2026-04-17T09:20:45Z</time></trkpt><trkpt lat="36.930313978565124" lon="15.06105978018839"><ele>294.0</ele><time>2026-04-17T09:20:46Z</time></trkpt><trkpt lat="36.93024711565906" lon="15.06103444664437"><ele>294.0</ele><time>2026-04-17T09:20:47Z</time></trkpt><trkpt lat="36.93017189800626" lon="15.06101011938873"><ele>294.0</ele><time>2026-04-17T09:20:49Z</time></trkpt><trkpt lat="36.93010802132737" lon="15.061101422446303"><ele>294.0</ele><time>2026-04-17T09:20:53Z</time></trkpt><trkpt lat="36.93010970761604" lon="15.061187777382083"><ele>294.0</ele><time>2026-04-17T09:20:54Z</time></trkpt><trkpt lat="36.930082161391326" lon="15.061267770181388"><ele>294.0</ele><time>2026-04-17T09:20:55Z</time></trkpt><trkpt lat="36.9300253672276" lon="15.061329367524927"><ele>294.0</ele><time>2026-04-17T09:20:56Z</time></trkpt><trkpt lat="36.92994400780762" lon="15.06139306216024"><ele>294.0</ele><time>2026-04-17T09:20:57Z</time></trkpt><trkpt lat="36.92987603927233" lon="15.061459668771736"><ele>294.0</ele><time>2026-04-17T09:20:58Z</time></trkpt><trkpt lat="36.92983266436142" lon="15.061547262028304"><ele>294.0</ele><time>2026-04-17T09:20:59Z</time></trkpt><trkpt lat="36.9298119598082" lon="15.061662633245742"><ele>294.0</ele><time>2026-04-17T09:21:00Z</time></trkpt><trkpt lat="36.9298040763823" lon="15.061777794477587"><ele>294.0</ele><time>2026-04-17T09:21:01Z</time></trkpt><trkpt lat="36.92980745817195" lon="15.061863262137521"><ele>294.0</ele><time>2026-04-17T09:21:02Z</time></trkpt><trkpt lat="36.929733561705596" lon="15.061930907870202"><ele>294.0</ele><time>2026-04-17T09:21:04Z</time></trkpt><trkpt lat="36.929625356562916" lon="15.061878582623201"><ele>294.0</ele><time>2026-04-17T09:21:06Z</time></trkpt><trkpt lat="36.92961212710998" lon="15.061794832574774"><ele>294.0</ele><time>2026-04-17T09:21:07Z</time></trkpt><trkpt lat="36.92963123181721" lon="15.061687441170795"><ele>294.0</ele><time>2026-04-17T09:21:08Z</time></trkpt><trkpt lat="36.92964352245004" lon="15.061578940080281"><ele>294.0</ele><time>2026-04-17T09:21:09Z</time></trkpt><trkpt lat="36.92957934453144" lon="15.061503987507797"><ele>294.0</ele><time>2026-04-17T09:21:11Z</time></trkpt><trkpt lat="36.929509617066586" lon="15.06157161892998"><ele>294.0</ele><time>2026-04-17T09:21:13Z</time></trkpt><trkpt lat="36.92955635134126" lon="15.061729207704714"><ele>294.0</ele><time>2026-04-17T09:21:15Z</time></trkpt><trkpt lat="36.929585959527" lon="15.061842443901275"><ele>294.0</ele><time>2026-04-17T09:21:16Z</time></trkpt><trkpt lat="36.929578404556054" lon="15.061974524826322"><ele>294.0</ele><time>2026-04-17T09:21:17Z</time></trkpt><trkpt lat="36.929570718893785" lon="15.062087223697896"><ele>294.0</ele><time>2026-04-17T09:21:18Z</time></trkpt><trkpt lat="36.929568549944335" lon="15.062172871896863"><ele>294.0</ele><time>2026-04-17T09:21:19Z</time></trkpt><trkpt lat="36.929520615761355" lon="15.062234751229457"><ele>294.0</ele><time>2026-04-17T09:21:21Z</time></trkpt><trkpt lat="36.92946147755298" lon="15.06215775179631"><ele>294.0</ele><time>2026-04-17T09:21:23Z</time></trkpt><trkpt lat="36.929478015611124" lon="15.062081003744021"><ele>294.0</ele><time>2026-04-17T09:21:24Z</time></trkpt><trkpt lat="36.92950103748146" lon="15.061999134803449"><ele>294.0</ele><time>2026-04-17T09:21:25Z</time></trkpt><trkpt lat="36.92944159612371" lon="15.06196167732954"><ele>294.0</ele><time>2026-04-17T09:21:27Z</time></trkpt><trkpt lat="36.92938678799026" lon="15.062054734344011"><ele>294.0</ele><time>2026-04-17T09:21:29Z</time></trkpt><trkpt lat="36.92940265661212" lon="15.062159840965844"><ele>294.0</ele><time>2026-04-17T09:21:30Z</time></trkpt><trkpt lat="36.92942988253328" lon="15.062269186700176"><ele>294.0</ele><time>2026-04-17T09:21:31Z</time></trkpt><trkpt lat="36.929469286117815" lon="15.062358235830388"><ele>294.0</ele><time>2026-04-17T09:21:32Z</time></trkpt><trkpt lat="36.92952714711607" lon="15.062410833579253"><ele>294.0</ele><time>2026-04-17T09:21:33Z</time></trkpt><trkpt lat="36.92957261159402" lon="15.062504853288571"><ele>294.0</ele><time>2026-04-17T09:21:35Z</time></trkpt><trkpt lat="36.92951302414017" lon="15.062573320886123"><ele>294.0</ele><time>2026-04-17T09:21:37Z</time></trkpt><trkpt lat="36.929457001863184" lon="15.062534925164531"><ele>294.0</ele><time>2026-04-17T09:21:38Z</time></trkpt><trkpt lat="36.92942670747449" lon="15.062447884171409"><ele>294.0</ele><time>2026-04-17T09:21:39Z</time></trkpt><trkpt lat="36.92939862935074" lon="15.06233023713196"><ele>294.0</ele><time>2026-04-17T09:21:40Z</time></trkpt><trkpt lat="36.929363432005" lon="15.062227294150524"><ele>294.0</ele><time>2026-04-17T09:21:41Z</time></trkpt><trkpt lat="36.92932142884478" lon="15.06213068309531"><ele>294.0</ele><time>2026-04-17T09:21:42Z</time></trkpt><trkpt lat="36.92927624105336" lon="15.062040263297106"><ele>294.0</ele><time>2026-04-17T09:21:43Z</time></trkpt><trkpt lat="36.929230566369895" lon="15.06195950445467"><ele>294.0</ele><time>2026-04-17T09:21:44Z</time></trkpt><trkpt lat="36.929175502310166" lon="15.06188604714585"><ele>294.0</ele><time>2026-04-17T09:21:45Z</time></trkpt><trkpt lat="36.92911012088024" lon="15.061822990979987"><ele>296.6666666666667</ele><time>2026-04-17T09:21:46Z</time></trkpt><trkpt lat="36.92902710084999" lon="15.061773732444351"><ele>299.3333333333333</ele><time>2026-04-17T09:21:47Z</time></trkpt><trkpt lat="36.92893790753842" lon="15.06173790091142"><ele>302.0</ele><time>2026-04-17T09:21:48Z</time></trkpt><trkpt lat="36.92885437187484" lon="15.061702138271665"><ele>304.66666666666663</ele><time>2026-04-17T09:21:49Z</time></trkpt><trkpt lat="36.92877479311879" lon="15.061661956419641"><ele>307.3333333333333</ele><time>2026-04-17T09:21:50Z</time></trkpt><trkpt lat="36.92868536411478" lon="15.061665572593554"><ele>310.0</ele><time>2026-04-17T09:21:51Z</time></trkpt><trkpt lat="36.92862394440088" lon="15.061639913633813"><ele>310.0</ele><time>2026-04-17T09:21:52Z</time></trkpt><trkpt lat="36.928556695417974" lon="15.06164556244753"><ele>310.0</ele><time>2026-04-17T09:21:54Z</time></trkpt><trkpt lat="36.92848219382548" lon="15.061714286926582"><ele>310.0</ele><time>2026-04-17T09:21:57Z</time></trkpt><trkpt lat="36.928504954077" lon="15.061800319141046"><ele>310.0</ele><time>2026-04-17T09:21:59Z</time></trkpt><trkpt lat="36.928496453356914" lon="15.061894913289139"><ele>310.0</ele><time>2026-04-17T09:22:05Z</time></trkpt><trkpt lat="36.928481555967714" lon="15.062060688366074"><ele>310.0</ele><time>2026-04-17T09:22:07Z</time></trkpt><trkpt lat="36.92847290358083" lon="15.062156970380595"><ele>310.0</ele><time>2026-04-17T09:22:08Z</time></trkpt><trkpt lat="36.92846423419498" lon="15.062253467268176"><ele>310.0</ele><time>2026-04-17T09:22:09Z</time></trkpt><trkpt lat="36.928443565580686" lon="15.06236598324381"><ele>310.0</ele><time>2026-04-17T09:22:10Z</time></trkpt><trkpt lat="36.928419906841235" lon="15.062477600994308"><ele>310.0</ele><time>2026-04-17T09:22:11Z</time></trkpt><trkpt lat="36.92839326036524" lon="15.062592316371042"><ele>310.0</ele><time>2026-04-17T09:22:12Z</time></trkpt><trkpt lat="36.92786521649779" lon="15.062606890938415"><ele>313.6</ele><time>2026-04-17T09:22:13Z</time></trkpt><trkpt lat="36.92782656712815" lon="15.062676759339448"><ele>317.2</ele><time>2026-04-17T09:22:14Z</time></trkpt><trkpt lat="36.927793279448316" lon="15.062749561982146"><ele>320.79999999999995</ele><time>2026-04-17T09:22:15Z</time></trkpt><trkpt lat="36.92773431833331" lon="15.06288675542314"><ele>324.4</ele><time>2026-04-17T09:22:17Z</time></trkpt><trkpt lat="36.92768131265044" lon="15.06300788739471"><ele>328.0</ele><time>2026-04-17T09:22:19Z</time></trkpt><trkpt lat="36.92763022494596" lon="15.063124441424865"><ele>328.0</ele><time>2026-04-17T09:22:21Z</time></trkpt><trkpt lat="36.92756699873061" lon="15.063157638894104"><ele>328.0</ele><time>2026-04-17T09:22:23Z</time></trkpt><trkpt lat="36.927501350805684" lon="15.063150690212815"><ele>328.0</ele><time>2026-04-17T09:22:24Z</time></trkpt><trkpt lat="36.92741849485415" lon="15.063122020886492"><ele>328.0</ele><time>2026-04-17T09:22:25Z</time></trkpt><trkpt lat="36.9273305112834" lon="15.063081661011593"><ele>328.0</ele><time>2026-04-17T09:22:26Z</time></trkpt><trkpt lat="36.92721870652577" lon="15.063018081867746"><ele>328.0</ele><time>2026-04-17T09:22:27Z</time></trkpt><trkpt lat="36.92708382040743" lon="15.062947299904218"><ele>328.25</ele><time>2026-04-17T09:22:28Z</time></trkpt><trkpt lat="36.9269594630759" lon="15.06288986620855"><ele>328.5</ele><time>2026-04-17T09:22:29Z</time></trkpt><trkpt lat="36.92683687586422" lon="15.062842860482325"><ele>328.75</ele><time>2026-04-17T09:22:30Z</time></trkpt><trkpt lat="36.92672384698618" lon="15.062803291625272"><ele>329.0</ele><time>2026-04-17T09:22:31Z</time></trkpt><trkpt lat="36.92660488727063" lon="15.062755492920264"><ele>327.25</ele><time>2026-04-17T09:22:32Z</time></trkpt><trkpt lat="36.92648023412092" lon="15.062708472284253"><ele>325.5</ele><time>2026-04-17T09:22:33Z</time></trkpt><trkpt lat="36.92634136485559" lon="15.062644824715935"><ele>323.75</ele><time>2026-04-17T09:22:34Z</time></trkpt><trkpt lat="36.92620956076078" lon="15.06258643054875"><ele>322.0</ele><time>2026-04-17T09:22:35Z</time></trkpt><trkpt lat="36.92610720360404" lon="15.062547921276819"><ele>322.0</ele><time>2026-04-17T09:22:36Z</time></trkpt><trkpt lat="36.92600837075483" lon="15.062500385963267"><ele>322.0</ele><time>2026-04-17T09:22:37Z</time></trkpt><trkpt lat="36.925893524355416" lon="15.062453134083519"><ele>322.0</ele><time>2026-04-17T09:22:38Z</time></trkpt><trkpt lat="36.92576383401378" lon="15.062384235312523"><ele>322.0</ele><time>2026-04-17T09:22:39Z</time></trkpt><trkpt lat="36.92562182898639" lon="15.062326179803375"><ele>319.25</ele><time>2026-04-17T09:22:40Z</time></trkpt><trkpt lat="36.92548993154274" lon="15.062272052248156"><ele>316.5</ele><time>2026-04-17T09:22:41Z</time></trkpt><trkpt lat="36.92536278634319" lon="15.062219865405462"><ele>313.75</ele><time>2026-04-17T09:22:42Z</time></trkpt><trkpt lat="36.925233225672685" lon="15.062185145421385"><ele>311.0</ele><time>2026-04-17T09:22:43Z</time></trkpt><trkpt lat="36.92510930232052" lon="15.062132958517864"><ele>308.5</ele><time>2026-04-17T09:22:44Z</time></trkpt><trkpt lat="36.924983978924296" lon="15.062080823051575"><ele>306.0</ele><time>2026-04-17T09:22:45Z</time></trkpt><trkpt lat="36.92486155447413" lon="15.062030979911608"><ele>303.5</ele><time>2026-04-17T09:22:46Z</time></trkpt><trkpt lat="36.924743742075975" lon="15.061984655585775"><ele>301.0</ele><time>2026-04-17T09:22:47Z</time></trkpt><trkpt lat="36.92463044864396" lon="15.061922074556408"><ele>301.0</ele><time>2026-04-17T09:22:48Z</time></trkpt><trkpt lat="36.92450991566847" lon="15.061889352313784"><ele>301.0</ele><time>2026-04-17T09:22:49Z</time></trkpt><trkpt lat="36.924394283949425" lon="15.061840680985997"><ele>301.0</ele><time>2026-04-17T09:22:50Z</time></trkpt><trkpt lat="36.924287375766184" lon="15.06179635726573"><ele>301.0</ele><time>2026-04-17T09:22:51Z</time></trkpt><trkpt lat="36.9241956578325" lon="15.061759335055957"><ele>299.40000000000003</ele><time>2026-04-17T09:22:52Z</time></trkpt><trkpt lat="36.92411724792901" lon="15.061726583840846"><ele>297.8</ele><time>2026-04-17T09:22:53Z</time></trkpt><trkpt lat="36.924053952546636" lon="15.061699384678574"><ele>296.20000000000005</ele><time>2026-04-17T09:22:54Z</time></trkpt><trkpt lat="36.92399174009874" lon="15.061912663670153"><ele>294.6</ele><time>2026-04-17T09:23:00Z</time></trkpt><trkpt lat="36.924004775049916" lon="15.062003603875308"><ele>293.0</ele><time>2026-04-17T09:23:01Z</time></trkpt><trkpt lat="36.924018556681155" lon="15.06210222625383"><ele>293.0</ele><time>2026-04-17T09:23:02Z</time></trkpt><trkpt lat="36.924030921547995" lon="15.06219983211194"><ele>293.0</ele><time>2026-04-17T09:23:03Z</time></trkpt><trkpt lat="36.92404494641855" lon="15.062317384578867"><ele>293.0</ele><time>2026-04-17T09:23:04Z</time></trkpt><trkpt lat="36.92406008313235" lon="15.062452718947"><ele>293.0</ele><time>2026-04-17T09:23:05Z</time></trkpt><trkpt lat="36.9240763347457" lon="15.062604406328509"><ele>293.0</ele><time>2026-04-17T09:23:06Z</time></trkpt><trkpt lat="36.924090181526715" lon="15.062743289903743"><ele>294.5</ele><time>2026-04-17T09:23:07Z</time></trkpt><trkpt lat="36.924100114375996" lon="15.06284291670099"><ele>296.0</ele><time>2026-04-17T09:23:08Z</time></trkpt><trkpt lat="36.924109912127655" lon="15.062940190685062"><ele>297.5</ele><time>2026-04-17T09:23:09Z</time></trkpt><trkpt lat="36.92409786088132" lon="15.063053542853972"><ele>299.0</ele><time>2026-04-17T09:23:11Z</time></trkpt><trkpt lat="36.92401573378322" lon="15.0630527547756"><ele>300.5</ele><time>2026-04-17T09:23:13Z</time></trkpt><trkpt lat="36.923925294620815" lon="15.063071673736536"><ele>302.0</ele><time>2026-04-17T09:23:14Z</time></trkpt><trkpt lat="36.92383711692697" lon="15.063068037611872"><ele>302.0</ele><time>2026-04-17T09:23:15Z</time></trkpt><trkpt lat="36.92375819532035" lon="15.06307686589455"><ele>302.0</ele><time>2026-04-17T09:23:16Z</time></trkpt><trkpt lat="36.92368645299665" lon="15.0631056410984"><ele>302.0</ele><time>2026-04-17T09:23:17Z</time></trkpt><trkpt lat="36.923615157417316" lon="15.063137100309"><ele>302.0</ele><time>2026-04-17T09:23:18Z</time></trkpt><trkpt lat="36.92354364962884" lon="15.063175618279196"><ele>302.0</ele><time>2026-04-17T09:23:19Z</time></trkpt><trkpt lat="36.92346560930731" lon="15.063227913776565"><ele>302.0</ele><time>2026-04-17T09:23:20Z</time></trkpt><trkpt lat="36.92338812362454" lon="15.063282735822645"><ele>300.5714285714286</ele><time>2026-04-17T09:23:21Z</time></trkpt><trkpt lat="36.92332086314293" lon="15.063338964553704"><ele>299.14285714285717</ele><time>2026-04-17T09:23:22Z</time></trkpt><trkpt lat="36.92326004610435" lon="15.063389122519629"><ele>297.7142857142857</ele><time>2026-04-17T09:23:23Z</time></trkpt><trkpt lat="36.92320134923695" lon="15.063431692839547"><ele>296.28571428571433</ele><time>2026-04-17T09:23:24Z</time></trkpt><trkpt lat="36.923138913593434" lon="15.063474376917267"><ele>294.8571428571429</ele><time>2026-04-17T09:23:25Z</time></trkpt><trkpt lat="36.92307631923479" lon="15.063511394773037"><ele>293.42857142857144</ele><time>2026-04-17T09:23:26Z</time></trkpt><trkpt lat="36.92301231361707" lon="15.063548226402707"><ele>292.0</ele><time>2026-04-17T09:23:27Z</time></trkpt><trkpt lat="36.9229016149173" lon="15.063635052133622"><ele>292.0</ele><time>2026-04-17T09:23:29Z</time></trkpt><trkpt lat="36.92283405412059" lon="15.063673483532158"><ele>292.0</ele><time>2026-04-17T09:23:30Z</time></trkpt><trkpt lat="36.92276521459694" lon="15.063694711267075"><ele>292.0</ele><time>2026-04-17T09:23:31Z</time></trkpt><trkpt lat="36.92269288873809" lon="15.063720562936949"><ele>292.0</ele><time>2026-04-17T09:23:32Z</time></trkpt><trkpt lat="36.92262999134742" lon="15.063759029140178"><ele>292.0</ele><time>2026-04-17T09:23:33Z</time></trkpt><trkpt lat="36.922575788969006" lon="15.063713685218609"><ele>292.0</ele><time>2026-04-17T09:23:34Z</time></trkpt><trkpt lat="36.92252263826738" lon="15.063779748559407"><ele>292.0</ele><time>2026-04-17T09:23:37Z</time></trkpt><trkpt lat="36.92254828877087" lon="15.063869803853239"><ele>292.0</ele><time>2026-04-17T09:23:39Z</time></trkpt><trkpt lat="36.92264127943333" lon="15.063893177145419"><ele>292.0</ele><time>2026-04-17T09:23:40Z</time></trkpt><trkpt lat="36.922717266829984" lon="15.063902596597014"><ele>292.0</ele><time>2026-04-17T09:23:41Z</time></trkpt><trkpt lat="36.92279958742015" lon="15.063861761373772"><ele>292.0</ele><time>2026-04-17T09:23:42Z</time></trkpt><trkpt lat="36.92286552117046" lon="15.063874009598397"><ele>292.0</ele><time>2026-04-17T09:23:43Z</time></trkpt><trkpt lat="36.922966145050786" lon="15.063901369372859"><ele>292.0</ele><time>2026-04-17T09:23:45Z</time></trkpt><trkpt lat="36.922883926178" lon="15.063921842028215"><ele>292.0</ele><time>2026-04-17T09:23:51Z</time></trkpt><trkpt lat="36.92279015278082" lon="15.063939551824452"><ele>292.0</ele><time>2026-04-17T09:23:52Z</time></trkpt><trkpt lat="36.92271085404059" lon="15.063948105133651"><ele>292.0</ele><time>2026-04-17T09:23:53Z</time></trkpt><trkpt lat="36.92261639477585" lon="15.063957424507242"><ele>292.0</ele><time>2026-04-17T09:23:55Z</time></trkpt><trkpt lat="36.92252998927038" lon="15.063924284748301"><ele>292.0</ele><time>2026-04-17T09:23:58Z</time></trkpt><trkpt lat="36.92243903270578" lon="15.063913209395357"><ele>291.66666666666663</ele><time>2026-04-17T09:23:59Z</time></trkpt><trkpt lat="36.922336778783354" lon="15.063902296874286"><ele>291.3333333333333</ele><time>2026-04-17T09:24:00Z</time></trkpt><trkpt lat="36.92224689325931" lon="15.063907251262364"><ele>291.0</ele><time>2026-04-17T09:24:01Z</time></trkpt><trkpt lat="36.922178556946065" lon="15.063928769203498"><ele>290.6666666666667</ele><time>2026-04-17T09:24:02Z</time></trkpt><trkpt lat="36.9221153700089" lon="15.063923866161312"><ele>290.33333333333337</ele><time>2026-04-17T09:24:03Z</time></trkpt><trkpt lat="36.92204867664323" lon="15.063934987727155"><ele>290.0</ele><time>2026-04-17T09:24:04Z</time></trkpt><trkpt lat="36.92198289313193" lon="15.063945957574996"><ele>290.0</ele><time>2026-04-17T09:24:05Z</time></trkpt><trkpt lat="36.92191528181748" lon="15.063971523912036"><ele>290.0</ele><time>2026-04-17T09:24:06Z</time></trkpt><trkpt lat="36.92184721380487" lon="15.063982666867176"><ele>290.0</ele><time>2026-04-17T09:24:07Z</time></trkpt><trkpt lat="36.92177812070793" lon="15.06399625392751"><ele>290.0</ele><time>2026-04-17T09:24:08Z</time></trkpt><trkpt lat="36.92166234164179" lon="15.063993537547992"><ele>290.0</ele><time>2026-04-17T09:24:10Z</time></trkpt><trkpt lat="36.921611012201275" lon="15.063942737713173"><ele>290.0</ele><time>2026-04-17T09:24:12Z</time></trkpt><trkpt lat="36.921702026221666" lon="15.063857492671557"><ele>290.0</ele><time>2026-04-17T09:24:14Z</time></trkpt><trkpt lat="36.921800134833774" lon="15.063843908944557"><ele>290.0</ele><time>2026-04-17T09:24:15Z</time></trkpt><trkpt lat="36.92187561444898" lon="15.063798437902795"><ele>290.0</ele><time>2026-04-17T09:24:16Z</time></trkpt><trkpt lat="36.92195277765821" lon="15.063770567210664"><ele>290.0</ele><time>2026-04-17T09:24:17Z</time></trkpt><trkpt lat="36.922026422533435" lon="15.063688497810174"><ele>290.0</ele><time>2026-04-17T09:24:19Z</time></trkpt><trkpt lat="36.92196204286536" lon="15.063576865674904"><ele>290.0</ele><time>2026-04-17T09:24:21Z</time></trkpt><trkpt lat="36.92187497668807" lon="15.063576413449438"><ele>290.0</ele><time>2026-04-17T09:24:22Z</time></trkpt><trkpt lat="36.92179004925096" lon="15.063581158440986"><ele>290.0</ele><time>2026-04-17T09:24:23Z</time></trkpt><trkpt lat="36.921710546291024" lon="15.063573439151238"><ele>290.0</ele><time>2026-04-17T09:24:24Z</time></trkpt><trkpt lat="36.92162635360718" lon="15.063563540931854"><ele>290.0</ele><time>2026-04-17T09:24:25Z</time></trkpt><trkpt lat="36.92154725182904" lon="15.063560373081502"><ele>290.0</ele><time>2026-04-17T09:24:26Z</time></trkpt><trkpt lat="36.921437598691185" lon="15.063541976527166"><ele>290.0</ele><time>2026-04-17T09:24:28Z</time></trkpt><trkpt lat="36.921386028426994" lon="15.063405417604889"><ele>290.0</ele><time>2026-04-17T09:24:30Z</time></trkpt><trkpt lat="36.921371522262106" lon="15.063290058170098"><ele>290.0</ele><time>2026-04-17T09:24:31Z</time></trkpt><trkpt lat="36.92135818058993" lon="15.063157261683559"><ele>290.0</ele><time>2026-04-17T09:24:32Z</time></trkpt><trkpt lat="36.92134069783417" lon="15.063047155528215"><ele>290.0</ele><time>2026-04-17T09:24:33Z</time></trkpt><trkpt lat="36.921304858443726" lon="15.062943117500234"><ele>290.0</ele><time>2026-04-17T09:24:34Z</time></trkpt><trkpt lat="36.92125199632744" lon="15.062854113085217"><ele>290.0</ele><time>2026-04-17T09:24:35Z</time></trkpt><trkpt lat="36.92120341785183" lon="15.062759011657647"><ele>290.0</ele><time>2026-04-17T09:24:36Z</time></trkpt><trkpt lat="36.921149181552714" lon="15.062658835555553"><ele>290.0</ele><time>2026-04-17T09:24:37Z</time></trkpt><trkpt lat="36.92110454433624" lon="15.062547625988499"><ele>290.0</ele><time>2026-04-17T09:24:38Z</time></trkpt><trkpt lat="36.92105080548839" lon="15.062441508670048"><ele>291.0</ele><time>2026-04-17T09:24:39Z</time></trkpt><trkpt lat="36.920997506919356" lon="15.062322148956591"><ele>292.0</ele><time>2026-04-17T09:24:40Z</time></trkpt><trkpt lat="36.92093760228589" lon="15.062192534572029"><ele>293.0</ele><time>2026-04-17T09:24:41Z</time></trkpt><trkpt lat="36.92087611164838" lon="15.062103676580346"><ele>294.0</ele><time>2026-04-17T09:24:42Z</time></trkpt><trkpt lat="36.92084238316266" lon="15.061999474053712"><ele>295.0</ele><time>2026-04-17T09:24:43Z</time></trkpt><trkpt lat="36.9208002216804" lon="15.061908029524114"><ele>295.0</ele><time>2026-04-17T09:24:44Z</time></trkpt><trkpt lat="36.92076409568208" lon="15.061829675472556"><ele>295.0</ele><time>2026-04-17T09:24:45Z</time></trkpt><trkpt lat="36.9207211216636" lon="15.061761574420219"><ele>295.0</ele><time>2026-04-17T09:24:46Z</time></trkpt><trkpt lat="36.920630578743456" lon="15.061687325462824"><ele>295.0</ele><time>2026-04-17T09:24:48Z</time></trkpt><trkpt lat="36.92053188841964" lon="15.061772909970792"><ele>295.0</ele><time>2026-04-17T09:24:50Z</time></trkpt><trkpt lat="36.92052214911247" lon="15.061867475939778"><ele>295.0</ele><time>2026-04-17T09:24:51Z</time></trkpt><trkpt lat="36.92054972493365" lon="15.061976527437741"><ele>295.0</ele><time>2026-04-17T09:24:52Z</time></trkpt><trkpt lat="36.9205975460549" lon="15.062105649673605"><ele>295.0</ele><time>2026-04-17T09:24:53Z</time></trkpt><trkpt lat="36.92065109862606" lon="15.062259372412207"><ele>295.0</ele><time>2026-04-17T09:24:54Z</time></trkpt><trkpt lat="36.92069280908806" lon="15.062412260304002"><ele>295.0</ele><time>2026-04-17T09:24:55Z</time></trkpt><trkpt lat="36.920725650091995" lon="15.062576317215903"><ele>296.6</ele><time>2026-04-17T09:24:56Z</time></trkpt><trkpt lat="36.92073558941627" lon="15.062721157922033"><ele>298.2</ele><time>2026-04-17T09:24:57Z</time></trkpt><trkpt lat="36.92076934340189" lon="15.062813459049535"><ele>299.8</ele><time>2026-04-17T09:24:58Z</time></trkpt><trkpt lat="36.92078141039379" lon="15.062912455381083"><ele>301.4</ele><time>2026-04-17T09:24:59Z</time></trkpt><trkpt lat="36.92078405994453" lon="15.063009086429973"><ele>303.0</ele><time>2026-04-17T09:25:00Z</time></trkpt><trkpt lat="36.92078094957794" lon="15.063140158862208"><ele>303.0</ele><time>2026-04-17T09:25:02Z</time></trkpt><trkpt lat="36.920697606838566" lon="15.063138198332105"><ele>303.0</ele><time>2026-04-17T09:25:04Z</time></trkpt><trkpt lat="36.920650547539864" lon="15.063052793562383"><ele>303.0</ele><time>2026-04-17T09:25:05Z</time></trkpt><trkpt lat="36.92066410267895" lon="15.062925263073273"><ele>303.0</ele><time>2026-04-17T09:25:06Z</time></trkpt><trkpt lat="36.92063100977429" lon="15.062828740718293"><ele>303.0</ele><time>2026-04-17T09:25:07Z</time></trkpt><trkpt lat="36.92058199119326" lon="15.062728053689293"><ele>303.0</ele><time>2026-04-17T09:25:08Z</time></trkpt><trkpt lat="36.9205073862065" lon="15.06261800534354"><ele>303.0</ele><time>2026-04-17T09:25:09Z</time></trkpt><trkpt lat="36.92044360673082" lon="15.062510585392141"><ele>303.0</ele><time>2026-04-17T09:25:10Z</time></trkpt><trkpt lat="36.920385682334626" lon="15.06241904458004"><ele>303.0</ele><time>2026-04-17T09:25:11Z</time></trkpt><trkpt lat="36.920314898787225" lon="15.062330541137255"><ele>303.0</ele><time>2026-04-17T09:25:12Z</time></trkpt><trkpt lat="36.920229885148075" lon="15.062249697594405"><ele>303.0</ele><time>2026-04-17T09:25:13Z</time></trkpt><trkpt lat="36.9201429761065" lon="15.062161208909966"><ele>301.6666666666667</ele><time>2026-04-17T09:25:14Z</time></trkpt><trkpt lat="36.9200754596126" lon="15.062072536195345"><ele>300.3333333333333</ele><time>2026-04-17T09:25:15Z</time></trkpt><trkpt lat="36.920022686718895" lon="15.062011727098936"><ele>299.0</ele><time>2026-04-17T09:25:16Z</time></trkpt><trkpt lat="36.919971220379644" lon="15.061963971427168"><ele>297.66666666666663</ele><time>2026-04-17T09:25:17Z</time></trkpt><trkpt lat="36.919867904243034" lon="15.061922414541426"><ele>296.3333333333333</ele><time>2026-04-17T09:25:19Z</time></trkpt><trkpt lat="36.91980200395811" lon="15.06195669494451"><ele>295.0</ele><time>2026-04-17T09:25:22Z</time></trkpt><trkpt lat="36.9198086070654" lon="15.061814902458556"><ele>300.75</ele><time>2026-04-17T09:25:24Z</time></trkpt><trkpt lat="36.919727926958515" lon="15.061898189904307"><ele>306.5</ele><time>2026-04-17T09:25:27Z</time></trkpt><trkpt lat="36.91963634101556" lon="15.061992137518601"><ele>312.25</ele><time>2026-04-17T09:25:29Z</time></trkpt><trkpt lat="36.91954418931013" lon="15.062012283391368"><ele>318.0</ele><time>2026-04-17T09:25:30Z</time></trkpt><trkpt lat="36.91940714081973" lon="15.061751331719135"><ele>318.0</ele><time>2026-04-17T09:25:31Z</time></trkpt><trkpt lat="36.91931603356642" lon="15.061725822768437"><ele>318.0</ele><time>2026-04-17T09:25:32Z</time></trkpt><trkpt lat="36.91923727923537" lon="15.061709432663196"><ele>318.0</ele><time>2026-04-17T09:25:33Z</time></trkpt><trkpt lat="36.91915212977459" lon="15.06169391558454"><ele>318.0</ele><time>2026-04-17T09:25:34Z</time></trkpt><trkpt lat="36.919056532901834" lon="15.06168160058107"><ele>318.0</ele><time>2026-04-17T09:25:35Z</time></trkpt><trkpt lat="36.918960938209075" lon="15.061685423539394"><ele>317.8333333333333</ele><time>2026-04-17T09:25:36Z</time></trkpt><trkpt lat="36.918876341717095" lon="15.061688768676936"><ele>317.6666666666667</ele><time>2026-04-17T09:25:37Z</time></trkpt><trkpt lat="36.918785410637895" lon="15.061697395292809"><ele>317.5</ele><time>2026-04-17T09:25:38Z</time></trkpt><trkpt lat="36.91869231140365" lon="15.061702016374829"><ele>317.33333333333337</ele><time>2026-04-17T09:25:39Z</time></trkpt><trkpt lat="36.91860704293043" lon="15.061706995748873"><ele>317.1666666666667</ele><time>2026-04-17T09:25:40Z</time></trkpt><trkpt lat="36.918533210026844" lon="15.061718511902395"><ele>317.0</ele><time>2026-04-17T09:25:41Z</time></trkpt><trkpt lat="36.91844464639359" lon="15.061730206560695"><ele>315.25</ele><time>2026-04-17T09:25:42Z</time></trkpt><trkpt lat="36.91832891542894" lon="15.061736645810896"><ele>313.5</ele><time>2026-04-17T09:25:43Z</time></trkpt><trkpt lat="36.9181970340779" lon="15.061740135989538"><ele>311.75</ele><time>2026-04-17T09:25:44Z</time></trkpt><trkpt lat="36.91808218276776" lon="15.061746830572488"><ele>310.0</ele><time>2026-04-17T09:25:45Z</time></trkpt><trkpt lat="36.91797357342562" lon="15.0617536812657"><ele>310.0</ele><time>2026-04-17T09:25:46Z</time></trkpt><trkpt lat="36.917832051140266" lon="15.061762131559634"><ele>310.0</ele><time>2026-04-17T09:25:47Z</time></trkpt><trkpt lat="36.91772077232628" lon="15.061765863093408"><ele>310.0</ele><time>2026-04-17T09:25:48Z</time></trkpt><trkpt lat="36.917615236109825" lon="15.061770907859541"><ele>310.0</ele><time>2026-04-17T09:25:49Z</time></trkpt><trkpt lat="36.91749155163128" lon="15.061781831210974"><ele>309.6</ele><time>2026-04-17T09:25:50Z</time></trkpt><trkpt lat="36.91737505830415" lon="15.061787894870742"><ele>309.2</ele><time>2026-04-17T09:25:51Z</time></trkpt><trkpt lat="36.91727884953651" lon="15.061792644485525"><ele>308.8</ele><time>2026-04-17T09:25:52Z</time></trkpt><trkpt lat="36.91717016961839" lon="15.061803273862074"><ele>308.4</ele><time>2026-04-17T09:25:53Z</time></trkpt><trkpt lat="36.917073449973365" lon="15.061804715014052"><ele>308.0</ele><time>2026-04-17T09:25:54Z</time></trkpt><trkpt lat="36.91698675546498" lon="15.061791170375457"><ele>308.0</ele><time>2026-04-17T09:25:55Z</time></trkpt><trkpt lat="36.91687990901346" lon="15.06177037450347"><ele>308.0</ele><time>2026-04-17T09:25:56Z</time></trkpt><trkpt lat="36.916772475382515" lon="15.061742512588495"><ele>308.0</ele><time>2026-04-17T09:25:57Z</time></trkpt><trkpt lat="36.916678012589145" lon="15.061703242547404"><ele>308.0</ele><time>2026-04-17T09:25:58Z</time></trkpt><trkpt lat="36.91659493169984" lon="15.061649691401392"><ele>308.0</ele><time>2026-04-17T09:25:59Z</time></trkpt><trkpt lat="36.91651748890785" lon="15.061583671425778"><ele>309.0</ele><time>2026-04-17T09:26:00Z</time></trkpt><trkpt lat="36.91645327836878" lon="15.061517983597904"><ele>310.0</ele><time>2026-04-17T09:26:01Z</time></trkpt><trkpt lat="36.91640943498307" lon="15.06144631564721"><ele>311.0</ele><time>2026-04-17T09:26:02Z</time></trkpt><trkpt lat="36.91635089428169" lon="15.061354278659845"><ele>312.0</ele><time>2026-04-17T09:26:04Z</time></trkpt><trkpt lat="36.91630419753419" lon="15.061273511798547"><ele>313.0</ele><time>2026-04-17T09:26:38Z</time></trkpt><trkpt lat="36.916265332414184" lon="15.061201057824855"><ele>314.0</ele><time>2026-04-17T09:26:39Z</time></trkpt><trkpt lat="36.91620408051629" lon="15.061106991597253"><ele>314.0</ele><time>2026-04-17T09:26:40Z</time></trkpt><trkpt lat="36.916143261895705" lon="15.061014008819694"><ele>314.0</ele><time>2026-04-17T09:26:41Z</time></trkpt><trkpt lat="36.9160711329089" lon="15.060925821687814"><ele>314.0</ele><time>2026-04-17T09:26:42Z</time></trkpt><trkpt lat="36.91599995690087" lon="15.060846788157658"><ele>314.0</ele><time>2026-04-17T09:26:43Z</time></trkpt><trkpt lat="36.91591981670694" lon="15.060790893159668"><ele>314.0</ele><time>2026-04-17T09:26:44Z</time></trkpt><trkpt lat="36.91584671950779" lon="15.060743391982475"><ele>313.6666666666667</ele><time>2026-04-17T09:26:45Z</time></trkpt><trkpt lat="36.91577465754831" lon="15.06072500802777"><ele>313.33333333333337</ele><time>2026-04-17T09:26:46Z</time></trkpt><trkpt lat="36.91569878914265" lon="15.060711510868265"><ele>313.0</ele><time>2026-04-17T09:26:47Z</time></trkpt><trkpt lat="36.91561720048183" lon="15.060715616291482"><ele>312.6666666666667</ele><time>2026-04-17T09:26:48Z</time></trkpt><trkpt lat="36.91552645743247" lon="15.060729088396485"><ele>312.3333333333333</ele><time>2026-04-17T09:26:49Z</time></trkpt><trkpt lat="36.915414096704495" lon="15.060747863357768"><ele>312.0</ele><time>2026-04-17T09:26:50Z</time></trkpt><trkpt lat="36.915296804149634" lon="15.060761403365502"><ele>310.6</ele><time>2026-04-17T09:26:51Z</time></trkpt><trkpt lat="36.91517368463772" lon="15.060795951131032"><ele>309.2</ele><time>2026-04-17T09:26:52Z</time></trkpt><trkpt lat="36.9150515748708" lon="15.06080741542056"><ele>307.8</ele><time>2026-04-17T09:26:53Z</time></trkpt><trkpt lat="36.9149559396055" lon="15.060783991815526"><ele>306.4</ele><time>2026-04-17T09:26:54Z</time></trkpt><trkpt lat="36.914873773396884" lon="15.0607573386346"><ele>305.0</ele><time>2026-04-17T09:26:55Z</time></trkpt><trkpt lat="36.91479373728282" lon="15.060715024261361"><ele>305.0</ele><time>2026-04-17T09:26:56Z</time></trkpt><trkpt lat="36.91469620800648" lon="15.060669187673664"><ele>305.0</ele><time>2026-04-17T09:26:57Z</time></trkpt><trkpt lat="36.91458940249246" lon="15.060607152429515"><ele>305.0</ele><time>2026-04-17T09:26:58Z</time></trkpt><trkpt lat="36.91448802633124" lon="15.060563155222615"><ele>305.0</ele><time>2026-04-17T09:26:59Z</time></trkpt><trkpt lat="36.914391385161835" lon="15.060526780245095"><ele>305.0</ele><time>2026-04-17T09:27:00Z</time></trkpt><trkpt lat="36.914294775036744" lon="15.06049260412226"><ele>301.2</ele><time>2026-04-17T09:27:01Z</time></trkpt><trkpt lat="36.914202602952265" lon="15.060449249887341"><ele>297.4</ele><time>2026-04-17T09:27:02Z</time></trkpt><trkpt lat="36.91411075935632" lon="15.060402295541419"><ele>293.6</ele><time>2026-04-17T09:27:03Z</time></trkpt><trkpt lat="36.91403513458769" lon="15.060326829176043"><ele>289.8</ele><time>2026-04-17T09:27:04Z</time></trkpt><trkpt lat="36.913952713368985" lon="15.06024442754214"><ele>286.0</ele><time>2026-04-17T09:27:05Z</time></trkpt><trkpt lat="36.913853917863634" lon="15.060163843112285"><ele>286.0</ele><time>2026-04-17T09:27:06Z</time></trkpt><trkpt lat="36.91376779778864" lon="15.060075380990487"><ele>286.0</ele><time>2026-04-17T09:27:07Z</time></trkpt><trkpt lat="36.913682472603426" lon="15.059991528242724"><ele>286.0</ele><time>2026-04-17T09:27:08Z</time></trkpt><trkpt lat="36.913600400087084" lon="15.059914444145459"><ele>286.0</ele><time>2026-04-17T09:27:09Z</time></trkpt><trkpt lat="36.91351880703219" lon="15.059844491050578"><ele>286.0</ele><time>2026-04-17T09:27:10Z</time></trkpt><trkpt lat="36.9134376675744" lon="15.059777040426518"><ele>282.5</ele><time>2026-04-17T09:27:11Z</time></trkpt><trkpt lat="36.91337695516037" lon="15.059694817580908"><ele>279.0</ele><time>2026-04-17T09:27:12Z</time></trkpt><trkpt lat="36.913297739093984" lon="15.059639534510532"><ele>275.5</ele><time>2026-04-17T09:27:13Z</time></trkpt><trkpt lat="36.913232441372635" lon="15.059572932398455"><ele>272.0</ele><time>2026-04-17T09:27:14Z</time></trkpt><trkpt lat="36.913166599449454" lon="15.05951345772161"><ele>268.5</ele><time>2026-04-17T09:27:15Z</time></trkpt><trkpt lat="36.913099887499264" lon="15.059459339840874"><ele>265.0</ele><time>2026-04-17T09:27:16Z</time></trkpt><trkpt lat="36.91303022425442" lon="15.059413372073108"><ele>265.0</ele><time>2026-04-17T09:27:17Z</time></trkpt><trkpt lat="36.9129422982067" lon="15.059354349856894"><ele>265.0</ele><time>2026-04-17T09:27:18Z</time></trkpt><trkpt lat="36.91285590474376" lon="15.059304768619215"><ele>265.0</ele><time>2026-04-17T09:27:19Z</time></trkpt><trkpt lat="36.912773940839905" lon="15.059255056224307"><ele>265.0</ele><time>2026-04-17T09:27:20Z</time></trkpt><trkpt lat="36.91269558595404" lon="15.059218059320555"><ele>265.0</ele><time>2026-04-17T09:27:21Z</time></trkpt><trkpt lat="36.91262002821519" lon="15.059196122750967"><ele>265.0</ele><time>2026-04-17T09:27:22Z</time></trkpt><trkpt lat="36.91255226640086" lon="15.059162525413985"><ele>262.4285714285714</ele><time>2026-04-17T09:27:23Z</time></trkpt><trkpt lat="36.912500067676966" lon="15.059108006501129"><ele>259.85714285714283</ele><time>2026-04-17T09:27:24Z</time></trkpt><trkpt lat="36.91245146874666" lon="15.05903670052242"><ele>257.2857142857143</ele><time>2026-04-17T09:27:25Z</time></trkpt><trkpt lat="36.91239800298156" lon="15.05897269480761"><ele>254.7142857142857</ele><time>2026-04-17T09:27:26Z</time></trkpt><trkpt lat="36.912339657160175" lon="15.058915558547708"><ele>252.1428571428571</ele><time>2026-04-17T09:27:27Z</time></trkpt><trkpt lat="36.91228493563088" lon="15.058865326563629"><ele>249.57142857142858</ele><time>2026-04-17T09:27:28Z</time></trkpt><trkpt lat="36.91223079679155" lon="15.058821797172962"><ele>247.0</ele><time>2026-04-17T09:27:29Z</time></trkpt><trkpt lat="36.912170070941556" lon="15.058774933452776"><ele>246.99999999999997</ele><time>2026-04-17T09:27:30Z</time></trkpt><trkpt lat="36.91210715007894" lon="15.058716022229168"><ele>247.0</ele><time>2026-04-17T09:27:31Z</time></trkpt><trkpt lat="36.91203358244856" lon="15.058644671508757"><ele>247.0</ele><time>2026-04-17T09:27:32Z</time></trkpt><trkpt lat="36.911974089780266" lon="15.05858798237634"><ele>247.0</ele><time>2026-04-17T09:27:33Z</time></trkpt><trkpt lat="36.911916883658805" lon="15.058535405720992"><ele>246.99999999999997</ele><time>2026-04-17T09:27:34Z</time></trkpt><trkpt lat="36.91185647313334" lon="15.058482864292696"><ele>247.0</ele><time>2026-04-17T09:27:35Z</time></trkpt><trkpt lat="36.91179300678561" lon="15.058435937328303"><ele>247.14285714285717</ele><time>2026-04-17T09:27:36Z</time></trkpt><trkpt lat="36.91172565235946" lon="15.058387867729488"><ele>247.28571428571428</ele><time>2026-04-17T09:27:37Z</time></trkpt><trkpt lat="36.91166158597585" lon="15.058340133215626"><ele>247.42857142857144</ele><time>2026-04-17T09:27:38Z</time></trkpt><trkpt lat="36.911600887381766" lon="15.058283401994155"><ele>247.57142857142858</ele><time>2026-04-17T09:27:39Z</time></trkpt><trkpt lat="36.91155279348819" lon="15.05821784735327"><ele>247.71428571428572</ele><time>2026-04-17T09:27:40Z</time></trkpt><trkpt lat="36.9115094964978" lon="15.058146921225799"><ele>247.85714285714286</ele><time>2026-04-17T09:27:41Z</time></trkpt><trkpt lat="36.911466279756326" lon="15.058079640796107"><ele>248.0</ele><time>2026-04-17T09:27:42Z</time></trkpt><trkpt lat="36.9114214463019" lon="15.058006922798812"><ele>247.00000000000003</ele><time>2026-04-17T09:27:43Z</time></trkpt><trkpt lat="36.91136832070102" lon="15.057930078933381"><ele>246.0</ele><time>2026-04-17T09:27:44Z</time></trkpt><trkpt lat="36.91131698450959" lon="15.057855130378508"><ele>245.0</ele><time>2026-04-17T09:27:45Z</time></trkpt><trkpt lat="36.911254873528804" lon="15.057804504211548"><ele>244.0</ele><time>2026-04-17T09:27:46Z</time></trkpt><trkpt lat="36.911180444241495" lon="15.057775523970594"><ele>243.00000000000003</ele><time>2026-04-17T09:27:47Z</time></trkpt><trkpt lat="36.911102567181764" lon="15.05775411820647"><ele>242.0</ele><time>2026-04-17T09:27:48Z</time></trkpt><trkpt lat="36.911009452781634" lon="15.05772631268019"><ele>239.25</ele><time>2026-04-17T09:27:49Z</time></trkpt><trkpt lat="36.9108949142158" lon="15.057679734245218"><ele>236.5</ele><time>2026-04-17T09:27:50Z</time></trkpt><trkpt lat="36.91077292916877" lon="15.057626547081219"><ele>233.75</ele><time>2026-04-17T09:27:51Z</time></trkpt><trkpt lat="36.91064433210931" lon="15.057578893037373"><ele>231.0</ele><time>2026-04-17T09:27:52Z</time></trkpt><trkpt lat="36.91050999089405" lon="15.057534390612066"><ele>231.0</ele><time>2026-04-17T09:27:53Z</time></trkpt><trkpt lat="36.910374132896706" lon="15.057482415755992"><ele>231.0</ele><time>2026-04-17T09:27:54Z</time></trkpt><trkpt lat="36.91023847217369" lon="15.057416830626327"><ele>231.0</ele><time>2026-04-17T09:27:55Z</time></trkpt><trkpt lat="36.91011396459535" lon="15.057334211950009"><ele>231.0</ele><time>2026-04-17T09:27:56Z</time></trkpt><trkpt lat="36.90999328537245" lon="15.057255657300383"><ele>225.5</ele><time>2026-04-17T09:27:57Z</time></trkpt><trkpt lat="36.909878537883024" lon="15.057190262171119"><ele>220.0</ele><time>2026-04-17T09:27:58Z</time></trkpt><trkpt lat="36.90976365368522" lon="15.05713261487019"><ele>214.5</ele><time>2026-04-17T09:27:59Z</time></trkpt><trkpt lat="36.909649703307124" lon="15.057103406505396"><ele>209.0</ele><time>2026-04-17T09:28:00Z</time></trkpt><trkpt lat="36.90952364325689" lon="15.05709884205487"><ele>209.0</ele><time>2026-04-17T09:28:01Z</time></trkpt><trkpt lat="36.90939212090477" lon="15.057103327266821"><ele>209.0</ele><time>2026-04-17T09:28:02Z</time></trkpt><trkpt lat="36.9092699207084" lon="15.057106198436074"><ele>209.0</ele><time>2026-04-17T09:28:03Z</time></trkpt><trkpt lat="36.90915804799287" lon="15.057106437902037"><ele>209.0</ele><time>2026-04-17T09:28:04Z</time></trkpt><trkpt lat="36.909042076539436" lon="15.057122352938611"><ele>209.0</ele><time>2026-04-17T09:28:05Z</time></trkpt><trkpt lat="36.90892487355496" lon="15.057155063975866"><ele>209.0</ele><time>2026-04-17T09:28:06Z</time></trkpt><trkpt lat="36.90881041150606" lon="15.057200019028993"><ele>209.0</ele><time>2026-04-17T09:28:07Z</time></trkpt><trkpt lat="36.908688572968316" lon="15.057255741615542"><ele>209.0</ele><time>2026-04-17T09:28:08Z</time></trkpt><trkpt lat="36.908567860285515" lon="15.057320946146113"><ele>209.0</ele><time>2026-04-17T09:28:09Z</time></trkpt><trkpt lat="36.90845408490037" lon="15.057385195578231"><ele>209.0</ele><time>2026-04-17T09:28:10Z</time></trkpt><trkpt lat="36.90833970190841" lon="15.057433983297"><ele>209.0</ele><time>2026-04-17T09:28:11Z</time></trkpt><trkpt lat="36.908228334808996" lon="15.057485304456927"><ele>209.0</ele><time>2026-04-17T09:28:12Z</time></trkpt><trkpt lat="36.90812473116225" lon="15.057540570036863"><ele>209.25</ele><time>2026-04-17T09:28:13Z</time></trkpt><trkpt lat="36.90801543628788" lon="15.057571043262987"><ele>209.5</ele><time>2026-04-17T09:28:14Z</time></trkpt><trkpt lat="36.90790752459615" lon="15.0576428662368"><ele>209.75</ele><time>2026-04-17T09:28:15Z</time></trkpt><trkpt lat="36.907788905656716" lon="15.05769710352014"><ele>210.0</ele><time>2026-04-17T09:28:16Z</time></trkpt><trkpt lat="36.90767676106092" lon="15.05775894415012"><ele>208.0</ele><time>2026-04-17T09:28:17Z</time></trkpt><trkpt lat="36.907562128599444" lon="15.057818809677164"><ele>206.0</ele><time>2026-04-17T09:28:18Z</time></trkpt><trkpt lat="36.90744954703305" lon="15.057878156279816"><ele>204.0</ele><time>2026-04-17T09:28:19Z</time></trkpt><trkpt lat="36.90734050436422" lon="15.057938307801901"><ele>202.0</ele><time>2026-04-17T09:28:20Z</time></trkpt><trkpt lat="36.907230693353235" lon="15.057986617344763"><ele>202.0</ele><time>2026-04-17T09:28:21Z</time></trkpt><trkpt lat="36.90711522498415" lon="15.058033039630615"><ele>202.0</ele><time>2026-04-17T09:28:22Z</time></trkpt><trkpt lat="36.90699182762542" lon="15.058075496504488"><ele>202.0</ele><time>2026-04-17T09:28:23Z</time></trkpt><trkpt lat="36.90689140311727" lon="15.058089333320126"><ele>202.0</ele><time>2026-04-17T09:28:24Z</time></trkpt><trkpt lat="36.906739522016665" lon="15.058126557156756"><ele>199.5</ele><time>2026-04-17T09:28:25Z</time></trkpt><trkpt lat="36.90659224715654" lon="15.058170224173095"><ele>197.0</ele><time>2026-04-17T09:28:26Z</time></trkpt><trkpt lat="36.906451442278055" lon="15.058213770034929"><ele>194.5</ele><time>2026-04-17T09:28:27Z</time></trkpt><trkpt lat="36.90632177108458" lon="15.058257315886578"><ele>192.0</ele><time>2026-04-17T09:28:28Z</time></trkpt><trkpt lat="36.90619741756331" lon="15.058304738380983"><ele>192.0</ele><time>2026-04-17T09:28:29Z</time></trkpt><trkpt lat="36.90607105357214" lon="15.058352927787979"><ele>192.0</ele><time>2026-04-17T09:28:30Z</time></trkpt><trkpt lat="36.905949194541556" lon="15.058399720423989"><ele>192.0</ele><time>2026-04-17T09:28:31Z</time></trkpt><trkpt lat="36.90583834698057" lon="15.058465269956875"><ele>192.0</ele><time>2026-04-17T09:28:32Z</time></trkpt><trkpt lat="36.90573574134409" lon="15.058528949985119"><ele>187.66666666666666</ele><time>2026-04-17T09:28:33Z</time></trkpt><trkpt lat="36.90561422253325" lon="15.058627565839712"><ele>183.33333333333331</ele><time>2026-04-17T09:28:34Z</time></trkpt><trkpt lat="36.90547404832076" lon="15.05874437165629"><ele>179.0</ele><time>2026-04-17T09:28:35Z</time></trkpt><trkpt lat="36.90534279757657" lon="15.058854971242551"><ele>179.0</ele><time>2026-04-17T09:28:36Z</time></trkpt><trkpt lat="36.90521190545594" lon="15.058963797708191"><ele>179.0</ele><time>2026-04-17T09:28:37Z</time></trkpt><trkpt lat="36.90509878048936" lon="15.059079053472594"><ele>179.0</ele><time>2026-04-17T09:28:38Z</time></trkpt><trkpt lat="36.9049942320885" lon="15.059185048905066"><ele>179.0</ele><time>2026-04-17T09:28:39Z</time></trkpt><trkpt lat="36.90489520071546" lon="15.059279450524468"><ele>178.6</ele><time>2026-04-17T09:28:40Z</time></trkpt><trkpt lat="36.90480192535659" lon="15.059377186286099"><ele>178.2</ele><time>2026-04-17T09:28:41Z</time></trkpt><trkpt lat="36.90470920993491" lon="15.059453463019233"><ele>177.79999999999998</ele><time>2026-04-17T09:28:42Z</time></trkpt><trkpt lat="36.90462340806834" lon="15.059517951503272"><ele>177.39999999999998</ele><time>2026-04-17T09:28:43Z</time></trkpt><trkpt lat="36.90454050915135" lon="15.059577891309317"><ele>177.0</ele><time>2026-04-17T09:28:44Z</time></trkpt><trkpt lat="36.904447726347506" lon="15.059640793820384"><ele>177.0</ele><time>2026-04-17T09:28:45Z</time></trkpt><trkpt lat="36.90434470821521" lon="15.059694259774036"><ele>177.0</ele><time>2026-04-17T09:28:46Z</time></trkpt><trkpt lat="36.90422556353331" lon="15.059776604318717"><ele>177.0</ele><time>2026-04-17T09:28:47Z</time></trkpt><trkpt lat="36.904098728601475" lon="15.059859077303868"><ele>177.0</ele><time>2026-04-17T09:28:48Z</time></trkpt><trkpt lat="36.90397716949773" lon="15.059952986065936"><ele>176.75</ele><time>2026-04-17T09:28:49Z</time></trkpt><trkpt lat="36.903851571835446" lon="15.060019539654458"><ele>176.5</ele><time>2026-04-17T09:28:50Z</time></trkpt><trkpt lat="36.90373010106382" lon="15.060092674616088"><ele>176.25</ele><time>2026-04-17T09:28:51Z</time></trkpt><trkpt lat="36.90361056550404" lon="15.060154671657997"><ele>176.0</ele><time>2026-04-17T09:28:52Z</time></trkpt><trkpt lat="36.90348602174383" lon="15.060159883131243"><ele>173.60000000000002</ele><time>2026-04-17T09:28:53Z</time></trkpt><trkpt lat="36.90337139566088" lon="15.060170346735642"><ele>171.2</ele><time>2026-04-17T09:28:54Z</time></trkpt><trkpt lat="36.903265201120824" lon="15.060163564326281"><ele>168.8</ele><time>2026-04-17T09:28:55Z</time></trkpt><trkpt lat="36.9031640816218" lon="15.060176138571421"><ele>166.39999999999998</ele><time>2026-04-17T09:28:56Z</time></trkpt><trkpt lat="36.903061277065035" lon="15.06022817844771"><ele>164.0</ele><time>2026-04-17T09:28:57Z</time></trkpt><trkpt lat="36.9029336884687" lon="15.060299561674611"><ele>164.0</ele><time>2026-04-17T09:28:58Z</time></trkpt><trkpt lat="36.902822966757554" lon="15.060414137864027"><ele>164.0</ele><time>2026-04-17T09:28:59Z</time></trkpt><trkpt lat="36.902716079120445" lon="15.060487586203134"><ele>164.0</ele><time>2026-04-17T09:29:00Z</time></trkpt><trkpt lat="36.90260429053933" lon="15.060491015464907"><ele>164.0</ele><time>2026-04-17T09:29:01Z</time></trkpt><trkpt lat="36.90249622042504" lon="15.06046716298496"><ele>161.66666666666666</ele><time>2026-04-17T09:29:02Z</time></trkpt><trkpt lat="36.90239131493062" lon="15.060476214797301"><ele>159.33333333333331</ele><time>2026-04-17T09:29:03Z</time></trkpt><trkpt lat="36.90229517705941" lon="15.060492104033186"><ele>157.0</ele><time>2026-04-17T09:29:04Z</time></trkpt><trkpt lat="36.902219455955425" lon="15.060504337145868"><ele>154.66666666666666</ele><time>2026-04-17T09:29:05Z</time></trkpt><trkpt lat="36.90214721100077" lon="15.060541934420844"><ele>152.33333333333334</ele><time>2026-04-17T09:29:06Z</time></trkpt><trkpt lat="36.902083509276686" lon="15.060571069625798"><ele>150.0</ele><time>2026-04-17T09:29:07Z</time></trkpt><trkpt lat="36.902027652316754" lon="15.060612859923774"><ele>150.0</ele><time>2026-04-17T09:29:08Z</time></trkpt><trkpt lat="36.90197272695835" lon="15.06066486451378"><ele>150.0</ele><time>2026-04-17T09:29:09Z</time></trkpt><trkpt lat="36.90190535323579" lon="15.060714048312219"><ele>150.0</ele><time>2026-04-17T09:29:10Z</time></trkpt><trkpt lat="36.90182501860606" lon="15.06074962651074"><ele>150.0</ele><time>2026-04-17T09:29:11Z</time></trkpt><trkpt lat="36.901727604198314" lon="15.06078771688888"><ele>150.0</ele><time>2026-04-17T09:29:12Z</time></trkpt><trkpt lat="36.9016113731515" lon="15.06080208799048"><ele>152.25</ele><time>2026-04-17T09:29:13Z</time></trkpt><trkpt lat="36.90149205018113" lon="15.060825879352594"><ele>154.5</ele><time>2026-04-17T09:29:14Z</time></trkpt><trkpt lat="36.90137732666976" lon="15.06086067538195"><ele>156.75</ele><time>2026-04-17T09:29:15Z</time></trkpt><trkpt lat="36.90126391744672" lon="15.060871830856641"><ele>159.0</ele><time>2026-04-17T09:29:16Z</time></trkpt><trkpt lat="36.90115899995372" lon="15.060898649451346"><ele>159.0</ele><time>2026-04-17T09:29:17Z</time></trkpt><trkpt lat="36.90105202663185" lon="15.060924974315636"><ele>159.0</ele><time>2026-04-17T09:29:18Z</time></trkpt><trkpt lat="36.90093781874481" lon="15.06091064412441"><ele>159.0</ele><time>2026-04-17T09:29:19Z</time></trkpt><trkpt lat="36.90082223517123" lon="15.060930957005025"><ele>159.0</ele><time>2026-04-17T09:29:20Z</time></trkpt><trkpt lat="36.90071473729484" lon="15.060934541990578"><ele>159.0</ele><time>2026-04-17T09:29:21Z</time></trkpt><trkpt lat="36.90061343133344" lon="15.06092957840936"><ele>156.6</ele><time>2026-04-17T09:29:22Z</time></trkpt><trkpt lat="36.90052071510262" lon="15.060930814528358"><ele>154.2</ele><time>2026-04-17T09:29:23Z</time></trkpt><trkpt lat="36.90045311703037" lon="15.060919301039096"><ele>151.79999999999998</ele><time>2026-04-17T09:29:24Z</time></trkpt><trkpt lat="36.90038647462535" lon="15.060878387848673"><ele>149.4</ele><time>2026-04-17T09:29:26Z</time></trkpt><trkpt lat="36.900448629716756" lon="15.060800119923284"><ele>147.0</ele><time>2026-04-17T09:29:45Z</time></trkpt><trkpt lat="36.90056921564094" lon="15.060720718575244"><ele>147.0</ele><time>2026-04-17T09:29:47Z</time></trkpt><trkpt lat="36.90063895794804" lon="15.060672601373096"><ele>147.0</ele><time>2026-04-17T09:29:48Z</time></trkpt><trkpt lat="36.900694978615604" lon="15.060628727072972"><ele>147.0</ele><time>2026-04-17T09:29:49Z</time></trkpt><trkpt lat="36.90076431359139" lon="15.060573044917055"><ele>147.0</ele><time>2026-04-17T09:29:51Z</time></trkpt><trkpt lat="36.90082942039895" lon="15.060519047221714"><ele>147.0</ele><time>2026-04-17T09:29:54Z</time></trkpt><trkpt lat="36.90087699408641" lon="15.060462847277881"><ele>147.0</ele><time>2026-04-17T09:30:00Z</time></trkpt><trkpt lat="36.90079978057974" lon="15.060894640969245"><ele>147.0</ele><time>2026-04-17T09:30:04Z</time></trkpt><trkpt lat="36.90072555764862" lon="15.060896118913382"><ele>147.0</ele><time>2026-04-17T09:30:06Z</time></trkpt><trkpt lat="36.900650432982516" lon="15.060893572920794"><ele>147.0</ele><time>2026-04-17T09:30:08Z</time></trkpt><trkpt lat="36.9005696752555" lon="15.060891374880987"><ele>147.0</ele><time>2026-04-17T09:30:10Z</time></trkpt><trkpt lat="36.90049996929813" lon="15.060889477656302"><ele>147.0</ele><time>2026-04-17T09:30:12Z</time></trkpt><trkpt lat="36.90038805272297" lon="15.060781757742534"><ele>147.0</ele><time>2026-04-17T09:30:14Z</time></trkpt><trkpt lat="36.90030159758157" lon="15.060850566200195"><ele>147.0</ele><time>2026-04-17T09:30:16Z</time></trkpt><trkpt lat="36.900214916605194" lon="15.060919555375339"><ele>147.0</ele><time>2026-04-17T09:30:18Z</time></trkpt><trkpt lat="36.9001504881131" lon="15.060970834309716"><ele>147.0</ele><time>2026-04-17T09:30:19Z</time></trkpt><trkpt lat="36.900072118857906" lon="15.06103606505541"><ele>147.0</ele><time>2026-04-17T09:30:20Z</time></trkpt><trkpt lat="36.89998647635573" lon="15.061108878182727"><ele>147.0</ele><time>2026-04-17T09:30:21Z</time></trkpt><trkpt lat="36.89991099728064" lon="15.061184239942222"><ele>145.2</ele><time>2026-04-17T09:30:22Z</time></trkpt><trkpt lat="36.89984267651744" lon="15.061261372771636"><ele>143.39999999999998</ele><time>2026-04-17T09:30:23Z</time></trkpt><trkpt lat="36.89977274254911" lon="15.061346551826853"><ele>141.60000000000002</ele><time>2026-04-17T09:30:24Z</time></trkpt><trkpt lat="36.89970399941575" lon="15.061431589400186"><ele>139.8</ele><time>2026-04-17T09:30:25Z</time></trkpt><trkpt lat="36.89964265828378" lon="15.061508287977542"><ele>138.0</ele><time>2026-04-17T09:30:26Z</time></trkpt><trkpt lat="36.899571976412524" lon="15.06158715841141"><ele>137.6</ele><time>2026-04-17T09:30:27Z</time></trkpt><trkpt lat="36.89949338799918" lon="15.061661866710894"><ele>137.20000000000002</ele><time>2026-04-17T09:30:28Z</time></trkpt><trkpt lat="36.89940901025716" lon="15.061728847396534"><ele>136.8</ele><time>2026-04-17T09:30:29Z</time></trkpt><trkpt lat="36.899316096166544" lon="15.061792379032987"><ele>136.4</ele><time>2026-04-17T09:30:30Z</time></trkpt><trkpt lat="36.8992147701692" lon="15.06184452487881"><ele>136.0</ele><time>2026-04-17T09:30:31Z</time></trkpt><trkpt lat="36.899108560869" lon="15.061892483166915"><ele>135.25</ele><time>2026-04-17T09:30:32Z</time></trkpt><trkpt lat="36.898996446846226" lon="15.061930762745718"><ele>134.5</ele><time>2026-04-17T09:30:33Z</time></trkpt><trkpt lat="36.898875867371636" lon="15.061945672735579"><ele>133.75</ele><time>2026-04-17T09:30:34Z</time></trkpt><trkpt lat="36.89875795614657" lon="15.061951920605361"><ele>133.0</ele><time>2026-04-17T09:30:35Z</time></trkpt><trkpt lat="36.89863221089257" lon="15.061971546283283"><ele>133.0</ele><time>2026-04-17T09:30:36Z</time></trkpt><trkpt lat="36.898502969315146" lon="15.06195475859688"><ele>133.0</ele><time>2026-04-17T09:30:37Z</time></trkpt><trkpt lat="36.89837378048357" lon="15.061939653621298"><ele>133.0</ele><time>2026-04-17T09:30:38Z</time></trkpt><trkpt lat="36.89824529394407" lon="15.061900916656846"><ele>133.0</ele><time>2026-04-17T09:30:39Z</time></trkpt><trkpt lat="36.898109963601875" lon="15.061880664255936"><ele>132.0</ele><time>2026-04-17T09:30:40Z</time></trkpt><trkpt lat="36.89797383496927" lon="15.061874233649878"><ele>131.0</ele><time>2026-04-17T09:30:41Z</time></trkpt><trkpt lat="36.89783233704656" lon="15.061901704979855"><ele>130.0</ele><time>2026-04-17T09:30:42Z</time></trkpt><trkpt lat="36.8976937462153" lon="15.061896288232468"><ele>129.0</ele><time>2026-04-17T09:30:43Z</time></trkpt><trkpt lat="36.89755736891879" lon="15.061887323602248"><ele>126.5</ele><time>2026-04-17T09:30:44Z</time></trkpt><trkpt lat="36.89742194935981" lon="15.061872255888895"><ele>124.0</ele><time>2026-04-17T09:30:45Z</time></trkpt><trkpt lat="36.89728847021451" lon="15.061857177069955"><ele>121.5</ele><time>2026-04-17T09:30:46Z</time></trkpt><trkpt lat="36.89715567624629" lon="15.061844280029046"><ele>119.0</ele><time>2026-04-17T09:30:47Z</time></trkpt><trkpt lat="36.89702827768265" lon="15.061830854975272"><ele>119.0</ele><time>2026-04-17T09:30:48Z</time></trkpt><trkpt lat="36.89690952675736" lon="15.06182055784288"><ele>119.0</ele><time>2026-04-17T09:30:49Z</time></trkpt><trkpt lat="36.896795768501626" lon="15.061788143627021"><ele>119.0</ele><time>2026-04-17T09:30:50Z</time></trkpt><trkpt lat="36.896684924643566" lon="15.061777023488078"><ele>119.0</ele><time>2026-04-17T09:30:51Z</time></trkpt><trkpt lat="36.89656379028929" lon="15.061766620414792"><ele>116.80000000000001</ele><time>2026-04-17T09:30:52Z</time></trkpt><trkpt lat="36.896438075155885" lon="15.061755715153339"><ele>114.60000000000001</ele><time>2026-04-17T09:30:53Z</time></trkpt><trkpt lat="36.896325937448374" lon="15.061757622455803"><ele>112.4</ele><time>2026-04-17T09:30:54Z</time></trkpt><trkpt lat="36.89622082348056" lon="15.0617405716"><ele>110.2</ele><time>2026-04-17T09:30:55Z</time></trkpt><trkpt lat="36.896123501418096" lon="15.061728140189826"><ele>108.0</ele><time>2026-04-17T09:30:56Z</time></trkpt><trkpt lat="36.8960346151358" lon="15.061722134531166"><ele>108.0</ele><time>2026-04-17T09:30:57Z</time></trkpt><trkpt lat="36.89594297263596" lon="15.061709066436572"><ele>108.00000000000001</ele><time>2026-04-17T09:30:58Z</time></trkpt><trkpt lat="36.89584974023363" lon="15.061722410626654"><ele>108.00000000000001</ele><time>2026-04-17T09:30:59Z</time></trkpt><trkpt lat="36.89575901794212" lon="15.06174412289387"><ele>108.0</ele><time>2026-04-17T09:31:00Z</time></trkpt><trkpt lat="36.895669876437125" lon="15.061769188526945"><ele>108.0</ele><time>2026-04-17T09:31:01Z</time></trkpt><trkpt lat="36.895578362156144" lon="15.061776360833838"><ele>108.33333333333333</ele><time>2026-04-17T09:31:02Z</time></trkpt><trkpt lat="36.895495454833856" lon="15.061799738904616"><ele>108.66666666666666</ele><time>2026-04-17T09:31:03Z</time></trkpt><trkpt lat="36.895423394173555" lon="15.061829263465864"><ele>109.0</ele><time>2026-04-17T09:31:04Z</time></trkpt><trkpt lat="36.895357265237344" lon="15.061847770399208"><ele>109.33333333333333</ele><time>2026-04-17T09:31:05Z</time></trkpt><trkpt lat="36.895250783924475" lon="15.06186633424488"><ele>109.66666666666666</ele><time>2026-04-17T09:31:07Z</time></trkpt><trkpt lat="36.89516642679194" lon="15.061876552345513"><ele>110.0</ele><time>2026-04-17T09:31:09Z</time></trkpt><trkpt lat="36.895102156078124" lon="15.061874347947521"><ele>110.0</ele><time>2026-04-17T09:31:11Z</time></trkpt><trkpt lat="36.8950115651288" lon="15.061861932347155"><ele>110.0</ele><time>2026-04-17T09:31:13Z</time></trkpt><trkpt lat="36.89492604788103" lon="15.06187016308532"><ele>110.0</ele><time>2026-04-17T09:31:16Z</time></trkpt><trkpt lat="36.89485811611502" lon="15.061896915656753"><ele>110.0</ele><time>2026-04-17T09:31:20Z</time></trkpt><trkpt lat="36.89497564088144" lon="15.061953705845433"><ele>110.0</ele><time>2026-04-17T09:31:35Z</time></trkpt><trkpt lat="36.895093486129156" lon="15.061911285291893"><ele>110.0</ele><time>2026-04-17T09:31:36Z</time></trkpt><trkpt lat="36.89523285442879" lon="15.061874196984729"><ele>110.0</ele><time>2026-04-17T09:31:37Z</time></trkpt><trkpt lat="36.89539080992036" lon="15.061869337732679"><ele>110.0</ele><time>2026-04-17T09:31:38Z</time></trkpt><trkpt lat="36.89551649312522" lon="15.06182497737641"><ele>110.0</ele><time>2026-04-17T09:31:39Z</time></trkpt><trkpt lat="36.89563562594429" lon="15.061803075667946"><ele>110.0</ele><time>2026-04-17T09:31:40Z</time></trkpt><trkpt lat="36.89574525065587" lon="15.06176831234521"><ele>110.0</ele><time>2026-04-17T09:31:41Z</time></trkpt><trkpt lat="36.895851673305366" lon="15.061739728736555"><ele>110.0</ele><time>2026-04-17T09:31:42Z</time></trkpt><trkpt lat="36.89597285335684" lon="15.061745246269927"><ele>110.0</ele><time>2026-04-17T09:31:43Z</time></trkpt><trkpt lat="36.896087177925885" lon="15.061755742145285"><ele>109.33333333333333</ele><time>2026-04-17T09:31:44Z</time></trkpt><trkpt lat="36.89622491903519" lon="15.061772952034213"><ele>108.66666666666666</ele><time>2026-04-17T09:31:45Z</time></trkpt><trkpt lat="36.89639421230269" lon="15.061793122893278"><ele>108.0</ele><time>2026-04-17T09:31:46Z</time></trkpt><trkpt lat="36.8965884369918" lon="15.061810370631312"><ele>113.5</ele><time>2026-04-17T09:31:47Z</time></trkpt><trkpt lat="36.896807234385115" lon="15.061831200509179"><ele>119.0</ele><time>2026-04-17T09:31:48Z</time></trkpt><trkpt lat="36.897043081429885" lon="15.061858996239398"><ele>119.0</ele><time>2026-04-17T09:31:49Z</time></trkpt><trkpt lat="36.89729970208549" lon="15.06186584256239"><ele>119.0</ele><time>2026-04-17T09:31:50Z</time></trkpt><trkpt lat="36.89754965302018" lon="15.061884312311198"><ele>124.0</ele><time>2026-04-17T09:31:51Z</time></trkpt><trkpt lat="36.897804221623325" lon="15.061906694128023"><ele>129.0</ele><time>2026-04-17T09:31:52Z</time></trkpt><trkpt lat="36.89804052833163" lon="15.061913423596248"><ele>129.0</ele><time>2026-04-17T09:31:53Z</time></trkpt><trkpt lat="36.8982516245862" lon="15.061944366780239"><ele>129.0</ele><time>2026-04-17T09:31:54Z</time></trkpt><trkpt lat="36.898460874117056" lon="15.061983487313524"><ele>129.0</ele><time>2026-04-17T09:31:55Z</time></trkpt><trkpt lat="36.89865869960439" lon="15.061994638483284"><ele>130.33333333333334</ele><time>2026-04-17T09:31:56Z</time></trkpt><trkpt lat="36.898823529730905" lon="15.061998805260561"><ele>131.66666666666669</ele><time>2026-04-17T09:31:57Z</time></trkpt><trkpt lat="36.89899744517284" lon="15.061983423469583"><ele>133.0</ele><time>2026-04-17T09:31:58Z</time></trkpt><trkpt lat="36.899158572113336" lon="15.061946963484477"><ele>134.0</ele><time>2026-04-17T09:31:59Z</time></trkpt><trkpt lat="36.89931974767716" lon="15.061855949439243"><ele>135.0</ele><time>2026-04-17T09:32:00Z</time></trkpt><trkpt lat="36.899475052664435" lon="15.061741523638949"><ele>136.0</ele><time>2026-04-17T09:32:01Z</time></trkpt><trkpt lat="36.89963022009553" lon="15.06159129998844"><ele>136.66666666666669</ele><time>2026-04-17T09:32:02Z</time></trkpt><trkpt lat="36.899779142743576" lon="15.061408080107023"><ele>137.33333333333334</ele><time>2026-04-17T09:32:03Z</time></trkpt><trkpt lat="36.89991545766255" lon="15.061231160134783"><ele>138.0</ele><time>2026-04-17T09:32:04Z</time></trkpt><trkpt lat="36.900050411647626" lon="15.061095041621025"><ele>135.33333333333334</ele><time>2026-04-17T09:32:05Z</time></trkpt><trkpt lat="36.90018847257365" lon="15.060980558188074"><ele>132.66666666666669</ele><time>2026-04-17T09:32:06Z</time></trkpt><trkpt lat="36.90034522003881" lon="15.060864966076938"><ele>130.0</ele><time>2026-04-17T09:32:07Z</time></trkpt><trkpt lat="36.90051694706078" lon="15.060733193348867"><ele>130.0</ele><time>2026-04-17T09:32:08Z</time></trkpt><trkpt lat="36.90069833060944" lon="15.060583830323065"><ele>130.0</ele><time>2026-04-17T09:32:09Z</time></trkpt><trkpt lat="36.90087818449565" lon="15.060437953271494"><ele>130.0</ele><time>2026-04-17T09:32:10Z</time></trkpt><trkpt lat="36.90104959678273" lon="15.060303419241448"><ele>132.0</ele><time>2026-04-17T09:32:11Z</time></trkpt><trkpt lat="36.901206550061765" lon="15.06018259432032"><ele>134.0</ele><time>2026-04-17T09:32:12Z</time></trkpt><trkpt lat="36.90135933162653" lon="15.060065356151638"><ele>136.0</ele><time>2026-04-17T09:32:13Z</time></trkpt><trkpt lat="36.90150041313822" lon="15.059954977741546"><ele>134.66666666666669</ele><time>2026-04-17T09:32:14Z</time></trkpt><trkpt lat="36.90163151002011" lon="15.059846351026481"><ele>133.33333333333334</ele><time>2026-04-17T09:32:15Z</time></trkpt><trkpt lat="36.901758134146256" lon="15.059737046975785"><ele>132.0</ele><time>2026-04-17T09:32:16Z</time></trkpt><trkpt lat="36.90188195993656" lon="15.05961935198696"><ele>132.0</ele><time>2026-04-17T09:32:17Z</time></trkpt><trkpt lat="36.90202100474594" lon="15.059493364604673"><ele>132.0</ele><time>2026-04-17T09:32:18Z</time></trkpt><trkpt lat="36.90216475198552" lon="15.059353080192137"><ele>132.0</ele><time>2026-04-17T09:32:19Z</time></trkpt><trkpt lat="36.90230351992476" lon="15.059217081086384"><ele>131.0</ele><time>2026-04-17T09:32:20Z</time></trkpt><trkpt lat="36.9024296849461" lon="15.059090896896965"><ele>130.0</ele><time>2026-04-17T09:32:21Z</time></trkpt><trkpt lat="36.90254128248733" lon="15.058976027176175"><ele>129.0</ele><time>2026-04-17T09:32:22Z</time></trkpt><trkpt lat="36.90264161932933" lon="15.058867524420405"><ele>128.0</ele><time>2026-04-17T09:32:23Z</time></trkpt><trkpt lat="36.9027352014949" lon="15.058765798124137"><ele>128.0</ele><time>2026-04-17T09:32:24Z</time></trkpt><trkpt lat="36.90282374114248" lon="15.058667556697925"><ele>128.0</ele><time>2026-04-17T09:32:25Z</time></trkpt><trkpt lat="36.902900828227594" lon="15.058567454063859"><ele>128.0</ele><time>2026-04-17T09:32:26Z</time></trkpt><trkpt lat="36.90296016867105" lon="15.058468130659548"><ele>128.0</ele><time>2026-04-17T09:32:27Z</time></trkpt><trkpt lat="36.90300878866391" lon="15.058364149086477"><ele>128.0</ele><time>2026-04-17T09:32:28Z</time></trkpt><trkpt lat="36.90305240120125" lon="15.05827159285075"><ele>125.5</ele><time>2026-04-17T09:32:29Z</time></trkpt><trkpt lat="36.903100789294086" lon="15.058166800480725"><ele>123.0</ele><time>2026-04-17T09:32:30Z</time></trkpt><trkpt lat="36.903159663424745" lon="15.058024926406338"><ele>120.5</ele><time>2026-04-17T09:32:31Z</time></trkpt><trkpt lat="36.90321116987954" lon="15.057871090558356"><ele>118.0</ele><time>2026-04-17T09:32:32Z</time></trkpt><trkpt lat="36.90325362201133" lon="15.057727385445807"><ele>118.0</ele><time>2026-04-17T09:32:33Z</time></trkpt><trkpt lat="36.903300860820565" lon="15.05759600101237"><ele>118.0</ele><time>2026-04-17T09:32:34Z</time></trkpt><trkpt lat="36.90335043812127" lon="15.057467961219029"><ele>118.0</ele><time>2026-04-17T09:32:35Z</time></trkpt><trkpt lat="36.9034057220804" lon="15.05733567767122"><ele>118.0</ele><time>2026-04-17T09:32:36Z</time></trkpt><trkpt lat="36.903458244032365" lon="15.057193913354897"><ele>118.0</ele><time>2026-04-17T09:32:37Z</time></trkpt><trkpt lat="36.90350457710496" lon="15.057063816240879"><ele>118.00000000000001</ele><time>2026-04-17T09:32:38Z</time></trkpt><trkpt lat="36.903553046909806" lon="15.056940688246815"><ele>118.00000000000001</ele><time>2026-04-17T09:32:39Z</time></trkpt><trkpt lat="36.903602714326645" lon="15.056818841690932"><ele>118.0</ele><time>2026-04-17T09:32:40Z</time></trkpt><trkpt lat="36.90365385538616" lon="15.056692626482914"><ele>118.0</ele><time>2026-04-17T09:32:41Z</time></trkpt><trkpt lat="36.903705241106074" lon="15.056570892548022"><ele>116.75</ele><time>2026-04-17T09:32:42Z</time></trkpt><trkpt lat="36.90375588250728" lon="15.0564536711633"><ele>115.5</ele><time>2026-04-17T09:32:43Z</time></trkpt><trkpt lat="36.90380908179725" lon="15.056333173281427"><ele>114.25</ele><time>2026-04-17T09:32:44Z</time></trkpt><trkpt lat="36.90385976641571" lon="15.0562024615833"><ele>113.0</ele><time>2026-04-17T09:32:45Z</time></trkpt><trkpt lat="36.90390831219782" lon="15.05605794668248"><ele>113.0</ele><time>2026-04-17T09:32:46Z</time></trkpt><trkpt lat="36.903949071587476" lon="15.055906590866407"><ele>113.0</ele><time>2026-04-17T09:32:47Z</time></trkpt><trkpt lat="36.90398562387775" lon="15.055761057656376"><ele>113.0</ele><time>2026-04-17T09:32:48Z</time></trkpt><trkpt lat="36.90401950624744" lon="15.05563256984025"><ele>113.0</ele><time>2026-04-17T09:32:49Z</time></trkpt><trkpt lat="36.90405385323434" lon="15.055505843486115"><ele>112.60000000000001</ele><time>2026-04-17T09:32:50Z</time></trkpt><trkpt lat="36.90409241510191" lon="15.055376667509394"><ele>112.20000000000002</ele><time>2026-04-17T09:32:51Z</time></trkpt><trkpt lat="36.90413242914713" lon="15.055247030448724"><ele>111.8</ele><time>2026-04-17T09:32:52Z</time></trkpt><trkpt lat="36.90416860269239" lon="15.055122100769964"><ele>111.4</ele><time>2026-04-17T09:32:53Z</time></trkpt><trkpt lat="36.90419929636433" lon="15.055002401767931"><ele>111.0</ele><time>2026-04-17T09:32:54Z</time></trkpt><trkpt lat="36.90423520913551" lon="15.05489220601981"><ele>112.0</ele><time>2026-04-17T09:32:55Z</time></trkpt><trkpt lat="36.904274897301896" lon="15.054776800070067"><ele>113.0</ele><time>2026-04-17T09:32:56Z</time></trkpt><trkpt lat="36.904315607825986" lon="15.05468177585589"><ele>114.0</ele><time>2026-04-17T09:32:57Z</time></trkpt><trkpt lat="36.90436676969288" lon="15.05458336943141"><ele>115.0</ele><time>2026-04-17T09:32:58Z</time></trkpt><trkpt lat="36.90442236992954" lon="15.054494055772981"><ele>116.0</ele><time>2026-04-17T09:32:59Z</time></trkpt><trkpt lat="36.90448796652349" lon="15.054396715721275"><ele>116.0</ele><time>2026-04-17T09:33:00Z</time></trkpt><trkpt lat="36.90456888020302" lon="15.05429444409176"><ele>116.0</ele><time>2026-04-17T09:33:01Z</time></trkpt><trkpt lat="36.904661072742385" lon="15.054182088120484"><ele>116.0</ele><time>2026-04-17T09:33:02Z</time></trkpt><trkpt lat="36.90475886873924" lon="15.054059219682225"><ele>116.0</ele><time>2026-04-17T09:33:03Z</time></trkpt><trkpt lat="36.90484593817776" lon="15.053948682276719"><ele>115.6</ele><time>2026-04-17T09:33:04Z</time></trkpt><trkpt lat="36.90492409903942" lon="15.05384849815619"><ele>115.19999999999999</ele><time>2026-04-17T09:33:05Z</time></trkpt><trkpt lat="36.90499367065922" lon="15.05375305393568"><ele>114.80000000000001</ele><time>2026-04-17T09:33:06Z</time></trkpt><trkpt lat="36.905059059911245" lon="15.0536627241257"><ele>114.4</ele><time>2026-04-17T09:33:07Z</time></trkpt><trkpt lat="36.90513260539486" lon="15.053568401563576"><ele>114.0</ele><time>2026-04-17T09:33:08Z</time></trkpt><trkpt lat="36.90523361718649" lon="15.053439604995932"><ele>114.25</ele><time>2026-04-17T09:33:09Z</time></trkpt><trkpt lat="36.905351484699" lon="15.053288094854853"><ele>114.5</ele><time>2026-04-17T09:33:10Z</time></trkpt><trkpt lat="36.905448759162965" lon="15.053161406160841"><ele>114.75</ele><time>2026-04-17T09:33:11Z</time></trkpt><trkpt lat="36.90552829938043" lon="15.053051511088652"><ele>115.0</ele><time>2026-04-17T09:33:12Z</time></trkpt><trkpt lat="36.90559808347339" lon="15.052958120724746"><ele>115.0</ele><time>2026-04-17T09:33:13Z</time></trkpt><trkpt lat="36.90567383293587" lon="15.052847728137776"><ele>115.0</ele><time>2026-04-17T09:33:14Z</time></trkpt><trkpt lat="36.90576096053108" lon="15.052733008898576"><ele>115.0</ele><time>2026-04-17T09:33:15Z</time></trkpt><trkpt lat="36.905848132851766" lon="15.052615543608628"><ele>115.0</ele><time>2026-04-17T09:33:16Z</time></trkpt><trkpt lat="36.90593168547161" lon="15.052497836415107"><ele>117.25</ele><time>2026-04-17T09:33:17Z</time></trkpt><trkpt lat="36.90602216754928" lon="15.052374102360176"><ele>119.5</ele><time>2026-04-17T09:33:18Z</time></trkpt><trkpt lat="36.906117913307895" lon="15.052246916565005"><ele>121.75</ele><time>2026-04-17T09:33:19Z</time></trkpt><trkpt lat="36.906212972214405" lon="15.05211613373322"><ele>124.0</ele><time>2026-04-17T09:33:20Z</time></trkpt><trkpt lat="36.90631017484547" lon="15.051987156807309"><ele>124.0</ele><time>2026-04-17T09:33:21Z</time></trkpt><trkpt lat="36.90640998640562" lon="15.051859284922758"><ele>124.0</ele><time>2026-04-17T09:33:22Z</time></trkpt><trkpt lat="36.90650547179089" lon="15.05173006932299"><ele>124.0</ele><time>2026-04-17T09:33:23Z</time></trkpt><trkpt lat="36.90658979934455" lon="15.051611594990606"><ele>124.0</ele><time>2026-04-17T09:33:24Z</time></trkpt><trkpt lat="36.90667380988204" lon="15.051507773597766"><ele>127.6</ele><time>2026-04-17T09:33:25Z</time></trkpt><trkpt lat="36.906761192017015" lon="15.0514087711728"><ele>131.2</ele><time>2026-04-17T09:33:26Z</time></trkpt><trkpt lat="36.906844661608304" lon="15.05130747599788"><ele>134.79999999999998</ele><time>2026-04-17T09:33:27Z</time></trkpt><trkpt lat="36.90691758407128" lon="15.051197523629284"><ele>138.4</ele><time>2026-04-17T09:33:28Z</time></trkpt><trkpt lat="36.906970109894644" lon="15.051093112689594"><ele>142.0</ele><time>2026-04-17T09:33:29Z</time></trkpt><trkpt lat="36.90698531775471" lon="15.050976029960431"><ele>142.0</ele><time>2026-04-17T09:33:30Z</time></trkpt><trkpt lat="36.90701618665575" lon="15.05086054014785"><ele>142.0</ele><time>2026-04-17T09:33:31Z</time></trkpt><trkpt lat="36.907032004790295" lon="15.050721635026129"><ele>142.0</ele><time>2026-04-17T09:33:32Z</time></trkpt><trkpt lat="36.90705258850385" lon="15.050565356195227"><ele>142.0</ele><time>2026-04-17T09:33:33Z</time></trkpt><trkpt lat="36.907080920374845" lon="15.05041090936131"><ele>142.66666666666669</ele><time>2026-04-17T09:33:34Z</time></trkpt><trkpt lat="36.90710322916304" lon="15.050289591893304"><ele>143.33333333333334</ele><time>2026-04-17T09:33:35Z</time></trkpt><trkpt lat="36.90711836437179" lon="15.050198705070068"><ele>144.0</ele><time>2026-04-17T09:33:36Z</time></trkpt><trkpt lat="36.90713917041646" lon="15.050070070842287"><ele>144.66666666666666</ele><time>2026-04-17T09:33:38Z</time></trkpt><trkpt lat="36.907148009890356" lon="15.04995813170549"><ele>145.33333333333331</ele><time>2026-04-17T09:33:40Z</time></trkpt><trkpt lat="36.907187703901165" lon="15.049894090621462"><ele>146.0</ele><time>2026-04-17T09:33:42Z</time></trkpt><trkpt lat="36.907240326711296" lon="15.05004158410231"><ele>146.0</ele><time>2026-04-17T09:33:44Z</time></trkpt><trkpt lat="36.9073208326362" lon="15.050119495897656"><ele>146.0</ele><time>2026-04-17T09:33:46Z</time></trkpt><trkpt lat="36.907394345189594" lon="15.050085857634697"><ele>146.0</ele><time>2026-04-17T09:33:47Z</time></trkpt><trkpt lat="36.90744570946286" lon="15.05002846747735"><ele>146.0</ele><time>2026-04-17T09:33:48Z</time></trkpt><trkpt lat="36.90749974531355" lon="15.049962634122773"><ele>146.0</ele><time>2026-04-17T09:33:49Z</time></trkpt><trkpt lat="36.90755070860681" lon="15.049887513421234"><ele>146.0</ele><time>2026-04-17T09:33:50Z</time></trkpt><trkpt lat="36.9075961518939" lon="15.049817315331193"><ele>150.2</ele><time>2026-04-17T09:33:51Z</time></trkpt><trkpt lat="36.90764125219892" lon="15.049737393463998"><ele>154.39999999999998</ele><time>2026-04-17T09:33:52Z</time></trkpt><trkpt lat="36.90769982171988" lon="15.049658265339566"><ele>158.6</ele><time>2026-04-17T09:33:53Z</time></trkpt><trkpt lat="36.90777378252994" lon="15.049568691310737"><ele>162.79999999999998</ele><time>2026-04-17T09:33:54Z</time></trkpt><trkpt lat="36.90784168721314" lon="15.049476746016486"><ele>167.0</ele><time>2026-04-17T09:33:55Z</time></trkpt><trkpt lat="36.90791072932732" lon="15.049380741047113"><ele>167.0</ele><time>2026-04-17T09:33:56Z</time></trkpt><trkpt lat="36.90798267159691" lon="15.0492835331912"><ele>167.0</ele><time>2026-04-17T09:33:57Z</time></trkpt><trkpt lat="36.90807776607147" lon="15.049201170578709"><ele>167.0</ele><time>2026-04-17T09:33:58Z</time></trkpt><trkpt lat="36.90814721084417" lon="15.04907809525603"><ele>167.0</ele><time>2026-04-17T09:33:59Z</time></trkpt><trkpt lat="36.9082259712041" lon="15.048976340488139"><ele>166.0</ele><time>2026-04-17T09:34:00Z</time></trkpt><trkpt lat="36.9082954002884" lon="15.048872795684092"><ele>165.0</ele><time>2026-04-17T09:34:01Z</time></trkpt><trkpt lat="36.90835549086401" lon="15.04875309867725"><ele>164.0</ele><time>2026-04-17T09:34:02Z</time></trkpt><trkpt lat="36.90841265439695" lon="15.04863599401818"><ele>163.0</ele><time>2026-04-17T09:34:03Z</time></trkpt><trkpt lat="36.90846011773565" lon="15.048544233392784"><ele>162.0</ele><time>2026-04-17T09:34:04Z</time></trkpt><trkpt lat="36.90851670897682" lon="15.04847354662126"><ele>164.8</ele><time>2026-04-17T09:34:05Z</time></trkpt><trkpt lat="36.90858253009934" lon="15.048410566172473"><ele>167.6</ele><time>2026-04-17T09:34:06Z</time></trkpt><trkpt lat="36.908682515120596" lon="15.048348210616371"><ele>170.4</ele><time>2026-04-17T09:34:07Z</time></trkpt><trkpt lat="36.908800547373026" lon="15.04827705138416"><ele>173.20000000000002</ele><time>2026-04-17T09:34:08Z</time></trkpt><trkpt lat="36.90890162569523" lon="15.04820493673949"><ele>176.0</ele><time>2026-04-17T09:34:09Z</time></trkpt><trkpt lat="36.90901354994796" lon="15.048152235946509"><ele>176.0</ele><time>2026-04-17T09:34:10Z</time></trkpt><trkpt lat="36.9091130661423" lon="15.048086169928322"><ele>176.0</ele><time>2026-04-17T09:34:11Z</time></trkpt><trkpt lat="36.90919187180875" lon="15.048008139089104"><ele>176.0</ele><time>2026-04-17T09:34:12Z</time></trkpt><trkpt lat="36.90928048574561" lon="15.04795362955983"><ele>176.0</ele><time>2026-04-17T09:34:13Z</time></trkpt><trkpt lat="36.9093939908083" lon="15.047920216773374"><ele>176.0</ele><time>2026-04-17T09:34:14Z</time></trkpt><trkpt lat="36.90950869919255" lon="15.04787002169561"><ele>179.20000000000002</ele><time>2026-04-17T09:34:15Z</time></trkpt><trkpt lat="36.90961577569784" lon="15.047837758352898"><ele>182.4</ele><time>2026-04-17T09:34:16Z</time></trkpt><trkpt lat="36.909710467585285" lon="15.04781967482137"><ele>185.6</ele><time>2026-04-17T09:34:17Z</time></trkpt><trkpt lat="36.90980020744025" lon="15.047828226524611"><ele>188.8</ele><time>2026-04-17T09:34:18Z</time></trkpt><trkpt lat="36.909912980638666" lon="15.047835455689492"><ele>192.0</ele><time>2026-04-17T09:34:19Z</time></trkpt><trkpt lat="36.91001513064882" lon="15.047834284333154"><ele>194.75</ele><time>2026-04-17T09:34:20Z</time></trkpt><trkpt lat="36.91011538142083" lon="15.047814640722754"><ele>197.5</ele><time>2026-04-17T09:34:21Z</time></trkpt><trkpt lat="36.91023435525653" lon="15.047791403078707"><ele>200.25</ele><time>2026-04-17T09:34:22Z</time></trkpt><trkpt lat="36.91036098699156" lon="15.047768661806668"><ele>203.0</ele><time>2026-04-17T09:34:23Z</time></trkpt><trkpt lat="36.910475907212884" lon="15.047749820296682"><ele>203.0</ele><time>2026-04-17T09:34:24Z</time></trkpt><trkpt lat="36.91058346030388" lon="15.047733238502135"><ele>203.0</ele><time>2026-04-17T09:34:25Z</time></trkpt><trkpt lat="36.910687965283394" lon="15.04773140591382"><ele>203.0</ele><time>2026-04-17T09:34:26Z</time></trkpt><trkpt lat="36.910809096751215" lon="15.047745238087943"><ele>203.0</ele><time>2026-04-17T09:34:27Z</time></trkpt><trkpt lat="36.91093298108098" lon="15.047776309995049"><ele>206.0</ele><time>2026-04-17T09:34:28Z</time></trkpt><trkpt lat="36.91105515966426" lon="15.047827989544151"><ele>209.0</ele><time>2026-04-17T09:34:29Z</time></trkpt><trkpt lat="36.91118591153499" lon="15.047902363103779"><ele>212.0</ele><time>2026-04-17T09:34:30Z</time></trkpt><trkpt lat="36.911312866767034" lon="15.047971847804215"><ele>215.0</ele><time>2026-04-17T09:34:31Z</time></trkpt><trkpt lat="36.91141632992482" lon="15.048042065461296"><ele>215.0</ele><time>2026-04-17T09:34:32Z</time></trkpt><trkpt lat="36.911530060314355" lon="15.048075733482897"><ele>215.0</ele><time>2026-04-17T09:34:33Z</time></trkpt><trkpt lat="36.911654646031536" lon="15.048053981049309"><ele>215.0</ele><time>2026-04-17T09:34:34Z</time></trkpt><trkpt lat="36.91176144582979" lon="15.048095794639197"><ele>215.0</ele><time>2026-04-17T09:34:35Z</time></trkpt><trkpt lat="36.91184679400955" lon="15.048092821728522"><ele>215.0</ele><time>2026-04-17T09:34:36Z</time></trkpt><trkpt lat="36.91192458079556" lon="15.048060345793655"><ele>220.2</ele><time>2026-04-17T09:34:37Z</time></trkpt><trkpt lat="36.911999638713304" lon="15.047955621619614"><ele>225.4</ele><time>2026-04-17T09:34:38Z</time></trkpt><trkpt lat="36.912111591958265" lon="15.047893760841923"><ele>230.60000000000002</ele><time>2026-04-17T09:34:39Z</time></trkpt><trkpt lat="36.91219246503451" lon="15.047818502264818"><ele>235.8</ele><time>2026-04-17T09:34:40Z</time></trkpt><trkpt lat="36.91225484385912" lon="15.0477720996606"><ele>241.0</ele><time>2026-04-17T09:34:41Z</time></trkpt><trkpt lat="36.91229745923015" lon="15.047640752739907"><ele>240.99999999999997</ele><time>2026-04-17T09:34:43Z</time></trkpt><trkpt lat="36.91229697144148" lon="15.047544104058902"><ele>241.0</ele><time>2026-04-17T09:34:44Z</time></trkpt><trkpt lat="36.9122862809132" lon="15.047432421373756"><ele>241.0</ele><time>2026-04-17T09:34:45Z</time></trkpt><trkpt lat="36.91227210339593" lon="15.04734721404487"><ele>241.0</ele><time>2026-04-17T09:34:46Z</time></trkpt><trkpt lat="36.912270306719506" lon="15.047238530653145"><ele>240.99999999999997</ele><time>2026-04-17T09:34:48Z</time></trkpt><trkpt lat="36.91226689813249" lon="15.047111935616615"><ele>241.0</ele><time>2026-04-17T09:34:50Z</time></trkpt><trkpt lat="36.9123161603444" lon="15.046991736180908"><ele>239.33333333333331</ele><time>2026-04-17T09:34:52Z</time></trkpt><trkpt lat="36.91239759516683" lon="15.046924183185721"><ele>237.66666666666666</ele><time>2026-04-17T09:34:54Z</time></trkpt><trkpt lat="36.91250110346191" lon="15.046821833751315"><ele>236.0</ele><time>2026-04-17T09:34:56Z</time></trkpt><trkpt lat="36.912555301858674" lon="15.046761777321633"><ele>234.33333333333331</ele><time>2026-04-17T09:34:57Z</time></trkpt><trkpt lat="36.91260540377161" lon="15.046695161252233"><ele>232.66666666666666</ele><time>2026-04-17T09:34:58Z</time></trkpt><trkpt lat="36.912652453170665" lon="15.046626096541884"><ele>231.0</ele><time>2026-04-17T09:34:59Z</time></trkpt><trkpt lat="36.91268996995231" lon="15.046546837817433"><ele>236.66666666666666</ele><time>2026-04-17T09:35:00Z</time></trkpt><trkpt lat="36.91270908558314" lon="15.04646682996778"><ele>242.33333333333331</ele><time>2026-04-17T09:35:01Z</time></trkpt><trkpt lat="36.9126964497803" lon="15.046350324374721"><ele>248.0</ele><time>2026-04-17T09:35:03Z</time></trkpt><trkpt lat="36.912710696687284" lon="15.046249903238454"><ele>253.66666666666666</ele><time>2026-04-17T09:35:05Z</time></trkpt><trkpt lat="36.9127303077325" lon="15.046163345275305"><ele>259.3333333333333</ele><time>2026-04-17T09:35:06Z</time></trkpt><trkpt lat="36.91276641561649" lon="15.046094442582259"><ele>265.0</ele><time>2026-04-17T09:35:07Z</time></trkpt><trkpt lat="36.91289432555171" lon="15.046122510336302"><ele>265.0</ele><time>2026-04-17T09:35:09Z</time></trkpt><trkpt lat="36.91297354934208" lon="15.046154025837286"><ele>265.0</ele><time>2026-04-17T09:35:10Z</time></trkpt><trkpt lat="36.91305199164398" lon="15.046176161485622"><ele>265.0</ele><time>2026-04-17T09:35:11Z</time></trkpt><trkpt lat="36.91314583216118" lon="15.046186629293656"><ele>265.0</ele><time>2026-04-17T09:35:12Z</time></trkpt><trkpt lat="36.91325251589894" lon="15.04620276600609"><ele>265.0</ele><time>2026-04-17T09:35:13Z</time></trkpt><trkpt lat="36.91336296756327" lon="15.046228940490392"><ele>264.25</ele><time>2026-04-17T09:35:14Z</time></trkpt><trkpt lat="36.91347748720032" lon="15.046251476892783"><ele>263.5</ele><time>2026-04-17T09:35:15Z</time></trkpt><trkpt lat="36.91359513478402" lon="15.046276228438405"><ele>262.75</ele><time>2026-04-17T09:35:16Z</time></trkpt><trkpt lat="36.91372112881567" lon="15.04633288563343"><ele>262.0</ele><time>2026-04-17T09:35:17Z</time></trkpt><trkpt lat="36.91384618928111" lon="15.046381389715798"><ele>262.0</ele><time>2026-04-17T09:35:18Z</time></trkpt><trkpt lat="36.913964016145734" lon="15.04641610925604"><ele>262.0</ele><time>2026-04-17T09:35:19Z</time></trkpt><trkpt lat="36.91407048880296" lon="15.04648727219675"><ele>262.0</ele><time>2026-04-17T09:35:20Z</time></trkpt><trkpt lat="36.9141877402775" lon="15.046524979126954"><ele>262.0</ele><time>2026-04-17T09:35:21Z</time></trkpt><trkpt lat="36.91430355423949" lon="15.046569469206508"><ele>260.0</ele><time>2026-04-17T09:35:22Z</time></trkpt><trkpt lat="36.91442278687321" lon="15.046613250447102"><ele>258.0</ele><time>2026-04-17T09:35:23Z</time></trkpt><trkpt lat="36.914542021306055" lon="15.04666804083997"><ele>256.0</ele><time>2026-04-17T09:35:24Z</time></trkpt><trkpt lat="36.914657475682766" lon="15.046709712293644"><ele>254.0</ele><time>2026-04-17T09:35:25Z</time></trkpt><trkpt lat="36.91477652274312" lon="15.046734036821842"><ele>259.25</ele><time>2026-04-17T09:35:26Z</time></trkpt><trkpt lat="36.914893225739526" lon="15.046800480363032"><ele>264.5</ele><time>2026-04-17T09:35:27Z</time></trkpt><trkpt lat="36.91501413293834" lon="15.046848036168477"><ele>269.75</ele><time>2026-04-17T09:35:28Z</time></trkpt><trkpt lat="36.91513108126393" lon="15.046874588916397"><ele>275.0</ele><time>2026-04-17T09:35:29Z</time></trkpt><trkpt lat="36.915242009086555" lon="15.04694102714501"><ele>276.25</ele><time>2026-04-17T09:35:30Z</time></trkpt><trkpt lat="36.915365003319835" lon="15.04699229885666"><ele>277.5</ele><time>2026-04-17T09:35:31Z</time></trkpt><trkpt lat="36.915478829992786" lon="15.047039756485313"><ele>278.75</ele><time>2026-04-17T09:35:32Z</time></trkpt><trkpt lat="36.91559422066159" lon="15.047087866411967"><ele>280.0</ele><time>2026-04-17T09:35:33Z</time></trkpt><trkpt lat="36.915713254916135" lon="15.047137495100824"><ele>280.0</ele><time>2026-04-17T09:35:34Z</time></trkpt><trkpt lat="36.91581740527859" lon="15.047184926585562"><ele>280.0</ele><time>2026-04-17T09:35:35Z</time></trkpt><trkpt lat="36.91592279180738" lon="15.047240623637414"><ele>280.0</ele><time>2026-04-17T09:35:36Z</time></trkpt><trkpt lat="36.91603121772127" lon="15.047307459766843"><ele>280.0</ele><time>2026-04-17T09:35:37Z</time></trkpt><trkpt lat="36.91612786473714" lon="15.047358908154916"><ele>276.8</ele><time>2026-04-17T09:35:38Z</time></trkpt><trkpt lat="36.916207791813655" lon="15.047365647553086"><ele>273.6</ele><time>2026-04-17T09:35:39Z</time></trkpt><trkpt lat="36.91627522015503" lon="15.04738220105296"><ele>270.4</ele><time>2026-04-17T09:35:40Z</time></trkpt><trkpt lat="36.91637579471077" lon="15.047390992114938"><ele>267.2</ele><time>2026-04-17T09:35:41Z</time></trkpt><trkpt lat="36.916496114141175" lon="15.047435923562261"><ele>264.0</ele><time>2026-04-17T09:35:42Z</time></trkpt><trkpt lat="36.91663481165702" lon="15.047451563713356"><ele>265.4</ele><time>2026-04-17T09:35:43Z</time></trkpt><trkpt lat="36.91674347321384" lon="15.04748505736028"><ele>266.79999999999995</ele><time>2026-04-17T09:35:44Z</time></trkpt><trkpt lat="36.9168384028454" lon="15.047534312007224"><ele>268.20000000000005</ele><time>2026-04-17T09:35:45Z</time></trkpt><trkpt lat="36.91693489711513" lon="15.047573614155398"><ele>269.6</ele><time>2026-04-17T09:35:46Z</time></trkpt><trkpt lat="36.917029073152364" lon="15.04761989894207"><ele>271.0</ele><time>2026-04-17T09:35:47Z</time></trkpt><trkpt lat="36.91712008028107" lon="15.047672405064592"><ele>271.0</ele><time>2026-04-17T09:35:48Z</time></trkpt><trkpt lat="36.91720956502693" lon="15.047707847839463"><ele>271.0</ele><time>2026-04-17T09:35:49Z</time></trkpt><trkpt lat="36.917290774031784" lon="15.047763873922971"><ele>271.0</ele><time>2026-04-17T09:35:50Z</time></trkpt><trkpt lat="36.91736891775528" lon="15.047815307457657"><ele>271.0</ele><time>2026-04-17T09:35:51Z</time></trkpt><trkpt lat="36.91744102583485" lon="15.047879819655178"><ele>271.0</ele><time>2026-04-17T09:35:52Z</time></trkpt><trkpt lat="36.917505505274264" lon="15.04796519740493"><ele>267.6</ele><time>2026-04-17T09:35:53Z</time></trkpt><trkpt lat="36.9175748298585" lon="15.048033359051585"><ele>264.20000000000005</ele><time>2026-04-17T09:35:54Z</time></trkpt><trkpt lat="36.9176380402122" lon="15.048109731645667"><ele>260.79999999999995</ele><time>2026-04-17T09:35:55Z</time></trkpt><trkpt lat="36.91771403031452" lon="15.048165661022985"><ele>257.4</ele><time>2026-04-17T09:35:56Z</time></trkpt><trkpt lat="36.917793437829445" lon="15.048219275610432"><ele>254.0</ele><time>2026-04-17T09:35:57Z</time></trkpt><trkpt lat="36.917883504983" lon="15.048273037584392"><ele>259.0</ele><time>2026-04-17T09:35:58Z</time></trkpt><trkpt lat="36.917979453530066" lon="15.048313030553977"><ele>264.0</ele><time>2026-04-17T09:35:59Z</time></trkpt><trkpt lat="36.91808664537853" lon="15.048360211676549"><ele>269.0</ele><time>2026-04-17T09:36:00Z</time></trkpt><trkpt lat="36.918182998860445" lon="15.048406668071923"><ele>274.0</ele><time>2026-04-17T09:36:01Z</time></trkpt><trkpt lat="36.91825787263089" lon="15.04844614988608"><ele>279.0</ele><time>2026-04-17T09:36:02Z</time></trkpt><trkpt lat="36.91832154628525" lon="15.048474771036421"><ele>278.99999999999994</ele><time>2026-04-17T09:36:03Z</time></trkpt><trkpt lat="36.91838938965919" lon="15.048499904746613"><ele>279.0</ele><time>2026-04-17T09:36:04Z</time></trkpt><trkpt lat="36.91846138057485" lon="15.048533428758622"><ele>279.0</ele><time>2026-04-17T09:36:05Z</time></trkpt><trkpt lat="36.91852774641696" lon="15.048570309751533"><ele>279.0</ele><time>2026-04-17T09:36:06Z</time></trkpt><trkpt lat="36.918603379682885" lon="15.048611090812186"><ele>279.0</ele><time>2026-04-17T09:36:07Z</time></trkpt><trkpt lat="36.91867143887525" lon="15.048646003625368"><ele>278.99999999999994</ele><time>2026-04-17T09:36:08Z</time></trkpt><trkpt lat="36.91873842988342" lon="15.048676353632649"><ele>279.0</ele><time>2026-04-17T09:36:09Z</time></trkpt><trkpt lat="36.91882285032459" lon="15.048704584261369"><ele>279.0</ele><time>2026-04-17T09:36:10Z</time></trkpt><trkpt lat="36.91892861359806" lon="15.048734735244995"><ele>279.0</ele><time>2026-04-17T09:36:11Z</time></trkpt><trkpt lat="36.919050069838725" lon="15.048776044918856"><ele>279.0</ele><time>2026-04-17T09:36:12Z</time></trkpt><trkpt lat="36.91916918951955" lon="15.04883064562842"><ele>279.0</ele><time>2026-04-17T09:36:13Z</time></trkpt><trkpt lat="36.91928350421385" lon="15.048866086462992"><ele>278.25</ele><time>2026-04-17T09:36:14Z</time></trkpt><trkpt lat="36.91940473624408" lon="15.04889110696439"><ele>277.5</ele><time>2026-04-17T09:36:15Z</time></trkpt><trkpt lat="36.91953421254739" lon="15.048908883561454"><ele>276.75</ele><time>2026-04-17T09:36:16Z</time></trkpt><trkpt lat="36.91965628868434" lon="15.04892548186246"><ele>276.0</ele><time>2026-04-17T09:36:17Z</time></trkpt><trkpt lat="36.91976083419746" lon="15.04898458361399"><ele>276.0</ele><time>2026-04-17T09:36:18Z</time></trkpt><trkpt lat="36.91986357134942" lon="15.04904485859253"><ele>276.0</ele><time>2026-04-17T09:36:19Z</time></trkpt><trkpt lat="36.919971279443864" lon="15.049083260660845"><ele>276.0</ele><time>2026-04-17T09:36:20Z</time></trkpt><trkpt lat="36.92003627277805" lon="15.049157759309686"><ele>276.0</ele><time>2026-04-17T09:36:21Z</time></trkpt><trkpt lat="36.920097329481855" lon="15.04928032219128"><ele>276.0</ele><time>2026-04-17T09:36:23Z</time></trkpt><trkpt lat="36.920144609528656" lon="15.049404195559184"><ele>278.8</ele><time>2026-04-17T09:36:25Z</time></trkpt><trkpt lat="36.92023198365064" lon="15.04943096125589"><ele>281.6</ele><time>2026-04-17T09:36:26Z</time></trkpt><trkpt lat="36.920334532636396" lon="15.049473834612622"><ele>284.4</ele><time>2026-04-17T09:36:27Z</time></trkpt><trkpt lat="36.920423657769675" lon="15.049521468067132"><ele>287.2</ele><time>2026-04-17T09:36:28Z</time></trkpt><trkpt lat="36.9205042832972" lon="15.049561268543194"><ele>290.0</ele><time>2026-04-17T09:36:29Z</time></trkpt><trkpt lat="36.92058995117996" lon="15.049589030096525"><ele>290.0</ele><time>2026-04-17T09:36:30Z</time></trkpt><trkpt lat="36.92068322933414" lon="15.049596178187333"><ele>290.0</ele><time>2026-04-17T09:36:31Z</time></trkpt><trkpt lat="36.92078143118193" lon="15.049589338726074"><ele>290.0</ele><time>2026-04-17T09:36:32Z</time></trkpt><trkpt lat="36.92088277395049" lon="15.049590269709775"><ele>290.0</ele><time>2026-04-17T09:36:33Z</time></trkpt><trkpt lat="36.92097621649068" lon="15.049597947332146"><ele>290.0</ele><time>2026-04-17T09:36:34Z</time></trkpt><trkpt lat="36.921068349374025" lon="15.049608818427867"><ele>289.75</ele><time>2026-04-17T09:36:35Z</time></trkpt><trkpt lat="36.921180195316204" lon="15.049635166420224"><ele>289.5</ele><time>2026-04-17T09:36:36Z</time></trkpt><trkpt lat="36.92130296718489" lon="15.049675254597267"><ele>289.25</ele><time>2026-04-17T09:36:37Z</time></trkpt><trkpt lat="36.92142918864258" lon="15.049711839288852"><ele>289.0</ele><time>2026-04-17T09:36:38Z</time></trkpt><trkpt lat="36.92155144231424" lon="15.04974766574432"><ele>289.0</ele><time>2026-04-17T09:36:39Z</time></trkpt><trkpt lat="36.92166662103392" lon="15.049784085492789"><ele>289.0</ele><time>2026-04-17T09:36:40Z</time></trkpt><trkpt lat="36.92176989610943" lon="15.049817898675869"><ele>289.0</ele><time>2026-04-17T09:36:41Z</time></trkpt><trkpt lat="36.92187331127375" lon="15.04985193688929"><ele>289.0</ele><time>2026-04-17T09:36:42Z</time></trkpt><trkpt lat="36.92196693353337" lon="15.04987299030342"><ele>289.0</ele><time>2026-04-17T09:36:43Z</time></trkpt><trkpt lat="36.92204702330865" lon="15.049895565812822"><ele>289.59999999999997</ele><time>2026-04-17T09:36:44Z</time></trkpt><trkpt lat="36.92212082633821" lon="15.049919644051705"><ele>290.2</ele><time>2026-04-17T09:36:45Z</time></trkpt><trkpt lat="36.92219786540636" lon="15.049940507545985"><ele>290.79999999999995</ele><time>2026-04-17T09:36:46Z</time></trkpt><trkpt lat="36.922289747917205" lon="15.049948333784872"><ele>291.4</ele><time>2026-04-17T09:36:47Z</time></trkpt><trkpt lat="36.92239690518631" lon="15.049944389508532"><ele>292.0</ele><time>2026-04-17T09:36:48Z</time></trkpt><trkpt lat="36.92251271365075" lon="15.04993964960066"><ele>293.0</ele><time>2026-04-17T09:36:49Z</time></trkpt><trkpt lat="36.92262670483099" lon="15.049940590071834"><ele>294.0</ele><time>2026-04-17T09:36:50Z</time></trkpt><trkpt lat="36.922739678746744" lon="15.049944732964985"><ele>295.0</ele><time>2026-04-17T09:36:51Z</time></trkpt><trkpt lat="36.92283110772055" lon="15.049942204972504"><ele>296.0</ele><time>2026-04-17T09:36:52Z</time></trkpt><trkpt lat="36.92292022915998" lon="15.049935368324443"><ele>297.0</ele><time>2026-04-17T09:36:53Z</time></trkpt><trkpt lat="36.923016613743556" lon="15.049934338064194"><ele>297.0</ele><time>2026-04-17T09:36:54Z</time></trkpt><trkpt lat="36.92310257446125" lon="15.049934647237095"><ele>297.0</ele><time>2026-04-17T09:36:55Z</time></trkpt><trkpt lat="36.92316940971921" lon="15.049937748910496"><ele>297.0</ele><time>2026-04-17T09:36:56Z</time></trkpt><trkpt lat="36.92323307100724" lon="15.049926918315904"><ele>297.0</ele><time>2026-04-17T09:36:57Z</time></trkpt><trkpt lat="36.923299239460746" lon="15.04988883434418"><ele>297.0</ele><time>2026-04-17T09:36:58Z</time></trkpt><trkpt lat="36.92336593618834" lon="15.049819074099439"><ele>297.0</ele><time>2026-04-17T09:36:59Z</time></trkpt><trkpt lat="36.923432519345404" lon="15.049745852715752"><ele>295.8</ele><time>2026-04-17T09:37:00Z</time></trkpt><trkpt lat="36.92349263678966" lon="15.049665210860942"><ele>294.6</ele><time>2026-04-17T09:37:01Z</time></trkpt><trkpt lat="36.92354181621404" lon="15.0495586986027"><ele>293.40000000000003</ele><time>2026-04-17T09:37:02Z</time></trkpt><trkpt lat="36.923592165248685" lon="15.049445116363286"><ele>292.2</ele><time>2026-04-17T09:37:03Z</time></trkpt><trkpt lat="36.92364248341916" lon="15.049332190031222"><ele>291.0</ele><time>2026-04-17T09:37:04Z</time></trkpt><trkpt lat="36.92369770478251" lon="15.049233522121368"><ele>291.0</ele><time>2026-04-17T09:37:05Z</time></trkpt><trkpt lat="36.92376399993897" lon="15.049139383728033"><ele>291.0</ele><time>2026-04-17T09:37:06Z</time></trkpt><trkpt lat="36.923832752727414" lon="15.049056829930047"><ele>291.0</ele><time>2026-04-17T09:37:07Z</time></trkpt><trkpt lat="36.923887370486504" lon="15.048989083423013"><ele>291.0</ele><time>2026-04-17T09:37:08Z</time></trkpt><trkpt lat="36.923939539657695" lon="15.048931669948866"><ele>291.0</ele><time>2026-04-17T09:37:09Z</time></trkpt><trkpt lat="36.923995664320515" lon="15.048879618218052"><ele>291.0</ele><time>2026-04-17T09:37:10Z</time></trkpt><trkpt lat="36.9240690738577" lon="15.048845494777995"><ele>290.40000000000003</ele><time>2026-04-17T09:37:11Z</time></trkpt><trkpt lat="36.92416767050503" lon="15.048817889696526"><ele>289.8</ele><time>2026-04-17T09:37:12Z</time></trkpt><trkpt lat="36.924275925529834" lon="15.048801614895854"><ele>289.20000000000005</ele><time>2026-04-17T09:37:13Z</time></trkpt><trkpt lat="36.92438123598063" lon="15.048783147553403"><ele>288.6</ele><time>2026-04-17T09:37:14Z</time></trkpt><trkpt lat="36.924492799590496" lon="15.048757421787094"><ele>288.0</ele><time>2026-04-17T09:37:15Z</time></trkpt><trkpt lat="36.92458891940854" lon="15.048733263487101"><ele>288.0</ele><time>2026-04-17T09:37:16Z</time></trkpt><trkpt lat="36.92466727587805" lon="15.048704620098077"><ele>288.0</ele><time>2026-04-17T09:37:17Z</time></trkpt><trkpt lat="36.924741657294696" lon="15.048688205504295"><ele>288.0</ele><time>2026-04-17T09:37:18Z</time></trkpt><trkpt lat="36.92483049502345" lon="15.04867983507754"><ele>288.0</ele><time>2026-04-17T09:37:19Z</time></trkpt><trkpt lat="36.924913852864485" lon="15.048671434630734"><ele>288.0</ele><time>2026-04-17T09:37:20Z</time></trkpt><trkpt lat="36.924991585214414" lon="15.048673446920246"><ele>288.0</ele><time>2026-04-17T09:37:21Z</time></trkpt><trkpt lat="36.92506808011724" lon="15.048686442446208"><ele>289.2</ele><time>2026-04-17T09:37:22Z</time></trkpt><trkpt lat="36.92515958253028" lon="15.048715428150013"><ele>290.4</ele><time>2026-04-17T09:37:23Z</time></trkpt><trkpt lat="36.925259523027236" lon="15.04875115754835"><ele>291.59999999999997</ele><time>2026-04-17T09:37:24Z</time></trkpt><trkpt lat="36.92534571272989" lon="15.048769792798504"><ele>292.8</ele><time>2026-04-17T09:37:25Z</time></trkpt><trkpt lat="36.92542754002864" lon="15.048761438495276"><ele>294.0</ele><time>2026-04-17T09:37:26Z</time></trkpt><trkpt lat="36.92552203516974" lon="15.04873031056354"><ele>294.0</ele><time>2026-04-17T09:37:27Z</time></trkpt><trkpt lat="36.92561826793108" lon="15.048701259325009"><ele>294.0</ele><time>2026-04-17T09:37:28Z</time></trkpt><trkpt lat="36.9256967660758" lon="15.048660460025433"><ele>294.0</ele><time>2026-04-17T09:37:29Z</time></trkpt><trkpt lat="36.9257538755653" lon="15.04861770763123"><ele>294.0</ele><time>2026-04-17T09:37:30Z</time></trkpt><trkpt lat="36.925833790249925" lon="15.048566456907427"><ele>294.0</ele><time>2026-04-17T09:37:32Z</time></trkpt><trkpt lat="36.9258826119204" lon="15.048619556813149"><ele>294.0</ele><time>2026-04-17T09:40:07Z</time></trkpt><trkpt lat="36.925829630139376" lon="15.04857530896111"><ele>294.0</ele><time>2026-04-17T09:40:33Z</time></trkpt><trkpt lat="36.92576187499199" lon="15.048612904277201"><ele>294.0</ele><time>2026-04-17T09:40:37Z</time></trkpt><trkpt lat="36.92568655491544" lon="15.048653609384223"><ele>294.0</ele><time>2026-04-17T09:40:38Z</time></trkpt><trkpt lat="36.92562472986346" lon="15.048687344149771"><ele>294.0</ele><time>2026-04-17T09:40:39Z</time></trkpt><trkpt lat="36.92548565300107" lon="15.048738001015831"><ele>294.0</ele><time>2026-04-17T09:40:41Z</time></trkpt><trkpt lat="36.925405056547916" lon="15.048736538126663"><ele>294.0</ele><time>2026-04-17T09:40:42Z</time></trkpt><trkpt lat="36.92532927361281" lon="15.048740239092455"><ele>294.0</ele><time>2026-04-17T09:40:43Z</time></trkpt><trkpt lat="36.9252383292392" lon="15.048735050476767"><ele>294.0</ele><time>2026-04-17T09:40:44Z</time></trkpt><trkpt lat="36.92513363814827" lon="15.048703356433561"><ele>294.0</ele><time>2026-04-17T09:40:45Z</time></trkpt><trkpt lat="36.925047178436756" lon="15.04867193897808"><ele>294.0</ele><time>2026-04-17T09:40:46Z</time></trkpt><trkpt lat="36.92497709632685" lon="15.048652004429021"><ele>294.0</ele><time>2026-04-17T09:40:47Z</time></trkpt><trkpt lat="36.92489266384147" lon="15.048664500989014"><ele>294.0</ele><time>2026-04-17T09:40:49Z</time></trkpt><trkpt lat="36.92481716702892" lon="15.048675076284754"><ele>292.8</ele><time>2026-04-17T09:40:50Z</time></trkpt><trkpt lat="36.924712271594075" lon="15.048688020523521"><ele>291.59999999999997</ele><time>2026-04-17T09:40:51Z</time></trkpt><trkpt lat="36.92460276776733" lon="15.048710943884783"><ele>290.4</ele><time>2026-04-17T09:40:52Z</time></trkpt><trkpt lat="36.92451764236585" lon="15.04874129377216"><ele>289.2</ele><time>2026-04-17T09:40:53Z</time></trkpt><trkpt lat="36.924429728044075" lon="15.04877254805218"><ele>288.0</ele><time>2026-04-17T09:40:54Z</time></trkpt><trkpt lat="36.92433123383467" lon="15.048792188679661"><ele>288.0</ele><time>2026-04-17T09:40:55Z</time></trkpt><trkpt lat="36.92423399777436" lon="15.048806114591423"><ele>288.0</ele><time>2026-04-17T09:40:56Z</time></trkpt><trkpt lat="36.92414956176613" lon="15.04883081923401"><ele>288.0</ele><time>2026-04-17T09:40:57Z</time></trkpt><trkpt lat="36.92406214694892" lon="15.048847668992975"><ele>288.0</ele><time>2026-04-17T09:40:58Z</time></trkpt><trkpt lat="36.92400166065198" lon="15.048873451938604"><ele>288.0</ele><time>2026-04-17T09:40:59Z</time></trkpt><trkpt lat="36.92389557041908" lon="15.048965518555985"><ele>288.6</ele><time>2026-04-17T09:41:01Z</time></trkpt><trkpt lat="36.92382828849572" lon="15.049046199466536"><ele>289.20000000000005</ele><time>2026-04-17T09:41:02Z</time></trkpt><trkpt lat="36.923763428621484" lon="15.049142372325191"><ele>289.8</ele><time>2026-04-17T09:41:03Z</time></trkpt><trkpt lat="36.923704228484745" lon="15.049226478351294"><ele>290.40000000000003</ele><time>2026-04-17T09:41:04Z</time></trkpt><trkpt lat="36.92364834778111" lon="15.04930967295621"><ele>291.0</ele><time>2026-04-17T09:41:05Z</time></trkpt><trkpt lat="36.92359449014977" lon="15.049410962237868"><ele>291.0</ele><time>2026-04-17T09:41:06Z</time></trkpt><trkpt lat="36.923545591269345" lon="15.049525464598492"><ele>291.0</ele><time>2026-04-17T09:41:07Z</time></trkpt><trkpt lat="36.9234989196107" lon="15.049621681757088"><ele>291.0</ele><time>2026-04-17T09:41:08Z</time></trkpt><trkpt lat="36.92345215784064" lon="15.04969353186481"><ele>291.0</ele><time>2026-04-17T09:41:09Z</time></trkpt><trkpt lat="36.92340287366133" lon="15.049764200944024"><ele>291.0</ele><time>2026-04-17T09:41:10Z</time></trkpt><trkpt lat="36.92333719145955" lon="15.049829475674036"><ele>291.0</ele><time>2026-04-17T09:41:11Z</time></trkpt><trkpt lat="36.923265630314425" lon="15.049875603409966"><ele>292.0</ele><time>2026-04-17T09:41:12Z</time></trkpt><trkpt lat="36.923195384425746" lon="15.049906772465455"><ele>293.0</ele><time>2026-04-17T09:41:13Z</time></trkpt><trkpt lat="36.92313201407096" lon="15.049922559922418"><ele>294.0</ele><time>2026-04-17T09:41:14Z</time></trkpt><trkpt lat="36.92306746773003" lon="15.049925723230965"><ele>295.0</ele><time>2026-04-17T09:41:15Z</time></trkpt><trkpt lat="36.92299980812169" lon="15.0499265289671"><ele>296.0</ele><time>2026-04-17T09:41:16Z</time></trkpt><trkpt lat="36.922911620804335" lon="15.049923764840646"><ele>297.0</ele><time>2026-04-17T09:41:17Z</time></trkpt><trkpt lat="36.922819542734956" lon="15.049916373356371"><ele>297.0</ele><time>2026-04-17T09:41:18Z</time></trkpt><trkpt lat="36.922736049523756" lon="15.04991441685615"><ele>297.0</ele><time>2026-04-17T09:41:19Z</time></trkpt><trkpt lat="36.92263853755328" lon="15.049929264614937"><ele>297.0</ele><time>2026-04-17T09:41:20Z</time></trkpt><trkpt lat="36.92253505477748" lon="15.049929603869842"><ele>297.0</ele><time>2026-04-17T09:41:21Z</time></trkpt><trkpt lat="36.922450531448945" lon="15.049927763884392"><ele>297.0</ele><time>2026-04-17T09:41:22Z</time></trkpt><trkpt lat="36.92237721497475" lon="15.04992742385524"><ele>297.0</ele><time>2026-04-17T09:41:23Z</time></trkpt><trkpt lat="36.922297516300766" lon="15.049935333591005"><ele>296.1666666666667</ele><time>2026-04-17T09:41:24Z</time></trkpt><trkpt lat="36.922214728019135" lon="15.049931582005522"><ele>295.3333333333333</ele><time>2026-04-17T09:41:25Z</time></trkpt><trkpt lat="36.92212526943154" lon="15.04991686228727"><ele>294.5</ele><time>2026-04-17T09:41:26Z</time></trkpt><trkpt lat="36.922038317767324" lon="15.049890584690111"><ele>293.66666666666663</ele><time>2026-04-17T09:41:27Z</time></trkpt><trkpt lat="36.921961303074305" lon="15.049860878101551"><ele>292.8333333333333</ele><time>2026-04-17T09:41:28Z</time></trkpt><trkpt lat="36.921887003486816" lon="15.049831584669821"><ele>292.0</ele><time>2026-04-17T09:41:29Z</time></trkpt><trkpt lat="36.92181091494565" lon="15.049808484133735"><ele>292.0</ele><time>2026-04-17T09:41:30Z</time></trkpt><trkpt lat="36.92173347044824" lon="15.049786243979575"><ele>292.0</ele><time>2026-04-17T09:41:31Z</time></trkpt><trkpt lat="36.921656136271494" lon="15.049758316183619"><ele>292.0</ele><time>2026-04-17T09:41:32Z</time></trkpt><trkpt lat="36.9215691995289" lon="15.049737841906955"><ele>292.0</ele><time>2026-04-17T09:41:33Z</time></trkpt><trkpt lat="36.92148538615756" lon="15.04971556586826"><ele>292.0</ele><time>2026-04-17T09:41:34Z</time></trkpt><trkpt lat="36.92141148551409" lon="15.049698970050093"><ele>292.0</ele><time>2026-04-17T09:41:35Z</time></trkpt><trkpt lat="36.921347410369066" lon="15.049683643215578"><ele>291.66666666666663</ele><time>2026-04-17T09:41:36Z</time></trkpt><trkpt lat="36.92122814305946" lon="15.049651326377182"><ele>291.3333333333333</ele><time>2026-04-17T09:41:38Z</time></trkpt><trkpt lat="36.92116383558104" lon="15.049622967563613"><ele>291.0</ele><time>2026-04-17T09:41:39Z</time></trkpt><trkpt lat="36.921093745300084" lon="15.04960169873101"><ele>290.6666666666667</ele><time>2026-04-17T09:41:40Z</time></trkpt><trkpt lat="36.921016548014315" lon="15.049594051665057"><ele>290.33333333333337</ele><time>2026-04-17T09:41:41Z</time></trkpt><trkpt lat="36.92093252096261" lon="15.049591175300703"><ele>290.0</ele><time>2026-04-17T09:41:42Z</time></trkpt><trkpt lat="36.9208405365131" lon="15.049590058278627"><ele>290.0</ele><time>2026-04-17T09:41:43Z</time></trkpt><trkpt lat="36.920750692906566" lon="15.049584052037858"><ele>290.0</ele><time>2026-04-17T09:41:44Z</time></trkpt><trkpt lat="36.920670557487384" lon="15.049573796475425"><ele>290.0</ele><time>2026-04-17T09:41:45Z</time></trkpt><trkpt lat="36.92059183252325" lon="15.049565597524424"><ele>290.0</ele><time>2026-04-17T09:41:46Z</time></trkpt><trkpt lat="36.920517202387" lon="15.049552875525128"><ele>290.0</ele><time>2026-04-17T09:41:47Z</time></trkpt><trkpt lat="36.92042885601781" lon="15.049523080251609"><ele>290.0</ele><time>2026-04-17T09:41:48Z</time></trkpt><trkpt lat="36.9203438468997" lon="15.049477841963824"><ele>290.0</ele><time>2026-04-17T09:41:49Z</time></trkpt><trkpt lat="36.920281631287516" lon="15.049437820988446"><ele>290.0</ele><time>2026-04-17T09:41:50Z</time></trkpt><trkpt lat="36.9202205125509" lon="15.04940357522462"><ele>290.0</ele><time>2026-04-17T09:41:51Z</time></trkpt><trkpt lat="36.92011003795027" lon="15.049340650513258"><ele>290.0</ele><time>2026-04-17T09:41:53Z</time></trkpt><trkpt lat="36.920051414975696" lon="15.049207376359389"><ele>290.0</ele><time>2026-04-17T09:41:55Z</time></trkpt><trkpt lat="36.91997440204894" lon="15.049090231744893"><ele>287.6666666666667</ele><time>2026-04-17T09:41:57Z</time></trkpt><trkpt lat="36.91990986353561" lon="15.049074562086428"><ele>285.33333333333337</ele><time>2026-04-17T09:41:58Z</time></trkpt><trkpt lat="36.919846259961226" lon="15.049047514110622"><ele>283.0</ele><time>2026-04-17T09:41:59Z</time></trkpt><trkpt lat="36.91977770956528" lon="15.049011452403498"><ele>280.6666666666667</ele><time>2026-04-17T09:42:00Z</time></trkpt><trkpt lat="36.919703685806496" lon="15.048898199119876"><ele>278.3333333333333</ele><time>2026-04-17T09:42:01Z</time></trkpt><trkpt lat="36.919603215790744" lon="15.048874665734079"><ele>276.0</ele><time>2026-04-17T09:42:02Z</time></trkpt><trkpt lat="36.91949966617748" lon="15.04886313983647"><ele>276.0</ele><time>2026-04-17T09:42:03Z</time></trkpt><trkpt lat="36.91939482996443" lon="15.048846914397279"><ele>276.0</ele><time>2026-04-17T09:42:04Z</time></trkpt><trkpt lat="36.91927765329958" lon="15.048822523371161"><ele>276.0</ele><time>2026-04-17T09:42:05Z</time></trkpt><trkpt lat="36.919162532459964" lon="15.048779312185077"><ele>276.0</ele><time>2026-04-17T09:42:06Z</time></trkpt><trkpt lat="36.9190340234494" lon="15.048726430252016"><ele>276.6</ele><time>2026-04-17T09:42:07Z</time></trkpt><trkpt lat="36.918907531550964" lon="15.048686560422523"><ele>277.20000000000005</ele><time>2026-04-17T09:42:08Z</time></trkpt><trkpt lat="36.91880242019001" lon="15.048655118492533"><ele>277.79999999999995</ele><time>2026-04-17T09:42:09Z</time></trkpt><trkpt lat="36.91871706335553" lon="15.048623108278434"><ele>278.4</ele><time>2026-04-17T09:42:10Z</time></trkpt><trkpt lat="36.91864109912651" lon="15.048585744232541"><ele>279.0</ele><time>2026-04-17T09:42:11Z</time></trkpt><trkpt lat="36.9185574913827" lon="15.048541102823405"><ele>279.0</ele><time>2026-04-17T09:42:12Z</time></trkpt><trkpt lat="36.91846713716746" lon="15.048490793873126"><ele>279.0</ele><time>2026-04-17T09:42:13Z</time></trkpt><trkpt lat="36.91838360797916" lon="15.048454443897448"><ele>279.0</ele><time>2026-04-17T09:42:14Z</time></trkpt><trkpt lat="36.91830489006273" lon="15.048425281511804"><ele>279.0</ele><time>2026-04-17T09:42:15Z</time></trkpt><trkpt lat="36.91823518586996" lon="15.048389097571828"><ele>279.0</ele><time>2026-04-17T09:42:16Z</time></trkpt><trkpt lat="36.918160260075894" lon="15.048349866266287"><ele>279.0</ele><time>2026-04-17T09:42:17Z</time></trkpt><trkpt lat="36.91809119457135" lon="15.048318035494267"><ele>274.8333333333333</ele><time>2026-04-17T09:42:18Z</time></trkpt><trkpt lat="36.918020599997305" lon="15.048286890661814"><ele>270.6666666666667</ele><time>2026-04-17T09:42:19Z</time></trkpt><trkpt lat="36.91795079071909" lon="15.048256657424002"><ele>266.5</ele><time>2026-04-17T09:42:20Z</time></trkpt><trkpt lat="36.917888320631945" lon="15.048226407925231"><ele>262.33333333333337</ele><time>2026-04-17T09:42:21Z</time></trkpt><trkpt lat="36.9178174107364" lon="15.048187233167923"><ele>258.1666666666667</ele><time>2026-04-17T09:42:23Z</time></trkpt><trkpt lat="36.917741277339864" lon="15.048136535833088"><ele>254.0</ele><time>2026-04-17T09:42:56Z</time></trkpt><trkpt lat="36.91765597353872" lon="15.0480618713245"><ele>254.0</ele><time>2026-04-17T09:42:58Z</time></trkpt><trkpt lat="36.91758620432281" lon="15.047986122918452"><ele>254.0</ele><time>2026-04-17T09:42:59Z</time></trkpt><trkpt lat="36.91749550329894" lon="15.047881495621048"><ele>254.0</ele><time>2026-04-17T09:43:00Z</time></trkpt><trkpt lat="36.917388457454884" lon="15.047801387101723"><ele>254.0</ele><time>2026-04-17T09:43:01Z</time></trkpt><trkpt lat="36.91727835229667" lon="15.047748585753023"><ele>257.4</ele><time>2026-04-17T09:43:02Z</time></trkpt><trkpt lat="36.91718081444137" lon="15.047677810065881"><ele>260.79999999999995</ele><time>2026-04-17T09:43:03Z</time></trkpt><trkpt lat="36.91708486281694" lon="15.047612626195471"><ele>264.20000000000005</ele><time>2026-04-17T09:43:04Z</time></trkpt><trkpt lat="36.9169904243526" lon="15.047554645373834"><ele>267.6</ele><time>2026-04-17T09:43:05Z</time></trkpt><trkpt lat="36.91688253904365" lon="15.047507776883322"><ele>271.0</ele><time>2026-04-17T09:43:06Z</time></trkpt><trkpt lat="36.91675759318335" lon="15.047470559464006"><ele>269.25</ele><time>2026-04-17T09:43:07Z</time></trkpt><trkpt lat="36.916623464654435" lon="15.047435110234368"><ele>267.5</ele><time>2026-04-17T09:43:08Z</time></trkpt><trkpt lat="36.91648952736311" lon="15.04740102226122"><ele>265.75</ele><time>2026-04-17T09:43:09Z</time></trkpt><trkpt lat="36.91637517576203" lon="15.047379675993684"><ele>264.0</ele><time>2026-04-17T09:43:10Z</time></trkpt><trkpt lat="36.91627699792256" lon="15.047359771981416"><ele>264.0</ele><time>2026-04-17T09:43:11Z</time></trkpt><trkpt lat="36.9161710203068" lon="15.047340337556358"><ele>264.0</ele><time>2026-04-17T09:43:12Z</time></trkpt><trkpt lat="36.9160532635455" lon="15.047290009753427"><ele>264.0</ele><time>2026-04-17T09:43:13Z</time></trkpt><trkpt lat="36.91592036544931" lon="15.047205886228582"><ele>264.0</ele><time>2026-04-17T09:43:14Z</time></trkpt><trkpt lat="36.91579819376586" lon="15.047137801316085"><ele>268.0</ele><time>2026-04-17T09:43:15Z</time></trkpt><trkpt lat="36.91568354292615" lon="15.047091591960376"><ele>272.0</ele><time>2026-04-17T09:43:16Z</time></trkpt><trkpt lat="36.91557080859972" lon="15.047049669475525"><ele>276.0</ele><time>2026-04-17T09:43:17Z</time></trkpt><trkpt lat="36.915449345640255" lon="15.047000103822285"><ele>280.0</ele><time>2026-04-17T09:43:18Z</time></trkpt><trkpt lat="36.915335903315295" lon="15.046936381555547"><ele>280.0</ele><time>2026-04-17T09:43:19Z</time></trkpt><trkpt lat="36.915226922898306" lon="15.04690957502875"><ele>280.0</ele><time>2026-04-17T09:43:20Z</time></trkpt><trkpt lat="36.91511957369436" lon="15.04686743117433"><ele>280.0</ele><time>2026-04-17T09:43:21Z</time></trkpt><trkpt lat="36.915013616145245" lon="15.046824497402621"><ele>280.0</ele><time>2026-04-17T09:43:22Z</time></trkpt><trkpt lat="36.91491769476683" lon="15.046766563364427"><ele>280.0</ele><time>2026-04-17T09:43:23Z</time></trkpt><trkpt lat="36.91480764768347" lon="15.046743209785031"><ele>279.0</ele><time>2026-04-17T09:43:24Z</time></trkpt><trkpt lat="36.91470270265601" lon="15.046700369834186"><ele>278.0</ele><time>2026-04-17T09:43:25Z</time></trkpt><trkpt lat="36.91459737989304" lon="15.046664613417919"><ele>277.0</ele><time>2026-04-17T09:43:26Z</time></trkpt><trkpt lat="36.914488014205574" lon="15.046627854482141"><ele>276.0</ele><time>2026-04-17T09:43:27Z</time></trkpt><trkpt lat="36.91437685836015" lon="15.046591455508633"><ele>275.0</ele><time>2026-04-17T09:43:28Z</time></trkpt><trkpt lat="36.91427361945425" lon="15.046533480247188"><ele>272.4</ele><time>2026-04-17T09:43:29Z</time></trkpt><trkpt lat="36.914160463585084" lon="15.046485521985511"><ele>269.8</ele><time>2026-04-17T09:43:30Z</time></trkpt><trkpt lat="36.91405429837276" lon="15.046435255096153"><ele>267.2</ele><time>2026-04-17T09:43:31Z</time></trkpt><trkpt lat="36.91395769912036" lon="15.046389747651334"><ele>264.6</ele><time>2026-04-17T09:43:32Z</time></trkpt><trkpt lat="36.91385609838958" lon="15.046341744507846"><ele>262.0</ele><time>2026-04-17T09:43:33Z</time></trkpt><trkpt lat="36.91375069974599" lon="15.046299175766796"><ele>262.0</ele><time>2026-04-17T09:43:34Z</time></trkpt><trkpt lat="36.91363806288122" lon="15.04626057299402"><ele>262.0</ele><time>2026-04-17T09:43:35Z</time></trkpt><trkpt lat="36.91352415264261" lon="15.04623315964996"><ele>262.0</ele><time>2026-04-17T09:43:36Z</time></trkpt><trkpt lat="36.91341311180601" lon="15.046211230304731"><ele>262.0</ele><time>2026-04-17T09:43:37Z</time></trkpt><trkpt lat="36.913311446185155" lon="15.046190841405481"><ele>262.0</ele><time>2026-04-17T09:43:38Z</time></trkpt><trkpt lat="36.913207897779614" lon="15.046170074910313"><ele>262.5</ele><time>2026-04-17T09:43:39Z</time></trkpt><trkpt lat="36.91311163011977" lon="15.046149118194334"><ele>263.0</ele><time>2026-04-17T09:43:40Z</time></trkpt><trkpt lat="36.91302600190734" lon="15.046138554131018"><ele>263.5</ele><time>2026-04-17T09:43:41Z</time></trkpt><trkpt lat="36.91295830662513" lon="15.046106544038082"><ele>264.0</ele><time>2026-04-17T09:43:42Z</time></trkpt><trkpt lat="36.91288220877895" lon="15.046106486300776"><ele>264.5</ele><time>2026-04-17T09:43:43Z</time></trkpt><trkpt lat="36.91278326755173" lon="15.046076419907271"><ele>265.0</ele><time>2026-04-17T09:43:45Z</time></trkpt><trkpt lat="36.912716917190046" lon="15.046131970236644"><ele>265.0</ele><time>2026-04-17T09:43:46Z</time></trkpt><trkpt lat="36.912672727215835" lon="15.04624112786022"><ele>265.0</ele><time>2026-04-17T09:43:47Z</time></trkpt><trkpt lat="36.912668230389876" lon="15.046387047453829"><ele>265.0</ele><time>2026-04-17T09:43:48Z</time></trkpt><trkpt lat="36.91266823038674" lon="15.046501139464638"><ele>265.0</ele><time>2026-04-17T09:43:49Z</time></trkpt><trkpt lat="36.91264333875664" lon="15.046596192497288"><ele>265.0</ele><time>2026-04-17T09:43:50Z</time></trkpt><trkpt lat="36.91260686219043" lon="15.046683802514892"><ele>259.3333333333333</ele><time>2026-04-17T09:43:51Z</time></trkpt><trkpt lat="36.91253340167651" lon="15.046733050732417"><ele>253.66666666666666</ele><time>2026-04-17T09:43:52Z</time></trkpt><trkpt lat="36.91245261416707" lon="15.046821393289633"><ele>248.0</ele><time>2026-04-17T09:43:53Z</time></trkpt><trkpt lat="36.91238103463713" lon="15.046894292552146"><ele>242.33333333333331</ele><time>2026-04-17T09:43:54Z</time></trkpt><trkpt lat="36.912322124148616" lon="15.04696029500054"><ele>236.66666666666666</ele><time>2026-04-17T09:43:55Z</time></trkpt><trkpt lat="36.91227621447283" lon="15.047030880884408"><ele>231.0</ele><time>2026-04-17T09:43:56Z</time></trkpt><trkpt lat="36.912220115013206" lon="15.047144027835985"><ele>231.0</ele><time>2026-04-17T09:43:58Z</time></trkpt><trkpt lat="36.91224234532533" lon="15.047293849300344"><ele>231.00000000000003</ele><time>2026-04-17T09:43:59Z</time></trkpt><trkpt lat="36.912247507215874" lon="15.04741637563289"><ele>231.00000000000003</ele><time>2026-04-17T09:44:00Z</time></trkpt><trkpt lat="36.91225249036624" lon="15.047546767431966"><ele>231.0</ele><time>2026-04-17T09:44:01Z</time></trkpt><trkpt lat="36.91225514735808" lon="15.04763746700151"><ele>231.0</ele><time>2026-04-17T09:44:02Z</time></trkpt><trkpt lat="36.91225249192853" lon="15.04772113228223"><ele>233.0</ele><time>2026-04-17T09:44:03Z</time></trkpt><trkpt lat="36.91216681164071" lon="15.047825065265725"><ele>235.00000000000003</ele><time>2026-04-17T09:44:05Z</time></trkpt><trkpt lat="36.9120771085536" lon="15.047868868902222"><ele>237.00000000000003</ele><time>2026-04-17T09:44:06Z</time></trkpt><trkpt lat="36.91200058530886" lon="15.047988691419066"><ele>239.0</ele><time>2026-04-17T09:44:07Z</time></trkpt><trkpt lat="36.91192435653802" lon="15.048037130023248"><ele>241.0</ele><time>2026-04-17T09:44:08Z</time></trkpt><trkpt lat="36.911852016272626" lon="15.048085416392684"><ele>241.0</ele><time>2026-04-17T09:44:09Z</time></trkpt><trkpt lat="36.91176549377983" lon="15.048105244070353"><ele>241.00000000000003</ele><time>2026-04-17T09:44:10Z</time></trkpt><trkpt lat="36.911659998825456" lon="15.048030528830573"><ele>241.00000000000003</ele><time>2026-04-17T09:44:11Z</time></trkpt><trkpt lat="36.91155681788892" lon="15.04803220970947"><ele>241.0</ele><time>2026-04-17T09:44:12Z</time></trkpt><trkpt lat="36.91145658325925" lon="15.048011164026327"><ele>241.0</ele><time>2026-04-17T09:44:13Z</time></trkpt><trkpt lat="36.91135043548948" lon="15.047960816125672"><ele>235.8</ele><time>2026-04-17T09:44:14Z</time></trkpt><trkpt lat="36.911246578685976" lon="15.047888486942014"><ele>230.60000000000002</ele><time>2026-04-17T09:44:15Z</time></trkpt><trkpt lat="36.91114571910045" lon="15.047846381516614"><ele>225.4</ele><time>2026-04-17T09:44:16Z</time></trkpt><trkpt lat="36.91105288684996" lon="15.047796421694137"><ele>220.2</ele><time>2026-04-17T09:44:17Z</time></trkpt><trkpt lat="36.91094738713636" lon="15.047757540298072"><ele>215.0</ele><time>2026-04-17T09:44:18Z</time></trkpt><trkpt lat="36.91084360579996" lon="15.047709464928232"><ele>212.0</ele><time>2026-04-17T09:44:19Z</time></trkpt><trkpt lat="36.9107308592459" lon="15.047693917437353"><ele>209.0</ele><time>2026-04-17T09:44:20Z</time></trkpt><trkpt lat="36.91061610144574" lon="15.047687308319261"><ele>206.0</ele><time>2026-04-17T09:44:21Z</time></trkpt><trkpt lat="36.91048645157559" lon="15.047706215728049"><ele>203.0</ele><time>2026-04-17T09:44:22Z</time></trkpt><trkpt lat="36.91035153279365" lon="15.047728336012213"><ele>203.0</ele><time>2026-04-17T09:44:23Z</time></trkpt><trkpt lat="36.9102293210103" lon="15.047750361367072"><ele>203.0</ele><time>2026-04-17T09:44:24Z</time></trkpt><trkpt lat="36.910113562242" lon="15.047772955958914"><ele>203.0</ele><time>2026-04-17T09:44:25Z</time></trkpt><trkpt lat="36.91001696741327" lon="15.047790015921489"><ele>203.0</ele><time>2026-04-17T09:44:26Z</time></trkpt><trkpt lat="36.909931274573594" lon="15.047795560334274"><ele>203.0</ele><time>2026-04-17T09:44:27Z</time></trkpt><trkpt lat="36.90984800722916" lon="15.04778985281422"><ele>200.8</ele><time>2026-04-17T09:44:28Z</time></trkpt><trkpt lat="36.90976655983012" lon="15.047784395696972"><ele>198.60000000000002</ele><time>2026-04-17T09:44:29Z</time></trkpt><trkpt lat="36.90968350671242" lon="15.047781641137595"><ele>196.39999999999998</ele><time>2026-04-17T09:44:30Z</time></trkpt><trkpt lat="36.90958031199542" lon="15.047805014516216"><ele>194.2</ele><time>2026-04-17T09:44:31Z</time></trkpt><trkpt lat="36.9094675619276" lon="15.047842227644432"><ele>192.0</ele><time>2026-04-17T09:44:32Z</time></trkpt><trkpt lat="36.90936673770611" lon="15.047888872339183"><ele>192.0</ele><time>2026-04-17T09:44:33Z</time></trkpt><trkpt lat="36.90927378248733" lon="15.047933906055977"><ele>192.0</ele><time>2026-04-17T09:44:34Z</time></trkpt><trkpt lat="36.90920187804077" lon="15.0479744617627"><ele>192.0</ele><time>2026-04-17T09:44:35Z</time></trkpt><trkpt lat="36.90914124228162" lon="15.048017449666828"><ele>192.0</ele><time>2026-04-17T09:44:36Z</time></trkpt><trkpt lat="36.909080772958795" lon="15.04806162903935"><ele>192.0</ele><time>2026-04-17T09:44:37Z</time></trkpt><trkpt lat="36.90897928362589" lon="15.048127076934037"><ele>192.0</ele><time>2026-04-17T09:44:39Z</time></trkpt><trkpt lat="36.90886630174799" lon="15.04819954363013"><ele>192.0</ele><time>2026-04-17T09:44:41Z</time></trkpt><trkpt lat="36.908777606077386" lon="15.048258047488247"><ele>192.0</ele><time>2026-04-17T09:44:43Z</time></trkpt><trkpt lat="36.90865085505678" lon="15.048342652036743"><ele>192.0</ele><time>2026-04-17T09:44:45Z</time></trkpt><trkpt lat="36.908571236091085" lon="15.048397710807437"><ele>192.0</ele><time>2026-04-17T09:44:46Z</time></trkpt><trkpt lat="36.908510678264946" lon="15.048444360339523"><ele>192.0</ele><time>2026-04-17T09:44:47Z</time></trkpt><trkpt lat="36.9084611892418" lon="15.048505514778846"><ele>184.5</ele><time>2026-04-17T09:44:48Z</time></trkpt><trkpt lat="36.90840163345072" lon="15.048589989206624"><ele>177.0</ele><time>2026-04-17T09:44:49Z</time></trkpt><trkpt lat="36.908326813860256" lon="15.048720327016932"><ele>169.5</ele><time>2026-04-17T09:44:50Z</time></trkpt><trkpt lat="36.90824827917856" lon="15.048861193493305"><ele>162.0</ele><time>2026-04-17T09:44:51Z</time></trkpt><trkpt lat="36.90818379351562" lon="15.048978657629807"><ele>162.0</ele><time>2026-04-17T09:44:52Z</time></trkpt><trkpt lat="36.908115788917506" lon="15.049087802116922"><ele>162.0</ele><time>2026-04-17T09:44:53Z</time></trkpt><trkpt lat="36.9080461128659" lon="15.049181933824492"><ele>162.0</ele><time>2026-04-17T09:44:54Z</time></trkpt><trkpt lat="36.90796398648161" lon="15.049259927102547"><ele>162.0</ele><time>2026-04-17T09:44:55Z</time></trkpt><trkpt lat="36.90789470899093" lon="15.04934900552956"><ele>162.0</ele><time>2026-04-17T09:44:56Z</time></trkpt><trkpt lat="36.90781039015874" lon="15.049458538673216"><ele>163.0</ele><time>2026-04-17T09:44:57Z</time></trkpt><trkpt lat="36.90772668704514" lon="15.049592394824012"><ele>164.0</ele><time>2026-04-17T09:44:58Z</time></trkpt><trkpt lat="36.907644983910956" lon="15.049692816822485"><ele>165.0</ele><time>2026-04-17T09:44:59Z</time></trkpt><trkpt lat="36.907573949042785" lon="15.049796210317766"><ele>166.0</ele><time>2026-04-17T09:45:00Z</time></trkpt><trkpt lat="36.90752592134085" lon="15.04986289525606"><ele>167.0</ele><time>2026-04-17T09:45:01Z</time></trkpt><trkpt lat="36.9074425920916" lon="15.049955474341758"><ele>164.14285714285714</ele><time>2026-04-17T09:45:03Z</time></trkpt><trkpt lat="36.90739289768946" lon="15.05002904986134"><ele>161.28571428571428</ele><time>2026-04-17T09:45:05Z</time></trkpt><trkpt lat="36.90732009648503" lon="15.050055609107085"><ele>158.42857142857144</ele><time>2026-04-17T09:45:09Z</time></trkpt><trkpt lat="36.90725905686926" lon="15.05003457068356"><ele>155.57142857142856</ele><time>2026-04-17T09:45:11Z</time></trkpt><trkpt lat="36.90722877510118" lon="15.049961388209773"><ele>152.71428571428572</ele><time>2026-04-17T09:45:14Z</time></trkpt><trkpt lat="36.90718286834233" lon="15.049898881940791"><ele>149.85714285714286</ele><time>2026-04-17T09:45:16Z</time></trkpt><trkpt lat="36.90713433645181" lon="15.049985057153966"><ele>147.0</ele><time>2026-04-17T09:45:20Z</time></trkpt><trkpt lat="36.90710415891752" lon="15.050096813962696"><ele>147.0</ele><time>2026-04-17T09:45:22Z</time></trkpt><trkpt lat="36.90708531057307" lon="15.05020981571993"><ele>147.0</ele><time>2026-04-17T09:45:24Z</time></trkpt><trkpt lat="36.90707289934984" lon="15.050354091628247"><ele>147.0</ele><time>2026-04-17T09:45:26Z</time></trkpt><trkpt lat="36.90704600861472" lon="15.05042871917407"><ele>147.0</ele><time>2026-04-17T09:45:27Z</time></trkpt><trkpt lat="36.90702907985932" lon="15.05050951405198"><ele>147.0</ele><time>2026-04-17T09:45:28Z</time></trkpt><trkpt lat="36.907009432988936" lon="15.050596436650165"><ele>147.0</ele><time>2026-04-17T09:45:29Z</time></trkpt><trkpt lat="36.90698879482957" lon="15.050687744852848"><ele>147.0</ele><time>2026-04-17T09:45:30Z</time></trkpt><trkpt lat="36.9069667993311" lon="15.050785058001788"><ele>147.0</ele><time>2026-04-17T09:45:31Z</time></trkpt><trkpt lat="36.90694348929646" lon="15.050888190637668"><ele>147.0</ele><time>2026-04-17T09:45:32Z</time></trkpt><trkpt lat="36.90692554285228" lon="15.050997967495919"><ele>147.0</ele><time>2026-04-17T09:45:33Z</time></trkpt><trkpt lat="36.90689270955336" lon="15.05110327097082"><ele>147.0</ele><time>2026-04-17T09:45:34Z</time></trkpt><trkpt lat="36.90684235114012" lon="15.05119302048817"><ele>147.0</ele><time>2026-04-17T09:45:35Z</time></trkpt><trkpt lat="36.906790740678936" lon="15.05127623138673"><ele>143.83333333333334</ele><time>2026-04-17T09:45:36Z</time></trkpt><trkpt lat="36.90674174593433" lon="15.051343946320905"><ele>140.66666666666666</ele><time>2026-04-17T09:45:37Z</time></trkpt><trkpt lat="36.906684136760745" lon="15.051417411486117"><ele>137.5</ele><time>2026-04-17T09:45:38Z</time></trkpt><trkpt lat="36.90662012720896" lon="15.05150036305446"><ele>134.33333333333331</ele><time>2026-04-17T09:45:39Z</time></trkpt><trkpt lat="36.906554262544915" lon="15.051585718661894"><ele>131.16666666666666</ele><time>2026-04-17T09:45:40Z</time></trkpt><trkpt lat="36.90648646681307" lon="15.051675145744317"><ele>128.0</ele><time>2026-04-17T09:45:41Z</time></trkpt><trkpt lat="36.906417255780624" lon="15.051767343865695"><ele>127.2</ele><time>2026-04-17T09:45:42Z</time></trkpt><trkpt lat="36.90634616960742" lon="15.051862039947364"><ele>126.4</ele><time>2026-04-17T09:45:43Z</time></trkpt><trkpt lat="36.9062726832362" lon="15.051959933372729"><ele>125.60000000000001</ele><time>2026-04-17T09:45:44Z</time></trkpt><trkpt lat="36.906198086423984" lon="15.052059306236597"><ele>124.80000000000001</ele><time>2026-04-17T09:45:45Z</time></trkpt><trkpt lat="36.9061223874009" lon="15.052159458195465"><ele>124.0</ele><time>2026-04-17T09:45:46Z</time></trkpt><trkpt lat="36.90604663815258" lon="15.052259254796919"><ele>124.0</ele><time>2026-04-17T09:45:47Z</time></trkpt><trkpt lat="36.90597082886099" lon="15.052359131377388"><ele>124.0</ele><time>2026-04-17T09:45:48Z</time></trkpt><trkpt lat="36.905895161316984" lon="15.052457417385694"><ele>124.0</ele><time>2026-04-17T09:45:49Z</time></trkpt><trkpt lat="36.905820244815104" lon="15.052555185031846"><ele>124.0</ele><time>2026-04-17T09:45:50Z</time></trkpt><trkpt lat="36.90574744447074" lon="15.052650796331836"><ele>124.0</ele><time>2026-04-17T09:45:51Z</time></trkpt><trkpt lat="36.90567378633494" lon="15.052747534180423"><ele>122.2</ele><time>2026-04-17T09:45:52Z</time></trkpt><trkpt lat="36.90560067399897" lon="15.052843555223435"><ele>120.4</ele><time>2026-04-17T09:45:53Z</time></trkpt><trkpt lat="36.90552753622357" lon="15.052939790928527"><ele>118.6</ele><time>2026-04-17T09:45:54Z</time></trkpt><trkpt lat="36.9054543972638" lon="15.053036112816164"><ele>116.8</ele><time>2026-04-17T09:45:55Z</time></trkpt><trkpt lat="36.905382732964384" lon="15.053130492629943"><ele>115.0</ele><time>2026-04-17T09:45:56Z</time></trkpt><trkpt lat="36.90530991887923" lon="15.053226591013411"><ele>114.8</ele><time>2026-04-17T09:45:57Z</time></trkpt><trkpt lat="36.90523997412084" lon="15.053321831709859"><ele>114.6</ele><time>2026-04-17T09:45:58Z</time></trkpt><trkpt lat="36.905170582829406" lon="15.053416318758387"><ele>114.4</ele><time>2026-04-17T09:45:59Z</time></trkpt><trkpt lat="36.90510325373675" lon="15.053507997795398"><ele>114.2</ele><time>2026-04-17T09:46:00Z</time></trkpt><trkpt lat="36.905037855560686" lon="15.053597334616642"><ele>114.0</ele><time>2026-04-17T09:46:01Z</time></trkpt><trkpt lat="36.90497470209823" lon="15.053683489010558"><ele>113.66666666666667</ele><time>2026-04-17T09:46:02Z</time></trkpt><trkpt lat="36.90491458721448" lon="15.053765273723991"><ele>113.33333333333334</ele><time>2026-04-17T09:46:03Z</time></trkpt><trkpt lat="36.90485540917053" lon="15.053845015472046"><ele>113.0</ele><time>2026-04-17T09:46:04Z</time></trkpt><trkpt lat="36.904798688363094" lon="15.053919296276808"><ele>112.66666666666667</ele><time>2026-04-17T09:46:05Z</time></trkpt><trkpt lat="36.90474181055998" lon="15.053993366195568"><ele>112.33333333333334</ele><time>2026-04-17T09:46:06Z</time></trkpt><trkpt lat="36.90468768132021" lon="15.05406276702524"><ele>112.0</ele><time>2026-04-17T09:46:07Z</time></trkpt><trkpt lat="36.90463391691561" lon="15.054131229789169"><ele>112.57142857142857</ele><time>2026-04-17T09:46:08Z</time></trkpt><trkpt lat="36.90458531494767" lon="15.054196295140038"><ele>113.14285714285714</ele><time>2026-04-17T09:46:09Z</time></trkpt><trkpt lat="36.90453683879048" lon="15.054258931537902"><ele>113.71428571428572</ele><time>2026-04-17T09:46:10Z</time></trkpt><trkpt lat="36.90449067483253" lon="15.054323498709898"><ele>114.28571428571429</ele><time>2026-04-17T09:46:11Z</time></trkpt><trkpt lat="36.90444711070771" lon="15.054387876447574"><ele>114.85714285714286</ele><time>2026-04-17T09:46:12Z</time></trkpt><trkpt lat="36.90440661641459" lon="15.054452977512081"><ele>115.42857142857144</ele><time>2026-04-17T09:46:13Z</time></trkpt><trkpt lat="36.90436333450421" lon="15.054516751657777"><ele>116.00000000000001</ele><time>2026-04-17T09:46:14Z</time></trkpt><trkpt lat="36.90428244855158" lon="15.054622110665862"><ele>116.0</ele><time>2026-04-17T09:46:16Z</time></trkpt><trkpt lat="36.90424878638823" lon="15.054701901055306"><ele>116.0</ele><time>2026-04-17T09:46:18Z</time></trkpt><trkpt lat="36.9043082420282" lon="15.05456617818398"><ele>116.0</ele><time>2026-04-17T09:46:41Z</time></trkpt><trkpt lat="36.9044252557988" lon="15.054481975052255"><ele>116.0</ele><time>2026-04-17T09:46:42Z</time></trkpt><trkpt lat="36.90452654039688" lon="15.054389494583534"><ele>116.0</ele><time>2026-04-17T09:46:43Z</time></trkpt><trkpt lat="36.90465061181562" lon="15.05432340372402"><ele>116.0</ele><time>2026-04-17T09:46:44Z</time></trkpt><trkpt lat="36.90478239767568" lon="15.054247903549191"><ele>116.0</ele><time>2026-04-17T09:46:45Z</time></trkpt><trkpt lat="36.904899856666276" lon="15.054171235988745"><ele>116.0</ele><time>2026-04-17T09:46:46Z</time></trkpt><trkpt lat="36.905009775664645" lon="15.054093229260802"><ele>115.5</ele><time>2026-04-17T09:46:47Z</time></trkpt><trkpt lat="36.905124098681235" lon="15.054012097819438"><ele>115.0</ele><time>2026-04-17T09:46:48Z</time></trkpt><trkpt lat="36.90523154439358" lon="15.05397514540997"><ele>114.5</ele><time>2026-04-17T09:46:49Z</time></trkpt><trkpt lat="36.90537282195644" lon="15.0539526203123"><ele>114.0</ele><time>2026-04-17T09:46:50Z</time></trkpt><trkpt lat="36.905540875920174" lon="15.053869550834552"><ele>114.0</ele><time>2026-04-17T09:46:51Z</time></trkpt><trkpt lat="36.90572680820469" lon="15.05377202766744"><ele>114.0</ele><time>2026-04-17T09:46:52Z</time></trkpt><trkpt lat="36.905717307643975" lon="15.052767301546584"><ele>114.5</ele><time>2026-04-17T09:46:53Z</time></trkpt><trkpt lat="36.90588915429041" lon="15.05253482223977"><ele>115.0</ele><time>2026-04-17T09:46:54Z</time></trkpt><trkpt lat="36.90604838057977" lon="15.052329968195924"><ele>118.0</ele><time>2026-04-17T09:46:55Z</time></trkpt><trkpt lat="36.90619704539874" lon="15.052136146467062"><ele>121.0</ele><time>2026-04-17T09:46:56Z</time></trkpt><trkpt lat="36.90633546805727" lon="15.051954216168568"><ele>124.0</ele><time>2026-04-17T09:46:57Z</time></trkpt><trkpt lat="36.90645953886935" lon="15.051802252765274"><ele>124.0</ele><time>2026-04-17T09:46:58Z</time></trkpt><trkpt lat="36.90657063883484" lon="15.05166446908848"><ele>124.0</ele><time>2026-04-17T09:46:59Z</time></trkpt><trkpt lat="36.906678603874674" lon="15.051526674662608"><ele>124.0</ele><time>2026-04-17T09:47:00Z</time></trkpt><trkpt lat="36.906773825581666" lon="15.051384662160574"><ele>128.5</ele><time>2026-04-17T09:47:01Z</time></trkpt><trkpt lat="36.906870916406504" lon="15.051251198449679"><ele>133.0</ele><time>2026-04-17T09:47:02Z</time></trkpt><trkpt lat="36.90695467595303" lon="15.051127110470208"><ele>137.5</ele><time>2026-04-17T09:47:03Z</time></trkpt><trkpt lat="36.90698263112696" lon="15.05098511850402"><ele>142.0</ele><time>2026-04-17T09:47:04Z</time></trkpt><trkpt lat="36.90700435963229" lon="15.05084722590905"><ele>143.25</ele><time>2026-04-17T09:47:05Z</time></trkpt><trkpt lat="36.90703930823958" lon="15.050694113372247"><ele>144.5</ele><time>2026-04-17T09:47:06Z</time></trkpt><trkpt lat="36.907076041694964" lon="15.05052426509979"><ele>145.75</ele><time>2026-04-17T09:47:07Z</time></trkpt><trkpt lat="36.90710453194733" lon="15.050350815013743"><ele>147.0</ele><time>2026-04-17T09:47:08Z</time></trkpt><trkpt lat="36.90711396973094" lon="15.050221460628476"><ele>147.0</ele><time>2026-04-17T09:47:09Z</time></trkpt><trkpt lat="36.90713772097584" lon="15.050118339243511"><ele>147.0</ele><time>2026-04-17T09:47:10Z</time></trkpt><trkpt lat="36.90715167624472" lon="15.050030976657649"><ele>147.0</ele><time>2026-04-17T09:47:11Z</time></trkpt><trkpt lat="36.90717732079463" lon="15.049925380734932"><ele>147.0</ele><time>2026-04-17T09:47:13Z</time></trkpt><trkpt lat="36.90719939900028" lon="15.049830272434122"><ele>147.0</ele><time>2026-04-17T09:47:18Z</time></trkpt><trkpt lat="36.90716846169388" lon="15.049908058562673"><ele>147.0</ele><time>2026-04-17T09:47:22Z</time></trkpt><trkpt lat="36.90719689181462" lon="15.05001861386963"><ele>147.0</ele><time>2026-04-17T09:47:33Z</time></trkpt><trkpt lat="36.90723750511945" lon="15.050120939671181"><ele>147.0</ele><time>2026-04-17T09:47:34Z</time></trkpt><trkpt lat="36.90728613731768" lon="15.050254044216851"><ele>147.0</ele><time>2026-04-17T09:47:35Z</time></trkpt><trkpt lat="36.907338706363085" lon="15.050340772302507"><ele>147.0</ele><time>2026-04-17T09:47:36Z</time></trkpt><trkpt lat="36.906995344158695" lon="15.050788584058532"><ele>145.75</ele><time>2026-04-17T09:47:37Z</time></trkpt><trkpt lat="36.90695554686661" lon="15.050965119296595"><ele>144.5</ele><time>2026-04-17T09:47:38Z</time></trkpt><trkpt lat="36.906913207582576" lon="15.051125583469554"><ele>143.25</ele><time>2026-04-17T09:47:39Z</time></trkpt><trkpt lat="36.90684489998832" lon="15.051276133226711"><ele>142.0</ele><time>2026-04-17T09:47:40Z</time></trkpt><trkpt lat="36.90673288063348" lon="15.051425737413137"><ele>137.33333333333334</ele><time>2026-04-17T09:47:41Z</time></trkpt><trkpt lat="36.90661703475157" lon="15.05156526148162"><ele>132.66666666666666</ele><time>2026-04-17T09:47:42Z</time></trkpt><trkpt lat="36.9065143485099" lon="15.051699313848548"><ele>128.0</ele><time>2026-04-17T09:47:43Z</time></trkpt><trkpt lat="36.90639155872717" lon="15.051801576585737"><ele>127.0</ele><time>2026-04-17T09:47:44Z</time></trkpt><trkpt lat="36.90629622913431" lon="15.051928568142674"><ele>126.0</ele><time>2026-04-17T09:47:45Z</time></trkpt><trkpt lat="36.906204087463465" lon="15.052051312854271"><ele>125.0</ele><time>2026-04-17T09:47:46Z</time></trkpt><trkpt lat="36.90611537960608" lon="15.052168691598174"><ele>124.0</ele><time>2026-04-17T09:47:47Z</time></trkpt><trkpt lat="36.906031730596055" lon="15.052278895790204"><ele>124.0</ele><time>2026-04-17T09:47:48Z</time></trkpt><trkpt lat="36.90595157418466" lon="15.052384184878632"><ele>124.0</ele><time>2026-04-17T09:47:49Z</time></trkpt><trkpt lat="36.9058754789206" lon="15.052482968145428"><ele>124.0</ele><time>2026-04-17T09:47:50Z</time></trkpt><trkpt lat="36.90580449130708" lon="15.052575874664216"><ele>124.0</ele><time>2026-04-17T09:47:51Z</time></trkpt><trkpt lat="36.905733981062845" lon="15.052668478264657"><ele>124.0</ele><time>2026-04-17T09:47:52Z</time></trkpt><trkpt lat="36.905649727723976" lon="15.05277913121632"><ele>121.0</ele><time>2026-04-17T09:47:53Z</time></trkpt><trkpt lat="36.90555509209539" lon="15.052903419188072"><ele>118.0</ele><time>2026-04-17T09:47:54Z</time></trkpt><trkpt lat="36.90545039843574" lon="15.053041379192189"><ele>115.0</ele><time>2026-04-17T09:47:55Z</time></trkpt><trkpt lat="36.90533362101189" lon="15.053195171680304"><ele>114.66666666666667</ele><time>2026-04-17T09:47:56Z</time></trkpt><trkpt lat="36.90521234634937" lon="15.053359451230707"><ele>114.33333333333334</ele><time>2026-04-17T09:47:57Z</time></trkpt><trkpt lat="36.90508555490811" lon="15.053532097479666"><ele>114.0</ele><time>2026-04-17T09:47:58Z</time></trkpt><trkpt lat="36.90494861062637" lon="15.053718985759925"><ele>113.33333333333334</ele><time>2026-04-17T09:47:59Z</time></trkpt><trkpt lat="36.90480398129405" lon="15.05391236471"><ele>112.66666666666667</ele><time>2026-04-17T09:48:00Z</time></trkpt><trkpt lat="36.904645582180756" lon="15.054116743623087"><ele>112.0</ele><time>2026-04-17T09:48:01Z</time></trkpt><trkpt lat="36.90452252658034" lon="15.054277424475679"><ele>113.0</ele><time>2026-04-17T09:48:02Z</time></trkpt><trkpt lat="36.9044144503886" lon="15.054417069836846"><ele>114.0</ele><time>2026-04-17T09:48:03Z</time></trkpt><trkpt lat="36.90432977793429" lon="15.054538538279946"><ele>115.0</ele><time>2026-04-17T09:48:04Z</time></trkpt><trkpt lat="36.90426213535879" lon="15.054654040780944"><ele>116.0</ele><time>2026-04-17T09:48:05Z</time></trkpt><trkpt lat="36.90421896536026" lon="15.054776258853316"><ele>115.0</ele><time>2026-04-17T09:48:06Z</time></trkpt><trkpt lat="36.90418105686868" lon="15.054895916150642"><ele>114.0</ele><time>2026-04-17T09:48:07Z</time></trkpt><trkpt lat="36.9041444310288" lon="15.055020521828556"><ele>113.0</ele><time>2026-04-17T09:48:08Z</time></trkpt><trkpt lat="36.90410829660264" lon="15.055148760881913"><ele>112.0</ele><time>2026-04-17T09:48:09Z</time></trkpt><trkpt lat="36.904084044519635" lon="15.055298295240204"><ele>111.0</ele><time>2026-04-17T09:48:10Z</time></trkpt><trkpt lat="36.90402508962609" lon="15.0554485358888"><ele>111.0</ele><time>2026-04-17T09:48:11Z</time></trkpt><trkpt lat="36.90398121221315" lon="15.055611982118167"><ele>111.0</ele><time>2026-04-17T09:48:12Z</time></trkpt><trkpt lat="36.90393595799318" lon="15.055781712539272"><ele>111.0</ele><time>2026-04-17T09:48:13Z</time></trkpt><trkpt lat="36.903905350420224" lon="15.05596029063759"><ele>111.0</ele><time>2026-04-17T09:48:14Z</time></trkpt><trkpt lat="36.90385539018921" lon="15.056137754876284"><ele>111.66666666666666</ele><time>2026-04-17T09:48:15Z</time></trkpt><trkpt lat="36.90377900146936" lon="15.056306140251861"><ele>112.33333333333333</ele><time>2026-04-17T09:48:16Z</time></trkpt><trkpt lat="36.90370527200935" lon="15.056479887790811"><ele>113.0</ele><time>2026-04-17T09:48:17Z</time></trkpt><trkpt lat="36.90362429547927" lon="15.056658112940939"><ele>113.33333333333333</ele><time>2026-04-17T09:48:18Z</time></trkpt><trkpt lat="36.903547079258416" lon="15.056842518112392"><ele>113.66666666666666</ele><time>2026-04-17T09:48:19Z</time></trkpt><trkpt lat="36.903473250073226" lon="15.057028057900558"><ele>114.0</ele><time>2026-04-17T09:48:20Z</time></trkpt><trkpt lat="36.90340030934666" lon="15.05721874905411"><ele>114.0</ele><time>2026-04-17T09:48:21Z</time></trkpt><trkpt lat="36.90332958706917" lon="15.057410530847429"><ele>114.0</ele><time>2026-04-17T09:48:22Z</time></trkpt><trkpt lat="36.90325871675239" lon="15.05760271408389"><ele>114.0</ele><time>2026-04-17T09:48:23Z</time></trkpt><trkpt lat="36.90318821505196" lon="15.05779296068486"><ele>115.33333333333334</ele><time>2026-04-17T09:48:24Z</time></trkpt><trkpt lat="36.90311607490058" lon="15.0579840098156"><ele>116.66666666666667</ele><time>2026-04-17T09:48:25Z</time></trkpt><trkpt lat="36.90304360511955" lon="15.058169915362248"><ele>118.0</ele><time>2026-04-17T09:48:26Z</time></trkpt><trkpt lat="36.902971024046245" lon="15.058347930201078"><ele>121.33333333333334</ele><time>2026-04-17T09:48:27Z</time></trkpt><trkpt lat="36.90288974709569" lon="15.058509471438079"><ele>124.66666666666666</ele><time>2026-04-17T09:48:28Z</time></trkpt><trkpt lat="36.90278498922105" lon="15.05864994198726"><ele>128.0</ele><time>2026-04-17T09:48:29Z</time></trkpt><trkpt lat="36.90266208981745" lon="15.058783369733076"><ele>129.33333333333331</ele><time>2026-04-17T09:48:30Z</time></trkpt><trkpt lat="36.9025242831263" lon="15.05893287170494"><ele>130.66666666666666</ele><time>2026-04-17T09:48:31Z</time></trkpt><trkpt lat="36.90238463924056" lon="15.059080448939932"><ele>132.0</ele><time>2026-04-17T09:48:32Z</time></trkpt><trkpt lat="36.902256521580924" lon="15.059211622138525"><ele>132.0</ele><time>2026-04-17T09:48:33Z</time></trkpt><trkpt lat="36.90212797796469" lon="15.059338704621698"><ele>132.0</ele><time>2026-04-17T09:48:34Z</time></trkpt><trkpt lat="36.901998803284414" lon="15.059462196420919"><ele>132.0</ele><time>2026-04-17T09:48:35Z</time></trkpt><trkpt lat="36.901867717433085" lon="15.05958244511037"><ele>133.33333333333334</ele><time>2026-04-17T09:48:36Z</time></trkpt><trkpt lat="36.90172897285463" lon="15.059704409676806"><ele>134.66666666666669</ele><time>2026-04-17T09:48:37Z</time></trkpt><trkpt lat="36.90157959011894" lon="15.059830232189325"><ele>136.0</ele><time>2026-04-17T09:48:38Z</time></trkpt><trkpt lat="36.90142045210632" lon="15.059956189285456"><ele>136.0</ele><time>2026-04-17T09:48:39Z</time></trkpt><trkpt lat="36.901257019135315" lon="15.060082506652808"><ele>136.0</ele><time>2026-04-17T09:48:40Z</time></trkpt><trkpt lat="36.901090671971424" lon="15.060208030460007"><ele>136.0</ele><time>2026-04-17T09:48:41Z</time></trkpt><trkpt lat="36.900925032260005" lon="15.060347959254813"><ele>134.0</ele><time>2026-04-17T09:48:42Z</time></trkpt><trkpt lat="36.900773027688146" lon="15.060502535472386"><ele>132.0</ele><time>2026-04-17T09:48:43Z</time></trkpt><trkpt lat="36.90060013982116" lon="15.060618856659728"><ele>130.0</ele><time>2026-04-17T09:48:44Z</time></trkpt><trkpt lat="36.90044357883963" lon="15.060740634488681"><ele>132.66666666666669</ele><time>2026-04-17T09:48:45Z</time></trkpt><trkpt lat="36.90030233714606" lon="15.060850496498674"><ele>135.33333333333334</ele><time>2026-04-17T09:48:46Z</time></trkpt><trkpt lat="36.900171329944406" lon="15.060954246161073"><ele>138.0</ele><time>2026-04-17T09:48:47Z</time></trkpt><trkpt lat="36.900031801798626" lon="15.06107008527562"><ele>138.0</ele><time>2026-04-17T09:48:48Z</time></trkpt><trkpt lat="36.89988467663194" lon="15.061212216901703"><ele>138.0</ele><time>2026-04-17T09:48:49Z</time></trkpt><trkpt lat="36.899756831214845" lon="15.061366009747267"><ele>138.0</ele><time>2026-04-17T09:48:50Z</time></trkpt><trkpt lat="36.899640475102004" lon="15.061510787328217"><ele>137.5</ele><time>2026-04-17T09:48:51Z</time></trkpt><trkpt lat="36.89952639388085" lon="15.061634812646892"><ele>137.0</ele><time>2026-04-17T09:48:52Z</time></trkpt><trkpt lat="36.89940532380232" lon="15.061731554259119"><ele>136.5</ele><time>2026-04-17T09:48:53Z</time></trkpt><trkpt lat="36.89927802943112" lon="15.061811191411088"><ele>136.0</ele><time>2026-04-17T09:48:54Z</time></trkpt><trkpt lat="36.89914760228086" lon="15.061876011119535"><ele>135.25</ele><time>2026-04-17T09:48:55Z</time></trkpt><trkpt lat="36.89901116557388" lon="15.06192598279527"><ele>134.5</ele><time>2026-04-17T09:48:56Z</time></trkpt><trkpt lat="36.89887779649139" lon="15.061947756380118"><ele>133.75</ele><time>2026-04-17T09:48:57Z</time></trkpt><trkpt lat="36.89873481125445" lon="15.061952740640857"><ele>133.0</ele><time>2026-04-17T09:48:58Z</time></trkpt><trkpt lat="36.89857159239081" lon="15.061952250086913"><ele>132.0</ele><time>2026-04-17T09:48:59Z</time></trkpt><trkpt lat="36.89841682123761" lon="15.061946139025238"><ele>131.0</ele><time>2026-04-17T09:49:00Z</time></trkpt><trkpt lat="36.89827522412053" lon="15.061922342482307"><ele>130.0</ele><time>2026-04-17T09:49:01Z</time></trkpt><trkpt lat="36.89814702859573" lon="15.061884724823612"><ele>129.0</ele><time>2026-04-17T09:49:02Z</time></trkpt><trkpt lat="36.89800889356275" lon="15.061875233074858"><ele>129.0</ele><time>2026-04-17T09:49:03Z</time></trkpt><trkpt lat="36.89786846702548" lon="15.061895698260235"><ele>129.0</ele><time>2026-04-17T09:49:04Z</time></trkpt><trkpt lat="36.89774459856373" lon="15.061897269019367"><ele>129.0</ele><time>2026-04-17T09:49:05Z</time></trkpt><trkpt lat="36.897633269423025" lon="15.061893231118676"><ele>129.0</ele><time>2026-04-17T09:49:06Z</time></trkpt><trkpt lat="36.89753096598735" lon="15.061884095449443"><ele>126.5</ele><time>2026-04-17T09:49:07Z</time></trkpt><trkpt lat="36.8974226823554" lon="15.061875011087377"><ele>124.0</ele><time>2026-04-17T09:49:08Z</time></trkpt><trkpt lat="36.89731454867878" lon="15.061846591662922"><ele>121.5</ele><time>2026-04-17T09:49:09Z</time></trkpt><trkpt lat="36.89718132350922" lon="15.061832479508881"><ele>119.0</ele><time>2026-04-17T09:49:10Z</time></trkpt><trkpt lat="36.89700859860437" lon="15.061813082160734"><ele>119.0</ele><time>2026-04-17T09:49:11Z</time></trkpt><trkpt lat="36.89682013125738" lon="15.06179101578536"><ele>119.0</ele><time>2026-04-17T09:49:12Z</time></trkpt><trkpt lat="36.896615103947944" lon="15.061771073092377"><ele>119.0</ele><time>2026-04-17T09:49:13Z</time></trkpt><trkpt lat="36.89640687521314" lon="15.061752731847504"><ele>116.0</ele><time>2026-04-17T09:49:14Z</time></trkpt><trkpt lat="36.89621181458064" lon="15.061729420681665"><ele>113.0</ele><time>2026-04-17T09:49:15Z</time></trkpt><trkpt lat="36.89604526718078" lon="15.061710283662473"><ele>110.0</ele><time>2026-04-17T09:49:16Z</time></trkpt><trkpt lat="36.89589470153694" lon="15.061723911593582"><ele>110.0</ele><time>2026-04-17T09:49:17Z</time></trkpt><trkpt lat="36.89573927244671" lon="15.061746576474064"><ele>110.0</ele><time>2026-04-17T09:49:18Z</time></trkpt><trkpt lat="36.89557120729056" lon="15.06177837830869"><ele>110.0</ele><time>2026-04-17T09:49:19Z</time></trkpt><trkpt lat="36.89541764368884" lon="15.061820211774785"><ele>110.0</ele><time>2026-04-17T09:49:20Z</time></trkpt><trkpt lat="36.89527765733493" lon="15.061849547999712"><ele>110.0</ele><time>2026-04-17T09:49:21Z</time></trkpt><trkpt lat="36.8951614205217" lon="15.061856860678681"><ele>110.0</ele><time>2026-04-17T09:49:22Z</time></trkpt><trkpt lat="36.895050549015274" lon="15.061860082273975"><ele>110.0</ele><time>2026-04-17T09:49:23Z</time></trkpt><trkpt lat="36.894936761650605" lon="15.061868842386849"><ele>109.99999999999999</ele><time>2026-04-17T09:49:24Z</time></trkpt><trkpt lat="36.89483372019451" lon="15.061881543950953"><ele>110.0</ele><time>2026-04-17T09:49:25Z</time></trkpt><trkpt lat="36.89474015277527" lon="15.06190098292754"><ele>110.0</ele><time>2026-04-17T09:49:26Z</time></trkpt><trkpt lat="36.89467139933351" lon="15.061918206830427"><ele>110.0</ele><time>2026-04-17T09:49:27Z</time></trkpt><trkpt lat="36.894576036003244" lon="15.061928810245155"><ele>109.99999999999999</ele><time>2026-04-17T09:49:29Z</time></trkpt><trkpt lat="36.89451258227855" lon="15.06192759189061"><ele>110.0</ele><time>2026-04-17T09:49:31Z</time></trkpt><trkpt lat="36.89444088369831" lon="15.061938147841381"><ele>110.0</ele><time>2026-04-17T09:49:33Z</time></trkpt><trkpt lat="36.894302213740964" lon="15.061957237770375"><ele>110.0</ele><time>2026-04-17T09:49:35Z</time></trkpt><trkpt lat="36.894210387379616" lon="15.061960129219782"><ele>110.0</ele><time>2026-04-17T09:49:36Z</time></trkpt><trkpt lat="36.894113861766954" lon="15.06195292447218"><ele>110.0</ele><time>2026-04-17T09:49:37Z</time></trkpt><trkpt lat="36.89401416150567" lon="15.061929907825162"><ele>110.0</ele><time>2026-04-17T09:49:38Z</time></trkpt><trkpt lat="36.89388953709384" lon="15.061899816767788"><ele>110.25</ele><time>2026-04-17T09:49:39Z</time></trkpt><trkpt lat="36.89375579085968" lon="15.06186407776085"><ele>110.5</ele><time>2026-04-17T09:49:40Z</time></trkpt><trkpt lat="36.893619973979106" lon="15.061815191545149"><ele>110.75</ele><time>2026-04-17T09:49:41Z</time></trkpt><trkpt lat="36.89349882475928" lon="15.061755274452093"><ele>111.0</ele><time>2026-04-17T09:49:42Z</time></trkpt><trkpt lat="36.89338249949484" lon="15.061702875573122"><ele>111.4</ele><time>2026-04-17T09:49:43Z</time></trkpt><trkpt lat="36.89327233724505" lon="15.061667160636617"><ele>111.8</ele><time>2026-04-17T09:49:44Z</time></trkpt><trkpt lat="36.89316795704364" lon="15.061628689018004"><ele>112.20000000000002</ele><time>2026-04-17T09:49:45Z</time></trkpt><trkpt lat="36.893075352364825" lon="15.06158946776333"><ele>112.60000000000001</ele><time>2026-04-17T09:49:46Z</time></trkpt><trkpt lat="36.8929896067997" lon="15.061529724855902"><ele>113.0</ele><time>2026-04-17T09:49:47Z</time></trkpt><trkpt lat="36.89288914072346" lon="15.061486955550771"><ele>110.4</ele><time>2026-04-17T09:49:48Z</time></trkpt><trkpt lat="36.89277611549016" lon="15.061460045685367"><ele>107.80000000000001</ele><time>2026-04-17T09:49:49Z</time></trkpt><trkpt lat="36.89266886863862" lon="15.061454180532422"><ele>105.2</ele><time>2026-04-17T09:49:50Z</time></trkpt><trkpt lat="36.892569982324424" lon="15.061461867233836"><ele>102.6</ele><time>2026-04-17T09:49:51Z</time></trkpt><trkpt lat="36.892457049484065" lon="15.061481534989236"><ele>100.0</ele><time>2026-04-17T09:49:52Z</time></trkpt><trkpt lat="36.89233795050279" lon="15.06152626596034"><ele>99.0</ele><time>2026-04-17T09:49:53Z</time></trkpt><trkpt lat="36.89220775259562" lon="15.061584312795404"><ele>98.0</ele><time>2026-04-17T09:49:54Z</time></trkpt><trkpt lat="36.892091741239454" lon="15.061646483203097"><ele>97.0</ele><time>2026-04-17T09:49:55Z</time></trkpt><trkpt lat="36.891980357166325" lon="15.061716182127117"><ele>96.0</ele><time>2026-04-17T09:49:56Z</time></trkpt><trkpt lat="36.89186170258701" lon="15.061792611584783"><ele>96.0</ele><time>2026-04-17T09:49:57Z</time></trkpt><trkpt lat="36.89174340563562" lon="15.061873920061096"><ele>96.0</ele><time>2026-04-17T09:49:58Z</time></trkpt><trkpt lat="36.891632157062496" lon="15.061949620535707"><ele>96.0</ele><time>2026-04-17T09:49:59Z</time></trkpt><trkpt lat="36.89152217399146" lon="15.062022320060521"><ele>96.0</ele><time>2026-04-17T09:50:00Z</time></trkpt><trkpt lat="36.89140858892407" lon="15.062097400409824"><ele>96.0</ele><time>2026-04-17T09:50:01Z</time></trkpt><trkpt lat="36.891285551559314" lon="15.06217873217992"><ele>96.0</ele><time>2026-04-17T09:50:02Z</time></trkpt><trkpt lat="36.89117023394452" lon="15.062262350383957"><ele>96.0</ele><time>2026-04-17T09:50:03Z</time></trkpt><trkpt lat="36.89106294681383" lon="15.062340266107944"><ele>96.0</ele><time>2026-04-17T09:50:04Z</time></trkpt><trkpt lat="36.890965251798356" lon="15.06240513359898"><ele>95.5</ele><time>2026-04-17T09:50:05Z</time></trkpt><trkpt lat="36.89087393134526" lon="15.062467294800431"><ele>95.0</ele><time>2026-04-17T09:50:06Z</time></trkpt><trkpt lat="36.890792923961634" lon="15.062524959328794"><ele>94.5</ele><time>2026-04-17T09:50:07Z</time></trkpt><trkpt lat="36.89072829696069" lon="15.062573534714526"><ele>94.0</ele><time>2026-04-17T09:50:08Z</time></trkpt><trkpt lat="36.89066179760291" lon="15.06264878880441"><ele>93.5</ele><time>2026-04-17T09:50:10Z</time></trkpt><trkpt lat="36.890604777789655" lon="15.062686787973092"><ele>93.0</ele><time>2026-04-17T09:50:13Z</time></trkpt><trkpt lat="36.89053551857161" lon="15.062723987157202"><ele>93.0</ele><time>2026-04-17T09:50:15Z</time></trkpt><trkpt lat="36.8905457275477" lon="15.062885011694515"><ele>93.0</ele><time>2026-04-17T09:50:16Z</time></trkpt><trkpt lat="36.89052189596753" lon="15.063023036357498"><ele>93.0</ele><time>2026-04-17T09:50:17Z</time></trkpt><trkpt lat="36.89048757583043" lon="15.063174317804892"><ele>93.0</ele><time>2026-04-17T09:50:18Z</time></trkpt><trkpt lat="36.89044306714737" lon="15.063306731192585"><ele>94.2</ele><time>2026-04-17T09:50:19Z</time></trkpt><trkpt lat="36.89041325489286" lon="15.063443816215958"><ele>95.4</ele><time>2026-04-17T09:50:20Z</time></trkpt><trkpt lat="36.89040169551457" lon="15.06357533702134"><ele>96.60000000000001</ele><time>2026-04-17T09:50:21Z</time></trkpt><trkpt lat="36.89038052447244" lon="15.063681571689264"><ele>97.80000000000001</ele><time>2026-04-17T09:50:22Z</time></trkpt><trkpt lat="36.89036077034812" lon="15.06376885559159"><ele>99.0</ele><time>2026-04-17T09:50:23Z</time></trkpt><trkpt lat="36.89033840115622" lon="15.063890342284031"><ele>99.0</ele><time>2026-04-17T09:50:25Z</time></trkpt><trkpt lat="36.89031527596393" lon="15.063992995895772"><ele>99.0</ele><time>2026-04-17T09:50:27Z</time></trkpt><trkpt lat="36.89029337708625" lon="15.064107028775917"><ele>99.0</ele><time>2026-04-17T09:50:29Z</time></trkpt><trkpt lat="36.890274036764986" lon="15.064191148139457"><ele>99.0</ele><time>2026-04-17T09:50:31Z</time></trkpt><trkpt lat="36.890252154951014" lon="15.06429604285821"><ele>99.0</ele><time>2026-04-17T09:50:33Z</time></trkpt><trkpt lat="36.89023153238313" lon="15.064397154252875"><ele>99.0</ele><time>2026-04-17T09:50:35Z</time></trkpt><trkpt lat="36.890211586899945" lon="15.06449068449155"><ele>100.0</ele><time>2026-04-17T09:50:37Z</time></trkpt><trkpt lat="36.89019444813105" lon="15.064582278408324"><ele>101.0</ele><time>2026-04-17T09:50:39Z</time></trkpt><trkpt lat="36.890178482408544" lon="15.06467911663466"><ele>102.0</ele><time>2026-04-17T09:50:41Z</time></trkpt><trkpt lat="36.89014070690082" lon="15.06479788404775"><ele>103.0</ele><time>2026-04-17T09:50:43Z</time></trkpt><trkpt lat="36.89013202815902" lon="15.0649277118942"><ele>104.0</ele><time>2026-04-17T09:50:45Z</time></trkpt><trkpt lat="36.89010616214125" lon="15.065046506736547"><ele>104.0</ele><time>2026-04-17T09:50:47Z</time></trkpt><trkpt lat="36.890076682186454" lon="15.06518924117547"><ele>104.0</ele><time>2026-04-17T09:50:49Z</time></trkpt><trkpt lat="36.89004543083246" lon="15.065258077173532"><ele>104.0</ele><time>2026-04-17T09:50:50Z</time></trkpt><trkpt lat="36.890022192132" lon="15.065370322424148"><ele>104.0</ele><time>2026-04-17T09:50:52Z</time></trkpt><trkpt lat="36.88999573532433" lon="15.065495699729901"><ele>104.0</ele><time>2026-04-17T09:50:54Z</time></trkpt><trkpt lat="36.889970134964656" lon="15.065617711553656"><ele>104.0</ele><time>2026-04-17T09:50:56Z</time></trkpt><trkpt lat="36.88994366139027" lon="15.065743885122451"><ele>104.0</ele><time>2026-04-17T09:50:58Z</time></trkpt><trkpt lat="36.88992566049346" lon="15.065829677712019"><ele>104.0</ele><time>2026-04-17T09:50:59Z</time></trkpt><trkpt lat="36.889904711744556" lon="15.065921350959888"><ele>104.0</ele><time>2026-04-17T09:51:00Z</time></trkpt><trkpt lat="36.889898989359125" lon="15.066019357633571"><ele>104.0</ele><time>2026-04-17T09:51:01Z</time></trkpt><trkpt lat="36.8898632327825" lon="15.066178166960183"><ele>104.2</ele><time>2026-04-17T09:51:03Z</time></trkpt><trkpt lat="36.889828771744945" lon="15.066263376729262"><ele>104.4</ele><time>2026-04-17T09:51:04Z</time></trkpt><trkpt lat="36.88979617954857" lon="15.066407091064903"><ele>104.6</ele><time>2026-04-17T09:51:06Z</time></trkpt><trkpt lat="36.88976918665566" lon="15.066545240318101"><ele>104.8</ele><time>2026-04-17T09:51:08Z</time></trkpt><trkpt lat="36.88974351966368" lon="15.066634869945293"><ele>105.0</ele><time>2026-04-17T09:51:09Z</time></trkpt><trkpt lat="36.88970992379506" lon="15.066743156161523"><ele>105.2</ele><time>2026-04-17T09:51:10Z</time></trkpt><trkpt lat="36.8896775310739" lon="15.066893293659328"><ele>105.4</ele><time>2026-04-17T09:51:11Z</time></trkpt><trkpt lat="36.88965727479202" lon="15.067008561310896"><ele>105.6</ele><time>2026-04-17T09:51:12Z</time></trkpt><trkpt lat="36.88963042249208" lon="15.06713314458903"><ele>105.8</ele><time>2026-04-17T09:51:14Z</time></trkpt><trkpt lat="36.889585987519915" lon="15.06727587046538"><ele>106.0</ele><time>2026-04-17T09:51:16Z</time></trkpt><trkpt lat="36.88955668968659" lon="15.067393497765547"><ele>106.83333333333334</ele><time>2026-04-17T09:51:17Z</time></trkpt><trkpt lat="36.88953314595249" lon="15.067488105825097"><ele>107.66666666666667</ele><time>2026-04-17T09:51:18Z</time></trkpt><trkpt lat="36.88950076159742" lon="15.067615273332104"><ele>108.5</ele><time>2026-04-17T09:51:20Z</time></trkpt><trkpt lat="36.88947661499662" lon="15.067709741599334"><ele>109.33333333333334</ele><time>2026-04-17T09:51:22Z</time></trkpt><trkpt lat="36.889471643932374" lon="15.067792565409041"><ele>110.16666666666667</ele><time>2026-04-17T09:51:24Z</time></trkpt><trkpt lat="36.88944024907956" lon="15.067871680093312"><ele>111.0</ele><time>2026-04-17T09:51:26Z</time></trkpt><trkpt lat="36.88941333261608" lon="15.06800559568173"><ele>111.0</ele><time>2026-04-17T09:51:28Z</time></trkpt><trkpt lat="36.88936799544346" lon="15.068114095913904"><ele>111.0</ele><time>2026-04-17T09:51:30Z</time></trkpt><trkpt lat="36.8893438523777" lon="15.068203910853367"><ele>111.0</ele><time>2026-04-17T09:51:31Z</time></trkpt><trkpt lat="36.88933066236598" lon="15.06829970166363"><ele>111.0</ele><time>2026-04-17T09:51:32Z</time></trkpt><trkpt lat="36.88929992485724" lon="15.068428885571004"><ele>111.0</ele><time>2026-04-17T09:51:34Z</time></trkpt><trkpt lat="36.88926684291005" lon="15.068527884458083"><ele>111.0</ele><time>2026-04-17T09:51:36Z</time></trkpt><trkpt lat="36.88924513407549" lon="15.068602777414535"><ele>110.16666666666667</ele><time>2026-04-17T09:51:38Z</time></trkpt><trkpt lat="36.88920171866946" lon="15.068686060890727"><ele>109.33333333333334</ele><time>2026-04-17T09:51:40Z</time></trkpt><trkpt lat="36.8891661808354" lon="15.068822699960062"><ele>108.5</ele><time>2026-04-17T09:51:42Z</time></trkpt><trkpt lat="36.88912992741508" lon="15.068942878749597"><ele>107.66666666666667</ele><time>2026-04-17T09:51:43Z</time></trkpt><trkpt lat="36.8890961426081" lon="15.069038125683576"><ele>106.83333333333334</ele><time>2026-04-17T09:51:44Z</time></trkpt><trkpt lat="36.8890686547471" lon="15.069116249012803"><ele>106.0</ele><time>2026-04-17T09:51:45Z</time></trkpt><trkpt lat="36.889049410686525" lon="15.069191904476547"><ele>105.19999999999999</ele><time>2026-04-17T09:51:46Z</time></trkpt><trkpt lat="36.88901681368444" lon="15.06932871506535"><ele>104.39999999999999</ele><time>2026-04-17T09:51:48Z</time></trkpt><trkpt lat="36.88899394270391" lon="15.069404453711174"><ele>103.6</ele><time>2026-04-17T09:51:49Z</time></trkpt><trkpt lat="36.88895398375297" lon="15.069526583330822"><ele>102.8</ele><time>2026-04-17T09:51:51Z</time></trkpt><trkpt lat="36.888906575320206" lon="15.069636852728344"><ele>102.0</ele><time>2026-04-17T09:51:53Z</time></trkpt><trkpt lat="36.88885572857154" lon="15.069750824126544"><ele>102.0</ele><time>2026-04-17T09:51:55Z</time></trkpt><trkpt lat="36.88877812690652" lon="15.069881515918977"><ele>102.0</ele><time>2026-04-17T09:51:57Z</time></trkpt><trkpt lat="36.88870353564794" lon="15.069982573775773"><ele>102.0</ele><time>2026-04-17T09:51:59Z</time></trkpt><trkpt lat="36.88866263520053" lon="15.070045685367749"><ele>102.0</ele><time>2026-04-17T09:52:00Z</time></trkpt><trkpt lat="36.88860105056127" lon="15.07012935755079"><ele>102.0</ele><time>2026-04-17T09:52:02Z</time></trkpt><trkpt lat="36.888529333069755" lon="15.070224830542417"><ele>101.39999999999999</ele><time>2026-04-17T09:52:04Z</time></trkpt><trkpt lat="36.88846609614976" lon="15.070314797402245"><ele>100.8</ele><time>2026-04-17T09:52:06Z</time></trkpt><trkpt lat="36.88842783066774" lon="15.070382360966475"><ele>100.2</ele><time>2026-04-17T09:52:07Z</time></trkpt><trkpt lat="36.888357758399906" lon="15.070485671956586"><ele>99.6</ele><time>2026-04-17T09:52:08Z</time></trkpt><trkpt lat="36.88827230137722" lon="15.07060041449119"><ele>99.0</ele><time>2026-04-17T09:52:09Z</time></trkpt><trkpt lat="36.88817229117513" lon="15.070733015198158"><ele>97.75</ele><time>2026-04-17T09:52:10Z</time></trkpt><trkpt lat="36.88807590039782" lon="15.070844186874744"><ele>96.5</ele><time>2026-04-17T09:52:11Z</time></trkpt><trkpt lat="36.887988273988746" lon="15.070944947442788"><ele>95.25</ele><time>2026-04-17T09:52:12Z</time></trkpt><trkpt lat="36.88790634587991" lon="15.071042241783974"><ele>94.0</ele><time>2026-04-17T09:52:13Z</time></trkpt><trkpt lat="36.88781327168868" lon="15.071153644436768"><ele>94.0</ele><time>2026-04-17T09:52:14Z</time></trkpt><trkpt lat="36.88771262908683" lon="15.071275470590388"><ele>94.0</ele><time>2026-04-17T09:52:15Z</time></trkpt><trkpt lat="36.887621861272535" lon="15.071373883317777"><ele>94.0</ele><time>2026-04-17T09:52:16Z</time></trkpt><trkpt lat="36.88754599808743" lon="15.071462062956318"><ele>94.0</ele><time>2026-04-17T09:52:17Z</time></trkpt><trkpt lat="36.887470442968606" lon="15.071537292713904"><ele>93.66666666666666</ele><time>2026-04-17T09:52:18Z</time></trkpt><trkpt lat="36.88742768085914" lon="15.071658644027414"><ele>93.33333333333333</ele><time>2026-04-17T09:52:19Z</time></trkpt><trkpt lat="36.88738369169572" lon="15.071773282871105"><ele>93.0</ele><time>2026-04-17T09:52:20Z</time></trkpt><trkpt lat="36.88735048420875" lon="15.071879584079229"><ele>92.66666666666667</ele><time>2026-04-17T09:52:21Z</time></trkpt><trkpt lat="36.887318563781854" lon="15.071971866655266"><ele>92.33333333333334</ele><time>2026-04-17T09:52:22Z</time></trkpt><trkpt lat="36.88728708186368" lon="15.072049621696136"><ele>92.0</ele><time>2026-04-17T09:52:23Z</time></trkpt><trkpt lat="36.88726165379979" lon="15.072129627103568"><ele>92.0</ele><time>2026-04-17T09:52:24Z</time></trkpt><trkpt lat="36.887223053067515" lon="15.072194803303688"><ele>92.0</ele><time>2026-04-17T09:52:25Z</time></trkpt><trkpt lat="36.887191894846346" lon="15.072343338814125"><ele>92.0</ele><time>2026-04-17T09:52:27Z</time></trkpt><trkpt lat="36.887158491285334" lon="15.072422733057163"><ele>92.0</ele><time>2026-04-17T09:52:28Z</time></trkpt><trkpt lat="36.88712599201298" lon="15.072521632692084"><ele>92.0</ele><time>2026-04-17T09:52:29Z</time></trkpt><trkpt lat="36.88710175631254" lon="15.07260582259603"><ele>92.0</ele><time>2026-04-17T09:52:30Z</time></trkpt><trkpt lat="36.88706878986839" lon="15.072679138488205"><ele>91.6</ele><time>2026-04-17T09:52:31Z</time></trkpt><trkpt lat="36.88701951213246" lon="15.072830841101819"><ele>91.19999999999999</ele><time>2026-04-17T09:52:33Z</time></trkpt><trkpt lat="36.886986947107836" lon="15.07291897392965"><ele>90.8</ele><time>2026-04-17T09:52:34Z</time></trkpt><trkpt lat="36.886937321050105" lon="15.073055922940851"><ele>90.4</ele><time>2026-04-17T09:52:36Z</time></trkpt><trkpt lat="36.88691003849536" lon="15.073128224315386"><ele>90.0</ele><time>2026-04-17T09:52:37Z</time></trkpt><trkpt lat="36.88685948846981" lon="15.073208235185882"><ele>90.0</ele><time>2026-04-17T09:52:38Z</time></trkpt><trkpt lat="36.886798534837254" lon="15.073328382522197"><ele>90.0</ele><time>2026-04-17T09:52:39Z</time></trkpt><trkpt lat="36.886717470876555" lon="15.073460550004768"><ele>90.0</ele><time>2026-04-17T09:52:40Z</time></trkpt><trkpt lat="36.88664308510325" lon="15.073562486706594"><ele>90.0</ele><time>2026-04-17T09:52:41Z</time></trkpt><trkpt lat="36.88657392215034" lon="15.073647550421061"><ele>89.33333333333333</ele><time>2026-04-17T09:52:42Z</time></trkpt><trkpt lat="36.886509625131424" lon="15.073713888196327"><ele>88.66666666666667</ele><time>2026-04-17T09:52:43Z</time></trkpt><trkpt lat="36.88645030612944" lon="15.073775470675344"><ele>88.0</ele><time>2026-04-17T09:52:44Z</time></trkpt><trkpt lat="36.886370408830174" lon="15.07386031092502"><ele>87.33333333333334</ele><time>2026-04-17T09:52:46Z</time></trkpt><trkpt lat="36.88631832687545" lon="15.073920347741474"><ele>86.66666666666667</ele><time>2026-04-17T09:52:47Z</time></trkpt><trkpt lat="36.88625111683326" lon="15.074011751873929"><ele>86.0</ele><time>2026-04-17T09:52:48Z</time></trkpt><trkpt lat="36.886181172187605" lon="15.074117604400742"><ele>86.19999999999999</ele><time>2026-04-17T09:52:49Z</time></trkpt><trkpt lat="36.886130325720565" lon="15.074181151649746"><ele>86.39999999999999</ele><time>2026-04-17T09:52:50Z</time></trkpt><trkpt lat="36.886069051392084" lon="15.074246717364785"><ele>86.6</ele><time>2026-04-17T09:52:51Z</time></trkpt><trkpt lat="36.885972802389276" lon="15.074331604828556"><ele>86.8</ele><time>2026-04-17T09:52:52Z</time></trkpt><trkpt lat="36.88586509207684" lon="15.074410660854088"><ele>87.0</ele><time>2026-04-17T09:52:53Z</time></trkpt><trkpt lat="36.88578353910495" lon="15.074468650305468"><ele>87.0</ele><time>2026-04-17T09:52:54Z</time></trkpt><trkpt lat="36.88571138835183" lon="15.074518799542677"><ele>87.0</ele><time>2026-04-17T09:52:55Z</time></trkpt><trkpt lat="36.88563653782829" lon="15.074571350918493"><ele>87.0</ele><time>2026-04-17T09:52:56Z</time></trkpt><trkpt lat="36.885557409150934" lon="15.074634534534121"><ele>87.0</ele><time>2026-04-17T09:52:57Z</time></trkpt><trkpt lat="36.88546445094989" lon="15.074724957822106"><ele>87.0</ele><time>2026-04-17T09:52:58Z</time></trkpt><trkpt lat="36.88538973206924" lon="15.074809587985142"><ele>87.0</ele><time>2026-04-17T09:52:59Z</time></trkpt><trkpt lat="36.88531857573025" lon="15.074898207841471"><ele>87.0</ele><time>2026-04-17T09:53:00Z</time></trkpt><trkpt lat="36.88525016885061" lon="15.075002203187363"><ele>87.0</ele><time>2026-04-17T09:53:01Z</time></trkpt><trkpt lat="36.88519601955472" lon="15.075091983574959"><ele>87.0</ele><time>2026-04-17T09:53:02Z</time></trkpt><trkpt lat="36.88515540939193" lon="15.0751705981449"><ele>87.0</ele><time>2026-04-17T09:53:03Z</time></trkpt><trkpt lat="36.88510884478171" lon="15.075268359350032"><ele>86.8</ele><time>2026-04-17T09:53:05Z</time></trkpt><trkpt lat="36.88507017756751" lon="15.075350854175502"><ele>86.6</ele><time>2026-04-17T09:53:11Z</time></trkpt><trkpt lat="36.885027539487055" lon="15.07545118405277"><ele>86.39999999999999</ele><time>2026-04-17T09:53:14Z</time></trkpt><trkpt lat="36.8849842746859" lon="15.07555349619611"><ele>86.19999999999999</ele><time>2026-04-17T09:53:16Z</time></trkpt><trkpt lat="36.884928763001646" lon="15.075686898985651"><ele>86.0</ele><time>2026-04-17T09:53:18Z</time></trkpt><trkpt lat="36.884873184782855" lon="15.075826723402976"><ele>86.6</ele><time>2026-04-17T09:53:20Z</time></trkpt><trkpt lat="36.884809856722285" lon="15.075985659410952"><ele>87.19999999999999</ele><time>2026-04-17T09:53:22Z</time></trkpt><trkpt lat="36.88477094923253" lon="15.076084394016526"><ele>87.80000000000001</ele><time>2026-04-17T09:53:23Z</time></trkpt><trkpt lat="36.88473562532131" lon="15.07617621661767"><ele>88.4</ele><time>2026-04-17T09:53:24Z</time></trkpt><trkpt lat="36.88470771980117" lon="15.076248755516716"><ele>89.0</ele><time>2026-04-17T09:53:25Z</time></trkpt><trkpt lat="36.88465518892769" lon="15.076385306699416"><ele>89.0</ele><time>2026-04-17T09:53:27Z</time></trkpt><trkpt lat="36.8846275316685" lon="15.076457200256879"><ele>89.0</ele><time>2026-04-17T09:53:28Z</time></trkpt><trkpt lat="36.88458786782417" lon="15.076560304292599"><ele>89.0</ele><time>2026-04-17T09:53:30Z</time></trkpt><trkpt lat="36.88453779990525" lon="15.076692213396385"><ele>89.0</ele><time>2026-04-17T09:53:33Z</time></trkpt><trkpt lat="36.88450584269879" lon="15.076777242080281"><ele>89.0</ele><time>2026-04-17T09:53:35Z</time></trkpt><trkpt lat="36.88447084307032" lon="15.076870365749766"><ele>89.0</ele><time>2026-04-17T09:53:38Z</time></trkpt><trkpt lat="36.88442742193176" lon="15.07698589657074"><ele>88.75</ele><time>2026-04-17T09:53:40Z</time></trkpt><trkpt lat="36.884382974547066" lon="15.077104157921362"><ele>88.5</ele><time>2026-04-17T09:53:42Z</time></trkpt><trkpt lat="36.8843186695253" lon="15.077251788320154"><ele>88.25</ele><time>2026-04-17T09:53:44Z</time></trkpt><trkpt lat="36.884246605285405" lon="15.077362317112495"><ele>88.0</ele><time>2026-04-17T09:53:45Z</time></trkpt><trkpt lat="36.88409863841041" lon="15.077400242977511"><ele>89.33333333333333</ele><time>2026-04-17T09:53:46Z</time></trkpt><trkpt lat="36.88396680019117" lon="15.077503001686644"><ele>90.66666666666667</ele><time>2026-04-17T09:53:47Z</time></trkpt><trkpt lat="36.88389670210605" lon="15.077688912353004"><ele>92.0</ele><time>2026-04-17T09:53:48Z</time></trkpt><trkpt lat="36.883787565673444" lon="15.077779041614965"><ele>92.0</ele><time>2026-04-17T09:53:49Z</time></trkpt><trkpt lat="36.8836762417447" lon="15.077874470256797"><ele>92.0</ele><time>2026-04-17T09:53:50Z</time></trkpt><trkpt lat="36.8835527009088" lon="15.077993364662344"><ele>92.0</ele><time>2026-04-17T09:53:51Z</time></trkpt><trkpt lat="36.88342118928308" lon="15.07812525549484"><ele>89.66666666666667</ele><time>2026-04-17T09:53:52Z</time></trkpt><trkpt lat="36.88322032739694" lon="15.078168766449444"><ele>87.33333333333333</ele><time>2026-04-17T09:53:53Z</time></trkpt><trkpt lat="36.8830780235852" lon="15.078308938050696"><ele>85.0</ele><time>2026-04-17T09:53:54Z</time></trkpt><trkpt lat="36.882951110401805" lon="15.078437212314427"><ele>85.0</ele><time>2026-04-17T09:53:55Z</time></trkpt><trkpt lat="36.88283224866292" lon="15.07856616590594"><ele>85.0</ele><time>2026-04-17T09:53:56Z</time></trkpt><trkpt lat="36.882725361907774" lon="15.078692354808464"><ele>85.0</ele><time>2026-04-17T09:53:57Z</time></trkpt><trkpt lat="36.882623626069986" lon="15.078807832919063"><ele>85.0</ele><time>2026-04-17T09:53:58Z</time></trkpt><trkpt lat="36.88252598410265" lon="15.078918609725033"><ele>84.5</ele><time>2026-04-17T09:53:59Z</time></trkpt><trkpt lat="36.88243544700551" lon="15.079027772776177"><ele>84.0</ele><time>2026-04-17T09:54:00Z</time></trkpt><trkpt lat="36.88235307468716" lon="15.079131432322589"><ele>83.5</ele><time>2026-04-17T09:54:01Z</time></trkpt><trkpt lat="36.88227446442223" lon="15.079230357647047"><ele>83.0</ele><time>2026-04-17T09:54:02Z</time></trkpt><trkpt lat="36.882203987561766" lon="15.079325418343736"><ele>83.0</ele><time>2026-04-17T09:54:03Z</time></trkpt><trkpt lat="36.882135184507774" lon="15.079419982607238"><ele>83.0</ele><time>2026-04-17T09:54:04Z</time></trkpt><trkpt lat="36.88207022945593" lon="15.07951006514048"><ele>83.0</ele><time>2026-04-17T09:54:05Z</time></trkpt><trkpt lat="36.882006548579795" lon="15.079601693385781"><ele>83.0</ele><time>2026-04-17T09:54:06Z</time></trkpt><trkpt lat="36.881948269449644" lon="15.079685950901068"><ele>83.0</ele><time>2026-04-17T09:54:07Z</time></trkpt><trkpt lat="36.881890576293785" lon="15.079770078362149"><ele>83.0</ele><time>2026-04-17T09:54:08Z</time></trkpt><trkpt lat="36.88183651653017" lon="15.079849608260254"><ele>83.0</ele><time>2026-04-17T09:54:09Z</time></trkpt><trkpt lat="36.88178659541199" lon="15.079923049601389"><ele>83.0</ele><time>2026-04-17T09:54:10Z</time></trkpt><trkpt lat="36.881736775087326" lon="15.079996895730183"><ele>83.0</ele><time>2026-04-17T09:54:11Z</time></trkpt><trkpt lat="36.881674895311626" lon="15.080089340812588"><ele>83.0</ele><time>2026-04-17T09:54:12Z</time></trkpt><trkpt lat="36.88158020331615" lon="15.08023161174279"><ele>81.66666666666667</ele><time>2026-04-17T09:54:13Z</time></trkpt><trkpt lat="36.88147216435468" lon="15.080402046821842"><ele>80.33333333333333</ele><time>2026-04-17T09:54:14Z</time></trkpt><trkpt lat="36.8813813512803" lon="15.080562252756438"><ele>79.0</ele><time>2026-04-17T09:54:15Z</time></trkpt><trkpt lat="36.88134531130319" lon="15.080749668781124"><ele>79.5</ele><time>2026-04-17T09:54:16Z</time></trkpt><trkpt lat="36.88125451543213" lon="15.080876967290635"><ele>80.0</ele><time>2026-04-17T09:54:17Z</time></trkpt><trkpt lat="36.88117923158542" lon="15.081002244943237"><ele>80.5</ele><time>2026-04-17T09:54:18Z</time></trkpt><trkpt lat="36.881112305766145" lon="15.081113614157589"><ele>81.0</ele><time>2026-04-17T09:54:19Z</time></trkpt><trkpt lat="36.88106077305476" lon="15.081199368160124"><ele>81.0</ele><time>2026-04-17T09:54:20Z</time></trkpt><trkpt lat="36.88102207397744" lon="15.081263766123898"><ele>81.0</ele><time>2026-04-17T09:54:21Z</time></trkpt><trkpt lat="36.88118336696487" lon="15.08148606520436"><ele>81.0</ele><time>2026-04-17T09:54:24Z</time></trkpt><trkpt lat="36.881251520574786" lon="15.081544385936006"><ele>81.0</ele><time>2026-04-17T09:54:25Z</time></trkpt><trkpt lat="36.88127175014363" lon="15.08164660339827"><ele>79.6</ele><time>2026-04-17T09:54:26Z</time></trkpt><trkpt lat="36.88130909047194" lon="15.081764969905144"><ele>78.19999999999999</ele><time>2026-04-17T09:54:27Z</time></trkpt><trkpt lat="36.881355047266794" lon="15.081888126713757"><ele>76.80000000000001</ele><time>2026-04-17T09:54:28Z</time></trkpt><trkpt lat="36.881418591695024" lon="15.08200199941943"><ele>75.4</ele><time>2026-04-17T09:54:29Z</time></trkpt><trkpt lat="36.881478177956694" lon="15.082105603048205"><ele>74.0</ele><time>2026-04-17T09:54:30Z</time></trkpt><trkpt lat="36.88155797850488" lon="15.082219129228948"><ele>74.0</ele><time>2026-04-17T09:54:31Z</time></trkpt><trkpt lat="36.8816636653944" lon="15.082340345198837"><ele>74.0</ele><time>2026-04-17T09:54:32Z</time></trkpt><trkpt lat="36.88176741385216" lon="15.08242782015029"><ele>74.0</ele><time>2026-04-17T09:54:33Z</time></trkpt><trkpt lat="36.8818604044776" lon="15.082510407935725"><ele>74.0</ele><time>2026-04-17T09:54:34Z</time></trkpt><trkpt lat="36.88193304733874" lon="15.082607538074072"><ele>72.16666666666667</ele><time>2026-04-17T09:54:35Z</time></trkpt><trkpt lat="36.88199325948487" lon="15.082632432485289"><ele>70.33333333333334</ele><time>2026-04-17T09:54:36Z</time></trkpt><trkpt lat="36.88201079377791" lon="15.082793599644194"><ele>68.5</ele><time>2026-04-17T09:54:37Z</time></trkpt><trkpt lat="36.88206385390491" lon="15.082839842540466"><ele>66.66666666666667</ele><time>2026-04-17T09:54:38Z</time></trkpt><trkpt lat="36.882167430820736" lon="15.082835854572842"><ele>64.83333333333333</ele><time>2026-04-17T09:54:40Z</time></trkpt><trkpt lat="36.88223407144896" lon="15.08278122289044"><ele>63.0</ele><time>2026-04-17T09:54:41Z</time></trkpt><trkpt lat="36.882322330677574" lon="15.082719210974444"><ele>63.0</ele><time>2026-04-17T09:54:42Z</time></trkpt><trkpt lat="36.88240626388883" lon="15.082621478415096"><ele>63.0</ele><time>2026-04-17T09:54:43Z</time></trkpt><trkpt lat="36.882530390644796" lon="15.082589384238897"><ele>63.0</ele><time>2026-04-17T09:54:44Z</time></trkpt><trkpt lat="36.882653546842896" lon="15.082549052463904"><ele>63.0</ele><time>2026-04-17T09:54:45Z</time></trkpt><trkpt lat="36.882776369287825" lon="15.082517918326309"><ele>61.25</ele><time>2026-04-17T09:54:46Z</time></trkpt><trkpt lat="36.88289305986332" lon="15.082494716485622"><ele>59.5</ele><time>2026-04-17T09:54:47Z</time></trkpt><trkpt lat="36.883010054675005" lon="15.08247169181853"><ele>57.75</ele><time>2026-04-17T09:54:48Z</time></trkpt><trkpt lat="36.88313425234453" lon="15.082451603077162"><ele>56.0</ele><time>2026-04-17T09:54:49Z</time></trkpt><trkpt lat="36.88327354259341" lon="15.08244072659743"><ele>56.0</ele><time>2026-04-17T09:54:50Z</time></trkpt><trkpt lat="36.88342967521064" lon="15.082458093153004"><ele>56.0</ele><time>2026-04-17T09:54:51Z</time></trkpt><trkpt lat="36.883583897128155" lon="15.082507010047584"><ele>56.0</ele><time>2026-04-17T09:54:52Z</time></trkpt><trkpt lat="36.88373309415215" lon="15.082584924591357"><ele>54.66666666666667</ele><time>2026-04-17T09:54:53Z</time></trkpt><trkpt lat="36.88387364011154" lon="15.082683489540692"><ele>53.33333333333333</ele><time>2026-04-17T09:54:54Z</time></trkpt><trkpt lat="36.8839946607191" lon="15.082832309072723"><ele>52.0</ele><time>2026-04-17T09:54:55Z</time></trkpt><trkpt lat="36.884107358281454" lon="15.083002064183038"><ele>52.0</ele><time>2026-04-17T09:54:56Z</time></trkpt><trkpt lat="36.88422134959314" lon="15.083180679474104"><ele>52.0</ele><time>2026-04-17T09:54:57Z</time></trkpt><trkpt lat="36.88434181729604" lon="15.083344541137272"><ele>52.0</ele><time>2026-04-17T09:54:58Z</time></trkpt><trkpt lat="36.88445032961884" lon="15.08352070584088"><ele>52.666666666666664</ele><time>2026-04-17T09:54:59Z</time></trkpt><trkpt lat="36.88455983158122" lon="15.083693577394182"><ele>53.33333333333333</ele><time>2026-04-17T09:55:00Z</time></trkpt><trkpt lat="36.8846715975083" lon="15.083863358694938"><ele>54.0</ele><time>2026-04-17T09:55:01Z</time></trkpt><trkpt lat="36.88478877758493" lon="15.084042331962523"><ele>53.33333333333333</ele><time>2026-04-17T09:55:02Z</time></trkpt><trkpt lat="36.88491102388056" lon="15.08423366826764"><ele>52.666666666666664</ele><time>2026-04-17T09:55:03Z</time></trkpt><trkpt lat="36.88503558102775" lon="15.084428702064912"><ele>52.0</ele><time>2026-04-17T09:55:04Z</time></trkpt><trkpt lat="36.88516565223976" lon="15.084628502208151"><ele>52.0</ele><time>2026-04-17T09:55:05Z</time></trkpt><trkpt lat="36.88528167550986" lon="15.08484406842863"><ele>52.0</ele><time>2026-04-17T09:55:06Z</time></trkpt><trkpt lat="36.88541154492127" lon="15.085048073656937"><ele>52.0</ele><time>2026-04-17T09:55:07Z</time></trkpt><trkpt lat="36.88554221021385" lon="15.085253877145375"><ele>52.0</ele><time>2026-04-17T09:55:08Z</time></trkpt><trkpt lat="36.88567093241734" lon="15.08545662018249"><ele>52.0</ele><time>2026-04-17T09:55:09Z</time></trkpt><trkpt lat="36.885798077232565" lon="15.085656879555952"><ele>52.0</ele><time>2026-04-17T09:55:10Z</time></trkpt><trkpt lat="36.88591543892832" lon="15.085845685203108"><ele>54.0</ele><time>2026-04-17T09:55:11Z</time></trkpt><trkpt lat="36.88602167287319" lon="15.086027778411136"><ele>56.0</ele><time>2026-04-17T09:55:12Z</time></trkpt><trkpt lat="36.88611045949011" lon="15.08621425849509"><ele>58.0</ele><time>2026-04-17T09:55:13Z</time></trkpt><trkpt lat="36.88618325580803" lon="15.086430300359517"><ele>57.33333333333333</ele><time>2026-04-17T09:55:14Z</time></trkpt><trkpt lat="36.88623696916981" lon="15.086668270908582"><ele>56.66666666666667</ele><time>2026-04-17T09:55:15Z</time></trkpt><trkpt lat="36.8862656512346" lon="15.086921107797478"><ele>56.0</ele><time>2026-04-17T09:55:16Z</time></trkpt><trkpt lat="36.88628725631086" lon="15.08718670625442"><ele>57.66666666666667</ele><time>2026-04-17T09:55:17Z</time></trkpt><trkpt lat="36.886308829429964" lon="15.087465185081971"><ele>59.33333333333333</ele><time>2026-04-17T09:55:18Z</time></trkpt><trkpt lat="36.88633029184699" lon="15.08774508900593"><ele>61.0</ele><time>2026-04-17T09:55:19Z</time></trkpt><trkpt lat="36.88634909278632" lon="15.08803301588537"><ele>60.5</ele><time>2026-04-17T09:55:20Z</time></trkpt><trkpt lat="36.88636365499908" lon="15.0883210135852"><ele>60.0</ele><time>2026-04-17T09:55:21Z</time></trkpt><trkpt lat="36.88636989038743" lon="15.088607734653793"><ele>60.0</ele><time>2026-04-17T09:55:22Z</time></trkpt><trkpt lat="36.88636578417613" lon="15.088895130992846"><ele>60.0</ele><time>2026-04-17T09:55:23Z</time></trkpt><trkpt lat="36.88635497842992" lon="15.089184418211786"><ele>59.0</ele><time>2026-04-17T09:55:24Z</time></trkpt><trkpt lat="36.88634062393422" lon="15.08947807710629"><ele>58.0</ele><time>2026-04-17T09:55:25Z</time></trkpt><trkpt lat="36.886326108319196" lon="15.089774980617243"><ele>55.5</ele><time>2026-04-17T09:55:26Z</time></trkpt><trkpt lat="36.88631211533066" lon="15.090062981038638"><ele>53.0</ele><time>2026-04-17T09:55:27Z</time></trkpt><trkpt lat="36.886299165782646" lon="15.090345453830901"><ele>53.0</ele><time>2026-04-17T09:55:28Z</time></trkpt><trkpt lat="36.88627660505071" lon="15.090622857641838"><ele>53.0</ele><time>2026-04-17T09:55:29Z</time></trkpt><trkpt lat="36.88623344057836" lon="15.090893420055544"><ele>53.0</ele><time>2026-04-17T09:55:30Z</time></trkpt><trkpt lat="36.88616716134952" lon="15.091159839548652"><ele>52.0</ele><time>2026-04-17T09:55:31Z</time></trkpt><trkpt lat="36.886080932032414" lon="15.09141421845093"><ele>51.0</ele><time>2026-04-17T09:55:32Z</time></trkpt><trkpt lat="36.88598906223665" lon="15.091638673064875"><ele>50.0</ele><time>2026-04-17T09:55:33Z</time></trkpt><trkpt lat="36.885895147619486" lon="15.091860310058875"><ele>49.0</ele><time>2026-04-17T09:55:34Z</time></trkpt><trkpt lat="36.88580224057212" lon="15.092079569202784"><ele>48.0</ele><time>2026-04-17T09:55:35Z</time></trkpt><trkpt lat="36.88571677258269" lon="15.092292018179302"><ele>47.0</ele><time>2026-04-17T09:55:36Z</time></trkpt><trkpt lat="36.885652888703625" lon="15.092518415215455"><ele>49.0</ele><time>2026-04-17T09:55:37Z</time></trkpt><trkpt lat="36.885627102602484" lon="15.092743909078504"><ele>51.0</ele><time>2026-04-17T09:55:38Z</time></trkpt><trkpt lat="36.885636143782506" lon="15.092980801759484"><ele>53.0</ele><time>2026-04-17T09:55:39Z</time></trkpt><trkpt lat="36.88565869253855" lon="15.093224823099785"><ele>54.333333333333336</ele><time>2026-04-17T09:55:40Z</time></trkpt><trkpt lat="36.88567958330298" lon="15.093467720562517"><ele>55.66666666666667</ele><time>2026-04-17T09:55:41Z</time></trkpt><trkpt lat="36.88569647836769" lon="15.093708566342606"><ele>57.0</ele><time>2026-04-17T09:55:42Z</time></trkpt><trkpt lat="36.88569854385399" lon="15.09395551493491"><ele>57.66666666666667</ele><time>2026-04-17T09:55:43Z</time></trkpt><trkpt lat="36.88570229613733" lon="15.094211252046945"><ele>58.333333333333336</ele><time>2026-04-17T09:55:44Z</time></trkpt><trkpt lat="36.885643752873705" lon="15.094461935705825"><ele>59.0</ele><time>2026-04-17T09:55:45Z</time></trkpt><trkpt lat="36.88559704008327" lon="15.094709706018435"><ele>58.0</ele><time>2026-04-17T09:55:46Z</time></trkpt><trkpt lat="36.88546679604404" lon="15.09494893357878"><ele>57.0</ele><time>2026-04-17T09:55:47Z</time></trkpt><trkpt lat="36.885363937621705" lon="15.095190822847135"><ele>57.0</ele><time>2026-04-17T09:55:48Z</time></trkpt><trkpt lat="36.885258482204065" lon="15.095429485929493"><ele>57.0</ele><time>2026-04-17T09:55:49Z</time></trkpt><trkpt lat="36.88515775898338" lon="15.095664460210722"><ele>57.0</ele><time>2026-04-17T09:55:50Z</time></trkpt><trkpt lat="36.88506475597346" lon="15.095881655465432"><ele>56.33333333333333</ele><time>2026-04-17T09:55:51Z</time></trkpt><trkpt lat="36.88497022596951" lon="15.096096776701804"><ele>55.666666666666664</ele><time>2026-04-17T09:55:52Z</time></trkpt><trkpt lat="36.884881331722326" lon="15.096305385647899"><ele>55.0</ele><time>2026-04-17T09:55:53Z</time></trkpt><trkpt lat="36.88480266195434" lon="15.096514033029987"><ele>55.33333333333333</ele><time>2026-04-17T09:55:54Z</time></trkpt><trkpt lat="36.88475107562338" lon="15.096729960929464"><ele>55.66666666666667</ele><time>2026-04-17T09:55:55Z</time></trkpt><trkpt lat="36.88472535539052" lon="15.096940766341415"><ele>56.0</ele><time>2026-04-17T09:55:56Z</time></trkpt><trkpt lat="36.88472527394757" lon="15.097162524418696"><ele>56.0</ele><time>2026-04-17T09:55:57Z</time></trkpt><trkpt lat="36.88473561449034" lon="15.097392041538491"><ele>56.0</ele><time>2026-04-17T09:55:58Z</time></trkpt><trkpt lat="36.884746545545354" lon="15.097607521077581"><ele>56.0</ele><time>2026-04-17T09:55:59Z</time></trkpt><trkpt lat="36.884755595008784" lon="15.097812529862635"><ele>55.66666666666667</ele><time>2026-04-17T09:56:00Z</time></trkpt><trkpt lat="36.88476513065101" lon="15.098004899484506"><ele>55.33333333333333</ele><time>2026-04-17T09:56:01Z</time></trkpt><trkpt lat="36.8847755134557" lon="15.098193210359769"><ele>55.0</ele><time>2026-04-17T09:56:02Z</time></trkpt><trkpt lat="36.884785253073986" lon="15.098375782590379"><ele>54.5</ele><time>2026-04-17T09:56:03Z</time></trkpt><trkpt lat="36.884799636027864" lon="15.098551513590875"><ele>54.0</ele><time>2026-04-17T09:56:04Z</time></trkpt><trkpt lat="36.884842122035685" lon="15.098716186127636"><ele>53.5</ele><time>2026-04-17T09:56:05Z</time></trkpt><trkpt lat="36.88492340770296" lon="15.098862733318283"><ele>53.0</ele><time>2026-04-17T09:56:06Z</time></trkpt><trkpt lat="36.88503083616732" lon="15.098988196224685"><ele>53.25</ele><time>2026-04-17T09:56:07Z</time></trkpt><trkpt lat="36.88514670380538" lon="15.099080446682668"><ele>53.5</ele><time>2026-04-17T09:56:08Z</time></trkpt><trkpt lat="36.8852623987849" lon="15.099143935544735"><ele>53.75</ele><time>2026-04-17T09:56:09Z</time></trkpt><trkpt lat="36.885369835902026" lon="15.099200242492788"><ele>54.0</ele><time>2026-04-17T09:56:10Z</time></trkpt><trkpt lat="36.885468073304835" lon="15.099258334613173"><ele>54.0</ele><time>2026-04-17T09:56:11Z</time></trkpt><trkpt lat="36.885568540231525" lon="15.099318670166184"><ele>54.00000000000001</ele><time>2026-04-17T09:56:12Z</time></trkpt><trkpt lat="36.88567171585238" lon="15.099374148245763"><ele>54.00000000000001</ele><time>2026-04-17T09:56:13Z</time></trkpt><trkpt lat="36.88576472551511" lon="15.099421686738602"><ele>54.0</ele><time>2026-04-17T09:56:14Z</time></trkpt><trkpt lat="36.88584706068813" lon="15.099454595796212"><ele>54.0</ele><time>2026-04-17T09:56:15Z</time></trkpt><trkpt lat="36.885926913056416" lon="15.099479474670396"><ele>54.0</ele><time>2026-04-17T09:56:16Z</time></trkpt><trkpt lat="36.88601655189528" lon="15.099499643131352"><ele>54.00000000000001</ele><time>2026-04-17T09:56:17Z</time></trkpt><trkpt lat="36.886111754984995" lon="15.099511988329406"><ele>54.00000000000001</ele><time>2026-04-17T09:56:18Z</time></trkpt><trkpt lat="36.88620603593306" lon="15.099510557742768"><ele>54.0</ele><time>2026-04-17T09:56:19Z</time></trkpt><trkpt lat="36.88629853067352" lon="15.099490590400805"><ele>54.0</ele><time>2026-04-17T09:56:20Z</time></trkpt><trkpt lat="36.88638861858877" lon="15.099469372565864"><ele>54.0</ele><time>2026-04-17T09:56:21Z</time></trkpt><trkpt lat="36.88647910909378" lon="15.09945767475663"><ele>54.00000000000001</ele><time>2026-04-17T09:56:22Z</time></trkpt><trkpt lat="36.8865772493901" lon="15.099449218719219"><ele>54.00000000000001</ele><time>2026-04-17T09:56:23Z</time></trkpt><trkpt lat="36.886670767424" lon="15.099445318381468"><ele>54.0</ele><time>2026-04-17T09:56:24Z</time></trkpt><trkpt lat="36.88675610508343" lon="15.09945035771079"><ele>54.0</ele><time>2026-04-17T09:56:25Z</time></trkpt><trkpt lat="36.88684114425839" lon="15.099463008334691"><ele>54.0</ele><time>2026-04-17T09:56:26Z</time></trkpt><trkpt lat="36.88691958699365" lon="15.09948096847317"><ele>54.00000000000001</ele><time>2026-04-17T09:56:27Z</time></trkpt><trkpt lat="36.8869954094115" lon="15.099500450231695"><ele>54.00000000000001</ele><time>2026-04-17T09:56:28Z</time></trkpt><trkpt lat="36.887064000722894" lon="15.099512079882013"><ele>54.0</ele><time>2026-04-17T09:56:29Z</time></trkpt><trkpt lat="36.88717985179253" lon="15.09953347055006"><ele>54.0</ele><time>2026-04-17T09:56:31Z</time></trkpt><trkpt lat="36.88730543012796" lon="15.09956786369196"><ele>54.0</ele><time>2026-04-17T09:56:33Z</time></trkpt><trkpt lat="36.8873717616369" lon="15.099594183647088"><ele>54.00000000000001</ele><time>2026-04-17T09:56:34Z</time></trkpt><trkpt lat="36.887482663085684" lon="15.099634743265117"><ele>54.00000000000001</ele><time>2026-04-17T09:56:36Z</time></trkpt><trkpt lat="36.88754289059861" lon="15.099676094041595"><ele>54.0</ele><time>2026-04-17T09:56:38Z</time></trkpt><trkpt lat="36.88760696709152" lon="15.099720869962834"><ele>54.0</ele><time>2026-04-17T09:56:41Z</time></trkpt><trkpt lat="36.88774775870527" lon="15.099834095289356"><ele>51.5</ele><time>2026-04-17T10:13:15Z</time></trkpt><trkpt lat="36.8878264593556" lon="15.099940739767659"><ele>49.0</ele><time>2026-04-17T10:13:16Z</time></trkpt><trkpt lat="36.88790487464086" lon="15.100076513295937"><ele>46.5</ele><time>2026-04-17T10:13:17Z</time></trkpt><trkpt lat="36.8879714281482" lon="15.100239317626293"><ele>44.0</ele><time>2026-04-17T10:13:18Z</time></trkpt><trkpt lat="36.888043369203494" lon="15.100370256496975"><ele>44.0</ele><time>2026-04-17T10:13:19Z</time></trkpt><trkpt lat="36.88809529232278" lon="15.100484122300323"><ele>44.0</ele><time>2026-04-17T10:13:20Z</time></trkpt><trkpt lat="36.88811786068799" lon="15.100590724778646"><ele>44.0</ele><time>2026-04-17T10:13:21Z</time></trkpt><trkpt lat="36.888091227043546" lon="15.100710143858064"><ele>44.0</ele><time>2026-04-17T10:13:22Z</time></trkpt><trkpt lat="36.88803256534697" lon="15.100837409226587"><ele>44.0</ele><time>2026-04-17T10:13:23Z</time></trkpt><trkpt lat="36.887936742466415" lon="15.10096778495197"><ele>43.666666666666664</ele><time>2026-04-17T10:13:24Z</time></trkpt><trkpt lat="36.88782095319219" lon="15.101100821502824"><ele>43.333333333333336</ele><time>2026-04-17T10:13:25Z</time></trkpt><trkpt lat="36.8877004336636" lon="15.101229691453257"><ele>43.0</ele><time>2026-04-17T10:13:26Z</time></trkpt><trkpt lat="36.8875685827882" lon="15.101359281647134"><ele>43.0</ele><time>2026-04-17T10:13:27Z</time></trkpt><trkpt lat="36.887425042350934" lon="15.101481942401213"><ele>43.0</ele><time>2026-04-17T10:13:28Z</time></trkpt><trkpt lat="36.887305883081524" lon="15.101583285542803"><ele>43.0</ele><time>2026-04-17T10:13:29Z</time></trkpt><trkpt lat="36.887199018945765" lon="15.101689911979634"><ele>46.0</ele><time>2026-04-17T10:13:30Z</time></trkpt><trkpt lat="36.88710531046797" lon="15.101829224876907"><ele>49.0</ele><time>2026-04-17T10:13:31Z</time></trkpt><trkpt lat="36.88704659640754" lon="15.102015274693793"><ele>52.0</ele><time>2026-04-17T10:13:32Z</time></trkpt><trkpt lat="36.88702248107367" lon="15.102209136338253"><ele>54.33333333333333</ele><time>2026-04-17T10:13:33Z</time></trkpt><trkpt lat="36.88702600455373" lon="15.102422568939037"><ele>56.66666666666667</ele><time>2026-04-17T10:13:34Z</time></trkpt><trkpt lat="36.88704924130338" lon="15.102637890184525"><ele>59.0</ele><time>2026-04-17T10:13:35Z</time></trkpt><trkpt lat="36.887088629758445" lon="15.102838550495184"><ele>59.0</ele><time>2026-04-17T10:13:36Z</time></trkpt><trkpt lat="36.887150745223586" lon="15.103036658557219"><ele>59.0</ele><time>2026-04-17T10:13:37Z</time></trkpt><trkpt lat="36.88722872638112" lon="15.103218648123713"><ele>59.0</ele><time>2026-04-17T10:13:38Z</time></trkpt><trkpt lat="36.88734303400403" lon="15.103372249535626"><ele>58.0</ele><time>2026-04-17T10:13:39Z</time></trkpt><trkpt lat="36.88744863716199" lon="15.103517154000638"><ele>57.0</ele><time>2026-04-17T10:13:40Z</time></trkpt><trkpt lat="36.88753643872324" lon="15.103657735737666"><ele>56.0</ele><time>2026-04-17T10:13:41Z</time></trkpt><trkpt lat="36.887635426299404" lon="15.10378686372378"><ele>55.0</ele><time>2026-04-17T10:13:42Z</time></trkpt><trkpt lat="36.88773017957537" lon="15.103929647640422"><ele>55.666666666666664</ele><time>2026-04-17T10:13:43Z</time></trkpt><trkpt lat="36.88782317516759" lon="15.104096931933459"><ele>56.33333333333333</ele><time>2026-04-17T10:13:44Z</time></trkpt><trkpt lat="36.88791057149497" lon="15.1042813383519"><ele>57.0</ele><time>2026-04-17T10:13:45Z</time></trkpt><trkpt lat="36.88798560285858" lon="15.104472206160459"><ele>57.0</ele><time>2026-04-17T10:13:46Z</time></trkpt><trkpt lat="36.88804002142889" lon="15.10467330312025"><ele>57.0</ele><time>2026-04-17T10:13:47Z</time></trkpt><trkpt lat="36.88808613145176" lon="15.104891308702255"><ele>57.0</ele><time>2026-04-17T10:13:48Z</time></trkpt><trkpt lat="36.88812886283311" lon="15.10511319021699"><ele>56.33333333333333</ele><time>2026-04-17T10:13:49Z</time></trkpt><trkpt lat="36.888173993950105" lon="15.10535455506585"><ele>55.666666666666664</ele><time>2026-04-17T10:13:50Z</time></trkpt><trkpt lat="36.88821935139925" lon="15.10560277214529"><ele>55.0</ele><time>2026-04-17T10:13:51Z</time></trkpt><trkpt lat="36.888264171089375" lon="15.105848046363512"><ele>54.0</ele><time>2026-04-17T10:13:52Z</time></trkpt><trkpt lat="36.8883058410644" lon="15.106076083868844"><ele>53.0</ele><time>2026-04-17T10:13:53Z</time></trkpt><trkpt lat="36.88834348804084" lon="15.106290453562341"><ele>52.0</ele><time>2026-04-17T10:13:54Z</time></trkpt><trkpt lat="36.88837683024984" lon="15.106492823813026"><ele>51.33333333333333</ele><time>2026-04-17T10:13:55Z</time></trkpt><trkpt lat="36.88840778744213" lon="15.106686357876098"><ele>50.66666666666667</ele><time>2026-04-17T10:13:56Z</time></trkpt><trkpt lat="36.88843164673947" lon="15.10686920003022"><ele>50.0</ele><time>2026-04-17T10:13:57Z</time></trkpt><trkpt lat="36.88845250293459" lon="15.107048636264613"><ele>52.0</ele><time>2026-04-17T10:13:58Z</time></trkpt><trkpt lat="36.88846995259562" lon="15.107219724262574"><ele>54.0</ele><time>2026-04-17T10:13:59Z</time></trkpt><trkpt lat="36.88850881361707" lon="15.107401445268914"><ele>56.0</ele><time>2026-04-17T10:14:00Z</time></trkpt><trkpt lat="36.888566873079675" lon="15.107578617487059"><ele>58.0</ele><time>2026-04-17T10:14:01Z</time></trkpt><trkpt lat="36.88865509541002" lon="15.10775060803594"><ele>58.0</ele><time>2026-04-17T10:14:02Z</time></trkpt><trkpt lat="36.8887354393378" lon="15.10791405070468"><ele>58.0</ele><time>2026-04-17T10:14:03Z</time></trkpt><trkpt lat="36.88881533904649" lon="15.108059747510177"><ele>58.0</ele><time>2026-04-17T10:14:04Z</time></trkpt><trkpt lat="36.8889004949512" lon="15.108205406613115"><ele>58.0</ele><time>2026-04-17T10:14:05Z</time></trkpt><trkpt lat="36.888994585215556" lon="15.108335301688648"><ele>57.33333333333333</ele><time>2026-04-17T10:14:06Z</time></trkpt><trkpt lat="36.88909352403371" lon="15.1084510385267"><ele>56.66666666666667</ele><time>2026-04-17T10:14:07Z</time></trkpt><trkpt lat="36.88921278396848" lon="15.108572406757354"><ele>56.0</ele><time>2026-04-17T10:14:08Z</time></trkpt><trkpt lat="36.88934451008859" lon="15.108699494339445"><ele>57.66666666666667</ele><time>2026-04-17T10:14:09Z</time></trkpt><trkpt lat="36.889481088894044" lon="15.108827272235091"><ele>59.33333333333333</ele><time>2026-04-17T10:14:10Z</time></trkpt><trkpt lat="36.88960509552099" lon="15.108945863410234"><ele>61.0</ele><time>2026-04-17T10:14:11Z</time></trkpt><trkpt lat="36.889724859054525" lon="15.10907045583461"><ele>60.0</ele><time>2026-04-17T10:14:12Z</time></trkpt><trkpt lat="36.889844623262675" lon="15.109188666198033"><ele>59.0</ele><time>2026-04-17T10:14:13Z</time></trkpt><trkpt lat="36.88995753731299" lon="15.109310649345971"><ele>58.0</ele><time>2026-04-17T10:14:14Z</time></trkpt><trkpt lat="36.89006790704429" lon="15.109436603400551"><ele>57.33333333333333</ele><time>2026-04-17T10:14:15Z</time></trkpt><trkpt lat="36.89019582744766" lon="15.109566139147317"><ele>56.66666666666667</ele><time>2026-04-17T10:14:16Z</time></trkpt><trkpt lat="36.89033771153086" lon="15.109707513801355"><ele>56.0</ele><time>2026-04-17T10:14:17Z</time></trkpt><trkpt lat="36.89049018694939" lon="15.109846840618287"><ele>55.0</ele><time>2026-04-17T10:14:18Z</time></trkpt><trkpt lat="36.8906048383859" lon="15.109945619950922"><ele>54.0</ele><time>2026-04-17T10:14:19Z</time></trkpt><trkpt lat="36.89074840900077" lon="15.110067100574087"><ele>53.0</ele><time>2026-04-17T10:14:20Z</time></trkpt><trkpt lat="36.89087883993172" lon="15.110182493658659"><ele>54.66666666666667</ele><time>2026-04-17T10:14:21Z</time></trkpt><trkpt lat="36.89101089445793" lon="15.110310012390833"><ele>56.33333333333333</ele><time>2026-04-17T10:14:22Z</time></trkpt><trkpt lat="36.891140691641" lon="15.110441249951997"><ele>58.0</ele><time>2026-04-17T10:14:23Z</time></trkpt><trkpt lat="36.89126747691283" lon="15.110573614898502"><ele>58.0</ele><time>2026-04-17T10:14:24Z</time></trkpt><trkpt lat="36.89137992306928" lon="15.110694973694613"><ele>58.0</ele><time>2026-04-17T10:14:25Z</time></trkpt><trkpt lat="36.89148221053059" lon="15.110807515101584"><ele>58.0</ele><time>2026-04-17T10:14:26Z</time></trkpt><trkpt lat="36.89156517517475" lon="15.11089237100083"><ele>58.0</ele><time>2026-04-17T10:14:27Z</time></trkpt><trkpt lat="36.891626178929876" lon="15.11095563373258"><ele>58.2</ele><time>2026-04-17T10:14:28Z</time></trkpt><trkpt lat="36.89167380087921" lon="15.111009486547145"><ele>58.4</ele><time>2026-04-17T10:14:29Z</time></trkpt><trkpt lat="36.89173739183094" lon="15.111092054044306"><ele>58.60000000000001</ele><time>2026-04-17T10:14:30Z</time></trkpt><trkpt lat="36.89183176168533" lon="15.111211122040313"><ele>58.800000000000004</ele><time>2026-04-17T10:14:31Z</time></trkpt><trkpt lat="36.89194252129087" lon="15.111337779758607"><ele>59.0</ele><time>2026-04-17T10:14:32Z</time></trkpt><trkpt lat="36.89208213460384" lon="15.111432382781496"><ele>58.333333333333336</ele><time>2026-04-17T10:14:33Z</time></trkpt><trkpt lat="36.89220287506753" lon="15.111611623563917"><ele>57.66666666666667</ele><time>2026-04-17T10:14:34Z</time></trkpt><trkpt lat="36.89234907275591" lon="15.111754070755964"><ele>57.0</ele><time>2026-04-17T10:14:35Z</time></trkpt><trkpt lat="36.892505103160325" lon="15.111879160941246"><ele>57.0</ele><time>2026-04-17T10:14:36Z</time></trkpt><trkpt lat="36.892666815213815" lon="15.111988945007901"><ele>57.0</ele><time>2026-04-17T10:14:37Z</time></trkpt><trkpt lat="36.892854998737775" lon="15.112067307045542"><ele>57.0</ele><time>2026-04-17T10:14:38Z</time></trkpt><trkpt lat="36.89307118286206" lon="15.112129649356811"><ele>57.0</ele><time>2026-04-17T10:14:39Z</time></trkpt><trkpt lat="36.893298300627606" lon="15.112190256219728"><ele>57.0</ele><time>2026-04-17T10:14:40Z</time></trkpt><trkpt lat="36.89351148236568" lon="15.112243214172672"><ele>56.66666666666667</ele><time>2026-04-17T10:14:41Z</time></trkpt><trkpt lat="36.89371035024896" lon="15.112303289534994"><ele>56.333333333333336</ele><time>2026-04-17T10:14:42Z</time></trkpt><trkpt lat="36.89391116471084" lon="15.112369852520825"><ele>56.0</ele><time>2026-04-17T10:14:43Z</time></trkpt><trkpt lat="36.89410815031068" lon="15.112444852434091"><ele>56.0</ele><time>2026-04-17T10:14:44Z</time></trkpt><trkpt lat="36.89430991454254" lon="15.112529332862456"><ele>56.0</ele><time>2026-04-17T10:14:45Z</time></trkpt><trkpt lat="36.89451662283607" lon="15.112641549107403"><ele>56.0</ele><time>2026-04-17T10:14:46Z</time></trkpt><trkpt lat="36.894721774718235" lon="15.112780199511931"><ele>56.0</ele><time>2026-04-17T10:14:47Z</time></trkpt><trkpt lat="36.89492026177199" lon="15.11293569827138"><ele>56.0</ele><time>2026-04-17T10:14:48Z</time></trkpt><trkpt lat="36.89510925872123" lon="15.113106817987997"><ele>57.0</ele><time>2026-04-17T10:14:49Z</time></trkpt><trkpt lat="36.89529552778559" lon="15.113288173752414"><ele>58.0</ele><time>2026-04-17T10:14:50Z</time></trkpt><trkpt lat="36.895480985807524" lon="15.113490402236396"><ele>58.0</ele><time>2026-04-17T10:14:51Z</time></trkpt><trkpt lat="36.895663241097296" lon="15.113699503901442"><ele>58.0</ele><time>2026-04-17T10:14:52Z</time></trkpt><trkpt lat="36.89582981884431" lon="15.113889019712847"><ele>58.666666666666664</ele><time>2026-04-17T10:14:53Z</time></trkpt><trkpt lat="36.89598218668388" lon="15.114068169780085"><ele>59.33333333333333</ele><time>2026-04-17T10:14:54Z</time></trkpt><trkpt lat="36.89611505918102" lon="15.11424883939861"><ele>60.0</ele><time>2026-04-17T10:14:55Z</time></trkpt><trkpt lat="36.896227814641804" lon="15.114433090584168"><ele>60.0</ele><time>2026-04-17T10:14:56Z</time></trkpt><trkpt lat="36.896312138187945" lon="15.114640369572495"><ele>60.0</ele><time>2026-04-17T10:14:57Z</time></trkpt><trkpt lat="36.89636760036362" lon="15.114865229786451"><ele>60.0</ele><time>2026-04-17T10:14:58Z</time></trkpt><trkpt lat="36.896386445070824" lon="15.115037404602326"><ele>60.0</ele><time>2026-04-17T10:14:59Z</time></trkpt><trkpt lat="36.89640887726353" lon="15.115164363039193"><ele>60.0</ele><time>2026-04-17T10:15:00Z</time></trkpt><trkpt lat="36.89644030851599" lon="15.115269695597407"><ele>60.0</ele><time>2026-04-17T10:15:01Z</time></trkpt><trkpt lat="36.89645214868623" lon="15.115394467131646"><ele>60.0</ele><time>2026-04-17T10:15:03Z</time></trkpt><trkpt lat="36.89647583580474" lon="15.115473108411145"><ele>60.0</ele><time>2026-04-17T10:15:06Z</time></trkpt><trkpt lat="36.896457192894" lon="15.115365765412847"><ele>60.0</ele><time>2026-04-17T10:15:12Z</time></trkpt><trkpt lat="36.89644890739572" lon="15.115104632399499"><ele>60.0</ele><time>2026-04-17T10:15:13Z</time></trkpt><trkpt lat="36.89640548067378" lon="15.114899395559844"><ele>60.0</ele><time>2026-04-17T10:15:14Z</time></trkpt><trkpt lat="36.896351608839325" lon="15.114679581844491"><ele>60.0</ele><time>2026-04-17T10:15:15Z</time></trkpt><trkpt lat="36.89626650990573" lon="15.11445790736708"><ele>60.0</ele><time>2026-04-17T10:15:16Z</time></trkpt><trkpt lat="36.89614396391579" lon="15.114248567634995"><ele>60.0</ele><time>2026-04-17T10:15:17Z</time></trkpt><trkpt lat="36.89598090608627" lon="15.114038686557207"><ele>60.0</ele><time>2026-04-17T10:15:18Z</time></trkpt><trkpt lat="36.89580181466896" lon="15.11383380765738"><ele>59.0</ele><time>2026-04-17T10:15:19Z</time></trkpt><trkpt lat="36.895621562306445" lon="15.1136316226083"><ele>58.0</ele><time>2026-04-17T10:15:20Z</time></trkpt><trkpt lat="36.89546084521188" lon="15.113446833428391"><ele>58.0</ele><time>2026-04-17T10:15:21Z</time></trkpt><trkpt lat="36.89530641033111" lon="15.113271263051079"><ele>58.0</ele><time>2026-04-17T10:15:22Z</time></trkpt><trkpt lat="36.89514233529797" lon="15.11309974887326"><ele>58.0</ele><time>2026-04-17T10:15:23Z</time></trkpt><trkpt lat="36.89494808266311" lon="15.112931862679856"><ele>57.0</ele><time>2026-04-17T10:15:24Z</time></trkpt><trkpt lat="36.89472782622749" lon="15.112769489590928"><ele>56.0</ele><time>2026-04-17T10:15:25Z</time></trkpt><trkpt lat="36.894497679981114" lon="15.112612226954976"><ele>56.0</ele><time>2026-04-17T10:15:26Z</time></trkpt><trkpt lat="36.89425727774261" lon="15.11248591205149"><ele>56.0</ele><time>2026-04-17T10:15:27Z</time></trkpt><trkpt lat="36.89400269152653" lon="15.112353390578559"><ele>56.0</ele><time>2026-04-17T10:15:28Z</time></trkpt><trkpt lat="36.89372643349735" lon="15.112262851444063"><ele>56.0</ele><time>2026-04-17T10:15:29Z</time></trkpt><trkpt lat="36.89349203325664" lon="15.112193555019457"><ele>56.25</ele><time>2026-04-17T10:15:30Z</time></trkpt><trkpt lat="36.89330653858103" lon="15.112140392986175"><ele>56.5</ele><time>2026-04-17T10:15:31Z</time></trkpt><trkpt lat="36.893152850635985" lon="15.112112264699666"><ele>56.75</ele><time>2026-04-17T10:15:32Z</time></trkpt><trkpt lat="36.89305205710157" lon="15.112082410878989"><ele>57.0</ele><time>2026-04-17T10:15:33Z</time></trkpt><trkpt lat="36.89298134202121" lon="15.11206137867944"><ele>57.0</ele><time>2026-04-17T10:15:34Z</time></trkpt><trkpt lat="36.89307741670753" lon="15.112083304206433"><ele>57.0</ele><time>2026-04-17T10:15:45Z</time></trkpt><trkpt lat="36.89321509616971" lon="15.112181966720728"><ele>57.0</ele><time>2026-04-17T10:15:46Z</time></trkpt><trkpt lat="36.89335472939219" lon="15.112216143013153"><ele>57.0</ele><time>2026-04-17T10:15:47Z</time></trkpt><trkpt lat="36.89349901988827" lon="15.112260128607046"><ele>56.8</ele><time>2026-04-17T10:15:48Z</time></trkpt><trkpt lat="36.89362861075667" lon="15.112301501433606"><ele>56.6</ele><time>2026-04-17T10:15:49Z</time></trkpt><trkpt lat="36.89374298669597" lon="15.112338813757212"><ele>56.39999999999999</ele><time>2026-04-17T10:15:50Z</time></trkpt><trkpt lat="36.893824913332715" lon="15.1123788559026"><ele>56.199999999999996</ele><time>2026-04-17T10:15:51Z</time></trkpt><trkpt lat="36.89388479282996" lon="15.112415502441992"><ele>56.0</ele><time>2026-04-17T10:15:52Z</time></trkpt><trkpt lat="36.89391346650606" lon="15.11249401004792"><ele>55.5</ele><time>2026-04-17T10:15:54Z</time></trkpt><trkpt lat="36.89387482365518" lon="15.112568039378985"><ele>55.0</ele><time>2026-04-17T10:15:55Z</time></trkpt><trkpt lat="36.89376930389097" lon="15.11263791441376"><ele>54.5</ele><time>2026-04-17T10:15:56Z</time></trkpt><trkpt lat="36.893628596071096" lon="15.112655785043868"><ele>54.0</ele><time>2026-04-17T10:15:57Z</time></trkpt><trkpt lat="36.89351310960937" lon="15.112717735163494"><ele>54.25</ele><time>2026-04-17T10:15:58Z</time></trkpt><trkpt lat="36.89337794737907" lon="15.11273711615801"><ele>54.5</ele><time>2026-04-17T10:15:59Z</time></trkpt><trkpt lat="36.89322403735036" lon="15.11274743216178"><ele>54.75</ele><time>2026-04-17T10:16:00Z</time></trkpt><trkpt lat="36.89306839698492" lon="15.112765124287748"><ele>55.0</ele><time>2026-04-17T10:16:01Z</time></trkpt><trkpt lat="36.892918517900064" lon="15.112800014927634"><ele>55.0</ele><time>2026-04-17T10:16:02Z</time></trkpt><trkpt lat="36.89275440331979" lon="15.11286919167547"><ele>55.0</ele><time>2026-04-17T10:16:03Z</time></trkpt><trkpt lat="36.89258250026741" lon="15.112945391539322"><ele>55.0</ele><time>2026-04-17T10:16:04Z</time></trkpt><trkpt lat="36.89239930189456" lon="15.11301144754805"><ele>55.33333333333333</ele><time>2026-04-17T10:16:05Z</time></trkpt><trkpt lat="36.892225179219224" lon="15.113054385909047"><ele>55.66666666666667</ele><time>2026-04-17T10:16:06Z</time></trkpt><trkpt lat="36.89206565077899" lon="15.113077435965046"><ele>56.0</ele><time>2026-04-17T10:16:07Z</time></trkpt><trkpt lat="36.891902174975264" lon="15.113086244388708"><ele>56.333333333333336</ele><time>2026-04-17T10:16:08Z</time></trkpt><trkpt lat="36.891727861971304" lon="15.113082646505596"><ele>56.66666666666667</ele><time>2026-04-17T10:16:09Z</time></trkpt><trkpt lat="36.89156837543249" lon="15.113074266327953"><ele>57.0</ele><time>2026-04-17T10:16:10Z</time></trkpt><trkpt lat="36.89142057378139" lon="15.11306242133747"><ele>57.0</ele><time>2026-04-17T10:16:11Z</time></trkpt><trkpt lat="36.89128961011623" lon="15.113048234789295"><ele>57.0</ele><time>2026-04-17T10:16:12Z</time></trkpt><trkpt lat="36.8911729065571" lon="15.11302919949526"><ele>57.0</ele><time>2026-04-17T10:16:13Z</time></trkpt><trkpt lat="36.891065860201905" lon="15.11298973023551"><ele>57.0</ele><time>2026-04-17T10:16:14Z</time></trkpt><trkpt lat="36.89094896275751" lon="15.11292030114488"><ele>54.66666666666667</ele><time>2026-04-17T10:16:15.001Z</time></trkpt><trkpt lat="36.89080446796126" lon="15.112814939871202"><ele>52.333333333333336</ele><time>2026-04-17T10:16:16.001Z</time></trkpt><trkpt lat="36.89065268202966" lon="15.112681175260143"><ele>50.0</ele><time>2026-04-17T10:16:17.001Z</time></trkpt><trkpt lat="36.890501729246076" lon="15.112551658840326"><ele>50.0</ele><time>2026-04-17T10:16:18.001Z</time></trkpt><trkpt lat="36.89036671821868" lon="15.112447320143541"><ele>50.0</ele><time>2026-04-17T10:16:19.001Z</time></trkpt><trkpt lat="36.8902425352905" lon="15.112360065693279"><ele>50.0</ele><time>2026-04-17T10:16:20.001Z</time></trkpt><trkpt lat="36.89013315443097" lon="15.11229281374337"><ele>50.0</ele><time>2026-04-17T10:16:21.001Z</time></trkpt><trkpt lat="36.89003167193487" lon="15.112240828124541"><ele>49.25</ele><time>2026-04-17T10:16:22.001Z</time></trkpt><trkpt lat="36.88993692425438" lon="15.112196216742323"><ele>48.5</ele><time>2026-04-17T10:16:23.001Z</time></trkpt><trkpt lat="36.889816164983955" lon="15.112149269284094"><ele>47.75</ele><time>2026-04-17T10:16:24.001Z</time></trkpt><trkpt lat="36.88966260057748" lon="15.112112136927163"><ele>47.0</ele><time>2026-04-17T10:16:25.001Z</time></trkpt><trkpt lat="36.88951795760825" lon="15.112116793058398"><ele>47.0</ele><time>2026-04-17T10:16:26.001Z</time></trkpt><trkpt lat="36.889404716957664" lon="15.112121874733099"><ele>47.0</ele><time>2026-04-17T10:16:27.001Z</time></trkpt><trkpt lat="36.889318117338846" lon="15.11212877749134"><ele>47.0</ele><time>2026-04-17T10:16:28.001Z</time></trkpt><trkpt lat="36.88925012879248" lon="15.112134912174763"><ele>47.0</ele><time>2026-04-17T10:16:32.001Z</time></trkpt><trkpt lat="36.889178814829535" lon="15.11214134691549"><ele>47.0</ele><time>2026-04-17T10:16:35.001Z</time></trkpt><trkpt lat="36.88908251086506" lon="15.112149467789099"><ele>47.0</ele><time>2026-04-17T10:16:45Z</time></trkpt><trkpt lat="36.88900573706002" lon="15.112154644095328"><ele>47.0</ele><time>2026-04-17T10:16:47Z</time></trkpt><trkpt lat="36.88911740214191" lon="15.112148022673873"><ele>47.0</ele><time>2026-04-17T10:16:53Z</time></trkpt><trkpt lat="36.88921580340768" lon="15.112171871738964"><ele>47.0</ele><time>2026-04-17T10:16:54Z</time></trkpt><trkpt lat="36.889350875682304" lon="15.112155640727336"><ele>47.0</ele><time>2026-04-17T10:16:55Z</time></trkpt><trkpt lat="36.88948281080297" lon="15.11214742833607"><ele>47.0</ele><time>2026-04-17T10:16:56Z</time></trkpt><trkpt lat="36.88960895506978" lon="15.112145303087337"><ele>47.0</ele><time>2026-04-17T10:16:57Z</time></trkpt><trkpt lat="36.88972002348032" lon="15.112157617887032"><ele>47.0</ele><time>2026-04-17T10:16:58Z</time></trkpt><trkpt lat="36.88984687835352" lon="15.112193468518694"><ele>47.0</ele><time>2026-04-17T10:16:59Z</time></trkpt><trkpt lat="36.88996942821191" lon="15.112255802134262"><ele>48.0</ele><time>2026-04-17T10:17:00Z</time></trkpt><trkpt lat="36.89010474481989" lon="15.112324763566528"><ele>49.0</ele><time>2026-04-17T10:17:01Z</time></trkpt><trkpt lat="36.89025173900956" lon="15.112399958094125"><ele>50.0</ele><time>2026-04-17T10:17:02Z</time></trkpt><trkpt lat="36.89040392376263" lon="15.112507149577999"><ele>50.0</ele><time>2026-04-17T10:17:03Z</time></trkpt><trkpt lat="36.89054873946136" lon="15.11262841563277"><ele>50.0</ele><time>2026-04-17T10:17:04Z</time></trkpt><trkpt lat="36.89069751056833" lon="15.112764084055685"><ele>50.0</ele><time>2026-04-17T10:17:05Z</time></trkpt><trkpt lat="36.890827024732914" lon="15.112887462199435"><ele>51.75</ele><time>2026-04-17T10:17:06Z</time></trkpt><trkpt lat="36.89094787680545" lon="15.112986792574599"><ele>53.5</ele><time>2026-04-17T10:17:07Z</time></trkpt><trkpt lat="36.89106740809878" lon="15.113071009214412"><ele>55.25</ele><time>2026-04-17T10:17:08Z</time></trkpt><trkpt lat="36.89120236424645" lon="15.113120556653763"><ele>57.0</ele><time>2026-04-17T10:17:09Z</time></trkpt><trkpt lat="36.89135416486502" lon="15.113155607563593"><ele>57.0</ele><time>2026-04-17T10:17:10Z</time></trkpt><trkpt lat="36.89152145366617" lon="15.113169281673871"><ele>57.0</ele><time>2026-04-17T10:17:11Z</time></trkpt><trkpt lat="36.89170446604855" lon="15.113183447813405"><ele>57.0</ele><time>2026-04-17T10:17:12Z</time></trkpt><trkpt lat="36.89187919817821" lon="15.113186045990366"><ele>56.75</ele><time>2026-04-17T10:17:13Z</time></trkpt><trkpt lat="36.89203250825682" lon="15.113183284100405"><ele>56.5</ele><time>2026-04-17T10:17:14Z</time></trkpt><trkpt lat="36.892170625500626" lon="15.113164875930176"><ele>56.25</ele><time>2026-04-17T10:17:15Z</time></trkpt><trkpt lat="36.89231203086659" lon="15.113144939699337"><ele>56.0</ele><time>2026-04-17T10:17:16Z</time></trkpt><trkpt lat="36.892454973467416" lon="15.113103775878205"><ele>56.0</ele><time>2026-04-17T10:17:17Z</time></trkpt><trkpt lat="36.89257260670909" lon="15.113058489942512"><ele>55.99999999999999</ele><time>2026-04-17T10:17:18Z</time></trkpt><trkpt lat="36.89266343667155" lon="15.11301889089045"><ele>55.99999999999999</ele><time>2026-04-17T10:17:19Z</time></trkpt><trkpt lat="36.892742039097854" lon="15.112995458685836"><ele>56.0</ele><time>2026-04-17T10:17:20Z</time></trkpt><trkpt lat="36.89278938416685" lon="15.112919994029394"><ele>56.0</ele><time>2026-04-17T10:17:21Z</time></trkpt><trkpt lat="36.892894280408264" lon="15.112874729410084"><ele>55.8</ele><time>2026-04-17T10:17:23Z</time></trkpt><trkpt lat="36.892992732417035" lon="15.112833696523545"><ele>55.599999999999994</ele><time>2026-04-17T10:17:25Z</time></trkpt><trkpt lat="36.89309265522156" lon="15.112815665751762"><ele>55.4</ele><time>2026-04-17T10:17:27Z</time></trkpt><trkpt lat="36.89319884583424" lon="15.112798343987809"><ele>55.2</ele><time>2026-04-17T10:17:29Z</time></trkpt><trkpt lat="36.89328111154308" lon="15.112785957993868"><ele>55.0</ele><time>2026-04-17T10:17:30Z</time></trkpt><trkpt lat="36.89336717454276" lon="15.112780572850415"><ele>54.8</ele><time>2026-04-17T10:17:31Z</time></trkpt><trkpt lat="36.8934565935695" lon="15.11277673288581"><ele>54.6</ele><time>2026-04-17T10:17:32Z</time></trkpt><trkpt lat="36.893551819622644" lon="15.112756503013971"><ele>54.400000000000006</ele><time>2026-04-17T10:17:33Z</time></trkpt><trkpt lat="36.89365302998686" lon="15.112712432289612"><ele>54.2</ele><time>2026-04-17T10:17:34Z</time></trkpt><trkpt lat="36.893732323872634" lon="15.112666917328443"><ele>54.0</ele><time>2026-04-17T10:17:35Z</time></trkpt><trkpt lat="36.89379958548552" lon="15.112617969693687"><ele>54.0</ele><time>2026-04-17T10:17:36Z</time></trkpt><trkpt lat="36.89385875328705" lon="15.112580228351524"><ele>54.0</ele><time>2026-04-17T10:17:37Z</time></trkpt><trkpt lat="36.893935528777256" lon="15.112518215061925"><ele>54.0</ele><time>2026-04-17T10:17:39Z</time></trkpt><trkpt lat="36.89399162017177" lon="15.112469268128663"><ele>54.0</ele><time>2026-04-17T10:17:41Z</time></trkpt><trkpt lat="36.8940474021979" lon="15.11239363795458"><ele>54.0</ele><time>2026-04-17T10:17:43Z</time></trkpt><trkpt lat="36.8941410990934" lon="15.112452259609263"><ele>54.0</ele><time>2026-04-17T10:17:44Z</time></trkpt><trkpt lat="36.89422766453196" lon="15.112477890721967"><ele>54.5</ele><time>2026-04-17T10:17:45.001Z</time></trkpt><trkpt lat="36.894314970718376" lon="15.112521053579146"><ele>55.0</ele><time>2026-04-17T10:17:46.001Z</time></trkpt><trkpt lat="36.894415877928395" lon="15.112578911247075"><ele>55.5</ele><time>2026-04-17T10:17:47.001Z</time></trkpt><trkpt lat="36.89455403441874" lon="15.112661443282397"><ele>56.0</ele><time>2026-04-17T10:17:48.001Z</time></trkpt><trkpt lat="36.89470472095877" lon="15.1127608129748"><ele>56.0</ele><time>2026-04-17T10:17:49.001Z</time></trkpt><trkpt lat="36.89485742479939" lon="15.112872055643152"><ele>56.0</ele><time>2026-04-17T10:17:50.001Z</time></trkpt><trkpt lat="36.8949918818266" lon="15.112992471150145"><ele>56.0</ele><time>2026-04-17T10:17:51.001Z</time></trkpt><trkpt lat="36.895119072975156" lon="15.113108209206736"><ele>56.66666666666667</ele><time>2026-04-17T10:17:52.001Z</time></trkpt><trkpt lat="36.89524734902313" lon="15.113239924662022"><ele>57.33333333333333</ele><time>2026-04-17T10:17:53.001Z</time></trkpt><trkpt lat="36.89537659485717" lon="15.11339958438555"><ele>58.0</ele><time>2026-04-17T10:17:54.001Z</time></trkpt><trkpt lat="36.89550542717257" lon="15.113538198509012"><ele>58.0</ele><time>2026-04-17T10:17:55.001Z</time></trkpt><trkpt lat="36.895646249063105" lon="15.113694840353501"><ele>58.0</ele><time>2026-04-17T10:17:56.001Z</time></trkpt><trkpt lat="36.89579550185647" lon="15.113866956801115"><ele>58.0</ele><time>2026-04-17T10:17:57.001Z</time></trkpt><trkpt lat="36.89594301721038" lon="15.114045327650729"><ele>58.666666666666664</ele><time>2026-04-17T10:17:58.001Z</time></trkpt><trkpt lat="36.89607636195078" lon="15.114221906623262"><ele>59.33333333333333</ele><time>2026-04-17T10:17:59.001Z</time></trkpt><trkpt lat="36.896186797991085" lon="15.114386702054624"><ele>60.0</ele><time>2026-04-17T10:18:00.001Z</time></trkpt><trkpt lat="36.89627145180354" lon="15.11454889612136"><ele>60.0</ele><time>2026-04-17T10:18:01.001Z</time></trkpt><trkpt lat="36.89633007262627" lon="15.11471719333845"><ele>60.0</ele><time>2026-04-17T10:18:02.001Z</time></trkpt><trkpt lat="36.89636932073945" lon="15.114892241363492"><ele>60.0</ele><time>2026-04-17T10:18:03.001Z</time></trkpt><trkpt lat="36.89639658340091" lon="15.115094784215279"><ele>60.0</ele><time>2026-04-17T10:18:04.001Z</time></trkpt><trkpt lat="36.89644623301773" lon="15.115321335784241"><ele>60.0</ele><time>2026-04-17T10:18:05.001Z</time></trkpt><trkpt lat="36.89652303620781" lon="15.115557207998966"><ele>60.0</ele><time>2026-04-17T10:18:06.001Z</time></trkpt><trkpt lat="36.89659041998504" lon="15.115808494401122"><ele>59.0</ele><time>2026-04-17T10:18:07.001Z</time></trkpt><trkpt lat="36.89668040730537" lon="15.116051578545491"><ele>58.0</ele><time>2026-04-17T10:18:08.001Z</time></trkpt><trkpt lat="36.89678773421338" lon="15.11629467557906"><ele>57.0</ele><time>2026-04-17T10:18:09.001Z</time></trkpt><trkpt lat="36.89690410768852" lon="15.116548747720543"><ele>56.5</ele><time>2026-04-17T10:18:10.001Z</time></trkpt><trkpt lat="36.89702808304807" lon="15.116797937393411"><ele>56.0</ele><time>2026-04-17T10:18:11.001Z</time></trkpt><trkpt lat="36.897147476554025" lon="15.117046519937922"><ele>56.0</ele><time>2026-04-17T10:18:12.001Z</time></trkpt><trkpt lat="36.89725367686119" lon="15.117306007735726"><ele>56.0</ele><time>2026-04-17T10:18:13.001Z</time></trkpt><trkpt lat="36.897322657352106" lon="15.117588518751894"><ele>55.5</ele><time>2026-04-17T10:18:14.001Z</time></trkpt><trkpt lat="36.89740373058076" lon="15.117870979484302"><ele>55.0</ele><time>2026-04-17T10:18:15.001Z</time></trkpt><trkpt lat="36.897468004934545" lon="15.118161780548286"><ele>55.0</ele><time>2026-04-17T10:18:16.001Z</time></trkpt><trkpt lat="36.897548583413474" lon="15.118452355419674"><ele>55.0</ele><time>2026-04-17T10:18:17.001Z</time></trkpt><trkpt lat="36.897644284469024" lon="15.11873931811653"><ele>55.0</ele><time>2026-04-17T10:18:18.001Z</time></trkpt><trkpt lat="36.89774688570894" lon="15.119028088938213"><ele>55.0</ele><time>2026-04-17T10:18:19.001Z</time></trkpt><trkpt lat="36.897855106136696" lon="15.119307282664796"><ele>54.0</ele><time>2026-04-17T10:18:20.001Z</time></trkpt><trkpt lat="36.89796339585114" lon="15.119569978127524"><ele>53.0</ele><time>2026-04-17T10:18:21.001Z</time></trkpt><trkpt lat="36.89806778416392" lon="15.119822570075923"><ele>53.0</ele><time>2026-04-17T10:18:22.001Z</time></trkpt><trkpt lat="36.898171290487774" lon="15.12005149773494"><ele>53.0</ele><time>2026-04-17T10:18:23.001Z</time></trkpt><trkpt lat="36.89827954093639" lon="15.120260159963099"><ele>53.0</ele><time>2026-04-17T10:18:24.001Z</time></trkpt><trkpt lat="36.89840023249939" lon="15.120449895645109"><ele>52.66666666666667</ele><time>2026-04-17T10:18:25.001Z</time></trkpt><trkpt lat="36.89853403900239" lon="15.120623720526941"><ele>52.33333333333333</ele><time>2026-04-17T10:18:26.001Z</time></trkpt><trkpt lat="36.8986894984791" lon="15.120778856649814"><ele>52.0</ele><time>2026-04-17T10:18:27.001Z</time></trkpt><trkpt lat="36.89885213636499" lon="15.120918110948034"><ele>52.0</ele><time>2026-04-17T10:18:28.001Z</time></trkpt><trkpt lat="36.899005407452925" lon="15.121034671617467"><ele>52.0</ele><time>2026-04-17T10:18:29.001Z</time></trkpt><trkpt lat="36.89914381516559" lon="15.121149819688245"><ele>52.0</ele><time>2026-04-17T10:18:30.001Z</time></trkpt><trkpt lat="36.89926627906285" lon="15.121318570091676"><ele>52.0</ele><time>2026-04-17T10:18:31.001Z</time></trkpt><trkpt lat="36.89935661377206" lon="15.12153162123439"><ele>52.0</ele><time>2026-04-17T10:18:32.001Z</time></trkpt><trkpt lat="36.89947505227024" lon="15.121738594844944"><ele>52.0</ele><time>2026-04-17T10:18:33.001Z</time></trkpt><trkpt lat="36.899590871214855" lon="15.12198107780251"><ele>51.0</ele><time>2026-04-17T10:18:34.001Z</time></trkpt><trkpt lat="36.89971042656338" lon="15.122227300373444"><ele>50.0</ele><time>2026-04-17T10:18:35.001Z</time></trkpt><trkpt lat="36.89983265346613" lon="15.122481720519291"><ele>48.5</ele><time>2026-04-17T10:18:36.001Z</time></trkpt><trkpt lat="36.89994554214145" lon="15.122736890041539"><ele>47.0</ele><time>2026-04-17T10:18:37.001Z</time></trkpt><trkpt lat="36.90004112826239" lon="15.123029927658227"><ele>47.5</ele><time>2026-04-17T10:18:38.001Z</time></trkpt><trkpt lat="36.900158150052576" lon="15.123328125683017"><ele>48.0</ele><time>2026-04-17T10:18:39.001Z</time></trkpt><trkpt lat="36.90024741702851" lon="15.123626659641921"><ele>48.0</ele><time>2026-04-17T10:18:40.001Z</time></trkpt><trkpt lat="36.900339136573635" lon="15.123920327341628"><ele>48.0</ele><time>2026-04-17T10:18:41.001Z</time></trkpt><trkpt lat="36.90043985374275" lon="15.124219019300746"><ele>48.0</ele><time>2026-04-17T10:18:42.001Z</time></trkpt><trkpt lat="36.90054457952115" lon="15.12453012037866"><ele>48.0</ele><time>2026-04-17T10:18:43.001Z</time></trkpt><trkpt lat="36.900649208018194" lon="15.124839278971635"><ele>47.0</ele><time>2026-04-17T10:18:44Z</time></trkpt><trkpt lat="36.900751288475085" lon="15.125141843659385"><ele>46.0</ele><time>2026-04-17T10:18:45Z</time></trkpt><trkpt lat="36.90085175707785" lon="15.1254392055285"><ele>46.5</ele><time>2026-04-17T10:18:46Z</time></trkpt><trkpt lat="36.900941930359565" lon="15.125708801172827"><ele>47.0</ele><time>2026-04-17T10:18:47Z</time></trkpt><trkpt lat="36.90102844777666" lon="15.125964495122407"><ele>47.0</ele><time>2026-04-17T10:18:48Z</time></trkpt><trkpt lat="36.90112091743182" lon="15.126229641234069"><ele>47.0</ele><time>2026-04-17T10:18:49Z</time></trkpt><trkpt lat="36.90121930019887" lon="15.126476136288934"><ele>46.5</ele><time>2026-04-17T10:18:50Z</time></trkpt><trkpt lat="36.901322699051896" lon="15.126715344354158"><ele>46.0</ele><time>2026-04-17T10:18:51Z</time></trkpt><trkpt lat="36.90144462819137" lon="15.12699050579614"><ele>46.0</ele><time>2026-04-17T10:18:52Z</time></trkpt><trkpt lat="36.90156206210516" lon="15.127207179070556"><ele>46.0</ele><time>2026-04-17T10:18:53Z</time></trkpt><trkpt lat="36.90168363400113" lon="15.127426332496771"><ele>46.0</ele><time>2026-04-17T10:18:54Z</time></trkpt><trkpt lat="36.90179818728918" lon="15.127652026500948"><ele>45.66666666666667</ele><time>2026-04-17T10:18:55Z</time></trkpt><trkpt lat="36.90190155159333" lon="15.127868103995823"><ele>45.333333333333336</ele><time>2026-04-17T10:18:56Z</time></trkpt><trkpt lat="36.901996162875186" lon="15.128075387418127"><ele>45.0</ele><time>2026-04-17T10:18:57Z</time></trkpt><trkpt lat="36.90208221091857" lon="15.128272509596227"><ele>44.5</ele><time>2026-04-17T10:18:58Z</time></trkpt><trkpt lat="36.902169277563765" lon="15.128434164589825"><ele>44.0</ele><time>2026-04-17T10:18:59Z</time></trkpt><trkpt lat="36.902248949984376" lon="15.128578098532476"><ele>43.5</ele><time>2026-04-17T10:19:00Z</time></trkpt><trkpt lat="36.902327183301196" lon="15.128692678842748"><ele>43.0</ele><time>2026-04-17T10:19:01Z</time></trkpt><trkpt lat="36.9023895332565" lon="15.128779991836028"><ele>43.0</ele><time>2026-04-17T10:19:02Z</time></trkpt><trkpt lat="36.902430583016425" lon="15.128860913801656"><ele>43.0</ele><time>2026-04-17T10:19:03Z</time></trkpt><trkpt lat="36.902641719196744" lon="15.128761399306017"><ele>43.0</ele><time>2026-04-17T10:19:04Z</time></trkpt><trkpt lat="36.90272978857438" lon="15.128701629404908"><ele>43.0</ele><time>2026-04-17T10:19:05Z</time></trkpt><trkpt lat="36.902887894673306" lon="15.128648182134112"><ele>43.333333333333336</ele><time>2026-04-17T10:19:06Z</time></trkpt><trkpt lat="36.90306471522151" lon="15.12859499322899"><ele>43.666666666666664</ele><time>2026-04-17T10:19:07Z</time></trkpt><trkpt lat="36.90321667688629" lon="15.128550634026123"><ele>44.0</ele><time>2026-04-17T10:19:08Z</time></trkpt><trkpt lat="36.9033515172095" lon="15.128509712129867"><ele>44.75</ele><time>2026-04-17T10:19:09Z</time></trkpt><trkpt lat="36.90347344456453" lon="15.128472709114025"><ele>45.5</ele><time>2026-04-17T10:19:10Z</time></trkpt><trkpt lat="36.90357375167254" lon="15.128442551301887"><ele>46.25</ele><time>2026-04-17T10:19:11Z</time></trkpt><trkpt lat="36.90368879122322" lon="15.128408316829027"><ele>47.0</ele><time>2026-04-17T10:19:13Z</time></trkpt><trkpt lat="36.90379731749586" lon="15.12837712191409"><ele>47.0</ele><time>2026-04-17T10:19:14Z</time></trkpt><trkpt lat="36.90393602982277" lon="15.128336366928629"><ele>47.0</ele><time>2026-04-17T10:19:15Z</time></trkpt><trkpt lat="36.9040923612467" lon="15.12828870111452"><ele>47.0</ele><time>2026-04-17T10:19:16Z</time></trkpt><trkpt lat="36.90426142395643" lon="15.128239726296561"><ele>48.0</ele><time>2026-04-17T10:19:17Z</time></trkpt><trkpt lat="36.9044311713837" lon="15.12820299025901"><ele>49.0</ele><time>2026-04-17T10:19:18Z</time></trkpt><trkpt lat="36.90459006013807" lon="15.128187142987596"><ele>50.0</ele><time>2026-04-17T10:19:19Z</time></trkpt><trkpt lat="36.904744850125574" lon="15.12819568099659"><ele>50.0</ele><time>2026-04-17T10:19:20Z</time></trkpt><trkpt lat="36.90490771685414" lon="15.128168965020183"><ele>50.0</ele><time>2026-04-17T10:19:21Z</time></trkpt><trkpt lat="36.905080534798614" lon="15.128147475957578"><ele>50.0</ele><time>2026-04-17T10:19:22.001Z</time></trkpt><trkpt lat="36.90525021776646" lon="15.128129264736293"><ele>50.5</ele><time>2026-04-17T10:19:23.001Z</time></trkpt><trkpt lat="36.905418877748474" lon="15.128114597660261"><ele>51.0</ele><time>2026-04-17T10:19:24.001Z</time></trkpt><trkpt lat="36.90556831194094" lon="15.128107596791423"><ele>51.5</ele><time>2026-04-17T10:19:25.001Z</time></trkpt><trkpt lat="36.905684820764165" lon="15.128139238990741"><ele>52.0</ele><time>2026-04-17T10:19:26.001Z</time></trkpt><trkpt lat="36.905809601764815" lon="15.128132985792472"><ele>52.75</ele><time>2026-04-17T10:19:27.001Z</time></trkpt><trkpt lat="36.90595187079349" lon="15.128119826407119"><ele>53.5</ele><time>2026-04-17T10:19:28.001Z</time></trkpt><trkpt lat="36.90608219759629" lon="15.128110309503105"><ele>54.25</ele><time>2026-04-17T10:19:29.001Z</time></trkpt><trkpt lat="36.90619277801745" lon="15.128110293866913"><ele>55.0</ele><time>2026-04-17T10:19:30.001Z</time></trkpt><trkpt lat="36.906301262269615" lon="15.128106619261912"><ele>54.99999999999999</ele><time>2026-04-17T10:19:31.001Z</time></trkpt><trkpt lat="36.90639936538649" lon="15.12809327416232"><ele>55.0</ele><time>2026-04-17T10:19:32.001Z</time></trkpt><trkpt lat="36.906474527665324" lon="15.128074954400722"><ele>55.0</ele><time>2026-04-17T10:19:33.001Z</time></trkpt><trkpt lat="36.906540939366984" lon="15.12806458361156"><ele>55.0</ele><time>2026-04-17T10:19:34.001Z</time></trkpt><trkpt lat="36.906614019492565" lon="15.12805069445385"><ele>54.99999999999999</ele><time>2026-04-17T10:19:35.001Z</time></trkpt><trkpt lat="36.90668548733871" lon="15.12803548266152"><ele>55.0</ele><time>2026-04-17T10:19:36.001Z</time></trkpt><trkpt lat="36.90678583381034" lon="15.128008223049955"><ele>55.0</ele><time>2026-04-17T10:19:37.001Z</time></trkpt><trkpt lat="36.90690710160299" lon="15.12797475308512"><ele>55.0</ele><time>2026-04-17T10:19:38.001Z</time></trkpt><trkpt lat="36.90705121485069" lon="15.127907987412813"><ele>55.0</ele><time>2026-04-17T10:19:39.001Z</time></trkpt><trkpt lat="36.90720176824979" lon="15.127888872921389"><ele>55.0</ele><time>2026-04-17T10:19:40.001Z</time></trkpt><trkpt lat="36.90734218473486" lon="15.127837221693294"><ele>55.0</ele><time>2026-04-17T10:19:41.001Z</time></trkpt><trkpt lat="36.9074754058235" lon="15.127794341100936"><ele>55.0</ele><time>2026-04-17T10:19:42.001Z</time></trkpt><trkpt lat="36.90756819213116" lon="15.127771537590476"><ele>55.0</ele><time>2026-04-17T10:19:43.001Z</time></trkpt><trkpt lat="36.90767921754709" lon="15.12775664407113"><ele>55.0</ele><time>2026-04-17T10:19:44.001Z</time></trkpt><trkpt lat="36.90776198063137" lon="15.127747021347934"><ele>55.0</ele><time>2026-04-17T10:19:45.001Z</time></trkpt><trkpt lat="36.90782498770452" lon="15.127724789591857"><ele>55.0</ele><time>2026-04-17T10:19:46.001Z</time></trkpt><trkpt lat="36.907909960472054" lon="15.127737084001495"><ele>55.0</ele><time>2026-04-17T10:19:48.001Z</time></trkpt><trkpt lat="36.907863582368726" lon="15.127843369684365"><ele>55.0</ele><time>2026-04-17T10:19:49.001Z</time></trkpt><trkpt lat="36.90791229592907" lon="15.128062366615396"><ele>55.0</ele><time>2026-04-17T10:19:51.001Z</time></trkpt><trkpt lat="36.90793320759986" lon="15.128156670584683"><ele>55.0</ele><time>2026-04-17T10:19:52.001Z</time></trkpt><trkpt lat="36.90793897783648" lon="15.128270644965083"><ele>55.0</ele><time>2026-04-17T10:19:54.001Z</time></trkpt><trkpt lat="36.9078289194433" lon="15.128337201783317"><ele>55.0</ele><time>2026-04-17T10:19:55.001Z</time></trkpt><trkpt lat="36.90778372025148" lon="15.128418753829369"><ele>55.0</ele><time>2026-04-17T10:19:56.001Z</time></trkpt><trkpt lat="36.90772954395499" lon="15.12852152983849"><ele>55.0</ele><time>2026-04-17T10:19:58.001Z</time></trkpt><trkpt lat="36.90780850887318" lon="15.128621440290335"><ele>55.0</ele><time>2026-04-17T10:19:59.001Z</time></trkpt><trkpt lat="36.90783384661062" lon="15.128696627384516"><ele>55.0</ele><time>2026-04-17T10:20:00.001Z</time></trkpt><trkpt lat="36.90783680203059" lon="15.128782076998787"><ele>55.0</ele><time>2026-04-17T10:21:07Z</time></trkpt></trkseg></trk></gpx>